<?xml version="1.0" encoding="UTF-8" standalone="no" ?>
<gpx xmlns="http://www.topografix.com/GPX/1/1" xmlns:xsi="http://www.w3.org/2001/XMLSchema-instance" xsi:schemaLocation="http://www.topografix.com/GPX/1/1 http://www.topografix.com/GPX/1/1/gpx.xsd" version="1.1" creator="VisuGPX - https://www.visugpx.com">
  <metadata>
    <name>Sortie RL 08-02-2026 - Cabane de Jaut</name>
  </metadata>
  <trk>
    <name><![CDATA[Cabane de Jaut 2026-02-08]]></name>
    <extensions>
      <line xmlns="http://www.topografix.com/GPX/gpx_style/0/2">
        <width>2</width>
      </line>
    </extensions>
    <trkseg>
      <trkpt lat="43.03717" lon="-0.33184">
        <ele>1450.2</ele>
        <time>2026-02-08T08:58:35.000Z</time>
      </trkpt>
      <trkpt lat="43.03717" lon="-0.33184">
        <ele>1450.2</ele>
        <time>2026-02-08T08:58:36.000Z</time>
      </trkpt>
      <trkpt lat="43.03717" lon="-0.33184">
        <ele>1450.2</ele>
        <time>2026-02-08T08:58:39.000Z</time>
      </trkpt>
      <trkpt lat="43.03717" lon="-0.33184">
        <ele>1450.2</ele>
        <time>2026-02-08T08:58:42.000Z</time>
      </trkpt>
      <trkpt lat="43.03717" lon="-0.33184">
        <ele>1450.2</ele>
        <time>2026-02-08T08:58:45.000Z</time>
      </trkpt>
      <trkpt lat="43.03717" lon="-0.33184">
        <ele>1450.2</ele>
        <time>2026-02-08T08:58:48.000Z</time>
      </trkpt>
      <trkpt lat="43.03717" lon="-0.33184">
        <ele>1450.2</ele>
        <time>2026-02-08T08:58:48.000Z</time>
      </trkpt>
      <trkpt lat="43.03717" lon="-0.33184">
        <ele>1450.2</ele>
        <time>2026-02-08T08:58:51.000Z</time>
      </trkpt>
      <trkpt lat="43.03716" lon="-0.33184">
        <ele>1450.2</ele>
        <time>2026-02-08T08:58:54.000Z</time>
      </trkpt>
      <trkpt lat="43.03717" lon="-0.33185">
        <ele>1450.2</ele>
        <time>2026-02-08T08:58:57.000Z</time>
      </trkpt>
      <trkpt lat="43.03718" lon="-0.33184">
        <ele>1450.2</ele>
        <time>2026-02-08T08:59:00.000Z</time>
      </trkpt>
      <trkpt lat="43.03719" lon="-0.33184">
        <ele>1450.3</ele>
        <time>2026-02-08T08:59:03.000Z</time>
      </trkpt>
      <trkpt lat="43.03717" lon="-0.33184">
        <ele>1450.3</ele>
        <time>2026-02-08T08:59:06.000Z</time>
      </trkpt>
      <trkpt lat="43.03717" lon="-0.33182">
        <ele>1450.3</ele>
        <time>2026-02-08T08:59:09.000Z</time>
      </trkpt>
      <trkpt lat="43.03717" lon="-0.33182">
        <ele>1450.3</ele>
        <time>2026-02-08T08:59:12.000Z</time>
      </trkpt>
      <trkpt lat="43.03717" lon="-0.33182">
        <ele>1450.3</ele>
        <time>2026-02-08T08:59:15.000Z</time>
      </trkpt>
      <trkpt lat="43.03717" lon="-0.33182">
        <ele>1450.3</ele>
        <time>2026-02-08T08:59:17.000Z</time>
      </trkpt>
      <trkpt lat="43.03717" lon="-0.33182">
        <ele>1450.3</ele>
        <time>2026-02-08T08:59:18.000Z</time>
      </trkpt>
      <trkpt lat="43.03717" lon="-0.33182">
        <ele>1450.3</ele>
        <time>2026-02-08T08:59:21.000Z</time>
      </trkpt>
      <trkpt lat="43.03717" lon="-0.33182">
        <ele>1450.2</ele>
        <time>2026-02-08T08:59:24.000Z</time>
      </trkpt>
      <trkpt lat="43.03718" lon="-0.33183">
        <ele>1450.2</ele>
        <time>2026-02-08T08:59:27.000Z</time>
      </trkpt>
      <trkpt lat="43.03719" lon="-0.33184">
        <ele>1450.2</ele>
        <time>2026-02-08T08:59:28.000Z</time>
      </trkpt>
      <trkpt lat="43.03721" lon="-0.33187">
        <ele>1450.2</ele>
        <time>2026-02-08T08:59:31.000Z</time>
      </trkpt>
      <trkpt lat="43.03722" lon="-0.33191">
        <ele>1450.2</ele>
        <time>2026-02-08T08:59:34.000Z</time>
      </trkpt>
      <trkpt lat="43.03723" lon="-0.33194">
        <ele>1450.3</ele>
        <time>2026-02-08T08:59:37.000Z</time>
      </trkpt>
      <trkpt lat="43.03724" lon="-0.33196">
        <ele>1450.4</ele>
        <time>2026-02-08T08:59:40.000Z</time>
      </trkpt>
      <trkpt lat="43.03725" lon="-0.33199">
        <ele>1450.6</ele>
        <time>2026-02-08T08:59:43.000Z</time>
      </trkpt>
      <trkpt lat="43.03725" lon="-0.33202">
        <ele>1450.8</ele>
        <time>2026-02-08T08:59:46.000Z</time>
      </trkpt>
      <trkpt lat="43.03725" lon="-0.33205">
        <ele>1451.2</ele>
        <time>2026-02-08T08:59:49.000Z</time>
      </trkpt>
      <trkpt lat="43.03726" lon="-0.33207">
        <ele>1451.7</ele>
        <time>2026-02-08T08:59:52.000Z</time>
      </trkpt>
      <trkpt lat="43.03727" lon="-0.33209">
        <ele>1452.5</ele>
        <time>2026-02-08T08:59:55.000Z</time>
      </trkpt>
      <trkpt lat="43.03728" lon="-0.33212">
        <ele>1453.2</ele>
        <time>2026-02-08T08:59:58.000Z</time>
      </trkpt>
      <trkpt lat="43.0373" lon="-0.33214">
        <ele>1454</ele>
        <time>2026-02-08T09:00:01.000Z</time>
      </trkpt>
      <trkpt lat="43.03731" lon="-0.33217">
        <ele>1454.8</ele>
        <time>2026-02-08T09:00:04.000Z</time>
      </trkpt>
      <trkpt lat="43.03732" lon="-0.33219">
        <ele>1455.2</ele>
        <time>2026-02-08T09:00:07.000Z</time>
      </trkpt>
      <trkpt lat="43.03733" lon="-0.33221">
        <ele>1455.6</ele>
        <time>2026-02-08T09:00:10.000Z</time>
      </trkpt>
      <trkpt lat="43.03734" lon="-0.33223">
        <ele>1456</ele>
        <time>2026-02-08T09:00:13.000Z</time>
      </trkpt>
      <trkpt lat="43.03735" lon="-0.33226">
        <ele>1456.3</ele>
        <time>2026-02-08T09:00:16.000Z</time>
      </trkpt>
      <trkpt lat="43.03735" lon="-0.33229">
        <ele>1456.6</ele>
        <time>2026-02-08T09:00:19.000Z</time>
      </trkpt>
      <trkpt lat="43.03737" lon="-0.33232">
        <ele>1457.1</ele>
        <time>2026-02-08T09:00:22.000Z</time>
      </trkpt>
      <trkpt lat="43.03738" lon="-0.33234">
        <ele>1457.4</ele>
        <time>2026-02-08T09:00:25.000Z</time>
      </trkpt>
      <trkpt lat="43.03738" lon="-0.33237">
        <ele>1457.8</ele>
        <time>2026-02-08T09:00:28.000Z</time>
      </trkpt>
      <trkpt lat="43.03739" lon="-0.33239">
        <ele>1458.2</ele>
        <time>2026-02-08T09:00:31.000Z</time>
      </trkpt>
      <trkpt lat="43.0374" lon="-0.33242">
        <ele>1458.5</ele>
        <time>2026-02-08T09:00:34.000Z</time>
      </trkpt>
      <trkpt lat="43.03741" lon="-0.33245">
        <ele>1458.8</ele>
        <time>2026-02-08T09:00:37.000Z</time>
      </trkpt>
      <trkpt lat="43.03741" lon="-0.33248">
        <ele>1459</ele>
        <time>2026-02-08T09:00:40.000Z</time>
      </trkpt>
      <trkpt lat="43.03742" lon="-0.3325">
        <ele>1459.3</ele>
        <time>2026-02-08T09:00:43.000Z</time>
      </trkpt>
      <trkpt lat="43.03742" lon="-0.33253">
        <ele>1459.6</ele>
        <time>2026-02-08T09:00:46.000Z</time>
      </trkpt>
      <trkpt lat="43.03742" lon="-0.33255">
        <ele>1459.9</ele>
        <time>2026-02-08T09:00:49.000Z</time>
      </trkpt>
      <trkpt lat="43.03743" lon="-0.33257">
        <ele>1460.3</ele>
        <time>2026-02-08T09:00:52.000Z</time>
      </trkpt>
      <trkpt lat="43.03743" lon="-0.33259">
        <ele>1460.7</ele>
        <time>2026-02-08T09:00:55.000Z</time>
      </trkpt>
      <trkpt lat="43.03743" lon="-0.33262">
        <ele>1461.1</ele>
        <time>2026-02-08T09:00:58.000Z</time>
      </trkpt>
      <trkpt lat="43.03744" lon="-0.33265">
        <ele>1461.5</ele>
        <time>2026-02-08T09:01:01.000Z</time>
      </trkpt>
      <trkpt lat="43.03744" lon="-0.33268">
        <ele>1461.9</ele>
        <time>2026-02-08T09:01:04.000Z</time>
      </trkpt>
      <trkpt lat="43.03744" lon="-0.33271">
        <ele>1462.2</ele>
        <time>2026-02-08T09:01:07.000Z</time>
      </trkpt>
      <trkpt lat="43.03744" lon="-0.33273">
        <ele>1462.6</ele>
        <time>2026-02-08T09:01:10.000Z</time>
      </trkpt>
      <trkpt lat="43.03744" lon="-0.33276">
        <ele>1462.9</ele>
        <time>2026-02-08T09:01:13.000Z</time>
      </trkpt>
      <trkpt lat="43.03745" lon="-0.33278">
        <ele>1463.2</ele>
        <time>2026-02-08T09:01:16.000Z</time>
      </trkpt>
      <trkpt lat="43.03745" lon="-0.33282">
        <ele>1463.4</ele>
        <time>2026-02-08T09:01:19.000Z</time>
      </trkpt>
      <trkpt lat="43.03745" lon="-0.33284">
        <ele>1463.7</ele>
        <time>2026-02-08T09:01:22.000Z</time>
      </trkpt>
      <trkpt lat="43.03746" lon="-0.33287">
        <ele>1464</ele>
        <time>2026-02-08T09:01:25.000Z</time>
      </trkpt>
      <trkpt lat="43.03747" lon="-0.33289">
        <ele>1464.3</ele>
        <time>2026-02-08T09:01:28.000Z</time>
      </trkpt>
      <trkpt lat="43.03747" lon="-0.33292">
        <ele>1464.7</ele>
        <time>2026-02-08T09:01:31.000Z</time>
      </trkpt>
      <trkpt lat="43.03747" lon="-0.33294">
        <ele>1465</ele>
        <time>2026-02-08T09:01:34.000Z</time>
      </trkpt>
      <trkpt lat="43.03748" lon="-0.33297">
        <ele>1465.3</ele>
        <time>2026-02-08T09:01:37.000Z</time>
      </trkpt>
      <trkpt lat="43.03748" lon="-0.333">
        <ele>1465.7</ele>
        <time>2026-02-08T09:01:40.000Z</time>
      </trkpt>
      <trkpt lat="43.03748" lon="-0.33302">
        <ele>1466.1</ele>
        <time>2026-02-08T09:01:43.000Z</time>
      </trkpt>
      <trkpt lat="43.03748" lon="-0.33305">
        <ele>1466.5</ele>
        <time>2026-02-08T09:01:46.000Z</time>
      </trkpt>
      <trkpt lat="43.03748" lon="-0.33308">
        <ele>1466.9</ele>
        <time>2026-02-08T09:01:49.000Z</time>
      </trkpt>
      <trkpt lat="43.03749" lon="-0.3331">
        <ele>1467.2</ele>
        <time>2026-02-08T09:01:52.000Z</time>
      </trkpt>
      <trkpt lat="43.03749" lon="-0.33313">
        <ele>1467.6</ele>
        <time>2026-02-08T09:01:55.000Z</time>
      </trkpt>
      <trkpt lat="43.03748" lon="-0.33314">
        <ele>1467.9</ele>
        <time>2026-02-08T09:01:58.000Z</time>
      </trkpt>
      <trkpt lat="43.03748" lon="-0.33317">
        <ele>1468.2</ele>
        <time>2026-02-08T09:02:01.000Z</time>
      </trkpt>
      <trkpt lat="43.03748" lon="-0.3332">
        <ele>1468.3</ele>
        <time>2026-02-08T09:02:04.000Z</time>
      </trkpt>
      <trkpt lat="43.03748" lon="-0.33323">
        <ele>1468.6</ele>
        <time>2026-02-08T09:02:07.000Z</time>
      </trkpt>
      <trkpt lat="43.03747" lon="-0.33326">
        <ele>1468.8</ele>
        <time>2026-02-08T09:02:10.000Z</time>
      </trkpt>
      <trkpt lat="43.03747" lon="-0.3333">
        <ele>1469.1</ele>
        <time>2026-02-08T09:02:13.000Z</time>
      </trkpt>
      <trkpt lat="43.03747" lon="-0.33333">
        <ele>1469.4</ele>
        <time>2026-02-08T09:02:16.000Z</time>
      </trkpt>
      <trkpt lat="43.03747" lon="-0.33335">
        <ele>1469.6</ele>
        <time>2026-02-08T09:02:19.000Z</time>
      </trkpt>
      <trkpt lat="43.03746" lon="-0.33338">
        <ele>1469.9</ele>
        <time>2026-02-08T09:02:22.000Z</time>
      </trkpt>
      <trkpt lat="43.03745" lon="-0.3334">
        <ele>1470.2</ele>
        <time>2026-02-08T09:02:25.000Z</time>
      </trkpt>
      <trkpt lat="43.03744" lon="-0.33342">
        <ele>1470.5</ele>
        <time>2026-02-08T09:02:28.000Z</time>
      </trkpt>
      <trkpt lat="43.03744" lon="-0.33344">
        <ele>1470.8</ele>
        <time>2026-02-08T09:02:31.000Z</time>
      </trkpt>
      <trkpt lat="43.03743" lon="-0.33344">
        <ele>1471.2</ele>
        <time>2026-02-08T09:02:34.000Z</time>
      </trkpt>
      <trkpt lat="43.03743" lon="-0.33346">
        <ele>1471.6</ele>
        <time>2026-02-08T09:02:37.000Z</time>
      </trkpt>
      <trkpt lat="43.03743" lon="-0.33348">
        <ele>1472.1</ele>
        <time>2026-02-08T09:02:40.000Z</time>
      </trkpt>
      <trkpt lat="43.03742" lon="-0.3335">
        <ele>1472.6</ele>
        <time>2026-02-08T09:02:43.000Z</time>
      </trkpt>
      <trkpt lat="43.03741" lon="-0.33352">
        <ele>1473.1</ele>
        <time>2026-02-08T09:02:46.000Z</time>
      </trkpt>
      <trkpt lat="43.03741" lon="-0.33354">
        <ele>1473.6</ele>
        <time>2026-02-08T09:02:49.000Z</time>
      </trkpt>
      <trkpt lat="43.0374" lon="-0.33356">
        <ele>1474.1</ele>
        <time>2026-02-08T09:02:52.000Z</time>
      </trkpt>
      <trkpt lat="43.0374" lon="-0.33358">
        <ele>1474.6</ele>
        <time>2026-02-08T09:02:55.000Z</time>
      </trkpt>
      <trkpt lat="43.0374" lon="-0.33361">
        <ele>1475.1</ele>
        <time>2026-02-08T09:02:58.000Z</time>
      </trkpt>
      <trkpt lat="43.0374" lon="-0.33363">
        <ele>1475.5</ele>
        <time>2026-02-08T09:03:01.000Z</time>
      </trkpt>
      <trkpt lat="43.03739" lon="-0.33365">
        <ele>1475.9</ele>
        <time>2026-02-08T09:03:04.000Z</time>
      </trkpt>
      <trkpt lat="43.03738" lon="-0.33368">
        <ele>1476.4</ele>
        <time>2026-02-08T09:03:07.000Z</time>
      </trkpt>
      <trkpt lat="43.03738" lon="-0.3337">
        <ele>1476.8</ele>
        <time>2026-02-08T09:03:10.000Z</time>
      </trkpt>
      <trkpt lat="43.03738" lon="-0.33372">
        <ele>1477.2</ele>
        <time>2026-02-08T09:03:13.000Z</time>
      </trkpt>
      <trkpt lat="43.03739" lon="-0.33374">
        <ele>1477.7</ele>
        <time>2026-02-08T09:03:16.000Z</time>
      </trkpt>
      <trkpt lat="43.03738" lon="-0.33377">
        <ele>1478.1</ele>
        <time>2026-02-08T09:03:19.000Z</time>
      </trkpt>
      <trkpt lat="43.03738" lon="-0.33378">
        <ele>1478.4</ele>
        <time>2026-02-08T09:03:22.000Z</time>
      </trkpt>
      <trkpt lat="43.03738" lon="-0.3338">
        <ele>1478.7</ele>
        <time>2026-02-08T09:03:25.000Z</time>
      </trkpt>
      <trkpt lat="43.03738" lon="-0.33382">
        <ele>1479.1</ele>
        <time>2026-02-08T09:03:28.000Z</time>
      </trkpt>
      <trkpt lat="43.03738" lon="-0.33384">
        <ele>1479.7</ele>
        <time>2026-02-08T09:03:31.000Z</time>
      </trkpt>
      <trkpt lat="43.03739" lon="-0.33387">
        <ele>1480.2</ele>
        <time>2026-02-08T09:03:34.000Z</time>
      </trkpt>
      <trkpt lat="43.03739" lon="-0.33388">
        <ele>1480.6</ele>
        <time>2026-02-08T09:03:37.000Z</time>
      </trkpt>
      <trkpt lat="43.03739" lon="-0.3339">
        <ele>1480.8</ele>
        <time>2026-02-08T09:03:40.000Z</time>
      </trkpt>
      <trkpt lat="43.0374" lon="-0.33392">
        <ele>1481</ele>
        <time>2026-02-08T09:03:43.000Z</time>
      </trkpt>
      <trkpt lat="43.0374" lon="-0.33394">
        <ele>1481.3</ele>
        <time>2026-02-08T09:03:46.000Z</time>
      </trkpt>
      <trkpt lat="43.03741" lon="-0.33396">
        <ele>1481.6</ele>
        <time>2026-02-08T09:03:49.000Z</time>
      </trkpt>
      <trkpt lat="43.03741" lon="-0.33398">
        <ele>1482.1</ele>
        <time>2026-02-08T09:03:52.000Z</time>
      </trkpt>
      <trkpt lat="43.03742" lon="-0.334">
        <ele>1482.5</ele>
        <time>2026-02-08T09:03:55.000Z</time>
      </trkpt>
      <trkpt lat="43.03742" lon="-0.334">
        <ele>1482.9</ele>
        <time>2026-02-08T09:03:58.000Z</time>
      </trkpt>
      <trkpt lat="43.03742" lon="-0.33403">
        <ele>1483.3</ele>
        <time>2026-02-08T09:04:01.000Z</time>
      </trkpt>
      <trkpt lat="43.03743" lon="-0.33405">
        <ele>1483.8</ele>
        <time>2026-02-08T09:04:04.000Z</time>
      </trkpt>
      <trkpt lat="43.03744" lon="-0.33406">
        <ele>1484.2</ele>
        <time>2026-02-08T09:04:07.000Z</time>
      </trkpt>
      <trkpt lat="43.03745" lon="-0.33408">
        <ele>1484.7</ele>
        <time>2026-02-08T09:04:10.000Z</time>
      </trkpt>
      <trkpt lat="43.03746" lon="-0.3341">
        <ele>1485.3</ele>
        <time>2026-02-08T09:04:13.000Z</time>
      </trkpt>
      <trkpt lat="43.03747" lon="-0.33411">
        <ele>1485.7</ele>
        <time>2026-02-08T09:04:16.000Z</time>
      </trkpt>
      <trkpt lat="43.03749" lon="-0.33413">
        <ele>1486.1</ele>
        <time>2026-02-08T09:04:19.000Z</time>
      </trkpt>
      <trkpt lat="43.0375" lon="-0.33415">
        <ele>1486.5</ele>
        <time>2026-02-08T09:04:22.000Z</time>
      </trkpt>
      <trkpt lat="43.03751" lon="-0.33416">
        <ele>1486.9</ele>
        <time>2026-02-08T09:04:25.000Z</time>
      </trkpt>
      <trkpt lat="43.03753" lon="-0.33417">
        <ele>1487.3</ele>
        <time>2026-02-08T09:04:28.000Z</time>
      </trkpt>
      <trkpt lat="43.03754" lon="-0.33419">
        <ele>1487.7</ele>
        <time>2026-02-08T09:04:31.000Z</time>
      </trkpt>
      <trkpt lat="43.03756" lon="-0.3342">
        <ele>1488.1</ele>
        <time>2026-02-08T09:04:34.000Z</time>
      </trkpt>
      <trkpt lat="43.03757" lon="-0.33421">
        <ele>1488.5</ele>
        <time>2026-02-08T09:04:37.000Z</time>
      </trkpt>
      <trkpt lat="43.03758" lon="-0.33422">
        <ele>1488.9</ele>
        <time>2026-02-08T09:04:40.000Z</time>
      </trkpt>
      <trkpt lat="43.03759" lon="-0.33424">
        <ele>1489.3</ele>
        <time>2026-02-08T09:04:43.000Z</time>
      </trkpt>
      <trkpt lat="43.0376" lon="-0.33426">
        <ele>1489.6</ele>
        <time>2026-02-08T09:04:46.000Z</time>
      </trkpt>
      <trkpt lat="43.03761" lon="-0.33427">
        <ele>1490.1</ele>
        <time>2026-02-08T09:04:49.000Z</time>
      </trkpt>
      <trkpt lat="43.03761" lon="-0.33429">
        <ele>1490.5</ele>
        <time>2026-02-08T09:04:52.000Z</time>
      </trkpt>
      <trkpt lat="43.03762" lon="-0.33431">
        <ele>1490.9</ele>
        <time>2026-02-08T09:04:55.000Z</time>
      </trkpt>
      <trkpt lat="43.03763" lon="-0.33434">
        <ele>1491.1</ele>
        <time>2026-02-08T09:04:58.000Z</time>
      </trkpt>
      <trkpt lat="43.03763" lon="-0.33436">
        <ele>1491.4</ele>
        <time>2026-02-08T09:05:01.000Z</time>
      </trkpt>
      <trkpt lat="43.03763" lon="-0.33438">
        <ele>1491.7</ele>
        <time>2026-02-08T09:05:04.000Z</time>
      </trkpt>
      <trkpt lat="43.03763" lon="-0.3344">
        <ele>1491.9</ele>
        <time>2026-02-08T09:05:07.000Z</time>
      </trkpt>
      <trkpt lat="43.03763" lon="-0.33442">
        <ele>1492.2</ele>
        <time>2026-02-08T09:05:10.000Z</time>
      </trkpt>
      <trkpt lat="43.03763" lon="-0.33445">
        <ele>1492.5</ele>
        <time>2026-02-08T09:05:13.000Z</time>
      </trkpt>
      <trkpt lat="43.03763" lon="-0.33448">
        <ele>1492.6</ele>
        <time>2026-02-08T09:05:16.000Z</time>
      </trkpt>
      <trkpt lat="43.03763" lon="-0.3345">
        <ele>1492.8</ele>
        <time>2026-02-08T09:05:19.000Z</time>
      </trkpt>
      <trkpt lat="43.03762" lon="-0.33453">
        <ele>1493.1</ele>
        <time>2026-02-08T09:05:22.000Z</time>
      </trkpt>
      <trkpt lat="43.03762" lon="-0.33457">
        <ele>1493.4</ele>
        <time>2026-02-08T09:05:25.000Z</time>
      </trkpt>
      <trkpt lat="43.03762" lon="-0.3346">
        <ele>1493.8</ele>
        <time>2026-02-08T09:05:28.000Z</time>
      </trkpt>
      <trkpt lat="43.03763" lon="-0.33462">
        <ele>1494.3</ele>
        <time>2026-02-08T09:05:31.000Z</time>
      </trkpt>
      <trkpt lat="43.03764" lon="-0.33465">
        <ele>1494.8</ele>
        <time>2026-02-08T09:05:34.000Z</time>
      </trkpt>
      <trkpt lat="43.03764" lon="-0.33466">
        <ele>1495.2</ele>
        <time>2026-02-08T09:05:37.000Z</time>
      </trkpt>
      <trkpt lat="43.03764" lon="-0.33466">
        <ele>1495.7</ele>
        <time>2026-02-08T09:05:40.000Z</time>
      </trkpt>
      <trkpt lat="43.03764" lon="-0.33466">
        <ele>1495.8</ele>
        <time>2026-02-08T09:05:41.000Z</time>
      </trkpt>
      <trkpt lat="43.03764" lon="-0.33466">
        <ele>1495.9</ele>
        <time>2026-02-08T09:05:42.000Z</time>
      </trkpt>
      <trkpt lat="43.03764" lon="-0.33466">
        <ele>1496</ele>
        <time>2026-02-08T09:05:43.000Z</time>
      </trkpt>
      <trkpt lat="43.03764" lon="-0.33466">
        <ele>1496.2</ele>
        <time>2026-02-08T09:05:46.000Z</time>
      </trkpt>
      <trkpt lat="43.03764" lon="-0.33468">
        <ele>1496.3</ele>
        <time>2026-02-08T09:05:49.000Z</time>
      </trkpt>
      <trkpt lat="43.03764" lon="-0.33468">
        <ele>1496.2</ele>
        <time>2026-02-08T09:05:50.000Z</time>
      </trkpt>
      <trkpt lat="43.03764" lon="-0.33469">
        <ele>1496.2</ele>
        <time>2026-02-08T09:05:51.000Z</time>
      </trkpt>
      <trkpt lat="43.03764" lon="-0.33472">
        <ele>1496.2</ele>
        <time>2026-02-08T09:05:54.000Z</time>
      </trkpt>
      <trkpt lat="43.03765" lon="-0.33474">
        <ele>1496.3</ele>
        <time>2026-02-08T09:05:57.000Z</time>
      </trkpt>
      <trkpt lat="43.03766" lon="-0.33476">
        <ele>1496.6</ele>
        <time>2026-02-08T09:06:00.000Z</time>
      </trkpt>
      <trkpt lat="43.03766" lon="-0.33478">
        <ele>1497</ele>
        <time>2026-02-08T09:06:03.000Z</time>
      </trkpt>
      <trkpt lat="43.03767" lon="-0.3348">
        <ele>1497.6</ele>
        <time>2026-02-08T09:06:06.000Z</time>
      </trkpt>
      <trkpt lat="43.03768" lon="-0.3348">
        <ele>1497.5</ele>
        <time>2026-02-08T09:06:09.000Z</time>
      </trkpt>
      <trkpt lat="43.03768" lon="-0.33481">
        <ele>1498.6</ele>
        <time>2026-02-08T09:06:12.000Z</time>
      </trkpt>
      <trkpt lat="43.03768" lon="-0.33481">
        <ele>1498.8</ele>
        <time>2026-02-08T09:06:15.000Z</time>
      </trkpt>
      <trkpt lat="43.03769" lon="-0.33481">
        <ele>1498.8</ele>
        <time>2026-02-08T09:06:18.000Z</time>
      </trkpt>
      <trkpt lat="43.03769" lon="-0.33481">
        <ele>1498.9</ele>
        <time>2026-02-08T09:06:21.000Z</time>
      </trkpt>
      <trkpt lat="43.03769" lon="-0.33481">
        <ele>1499</ele>
        <time>2026-02-08T09:06:24.000Z</time>
      </trkpt>
      <trkpt lat="43.03769" lon="-0.33481">
        <ele>1499</ele>
        <time>2026-02-08T09:06:25.000Z</time>
      </trkpt>
      <trkpt lat="43.03769" lon="-0.33481">
        <ele>1499</ele>
        <time>2026-02-08T09:06:26.000Z</time>
      </trkpt>
      <trkpt lat="43.03769" lon="-0.33481">
        <ele>1499</ele>
        <time>2026-02-08T09:06:27.000Z</time>
      </trkpt>
      <trkpt lat="43.03769" lon="-0.33481">
        <ele>1499.1</ele>
        <time>2026-02-08T09:06:28.000Z</time>
      </trkpt>
      <trkpt lat="43.0377" lon="-0.33483">
        <ele>1499.1</ele>
        <time>2026-02-08T09:06:31.000Z</time>
      </trkpt>
      <trkpt lat="43.0377" lon="-0.33485">
        <ele>1499.3</ele>
        <time>2026-02-08T09:06:34.000Z</time>
      </trkpt>
      <trkpt lat="43.03771" lon="-0.33487">
        <ele>1499.4</ele>
        <time>2026-02-08T09:06:37.000Z</time>
      </trkpt>
      <trkpt lat="43.03772" lon="-0.3349">
        <ele>1499.7</ele>
        <time>2026-02-08T09:06:40.000Z</time>
      </trkpt>
      <trkpt lat="43.03774" lon="-0.33492">
        <ele>1500</ele>
        <time>2026-02-08T09:06:43.000Z</time>
      </trkpt>
      <trkpt lat="43.03774" lon="-0.33493">
        <ele>1500.3</ele>
        <time>2026-02-08T09:06:46.000Z</time>
      </trkpt>
      <trkpt lat="43.03774" lon="-0.33493">
        <ele>1500.7</ele>
        <time>2026-02-08T09:06:49.000Z</time>
      </trkpt>
      <trkpt lat="43.03774" lon="-0.33493">
        <ele>1500.8</ele>
        <time>2026-02-08T09:06:50.000Z</time>
      </trkpt>
      <trkpt lat="43.03774" lon="-0.33493">
        <ele>1500.8</ele>
        <time>2026-02-08T09:06:51.000Z</time>
      </trkpt>
      <trkpt lat="43.03774" lon="-0.33493">
        <ele>1501.1</ele>
        <time>2026-02-08T09:06:54.000Z</time>
      </trkpt>
      <trkpt lat="43.03774" lon="-0.33493">
        <ele>1501.3</ele>
        <time>2026-02-08T09:06:57.000Z</time>
      </trkpt>
      <trkpt lat="43.03774" lon="-0.33493">
        <ele>1501.4</ele>
        <time>2026-02-08T09:07:00.000Z</time>
      </trkpt>
      <trkpt lat="43.03774" lon="-0.33493">
        <ele>1501.4</ele>
        <time>2026-02-08T09:07:03.000Z</time>
      </trkpt>
      <trkpt lat="43.03774" lon="-0.33493">
        <ele>1501.4</ele>
        <time>2026-02-08T09:07:06.000Z</time>
      </trkpt>
      <trkpt lat="43.03774" lon="-0.33493">
        <ele>1501.5</ele>
        <time>2026-02-08T09:07:09.000Z</time>
      </trkpt>
      <trkpt lat="43.03774" lon="-0.33493">
        <ele>1501.5</ele>
        <time>2026-02-08T09:07:12.000Z</time>
      </trkpt>
      <trkpt lat="43.03774" lon="-0.33493">
        <ele>1501.4</ele>
        <time>2026-02-08T09:07:15.000Z</time>
      </trkpt>
      <trkpt lat="43.03774" lon="-0.33493">
        <ele>1501.5</ele>
        <time>2026-02-08T09:07:18.000Z</time>
      </trkpt>
      <trkpt lat="43.03774" lon="-0.33493">
        <ele>1501.5</ele>
        <time>2026-02-08T09:07:19.000Z</time>
      </trkpt>
      <trkpt lat="43.03774" lon="-0.33493">
        <ele>1501.5</ele>
        <time>2026-02-08T09:07:20.000Z</time>
      </trkpt>
      <trkpt lat="43.03774" lon="-0.33493">
        <ele>1501.5</ele>
        <time>2026-02-08T09:07:21.000Z</time>
      </trkpt>
      <trkpt lat="43.03774" lon="-0.33493">
        <ele>1501.5</ele>
        <time>2026-02-08T09:07:22.000Z</time>
      </trkpt>
      <trkpt lat="43.03774" lon="-0.33493">
        <ele>1501.5</ele>
        <time>2026-02-08T09:07:23.000Z</time>
      </trkpt>
      <trkpt lat="43.03774" lon="-0.33493">
        <ele>1501.5</ele>
        <time>2026-02-08T09:07:26.000Z</time>
      </trkpt>
      <trkpt lat="43.03774" lon="-0.33493">
        <ele>1501.5</ele>
        <time>2026-02-08T09:07:29.000Z</time>
      </trkpt>
      <trkpt lat="43.03774" lon="-0.33493">
        <ele>1501.5</ele>
        <time>2026-02-08T09:07:32.000Z</time>
      </trkpt>
      <trkpt lat="43.03774" lon="-0.33493">
        <ele>1501.5</ele>
        <time>2026-02-08T09:07:35.000Z</time>
      </trkpt>
      <trkpt lat="43.03774" lon="-0.33493">
        <ele>1501.5</ele>
        <time>2026-02-08T09:07:38.000Z</time>
      </trkpt>
      <trkpt lat="43.03774" lon="-0.33493">
        <ele>1501.5</ele>
        <time>2026-02-08T09:07:41.000Z</time>
      </trkpt>
      <trkpt lat="43.03774" lon="-0.33493">
        <ele>1501.5</ele>
        <time>2026-02-08T09:07:44.000Z</time>
      </trkpt>
      <trkpt lat="43.03774" lon="-0.33493">
        <ele>1501.5</ele>
        <time>2026-02-08T09:07:45.000Z</time>
      </trkpt>
      <trkpt lat="43.03774" lon="-0.33493">
        <ele>1501.5</ele>
        <time>2026-02-08T09:07:48.000Z</time>
      </trkpt>
      <trkpt lat="43.03774" lon="-0.33493">
        <ele>1501.5</ele>
        <time>2026-02-08T09:07:49.000Z</time>
      </trkpt>
      <trkpt lat="43.03774" lon="-0.33493">
        <ele>1501.5</ele>
        <time>2026-02-08T09:07:50.000Z</time>
      </trkpt>
      <trkpt lat="43.03774" lon="-0.33493">
        <ele>1501.5</ele>
        <time>2026-02-08T09:07:51.000Z</time>
      </trkpt>
      <trkpt lat="43.03774" lon="-0.33493">
        <ele>1501.5</ele>
        <time>2026-02-08T09:07:52.000Z</time>
      </trkpt>
      <trkpt lat="43.03774" lon="-0.33493">
        <ele>1501.5</ele>
        <time>2026-02-08T09:07:53.000Z</time>
      </trkpt>
      <trkpt lat="43.03774" lon="-0.33493">
        <ele>1501.5</ele>
        <time>2026-02-08T09:07:56.000Z</time>
      </trkpt>
      <trkpt lat="43.03774" lon="-0.33493">
        <ele>1501.5</ele>
        <time>2026-02-08T09:07:59.000Z</time>
      </trkpt>
      <trkpt lat="43.03774" lon="-0.33493">
        <ele>1501.5</ele>
        <time>2026-02-08T09:08:00.000Z</time>
      </trkpt>
      <trkpt lat="43.03774" lon="-0.33493">
        <ele>1501.5</ele>
        <time>2026-02-08T09:08:01.000Z</time>
      </trkpt>
      <trkpt lat="43.03774" lon="-0.33493">
        <ele>1501.5</ele>
        <time>2026-02-08T09:08:04.000Z</time>
      </trkpt>
      <trkpt lat="43.03774" lon="-0.33493">
        <ele>1501.5</ele>
        <time>2026-02-08T09:08:07.000Z</time>
      </trkpt>
      <trkpt lat="43.03774" lon="-0.33493">
        <ele>1501.5</ele>
        <time>2026-02-08T09:08:10.000Z</time>
      </trkpt>
      <trkpt lat="43.03774" lon="-0.33493">
        <ele>1501.5</ele>
        <time>2026-02-08T09:08:11.000Z</time>
      </trkpt>
      <trkpt lat="43.03774" lon="-0.33493">
        <ele>1501.5</ele>
        <time>2026-02-08T09:08:12.000Z</time>
      </trkpt>
      <trkpt lat="43.03774" lon="-0.33493">
        <ele>1501.5</ele>
        <time>2026-02-08T09:08:13.000Z</time>
      </trkpt>
      <trkpt lat="43.03774" lon="-0.33493">
        <ele>1501.5</ele>
        <time>2026-02-08T09:08:14.000Z</time>
      </trkpt>
      <trkpt lat="43.03774" lon="-0.33493">
        <ele>1501.5</ele>
        <time>2026-02-08T09:08:15.000Z</time>
      </trkpt>
      <trkpt lat="43.03774" lon="-0.33493">
        <ele>1501.5</ele>
        <time>2026-02-08T09:08:16.000Z</time>
      </trkpt>
      <trkpt lat="43.03774" lon="-0.33493">
        <ele>1501.5</ele>
        <time>2026-02-08T09:08:19.000Z</time>
      </trkpt>
      <trkpt lat="43.03774" lon="-0.33493">
        <ele>1501.5</ele>
        <time>2026-02-08T09:08:22.000Z</time>
      </trkpt>
      <trkpt lat="43.03774" lon="-0.33493">
        <ele>1501.5</ele>
        <time>2026-02-08T09:08:25.000Z</time>
      </trkpt>
      <trkpt lat="43.03774" lon="-0.33493">
        <ele>1501.5</ele>
        <time>2026-02-08T09:08:28.000Z</time>
      </trkpt>
      <trkpt lat="43.03774" lon="-0.33493">
        <ele>1501.5</ele>
        <time>2026-02-08T09:08:31.000Z</time>
      </trkpt>
      <trkpt lat="43.03774" lon="-0.33493">
        <ele>1501.4</ele>
        <time>2026-02-08T09:08:34.000Z</time>
      </trkpt>
      <trkpt lat="43.03774" lon="-0.33493">
        <ele>1501.4</ele>
        <time>2026-02-08T09:08:37.000Z</time>
      </trkpt>
      <trkpt lat="43.03774" lon="-0.33493">
        <ele>1501.4</ele>
        <time>2026-02-08T09:08:40.000Z</time>
      </trkpt>
      <trkpt lat="43.03774" lon="-0.33493">
        <ele>1501.4</ele>
        <time>2026-02-08T09:08:43.000Z</time>
      </trkpt>
      <trkpt lat="43.03774" lon="-0.33493">
        <ele>1501.4</ele>
        <time>2026-02-08T09:08:46.000Z</time>
      </trkpt>
      <trkpt lat="43.03775" lon="-0.33493">
        <ele>1501.4</ele>
        <time>2026-02-08T09:08:49.000Z</time>
      </trkpt>
      <trkpt lat="43.03775" lon="-0.33493">
        <ele>1501.4</ele>
        <time>2026-02-08T09:08:50.000Z</time>
      </trkpt>
      <trkpt lat="43.03775" lon="-0.33493">
        <ele>1501.3</ele>
        <time>2026-02-08T09:08:51.000Z</time>
      </trkpt>
      <trkpt lat="43.03777" lon="-0.33494">
        <ele>1501.4</ele>
        <time>2026-02-08T09:08:54.000Z</time>
      </trkpt>
      <trkpt lat="43.03778" lon="-0.33495">
        <ele>1501.4</ele>
        <time>2026-02-08T09:08:57.000Z</time>
      </trkpt>
      <trkpt lat="43.0378" lon="-0.33496">
        <ele>1501.5</ele>
        <time>2026-02-08T09:09:00.000Z</time>
      </trkpt>
      <trkpt lat="43.03781" lon="-0.33497">
        <ele>1501.7</ele>
        <time>2026-02-08T09:09:03.000Z</time>
      </trkpt>
      <trkpt lat="43.03783" lon="-0.33497">
        <ele>1501.9</ele>
        <time>2026-02-08T09:09:06.000Z</time>
      </trkpt>
      <trkpt lat="43.03785" lon="-0.33498">
        <ele>1502.3</ele>
        <time>2026-02-08T09:09:09.000Z</time>
      </trkpt>
      <trkpt lat="43.03787" lon="-0.33498">
        <ele>1502.7</ele>
        <time>2026-02-08T09:09:12.000Z</time>
      </trkpt>
      <trkpt lat="43.03788" lon="-0.33498">
        <ele>1503.4</ele>
        <time>2026-02-08T09:09:15.000Z</time>
      </trkpt>
      <trkpt lat="43.0379" lon="-0.33498">
        <ele>1504.1</ele>
        <time>2026-02-08T09:09:18.000Z</time>
      </trkpt>
      <trkpt lat="43.0379" lon="-0.33498">
        <ele>1504.7</ele>
        <time>2026-02-08T09:09:21.000Z</time>
      </trkpt>
      <trkpt lat="43.0379" lon="-0.33498">
        <ele>1504.8</ele>
        <time>2026-02-08T09:09:22.000Z</time>
      </trkpt>
      <trkpt lat="43.0379" lon="-0.33498">
        <ele>1504.9</ele>
        <time>2026-02-08T09:09:23.000Z</time>
      </trkpt>
      <trkpt lat="43.0379" lon="-0.33498">
        <ele>1505.1</ele>
        <time>2026-02-08T09:09:26.000Z</time>
      </trkpt>
      <trkpt lat="43.0379" lon="-0.33498">
        <ele>1505.3</ele>
        <time>2026-02-08T09:09:29.000Z</time>
      </trkpt>
      <trkpt lat="43.0379" lon="-0.33498">
        <ele>1505.3</ele>
        <time>2026-02-08T09:09:32.000Z</time>
      </trkpt>
      <trkpt lat="43.0379" lon="-0.33498">
        <ele>1505.4</ele>
        <time>2026-02-08T09:09:35.000Z</time>
      </trkpt>
      <trkpt lat="43.0379" lon="-0.33498">
        <ele>1505.4</ele>
        <time>2026-02-08T09:09:38.000Z</time>
      </trkpt>
      <trkpt lat="43.0379" lon="-0.33498">
        <ele>1505.5</ele>
        <time>2026-02-08T09:09:41.000Z</time>
      </trkpt>
      <trkpt lat="43.0379" lon="-0.33497">
        <ele>1505.5</ele>
        <time>2026-02-08T09:09:44.000Z</time>
      </trkpt>
      <trkpt lat="43.0379" lon="-0.33497">
        <ele>1505.5</ele>
        <time>2026-02-08T09:09:47.000Z</time>
      </trkpt>
      <trkpt lat="43.0379" lon="-0.33499">
        <ele>1505.5</ele>
        <time>2026-02-08T09:09:49.000Z</time>
      </trkpt>
      <trkpt lat="43.03791" lon="-0.33499">
        <ele>1505.6</ele>
        <time>2026-02-08T09:09:50.000Z</time>
      </trkpt>
      <trkpt lat="43.03791" lon="-0.335">
        <ele>1505.6</ele>
        <time>2026-02-08T09:09:51.000Z</time>
      </trkpt>
      <trkpt lat="43.03791" lon="-0.33501">
        <ele>1505.8</ele>
        <time>2026-02-08T09:09:54.000Z</time>
      </trkpt>
      <trkpt lat="43.03791" lon="-0.33502">
        <ele>1506</ele>
        <time>2026-02-08T09:09:57.000Z</time>
      </trkpt>
      <trkpt lat="43.03791" lon="-0.33502">
        <ele>1506.2</ele>
        <time>2026-02-08T09:10:00.000Z</time>
      </trkpt>
      <trkpt lat="43.03791" lon="-0.33502">
        <ele>1506.4</ele>
        <time>2026-02-08T09:10:02.000Z</time>
      </trkpt>
      <trkpt lat="43.03791" lon="-0.33502">
        <ele>1506.5</ele>
        <time>2026-02-08T09:10:03.000Z</time>
      </trkpt>
      <trkpt lat="43.03791" lon="-0.33503">
        <ele>1506.6</ele>
        <time>2026-02-08T09:10:06.000Z</time>
      </trkpt>
      <trkpt lat="43.03791" lon="-0.33504">
        <ele>1506.7</ele>
        <time>2026-02-08T09:10:07.000Z</time>
      </trkpt>
      <trkpt lat="43.03791" lon="-0.33505">
        <ele>1506.8</ele>
        <time>2026-02-08T09:10:08.000Z</time>
      </trkpt>
      <trkpt lat="43.03791" lon="-0.33508">
        <ele>1507.2</ele>
        <time>2026-02-08T09:10:11.000Z</time>
      </trkpt>
      <trkpt lat="43.03791" lon="-0.33511">
        <ele>1507.8</ele>
        <time>2026-02-08T09:10:14.000Z</time>
      </trkpt>
      <trkpt lat="43.03791" lon="-0.33513">
        <ele>1508.5</ele>
        <time>2026-02-08T09:10:17.000Z</time>
      </trkpt>
      <trkpt lat="43.03791" lon="-0.33516">
        <ele>1509</ele>
        <time>2026-02-08T09:10:20.000Z</time>
      </trkpt>
      <trkpt lat="43.03791" lon="-0.33517">
        <ele>1509.4</ele>
        <time>2026-02-08T09:10:23.000Z</time>
      </trkpt>
      <trkpt lat="43.03791" lon="-0.33517">
        <ele>1509.5</ele>
        <time>2026-02-08T09:10:24.000Z</time>
      </trkpt>
      <trkpt lat="43.03791" lon="-0.33517">
        <ele>1509.6</ele>
        <time>2026-02-08T09:10:25.000Z</time>
      </trkpt>
      <trkpt lat="43.03791" lon="-0.33517">
        <ele>1509.8</ele>
        <time>2026-02-08T09:10:28.000Z</time>
      </trkpt>
      <trkpt lat="43.03791" lon="-0.33518">
        <ele>1509.9</ele>
        <time>2026-02-08T09:10:31.000Z</time>
      </trkpt>
      <trkpt lat="43.03791" lon="-0.33518">
        <ele>1509.9</ele>
        <time>2026-02-08T09:10:32.000Z</time>
      </trkpt>
      <trkpt lat="43.03791" lon="-0.33518">
        <ele>1509.9</ele>
        <time>2026-02-08T09:10:33.000Z</time>
      </trkpt>
      <trkpt lat="43.03791" lon="-0.33519">
        <ele>1509.9</ele>
        <time>2026-02-08T09:10:34.000Z</time>
      </trkpt>
      <trkpt lat="43.03792" lon="-0.33521">
        <ele>1510</ele>
        <time>2026-02-08T09:10:37.000Z</time>
      </trkpt>
      <trkpt lat="43.03792" lon="-0.33524">
        <ele>1510.1</ele>
        <time>2026-02-08T09:10:40.000Z</time>
      </trkpt>
      <trkpt lat="43.03793" lon="-0.33527">
        <ele>1510.3</ele>
        <time>2026-02-08T09:10:43.000Z</time>
      </trkpt>
      <trkpt lat="43.03793" lon="-0.33528">
        <ele>1510.6</ele>
        <time>2026-02-08T09:10:46.000Z</time>
      </trkpt>
      <trkpt lat="43.03793" lon="-0.3353">
        <ele>1511</ele>
        <time>2026-02-08T09:10:49.000Z</time>
      </trkpt>
      <trkpt lat="43.03794" lon="-0.33531">
        <ele>1511.4</ele>
        <time>2026-02-08T09:10:52.000Z</time>
      </trkpt>
      <trkpt lat="43.03794" lon="-0.33532">
        <ele>1511.9</ele>
        <time>2026-02-08T09:10:55.000Z</time>
      </trkpt>
      <trkpt lat="43.03795" lon="-0.33534">
        <ele>1512.6</ele>
        <time>2026-02-08T09:10:58.000Z</time>
      </trkpt>
      <trkpt lat="43.03795" lon="-0.33535">
        <ele>1513.4</ele>
        <time>2026-02-08T09:11:01.000Z</time>
      </trkpt>
      <trkpt lat="43.03796" lon="-0.33536">
        <ele>1513.9</ele>
        <time>2026-02-08T09:11:04.000Z</time>
      </trkpt>
      <trkpt lat="43.03797" lon="-0.33537">
        <ele>1514.5</ele>
        <time>2026-02-08T09:11:07.000Z</time>
      </trkpt>
      <trkpt lat="43.03797" lon="-0.33537">
        <ele>1514.9</ele>
        <time>2026-02-08T09:11:10.000Z</time>
      </trkpt>
      <trkpt lat="43.03797" lon="-0.33538">
        <ele>1515.3</ele>
        <time>2026-02-08T09:11:13.000Z</time>
      </trkpt>
      <trkpt lat="43.03798" lon="-0.33538">
        <ele>1515.6</ele>
        <time>2026-02-08T09:11:16.000Z</time>
      </trkpt>
      <trkpt lat="43.03799" lon="-0.3354">
        <ele>1515.9</ele>
        <time>2026-02-08T09:11:19.000Z</time>
      </trkpt>
      <trkpt lat="43.038" lon="-0.33541">
        <ele>1516.4</ele>
        <time>2026-02-08T09:11:22.000Z</time>
      </trkpt>
      <trkpt lat="43.03801" lon="-0.33543">
        <ele>1516.9</ele>
        <time>2026-02-08T09:11:25.000Z</time>
      </trkpt>
      <trkpt lat="43.03802" lon="-0.33544">
        <ele>1517.4</ele>
        <time>2026-02-08T09:11:28.000Z</time>
      </trkpt>
      <trkpt lat="43.03803" lon="-0.33545">
        <ele>1518</ele>
        <time>2026-02-08T09:11:31.000Z</time>
      </trkpt>
      <trkpt lat="43.03804" lon="-0.33545">
        <ele>1518.6</ele>
        <time>2026-02-08T09:11:34.000Z</time>
      </trkpt>
      <trkpt lat="43.03805" lon="-0.33545">
        <ele>1519.1</ele>
        <time>2026-02-08T09:11:37.000Z</time>
      </trkpt>
      <trkpt lat="43.03807" lon="-0.33546">
        <ele>1519.7</ele>
        <time>2026-02-08T09:11:40.000Z</time>
      </trkpt>
      <trkpt lat="43.03809" lon="-0.33545">
        <ele>1520.1</ele>
        <time>2026-02-08T09:11:43.000Z</time>
      </trkpt>
      <trkpt lat="43.0381" lon="-0.33545">
        <ele>1520.5</ele>
        <time>2026-02-08T09:11:46.000Z</time>
      </trkpt>
      <trkpt lat="43.03812" lon="-0.33545">
        <ele>1520.9</ele>
        <time>2026-02-08T09:11:49.000Z</time>
      </trkpt>
      <trkpt lat="43.03813" lon="-0.33545">
        <ele>1521.4</ele>
        <time>2026-02-08T09:11:52.000Z</time>
      </trkpt>
      <trkpt lat="43.03814" lon="-0.33544">
        <ele>1521.8</ele>
        <time>2026-02-08T09:11:55.000Z</time>
      </trkpt>
      <trkpt lat="43.03816" lon="-0.33544">
        <ele>1522.1</ele>
        <time>2026-02-08T09:11:58.000Z</time>
      </trkpt>
      <trkpt lat="43.03817" lon="-0.33544">
        <ele>1522.5</ele>
        <time>2026-02-08T09:12:01.000Z</time>
      </trkpt>
      <trkpt lat="43.03818" lon="-0.33542">
        <ele>1522.9</ele>
        <time>2026-02-08T09:12:04.000Z</time>
      </trkpt>
      <trkpt lat="43.0382" lon="-0.33541">
        <ele>1523.3</ele>
        <time>2026-02-08T09:12:07.000Z</time>
      </trkpt>
      <trkpt lat="43.03822" lon="-0.33541">
        <ele>1523.7</ele>
        <time>2026-02-08T09:12:10.000Z</time>
      </trkpt>
      <trkpt lat="43.03823" lon="-0.33541">
        <ele>1524.1</ele>
        <time>2026-02-08T09:12:13.000Z</time>
      </trkpt>
      <trkpt lat="43.03825" lon="-0.33542">
        <ele>1524.4</ele>
        <time>2026-02-08T09:12:16.000Z</time>
      </trkpt>
      <trkpt lat="43.03826" lon="-0.33542">
        <ele>1524.6</ele>
        <time>2026-02-08T09:12:19.000Z</time>
      </trkpt>
      <trkpt lat="43.03827" lon="-0.33542">
        <ele>1524.8</ele>
        <time>2026-02-08T09:12:22.000Z</time>
      </trkpt>
      <trkpt lat="43.03828" lon="-0.33542">
        <ele>1524.9</ele>
        <time>2026-02-08T09:12:25.000Z</time>
      </trkpt>
      <trkpt lat="43.03828" lon="-0.33542">
        <ele>1524.9</ele>
        <time>2026-02-08T09:12:26.000Z</time>
      </trkpt>
      <trkpt lat="43.03828" lon="-0.33542">
        <ele>1524.9</ele>
        <time>2026-02-08T09:12:27.000Z</time>
      </trkpt>
      <trkpt lat="43.03828" lon="-0.33542">
        <ele>1525</ele>
        <time>2026-02-08T09:12:28.000Z</time>
      </trkpt>
      <trkpt lat="43.03828" lon="-0.33542">
        <ele>1525.1</ele>
        <time>2026-02-08T09:12:29.000Z</time>
      </trkpt>
      <trkpt lat="43.03828" lon="-0.33542">
        <ele>1525.1</ele>
        <time>2026-02-08T09:12:30.000Z</time>
      </trkpt>
      <trkpt lat="43.03828" lon="-0.33542">
        <ele>1525.2</ele>
        <time>2026-02-08T09:12:31.000Z</time>
      </trkpt>
      <trkpt lat="43.03828" lon="-0.33542">
        <ele>1525.2</ele>
        <time>2026-02-08T09:12:32.000Z</time>
      </trkpt>
      <trkpt lat="43.03828" lon="-0.33543">
        <ele>1525.3</ele>
        <time>2026-02-08T09:12:33.000Z</time>
      </trkpt>
      <trkpt lat="43.03828" lon="-0.33543">
        <ele>1525.3</ele>
        <time>2026-02-08T09:12:34.000Z</time>
      </trkpt>
      <trkpt lat="43.03828" lon="-0.33543">
        <ele>1525.4</ele>
        <time>2026-02-08T09:12:35.000Z</time>
      </trkpt>
      <trkpt lat="43.03829" lon="-0.33544">
        <ele>1525.4</ele>
        <time>2026-02-08T09:12:36.000Z</time>
      </trkpt>
      <trkpt lat="43.03829" lon="-0.33544">
        <ele>1525.5</ele>
        <time>2026-02-08T09:12:39.000Z</time>
      </trkpt>
      <trkpt lat="43.03829" lon="-0.33544">
        <ele>1525.6</ele>
        <time>2026-02-08T09:12:40.000Z</time>
      </trkpt>
      <trkpt lat="43.03829" lon="-0.33544">
        <ele>1525.6</ele>
        <time>2026-02-08T09:12:41.000Z</time>
      </trkpt>
      <trkpt lat="43.03829" lon="-0.33544">
        <ele>1525.7</ele>
        <time>2026-02-08T09:12:44.000Z</time>
      </trkpt>
      <trkpt lat="43.03829" lon="-0.33545">
        <ele>1525.7</ele>
        <time>2026-02-08T09:12:45.000Z</time>
      </trkpt>
      <trkpt lat="43.03829" lon="-0.33545">
        <ele>1525.8</ele>
        <time>2026-02-08T09:12:46.000Z</time>
      </trkpt>
      <trkpt lat="43.0383" lon="-0.33545">
        <ele>1525.9</ele>
        <time>2026-02-08T09:12:49.000Z</time>
      </trkpt>
      <trkpt lat="43.03833" lon="-0.33545">
        <ele>1526</ele>
        <time>2026-02-08T09:12:52.000Z</time>
      </trkpt>
      <trkpt lat="43.03835" lon="-0.33545">
        <ele>1526</ele>
        <time>2026-02-08T09:12:55.000Z</time>
      </trkpt>
      <trkpt lat="43.03837" lon="-0.33544">
        <ele>1526</ele>
        <time>2026-02-08T09:12:58.000Z</time>
      </trkpt>
      <trkpt lat="43.03839" lon="-0.33542">
        <ele>1525.9</ele>
        <time>2026-02-08T09:13:01.000Z</time>
      </trkpt>
      <trkpt lat="43.0384" lon="-0.33541">
        <ele>1525.8</ele>
        <time>2026-02-08T09:13:04.000Z</time>
      </trkpt>
      <trkpt lat="43.0384" lon="-0.33539">
        <ele>1525.8</ele>
        <time>2026-02-08T09:13:07.000Z</time>
      </trkpt>
      <trkpt lat="43.0384" lon="-0.33539">
        <ele>1525.8</ele>
        <time>2026-02-08T09:13:10.000Z</time>
      </trkpt>
      <trkpt lat="43.03841" lon="-0.33538">
        <ele>1525.7</ele>
        <time>2026-02-08T09:13:13.000Z</time>
      </trkpt>
      <trkpt lat="43.03841" lon="-0.33538">
        <ele>1525.7</ele>
        <time>2026-02-08T09:13:16.000Z</time>
      </trkpt>
      <trkpt lat="43.03841" lon="-0.33536">
        <ele>1525.7</ele>
        <time>2026-02-08T09:13:19.000Z</time>
      </trkpt>
      <trkpt lat="43.03843" lon="-0.33534">
        <ele>1525.7</ele>
        <time>2026-02-08T09:13:22.000Z</time>
      </trkpt>
      <trkpt lat="43.03843" lon="-0.33532">
        <ele>1525.5</ele>
        <time>2026-02-08T09:13:25.000Z</time>
      </trkpt>
      <trkpt lat="43.03844" lon="-0.3353">
        <ele>1525.4</ele>
        <time>2026-02-08T09:13:28.000Z</time>
      </trkpt>
      <trkpt lat="43.03843" lon="-0.33528">
        <ele>1525.1</ele>
        <time>2026-02-08T09:13:31.000Z</time>
      </trkpt>
      <trkpt lat="43.03842" lon="-0.33526">
        <ele>1524.7</ele>
        <time>2026-02-08T09:13:34.000Z</time>
      </trkpt>
      <trkpt lat="43.03842" lon="-0.33524">
        <ele>1524.3</ele>
        <time>2026-02-08T09:13:37.000Z</time>
      </trkpt>
      <trkpt lat="43.0384" lon="-0.33524">
        <ele>1523.8</ele>
        <time>2026-02-08T09:13:40.000Z</time>
      </trkpt>
      <trkpt lat="43.03838" lon="-0.33524">
        <ele>1523.2</ele>
        <time>2026-02-08T09:13:43.000Z</time>
      </trkpt>
      <trkpt lat="43.03835" lon="-0.33524">
        <ele>1522.5</ele>
        <time>2026-02-08T09:13:46.000Z</time>
      </trkpt>
      <trkpt lat="43.03834" lon="-0.33521">
        <ele>1522</ele>
        <time>2026-02-08T09:13:49.000Z</time>
      </trkpt>
      <trkpt lat="43.03835" lon="-0.33518">
        <ele>1521.6</ele>
        <time>2026-02-08T09:13:52.000Z</time>
      </trkpt>
      <trkpt lat="43.03836" lon="-0.33516">
        <ele>1521.2</ele>
        <time>2026-02-08T09:13:55.000Z</time>
      </trkpt>
      <trkpt lat="43.03839" lon="-0.33515">
        <ele>1520.9</ele>
        <time>2026-02-08T09:13:58.000Z</time>
      </trkpt>
      <trkpt lat="43.03841" lon="-0.33514">
        <ele>1520.8</ele>
        <time>2026-02-08T09:14:01.000Z</time>
      </trkpt>
      <trkpt lat="43.03843" lon="-0.33513">
        <ele>1520.7</ele>
        <time>2026-02-08T09:14:04.000Z</time>
      </trkpt>
      <trkpt lat="43.03844" lon="-0.3351">
        <ele>1520.6</ele>
        <time>2026-02-08T09:14:07.000Z</time>
      </trkpt>
      <trkpt lat="43.03846" lon="-0.33508">
        <ele>1520.5</ele>
        <time>2026-02-08T09:14:10.000Z</time>
      </trkpt>
      <trkpt lat="43.03848" lon="-0.33507">
        <ele>1520.5</ele>
        <time>2026-02-08T09:14:13.000Z</time>
      </trkpt>
      <trkpt lat="43.03849" lon="-0.33506">
        <ele>1520.6</ele>
        <time>2026-02-08T09:14:16.000Z</time>
      </trkpt>
      <trkpt lat="43.0385" lon="-0.33504">
        <ele>1520.7</ele>
        <time>2026-02-08T09:14:19.000Z</time>
      </trkpt>
      <trkpt lat="43.03851" lon="-0.33502">
        <ele>1520.9</ele>
        <time>2026-02-08T09:14:22.000Z</time>
      </trkpt>
      <trkpt lat="43.03853" lon="-0.33501">
        <ele>1521.2</ele>
        <time>2026-02-08T09:14:25.000Z</time>
      </trkpt>
      <trkpt lat="43.03854" lon="-0.335">
        <ele>1521.5</ele>
        <time>2026-02-08T09:14:28.000Z</time>
      </trkpt>
      <trkpt lat="43.03856" lon="-0.335">
        <ele>1521.8</ele>
        <time>2026-02-08T09:14:31.000Z</time>
      </trkpt>
      <trkpt lat="43.03857" lon="-0.33499">
        <ele>1522.2</ele>
        <time>2026-02-08T09:14:34.000Z</time>
      </trkpt>
      <trkpt lat="43.03859" lon="-0.33499">
        <ele>1522.7</ele>
        <time>2026-02-08T09:14:37.000Z</time>
      </trkpt>
      <trkpt lat="43.0386" lon="-0.33499">
        <ele>1523.3</ele>
        <time>2026-02-08T09:14:40.000Z</time>
      </trkpt>
      <trkpt lat="43.03862" lon="-0.33499">
        <ele>1523.9</ele>
        <time>2026-02-08T09:14:43.000Z</time>
      </trkpt>
      <trkpt lat="43.03863" lon="-0.33498">
        <ele>1524.5</ele>
        <time>2026-02-08T09:14:46.000Z</time>
      </trkpt>
      <trkpt lat="43.03864" lon="-0.33498">
        <ele>1525.1</ele>
        <time>2026-02-08T09:14:49.000Z</time>
      </trkpt>
      <trkpt lat="43.03865" lon="-0.33498">
        <ele>1525.5</ele>
        <time>2026-02-08T09:14:52.000Z</time>
      </trkpt>
      <trkpt lat="43.03865" lon="-0.33498">
        <ele>1525.9</ele>
        <time>2026-02-08T09:14:55.000Z</time>
      </trkpt>
      <trkpt lat="43.03865" lon="-0.33499">
        <ele>1526.1</ele>
        <time>2026-02-08T09:14:58.000Z</time>
      </trkpt>
      <trkpt lat="43.03865" lon="-0.33499">
        <ele>1526.2</ele>
        <time>2026-02-08T09:14:59.000Z</time>
      </trkpt>
      <trkpt lat="43.03865" lon="-0.33499">
        <ele>1526.2</ele>
        <time>2026-02-08T09:15:00.000Z</time>
      </trkpt>
      <trkpt lat="43.03865" lon="-0.33499">
        <ele>1526.3</ele>
        <time>2026-02-08T09:15:01.000Z</time>
      </trkpt>
      <trkpt lat="43.03865" lon="-0.33499">
        <ele>1526.4</ele>
        <time>2026-02-08T09:15:04.000Z</time>
      </trkpt>
      <trkpt lat="43.03865" lon="-0.33499">
        <ele>1526.5</ele>
        <time>2026-02-08T09:15:07.000Z</time>
      </trkpt>
      <trkpt lat="43.03865" lon="-0.33499">
        <ele>1526.6</ele>
        <time>2026-02-08T09:15:10.000Z</time>
      </trkpt>
      <trkpt lat="43.03865" lon="-0.33499">
        <ele>1526.6</ele>
        <time>2026-02-08T09:15:13.000Z</time>
      </trkpt>
      <trkpt lat="43.03865" lon="-0.33499">
        <ele>1526.5</ele>
        <time>2026-02-08T09:15:16.000Z</time>
      </trkpt>
      <trkpt lat="43.03865" lon="-0.33499">
        <ele>1526.5</ele>
        <time>2026-02-08T09:15:19.000Z</time>
      </trkpt>
      <trkpt lat="43.03865" lon="-0.33499">
        <ele>1526.5</ele>
        <time>2026-02-08T09:15:22.000Z</time>
      </trkpt>
      <trkpt lat="43.03865" lon="-0.33499">
        <ele>1526.5</ele>
        <time>2026-02-08T09:15:25.000Z</time>
      </trkpt>
      <trkpt lat="43.03865" lon="-0.33499">
        <ele>1526.5</ele>
        <time>2026-02-08T09:15:28.000Z</time>
      </trkpt>
      <trkpt lat="43.03865" lon="-0.33499">
        <ele>1526.5</ele>
        <time>2026-02-08T09:15:31.000Z</time>
      </trkpt>
      <trkpt lat="43.03865" lon="-0.33499">
        <ele>1526.5</ele>
        <time>2026-02-08T09:15:34.000Z</time>
      </trkpt>
      <trkpt lat="43.03865" lon="-0.33499">
        <ele>1526.5</ele>
        <time>2026-02-08T09:15:37.000Z</time>
      </trkpt>
      <trkpt lat="43.03865" lon="-0.33499">
        <ele>1526.5</ele>
        <time>2026-02-08T09:15:40.000Z</time>
      </trkpt>
      <trkpt lat="43.03865" lon="-0.33499">
        <ele>1526.5</ele>
        <time>2026-02-08T09:15:43.000Z</time>
      </trkpt>
      <trkpt lat="43.03865" lon="-0.33499">
        <ele>1526.5</ele>
        <time>2026-02-08T09:15:46.000Z</time>
      </trkpt>
      <trkpt lat="43.03865" lon="-0.33499">
        <ele>1526.5</ele>
        <time>2026-02-08T09:15:49.000Z</time>
      </trkpt>
      <trkpt lat="43.03865" lon="-0.33498">
        <ele>1526.5</ele>
        <time>2026-02-08T09:15:51.000Z</time>
      </trkpt>
      <trkpt lat="43.03865" lon="-0.33498">
        <ele>1526.5</ele>
        <time>2026-02-08T09:15:52.000Z</time>
      </trkpt>
      <trkpt lat="43.03866" lon="-0.33498">
        <ele>1526.5</ele>
        <time>2026-02-08T09:15:53.000Z</time>
      </trkpt>
      <trkpt lat="43.03866" lon="-0.33498">
        <ele>1526.5</ele>
        <time>2026-02-08T09:15:56.000Z</time>
      </trkpt>
      <trkpt lat="43.03866" lon="-0.33498">
        <ele>1526.5</ele>
        <time>2026-02-08T09:15:57.000Z</time>
      </trkpt>
      <trkpt lat="43.03866" lon="-0.33498">
        <ele>1526.5</ele>
        <time>2026-02-08T09:15:58.000Z</time>
      </trkpt>
      <trkpt lat="43.03866" lon="-0.33498">
        <ele>1526.5</ele>
        <time>2026-02-08T09:15:59.000Z</time>
      </trkpt>
      <trkpt lat="43.03866" lon="-0.33498">
        <ele>1526.6</ele>
        <time>2026-02-08T09:16:02.000Z</time>
      </trkpt>
      <trkpt lat="43.03866" lon="-0.33498">
        <ele>1526.6</ele>
        <time>2026-02-08T09:16:05.000Z</time>
      </trkpt>
      <trkpt lat="43.03866" lon="-0.33498">
        <ele>1526.6</ele>
        <time>2026-02-08T09:16:08.000Z</time>
      </trkpt>
      <trkpt lat="43.03866" lon="-0.33498">
        <ele>1526.6</ele>
        <time>2026-02-08T09:16:11.000Z</time>
      </trkpt>
      <trkpt lat="43.03866" lon="-0.33498">
        <ele>1526.6</ele>
        <time>2026-02-08T09:16:14.000Z</time>
      </trkpt>
      <trkpt lat="43.03866" lon="-0.33498">
        <ele>1526.7</ele>
        <time>2026-02-08T09:16:15.000Z</time>
      </trkpt>
      <trkpt lat="43.03866" lon="-0.33498">
        <ele>1526.7</ele>
        <time>2026-02-08T09:16:16.000Z</time>
      </trkpt>
      <trkpt lat="43.03866" lon="-0.33498">
        <ele>1526.7</ele>
        <time>2026-02-08T09:16:19.000Z</time>
      </trkpt>
      <trkpt lat="43.03866" lon="-0.33498">
        <ele>1526.7</ele>
        <time>2026-02-08T09:16:20.000Z</time>
      </trkpt>
      <trkpt lat="43.03866" lon="-0.33498">
        <ele>1526.7</ele>
        <time>2026-02-08T09:16:23.000Z</time>
      </trkpt>
      <trkpt lat="43.03866" lon="-0.33498">
        <ele>1526.6</ele>
        <time>2026-02-08T09:16:26.000Z</time>
      </trkpt>
      <trkpt lat="43.03866" lon="-0.33498">
        <ele>1526.6</ele>
        <time>2026-02-08T09:16:29.000Z</time>
      </trkpt>
      <trkpt lat="43.03866" lon="-0.33498">
        <ele>1526.6</ele>
        <time>2026-02-08T09:16:32.000Z</time>
      </trkpt>
      <trkpt lat="43.03866" lon="-0.33498">
        <ele>1526.6</ele>
        <time>2026-02-08T09:16:35.000Z</time>
      </trkpt>
      <trkpt lat="43.03866" lon="-0.33498">
        <ele>1526.6</ele>
        <time>2026-02-08T09:16:38.000Z</time>
      </trkpt>
      <trkpt lat="43.03866" lon="-0.33498">
        <ele>1526.6</ele>
        <time>2026-02-08T09:16:41.000Z</time>
      </trkpt>
      <trkpt lat="43.03866" lon="-0.33498">
        <ele>1526.6</ele>
        <time>2026-02-08T09:16:44.000Z</time>
      </trkpt>
      <trkpt lat="43.03867" lon="-0.33498">
        <ele>1526.6</ele>
        <time>2026-02-08T09:16:46.000Z</time>
      </trkpt>
      <trkpt lat="43.03867" lon="-0.33498">
        <ele>1526.6</ele>
        <time>2026-02-08T09:16:47.000Z</time>
      </trkpt>
      <trkpt lat="43.03867" lon="-0.33498">
        <ele>1526.6</ele>
        <time>2026-02-08T09:16:48.000Z</time>
      </trkpt>
      <trkpt lat="43.03867" lon="-0.33498">
        <ele>1526.6</ele>
        <time>2026-02-08T09:16:51.000Z</time>
      </trkpt>
      <trkpt lat="43.03867" lon="-0.33498">
        <ele>1526.6</ele>
        <time>2026-02-08T09:16:52.000Z</time>
      </trkpt>
      <trkpt lat="43.03867" lon="-0.33498">
        <ele>1526.6</ele>
        <time>2026-02-08T09:16:53.000Z</time>
      </trkpt>
      <trkpt lat="43.03868" lon="-0.33499">
        <ele>1526.7</ele>
        <time>2026-02-08T09:16:56.000Z</time>
      </trkpt>
      <trkpt lat="43.03868" lon="-0.33499">
        <ele>1526.7</ele>
        <time>2026-02-08T09:16:57.000Z</time>
      </trkpt>
      <trkpt lat="43.03869" lon="-0.33499">
        <ele>1526.7</ele>
        <time>2026-02-08T09:16:58.000Z</time>
      </trkpt>
      <trkpt lat="43.0387" lon="-0.335">
        <ele>1526.8</ele>
        <time>2026-02-08T09:17:01.000Z</time>
      </trkpt>
      <trkpt lat="43.03871" lon="-0.33501">
        <ele>1527</ele>
        <time>2026-02-08T09:17:04.000Z</time>
      </trkpt>
      <trkpt lat="43.03873" lon="-0.33502">
        <ele>1527.2</ele>
        <time>2026-02-08T09:17:07.000Z</time>
      </trkpt>
      <trkpt lat="43.03875" lon="-0.33502">
        <ele>1527.6</ele>
        <time>2026-02-08T09:17:10.000Z</time>
      </trkpt>
      <trkpt lat="43.03876" lon="-0.33503">
        <ele>1528</ele>
        <time>2026-02-08T09:17:13.000Z</time>
      </trkpt>
      <trkpt lat="43.03877" lon="-0.33503">
        <ele>1528.6</ele>
        <time>2026-02-08T09:17:16.000Z</time>
      </trkpt>
      <trkpt lat="43.03879" lon="-0.33503">
        <ele>1529</ele>
        <time>2026-02-08T09:17:19.000Z</time>
      </trkpt>
      <trkpt lat="43.0388" lon="-0.33503">
        <ele>1529.5</ele>
        <time>2026-02-08T09:17:22.000Z</time>
      </trkpt>
      <trkpt lat="43.03882" lon="-0.33503">
        <ele>1529.9</ele>
        <time>2026-02-08T09:17:25.000Z</time>
      </trkpt>
      <trkpt lat="43.03884" lon="-0.33504">
        <ele>1530.2</ele>
        <time>2026-02-08T09:17:28.000Z</time>
      </trkpt>
      <trkpt lat="43.03886" lon="-0.33504">
        <ele>1530.5</ele>
        <time>2026-02-08T09:17:31.000Z</time>
      </trkpt>
      <trkpt lat="43.03886" lon="-0.33505">
        <ele>1530.8</ele>
        <time>2026-02-08T09:17:34.000Z</time>
      </trkpt>
      <trkpt lat="43.03887" lon="-0.33505">
        <ele>1531</ele>
        <time>2026-02-08T09:17:37.000Z</time>
      </trkpt>
      <trkpt lat="43.03888" lon="-0.33506">
        <ele>1531.2</ele>
        <time>2026-02-08T09:17:40.000Z</time>
      </trkpt>
      <trkpt lat="43.03889" lon="-0.33506">
        <ele>1531.5</ele>
        <time>2026-02-08T09:17:43.000Z</time>
      </trkpt>
      <trkpt lat="43.03891" lon="-0.33508">
        <ele>1531.7</ele>
        <time>2026-02-08T09:17:46.000Z</time>
      </trkpt>
      <trkpt lat="43.03892" lon="-0.33509">
        <ele>1532</ele>
        <time>2026-02-08T09:17:49.000Z</time>
      </trkpt>
      <trkpt lat="43.03894" lon="-0.33509">
        <ele>1532.4</ele>
        <time>2026-02-08T09:17:52.000Z</time>
      </trkpt>
      <trkpt lat="43.03895" lon="-0.33509">
        <ele>1532.8</ele>
        <time>2026-02-08T09:17:55.000Z</time>
      </trkpt>
      <trkpt lat="43.03896" lon="-0.33509">
        <ele>1533.3</ele>
        <time>2026-02-08T09:17:58.000Z</time>
      </trkpt>
      <trkpt lat="43.03897" lon="-0.33509">
        <ele>1533.9</ele>
        <time>2026-02-08T09:18:01.000Z</time>
      </trkpt>
      <trkpt lat="43.03898" lon="-0.33508">
        <ele>1534.4</ele>
        <time>2026-02-08T09:18:04.000Z</time>
      </trkpt>
      <trkpt lat="43.039" lon="-0.33508">
        <ele>1535</ele>
        <time>2026-02-08T09:18:07.000Z</time>
      </trkpt>
      <trkpt lat="43.03902" lon="-0.33507">
        <ele>1535.5</ele>
        <time>2026-02-08T09:18:10.000Z</time>
      </trkpt>
      <trkpt lat="43.03903" lon="-0.33508">
        <ele>1536</ele>
        <time>2026-02-08T09:18:13.000Z</time>
      </trkpt>
      <trkpt lat="43.03905" lon="-0.3351">
        <ele>1536.4</ele>
        <time>2026-02-08T09:18:16.000Z</time>
      </trkpt>
      <trkpt lat="43.03906" lon="-0.33511">
        <ele>1536.7</ele>
        <time>2026-02-08T09:18:19.000Z</time>
      </trkpt>
      <trkpt lat="43.03908" lon="-0.33511">
        <ele>1536.9</ele>
        <time>2026-02-08T09:18:22.000Z</time>
      </trkpt>
      <trkpt lat="43.0391" lon="-0.33511">
        <ele>1537.1</ele>
        <time>2026-02-08T09:18:25.000Z</time>
      </trkpt>
      <trkpt lat="43.0391" lon="-0.33511">
        <ele>1537.3</ele>
        <time>2026-02-08T09:18:28.000Z</time>
      </trkpt>
      <trkpt lat="43.03912" lon="-0.33511">
        <ele>1537.5</ele>
        <time>2026-02-08T09:18:31.000Z</time>
      </trkpt>
      <trkpt lat="43.03913" lon="-0.3351">
        <ele>1537.7</ele>
        <time>2026-02-08T09:18:34.000Z</time>
      </trkpt>
      <trkpt lat="43.03915" lon="-0.33508">
        <ele>1538</ele>
        <time>2026-02-08T09:18:37.000Z</time>
      </trkpt>
      <trkpt lat="43.03916" lon="-0.33507">
        <ele>1538.2</ele>
        <time>2026-02-08T09:18:40.000Z</time>
      </trkpt>
      <trkpt lat="43.03918" lon="-0.33505">
        <ele>1538.5</ele>
        <time>2026-02-08T09:18:43.000Z</time>
      </trkpt>
      <trkpt lat="43.03919" lon="-0.33504">
        <ele>1538.8</ele>
        <time>2026-02-08T09:18:46.000Z</time>
      </trkpt>
      <trkpt lat="43.0392" lon="-0.33502">
        <ele>1539.4</ele>
        <time>2026-02-08T09:18:49.000Z</time>
      </trkpt>
      <trkpt lat="43.03921" lon="-0.335">
        <ele>1539.9</ele>
        <time>2026-02-08T09:18:52.000Z</time>
      </trkpt>
      <trkpt lat="43.03922" lon="-0.33499">
        <ele>1540.3</ele>
        <time>2026-02-08T09:18:55.000Z</time>
      </trkpt>
      <trkpt lat="43.03923" lon="-0.33498">
        <ele>1540.7</ele>
        <time>2026-02-08T09:18:58.000Z</time>
      </trkpt>
      <trkpt lat="43.03925" lon="-0.33497">
        <ele>1541</ele>
        <time>2026-02-08T09:19:01.000Z</time>
      </trkpt>
      <trkpt lat="43.03926" lon="-0.33495">
        <ele>1541.5</ele>
        <time>2026-02-08T09:19:04.000Z</time>
      </trkpt>
      <trkpt lat="43.03926" lon="-0.33493">
        <ele>1542</ele>
        <time>2026-02-08T09:19:07.000Z</time>
      </trkpt>
      <trkpt lat="43.03927" lon="-0.33491">
        <ele>1542.5</ele>
        <time>2026-02-08T09:19:10.000Z</time>
      </trkpt>
      <trkpt lat="43.03927" lon="-0.33491">
        <ele>1543.1</ele>
        <time>2026-02-08T09:19:13.000Z</time>
      </trkpt>
      <trkpt lat="43.03928" lon="-0.3349">
        <ele>1543.6</ele>
        <time>2026-02-08T09:19:16.000Z</time>
      </trkpt>
      <trkpt lat="43.03929" lon="-0.33488">
        <ele>1544</ele>
        <time>2026-02-08T09:19:19.000Z</time>
      </trkpt>
      <trkpt lat="43.03931" lon="-0.33488">
        <ele>1544.5</ele>
        <time>2026-02-08T09:19:22.000Z</time>
      </trkpt>
      <trkpt lat="43.03932" lon="-0.33487">
        <ele>1544.8</ele>
        <time>2026-02-08T09:19:25.000Z</time>
      </trkpt>
      <trkpt lat="43.03933" lon="-0.33486">
        <ele>1545.1</ele>
        <time>2026-02-08T09:19:28.000Z</time>
      </trkpt>
      <trkpt lat="43.03934" lon="-0.33485">
        <ele>1545.4</ele>
        <time>2026-02-08T09:19:31.000Z</time>
      </trkpt>
      <trkpt lat="43.03935" lon="-0.33483">
        <ele>1545.8</ele>
        <time>2026-02-08T09:19:34.000Z</time>
      </trkpt>
      <trkpt lat="43.03936" lon="-0.33482">
        <ele>1546.2</ele>
        <time>2026-02-08T09:19:37.000Z</time>
      </trkpt>
      <trkpt lat="43.03936" lon="-0.33481">
        <ele>1546.7</ele>
        <time>2026-02-08T09:19:40.000Z</time>
      </trkpt>
      <trkpt lat="43.03938" lon="-0.3348">
        <ele>1547.1</ele>
        <time>2026-02-08T09:19:43.000Z</time>
      </trkpt>
      <trkpt lat="43.03939" lon="-0.33479">
        <ele>1547.7</ele>
        <time>2026-02-08T09:19:46.000Z</time>
      </trkpt>
      <trkpt lat="43.0394" lon="-0.33478">
        <ele>1548.3</ele>
        <time>2026-02-08T09:19:49.000Z</time>
      </trkpt>
      <trkpt lat="43.0394" lon="-0.33478">
        <ele>1548.7</ele>
        <time>2026-02-08T09:19:52.000Z</time>
      </trkpt>
      <trkpt lat="43.0394" lon="-0.33478">
        <ele>1548.8</ele>
        <time>2026-02-08T09:19:54.000Z</time>
      </trkpt>
      <trkpt lat="43.0394" lon="-0.33478">
        <ele>1548.9</ele>
        <time>2026-02-08T09:19:55.000Z</time>
      </trkpt>
      <trkpt lat="43.0394" lon="-0.33478">
        <ele>1549</ele>
        <time>2026-02-08T09:19:56.000Z</time>
      </trkpt>
      <trkpt lat="43.0394" lon="-0.33477">
        <ele>1549.2</ele>
        <time>2026-02-08T09:19:59.000Z</time>
      </trkpt>
      <trkpt lat="43.03941" lon="-0.33477">
        <ele>1549.2</ele>
        <time>2026-02-08T09:20:00.000Z</time>
      </trkpt>
      <trkpt lat="43.03941" lon="-0.33477">
        <ele>1549.3</ele>
        <time>2026-02-08T09:20:01.000Z</time>
      </trkpt>
      <trkpt lat="43.03942" lon="-0.33477">
        <ele>1549.5</ele>
        <time>2026-02-08T09:20:04.000Z</time>
      </trkpt>
      <trkpt lat="43.03943" lon="-0.33477">
        <ele>1549.8</ele>
        <time>2026-02-08T09:20:07.000Z</time>
      </trkpt>
      <trkpt lat="43.03944" lon="-0.33478">
        <ele>1550</ele>
        <time>2026-02-08T09:20:10.000Z</time>
      </trkpt>
      <trkpt lat="43.03945" lon="-0.33479">
        <ele>1550.3</ele>
        <time>2026-02-08T09:20:13.000Z</time>
      </trkpt>
      <trkpt lat="43.03946" lon="-0.3348">
        <ele>1550.5</ele>
        <time>2026-02-08T09:20:16.000Z</time>
      </trkpt>
      <trkpt lat="43.03948" lon="-0.33481">
        <ele>1550.7</ele>
        <time>2026-02-08T09:20:19.000Z</time>
      </trkpt>
      <trkpt lat="43.03949" lon="-0.33481">
        <ele>1550.8</ele>
        <time>2026-02-08T09:20:22.000Z</time>
      </trkpt>
      <trkpt lat="43.03951" lon="-0.33482">
        <ele>1550.9</ele>
        <time>2026-02-08T09:20:25.000Z</time>
      </trkpt>
      <trkpt lat="43.03952" lon="-0.33482">
        <ele>1551.1</ele>
        <time>2026-02-08T09:20:28.000Z</time>
      </trkpt>
      <trkpt lat="43.03953" lon="-0.33484">
        <ele>1551.4</ele>
        <time>2026-02-08T09:20:31.000Z</time>
      </trkpt>
      <trkpt lat="43.03953" lon="-0.33485">
        <ele>1551.6</ele>
        <time>2026-02-08T09:20:34.000Z</time>
      </trkpt>
      <trkpt lat="43.03954" lon="-0.33485">
        <ele>1551.8</ele>
        <time>2026-02-08T09:20:36.000Z</time>
      </trkpt>
      <trkpt lat="43.03954" lon="-0.33485">
        <ele>1551.8</ele>
        <time>2026-02-08T09:20:37.000Z</time>
      </trkpt>
      <trkpt lat="43.03954" lon="-0.33485">
        <ele>1551.9</ele>
        <time>2026-02-08T09:20:38.000Z</time>
      </trkpt>
      <trkpt lat="43.03954" lon="-0.33485">
        <ele>1552.1</ele>
        <time>2026-02-08T09:20:41.000Z</time>
      </trkpt>
      <trkpt lat="43.03954" lon="-0.33485">
        <ele>1552.2</ele>
        <time>2026-02-08T09:20:44.000Z</time>
      </trkpt>
      <trkpt lat="43.03954" lon="-0.33485">
        <ele>1552.2</ele>
        <time>2026-02-08T09:20:47.000Z</time>
      </trkpt>
      <trkpt lat="43.03954" lon="-0.33485">
        <ele>1552.3</ele>
        <time>2026-02-08T09:20:50.000Z</time>
      </trkpt>
      <trkpt lat="43.03954" lon="-0.33485">
        <ele>1552.3</ele>
        <time>2026-02-08T09:20:51.000Z</time>
      </trkpt>
      <trkpt lat="43.03953" lon="-0.33485">
        <ele>1552.3</ele>
        <time>2026-02-08T09:20:54.000Z</time>
      </trkpt>
      <trkpt lat="43.03954" lon="-0.33486">
        <ele>1552.3</ele>
        <time>2026-02-08T09:20:57.000Z</time>
      </trkpt>
      <trkpt lat="43.03955" lon="-0.33485">
        <ele>1552.3</ele>
        <time>2026-02-08T09:21:00.000Z</time>
      </trkpt>
      <trkpt lat="43.03955" lon="-0.33486">
        <ele>1552.3</ele>
        <time>2026-02-08T09:21:02.000Z</time>
      </trkpt>
      <trkpt lat="43.03955" lon="-0.33486">
        <ele>1552.3</ele>
        <time>2026-02-08T09:21:03.000Z</time>
      </trkpt>
      <trkpt lat="43.03956" lon="-0.33486">
        <ele>1552.4</ele>
        <time>2026-02-08T09:21:06.000Z</time>
      </trkpt>
      <trkpt lat="43.03956" lon="-0.33486">
        <ele>1552.4</ele>
        <time>2026-02-08T09:21:07.000Z</time>
      </trkpt>
      <trkpt lat="43.03956" lon="-0.33486">
        <ele>1552.4</ele>
        <time>2026-02-08T09:21:08.000Z</time>
      </trkpt>
      <trkpt lat="43.03956" lon="-0.33486">
        <ele>1552.3</ele>
        <time>2026-02-08T09:21:09.000Z</time>
      </trkpt>
      <trkpt lat="43.03956" lon="-0.33487">
        <ele>1552.4</ele>
        <time>2026-02-08T09:21:12.000Z</time>
      </trkpt>
      <trkpt lat="43.03956" lon="-0.33486">
        <ele>1552.4</ele>
        <time>2026-02-08T09:21:15.000Z</time>
      </trkpt>
      <trkpt lat="43.03956" lon="-0.33486">
        <ele>1552.4</ele>
        <time>2026-02-08T09:21:17.000Z</time>
      </trkpt>
      <trkpt lat="43.03956" lon="-0.33486">
        <ele>1552.4</ele>
        <time>2026-02-08T09:21:18.000Z</time>
      </trkpt>
      <trkpt lat="43.03956" lon="-0.33486">
        <ele>1552.4</ele>
        <time>2026-02-08T09:21:19.000Z</time>
      </trkpt>
      <trkpt lat="43.03956" lon="-0.33486">
        <ele>1552.4</ele>
        <time>2026-02-08T09:21:22.000Z</time>
      </trkpt>
      <trkpt lat="43.03956" lon="-0.33486">
        <ele>1552.4</ele>
        <time>2026-02-08T09:21:24.000Z</time>
      </trkpt>
      <trkpt lat="43.03956" lon="-0.33486">
        <ele>1552.4</ele>
        <time>2026-02-08T09:21:25.000Z</time>
      </trkpt>
      <trkpt lat="43.03956" lon="-0.33486">
        <ele>1552.4</ele>
        <time>2026-02-08T09:21:26.000Z</time>
      </trkpt>
      <trkpt lat="43.03956" lon="-0.33486">
        <ele>1552.5</ele>
        <time>2026-02-08T09:21:27.000Z</time>
      </trkpt>
      <trkpt lat="43.03956" lon="-0.33486">
        <ele>1552.5</ele>
        <time>2026-02-08T09:21:28.000Z</time>
      </trkpt>
      <trkpt lat="43.03956" lon="-0.33486">
        <ele>1552.5</ele>
        <time>2026-02-08T09:21:31.000Z</time>
      </trkpt>
      <trkpt lat="43.03958" lon="-0.33486">
        <ele>1552.5</ele>
        <time>2026-02-08T09:21:34.000Z</time>
      </trkpt>
      <trkpt lat="43.03958" lon="-0.33486">
        <ele>1552.5</ele>
        <time>2026-02-08T09:21:35.000Z</time>
      </trkpt>
      <trkpt lat="43.03958" lon="-0.33485">
        <ele>1552.6</ele>
        <time>2026-02-08T09:21:36.000Z</time>
      </trkpt>
      <trkpt lat="43.03959" lon="-0.33485">
        <ele>1552.6</ele>
        <time>2026-02-08T09:21:39.000Z</time>
      </trkpt>
      <trkpt lat="43.0396" lon="-0.33484">
        <ele>1552.7</ele>
        <time>2026-02-08T09:21:42.000Z</time>
      </trkpt>
      <trkpt lat="43.03962" lon="-0.33483">
        <ele>1552.7</ele>
        <time>2026-02-08T09:21:45.000Z</time>
      </trkpt>
      <trkpt lat="43.03963" lon="-0.33483">
        <ele>1552.7</ele>
        <time>2026-02-08T09:21:48.000Z</time>
      </trkpt>
      <trkpt lat="43.03965" lon="-0.33484">
        <ele>1552.8</ele>
        <time>2026-02-08T09:21:51.000Z</time>
      </trkpt>
      <trkpt lat="43.03966" lon="-0.33484">
        <ele>1552.9</ele>
        <time>2026-02-08T09:21:54.000Z</time>
      </trkpt>
      <trkpt lat="43.03967" lon="-0.33484">
        <ele>1553.1</ele>
        <time>2026-02-08T09:21:57.000Z</time>
      </trkpt>
      <trkpt lat="43.03969" lon="-0.33485">
        <ele>1553.4</ele>
        <time>2026-02-08T09:22:00.000Z</time>
      </trkpt>
      <trkpt lat="43.03972" lon="-0.33486">
        <ele>1553.6</ele>
        <time>2026-02-08T09:22:03.000Z</time>
      </trkpt>
      <trkpt lat="43.03975" lon="-0.33487">
        <ele>1554</ele>
        <time>2026-02-08T09:22:06.000Z</time>
      </trkpt>
      <trkpt lat="43.03978" lon="-0.33488">
        <ele>1554.2</ele>
        <time>2026-02-08T09:22:09.000Z</time>
      </trkpt>
      <trkpt lat="43.0398" lon="-0.33489">
        <ele>1554.4</ele>
        <time>2026-02-08T09:22:12.000Z</time>
      </trkpt>
      <trkpt lat="43.03982" lon="-0.3349">
        <ele>1554.6</ele>
        <time>2026-02-08T09:22:15.000Z</time>
      </trkpt>
      <trkpt lat="43.03984" lon="-0.33491">
        <ele>1554.6</ele>
        <time>2026-02-08T09:22:18.000Z</time>
      </trkpt>
      <trkpt lat="43.03986" lon="-0.33491">
        <ele>1554.6</ele>
        <time>2026-02-08T09:22:21.000Z</time>
      </trkpt>
      <trkpt lat="43.03988" lon="-0.33491">
        <ele>1554.6</ele>
        <time>2026-02-08T09:22:24.000Z</time>
      </trkpt>
      <trkpt lat="43.03991" lon="-0.33491">
        <ele>1554.5</ele>
        <time>2026-02-08T09:22:27.000Z</time>
      </trkpt>
      <trkpt lat="43.03993" lon="-0.33491">
        <ele>1554.5</ele>
        <time>2026-02-08T09:22:30.000Z</time>
      </trkpt>
      <trkpt lat="43.03996" lon="-0.33489">
        <ele>1554.4</ele>
        <time>2026-02-08T09:22:33.000Z</time>
      </trkpt>
      <trkpt lat="43.03998" lon="-0.33487">
        <ele>1554.4</ele>
        <time>2026-02-08T09:22:36.000Z</time>
      </trkpt>
      <trkpt lat="43.03999" lon="-0.33485">
        <ele>1554.4</ele>
        <time>2026-02-08T09:22:39.000Z</time>
      </trkpt>
      <trkpt lat="43.04" lon="-0.33482">
        <ele>1554.5</ele>
        <time>2026-02-08T09:22:42.000Z</time>
      </trkpt>
      <trkpt lat="43.04" lon="-0.33482">
        <ele>1554.5</ele>
        <time>2026-02-08T09:22:45.000Z</time>
      </trkpt>
      <trkpt lat="43.04" lon="-0.33482">
        <ele>1554.6</ele>
        <time>2026-02-08T09:22:48.000Z</time>
      </trkpt>
      <trkpt lat="43.04" lon="-0.33482">
        <ele>1554.6</ele>
        <time>2026-02-08T09:22:51.000Z</time>
      </trkpt>
      <trkpt lat="43.04" lon="-0.33482">
        <ele>1554.7</ele>
        <time>2026-02-08T09:22:54.000Z</time>
      </trkpt>
      <trkpt lat="43.04" lon="-0.33482">
        <ele>1554.7</ele>
        <time>2026-02-08T09:22:56.000Z</time>
      </trkpt>
      <trkpt lat="43.04" lon="-0.33482">
        <ele>1554.7</ele>
        <time>2026-02-08T09:22:57.000Z</time>
      </trkpt>
      <trkpt lat="43.04" lon="-0.33482">
        <ele>1554.7</ele>
        <time>2026-02-08T09:22:58.000Z</time>
      </trkpt>
      <trkpt lat="43.04001" lon="-0.33481">
        <ele>1554.7</ele>
        <time>2026-02-08T09:23:01.000Z</time>
      </trkpt>
      <trkpt lat="43.04002" lon="-0.33481">
        <ele>1554.7</ele>
        <time>2026-02-08T09:23:04.000Z</time>
      </trkpt>
      <trkpt lat="43.04002" lon="-0.33481">
        <ele>1554.8</ele>
        <time>2026-02-08T09:23:07.000Z</time>
      </trkpt>
      <trkpt lat="43.04002" lon="-0.33481">
        <ele>1554.8</ele>
        <time>2026-02-08T09:23:10.000Z</time>
      </trkpt>
      <trkpt lat="43.04002" lon="-0.33481">
        <ele>1554.8</ele>
        <time>2026-02-08T09:23:11.000Z</time>
      </trkpt>
      <trkpt lat="43.04002" lon="-0.33481">
        <ele>1554.8</ele>
        <time>2026-02-08T09:23:12.000Z</time>
      </trkpt>
      <trkpt lat="43.04002" lon="-0.33481">
        <ele>1554.7</ele>
        <time>2026-02-08T09:23:13.000Z</time>
      </trkpt>
      <trkpt lat="43.04002" lon="-0.33481">
        <ele>1554.7</ele>
        <time>2026-02-08T09:23:14.000Z</time>
      </trkpt>
      <trkpt lat="43.04002" lon="-0.33481">
        <ele>1554.7</ele>
        <time>2026-02-08T09:23:17.000Z</time>
      </trkpt>
      <trkpt lat="43.04002" lon="-0.33481">
        <ele>1554.7</ele>
        <time>2026-02-08T09:23:19.000Z</time>
      </trkpt>
      <trkpt lat="43.04002" lon="-0.33481">
        <ele>1554.7</ele>
        <time>2026-02-08T09:23:20.000Z</time>
      </trkpt>
      <trkpt lat="43.04002" lon="-0.33481">
        <ele>1554.7</ele>
        <time>2026-02-08T09:23:21.000Z</time>
      </trkpt>
      <trkpt lat="43.04002" lon="-0.33481">
        <ele>1554.7</ele>
        <time>2026-02-08T09:23:22.000Z</time>
      </trkpt>
      <trkpt lat="43.04002" lon="-0.33481">
        <ele>1554.7</ele>
        <time>2026-02-08T09:23:23.000Z</time>
      </trkpt>
      <trkpt lat="43.04002" lon="-0.33481">
        <ele>1554.7</ele>
        <time>2026-02-08T09:23:26.000Z</time>
      </trkpt>
      <trkpt lat="43.04002" lon="-0.3348">
        <ele>1554.7</ele>
        <time>2026-02-08T09:23:29.000Z</time>
      </trkpt>
      <trkpt lat="43.04002" lon="-0.3348">
        <ele>1554.7</ele>
        <time>2026-02-08T09:23:32.000Z</time>
      </trkpt>
      <trkpt lat="43.04003" lon="-0.33478">
        <ele>1554.7</ele>
        <time>2026-02-08T09:23:35.000Z</time>
      </trkpt>
      <trkpt lat="43.04004" lon="-0.33478">
        <ele>1554.7</ele>
        <time>2026-02-08T09:23:36.000Z</time>
      </trkpt>
      <trkpt lat="43.04005" lon="-0.33475">
        <ele>1554.7</ele>
        <time>2026-02-08T09:23:39.000Z</time>
      </trkpt>
      <trkpt lat="43.04007" lon="-0.33474">
        <ele>1554.7</ele>
        <time>2026-02-08T09:23:42.000Z</time>
      </trkpt>
      <trkpt lat="43.0401" lon="-0.33473">
        <ele>1554.6</ele>
        <time>2026-02-08T09:23:45.000Z</time>
      </trkpt>
      <trkpt lat="43.04014" lon="-0.33472">
        <ele>1554.4</ele>
        <time>2026-02-08T09:23:48.000Z</time>
      </trkpt>
      <trkpt lat="43.04013" lon="-0.33472">
        <ele>1554.1</ele>
        <time>2026-02-08T09:23:51.000Z</time>
      </trkpt>
      <trkpt lat="43.04016" lon="-0.33472">
        <ele>1553.6</ele>
        <time>2026-02-08T09:23:54.000Z</time>
      </trkpt>
      <trkpt lat="43.04018" lon="-0.33471">
        <ele>1553.1</ele>
        <time>2026-02-08T09:23:57.000Z</time>
      </trkpt>
      <trkpt lat="43.04021" lon="-0.33472">
        <ele>1552.7</ele>
        <time>2026-02-08T09:24:00.000Z</time>
      </trkpt>
      <trkpt lat="43.04021" lon="-0.33472">
        <ele>1552.4</ele>
        <time>2026-02-08T09:24:03.000Z</time>
      </trkpt>
      <trkpt lat="43.04023" lon="-0.33469">
        <ele>1552.1</ele>
        <time>2026-02-08T09:24:06.000Z</time>
      </trkpt>
      <trkpt lat="43.04023" lon="-0.33468">
        <ele>1551.7</ele>
        <time>2026-02-08T09:24:09.000Z</time>
      </trkpt>
      <trkpt lat="43.04023" lon="-0.33468">
        <ele>1551.7</ele>
        <time>2026-02-08T09:24:10.000Z</time>
      </trkpt>
      <trkpt lat="43.04023" lon="-0.33468">
        <ele>1551.6</ele>
        <time>2026-02-08T09:24:11.000Z</time>
      </trkpt>
      <trkpt lat="43.04023" lon="-0.33468">
        <ele>1551.3</ele>
        <time>2026-02-08T09:24:14.000Z</time>
      </trkpt>
      <trkpt lat="43.04023" lon="-0.33467">
        <ele>1551.2</ele>
        <time>2026-02-08T09:24:17.000Z</time>
      </trkpt>
      <trkpt lat="43.04023" lon="-0.33467">
        <ele>1551.2</ele>
        <time>2026-02-08T09:24:19.000Z</time>
      </trkpt>
      <trkpt lat="43.04023" lon="-0.33467">
        <ele>1551.2</ele>
        <time>2026-02-08T09:24:20.000Z</time>
      </trkpt>
      <trkpt lat="43.04024" lon="-0.33466">
        <ele>1551.1</ele>
        <time>2026-02-08T09:24:21.000Z</time>
      </trkpt>
      <trkpt lat="43.04024" lon="-0.33467">
        <ele>1551.1</ele>
        <time>2026-02-08T09:24:22.000Z</time>
      </trkpt>
      <trkpt lat="43.04024" lon="-0.33466">
        <ele>1551.1</ele>
        <time>2026-02-08T09:24:23.000Z</time>
      </trkpt>
      <trkpt lat="43.04024" lon="-0.33466">
        <ele>1551.1</ele>
        <time>2026-02-08T09:24:26.000Z</time>
      </trkpt>
      <trkpt lat="43.04024" lon="-0.33466">
        <ele>1551</ele>
        <time>2026-02-08T09:24:29.000Z</time>
      </trkpt>
      <trkpt lat="43.04023" lon="-0.33465">
        <ele>1551</ele>
        <time>2026-02-08T09:24:32.000Z</time>
      </trkpt>
      <trkpt lat="43.04023" lon="-0.33465">
        <ele>1551</ele>
        <time>2026-02-08T09:24:35.000Z</time>
      </trkpt>
      <trkpt lat="43.04023" lon="-0.33465">
        <ele>1551</ele>
        <time>2026-02-08T09:24:38.000Z</time>
      </trkpt>
      <trkpt lat="43.04023" lon="-0.33465">
        <ele>1551</ele>
        <time>2026-02-08T09:24:41.000Z</time>
      </trkpt>
      <trkpt lat="43.04024" lon="-0.33464">
        <ele>1551</ele>
        <time>2026-02-08T09:24:44.000Z</time>
      </trkpt>
      <trkpt lat="43.04024" lon="-0.33463">
        <ele>1551</ele>
        <time>2026-02-08T09:24:47.000Z</time>
      </trkpt>
      <trkpt lat="43.04024" lon="-0.33463">
        <ele>1551</ele>
        <time>2026-02-08T09:24:50.000Z</time>
      </trkpt>
      <trkpt lat="43.04024" lon="-0.33463">
        <ele>1551</ele>
        <time>2026-02-08T09:24:53.000Z</time>
      </trkpt>
      <trkpt lat="43.04024" lon="-0.33462">
        <ele>1551</ele>
        <time>2026-02-08T09:24:56.000Z</time>
      </trkpt>
      <trkpt lat="43.04025" lon="-0.33462">
        <ele>1550.9</ele>
        <time>2026-02-08T09:24:59.000Z</time>
      </trkpt>
      <trkpt lat="43.04025" lon="-0.33462">
        <ele>1550.9</ele>
        <time>2026-02-08T09:25:01.000Z</time>
      </trkpt>
      <trkpt lat="43.04025" lon="-0.33462">
        <ele>1550.9</ele>
        <time>2026-02-08T09:25:02.000Z</time>
      </trkpt>
      <trkpt lat="43.04025" lon="-0.33462">
        <ele>1550.9</ele>
        <time>2026-02-08T09:25:03.000Z</time>
      </trkpt>
      <trkpt lat="43.04025" lon="-0.33462">
        <ele>1550.9</ele>
        <time>2026-02-08T09:25:04.000Z</time>
      </trkpt>
      <trkpt lat="43.04025" lon="-0.33462">
        <ele>1550.9</ele>
        <time>2026-02-08T09:25:05.000Z</time>
      </trkpt>
      <trkpt lat="43.04025" lon="-0.33462">
        <ele>1550.9</ele>
        <time>2026-02-08T09:25:06.000Z</time>
      </trkpt>
      <trkpt lat="43.04025" lon="-0.33462">
        <ele>1550.9</ele>
        <time>2026-02-08T09:25:09.000Z</time>
      </trkpt>
      <trkpt lat="43.04025" lon="-0.33462">
        <ele>1550.9</ele>
        <time>2026-02-08T09:25:12.000Z</time>
      </trkpt>
      <trkpt lat="43.04025" lon="-0.33462">
        <ele>1550.9</ele>
        <time>2026-02-08T09:25:15.000Z</time>
      </trkpt>
      <trkpt lat="43.04025" lon="-0.33461">
        <ele>1550.9</ele>
        <time>2026-02-08T09:25:18.000Z</time>
      </trkpt>
      <trkpt lat="43.04025" lon="-0.33461">
        <ele>1550.8</ele>
        <time>2026-02-08T09:25:21.000Z</time>
      </trkpt>
      <trkpt lat="43.04025" lon="-0.33461">
        <ele>1550.8</ele>
        <time>2026-02-08T09:25:24.000Z</time>
      </trkpt>
      <trkpt lat="43.04025" lon="-0.33461">
        <ele>1550.8</ele>
        <time>2026-02-08T09:25:27.000Z</time>
      </trkpt>
      <trkpt lat="43.04025" lon="-0.33461">
        <ele>1550.7</ele>
        <time>2026-02-08T09:25:30.000Z</time>
      </trkpt>
      <trkpt lat="43.04025" lon="-0.3346">
        <ele>1550.7</ele>
        <time>2026-02-08T09:25:31.000Z</time>
      </trkpt>
      <trkpt lat="43.04027" lon="-0.33458">
        <ele>1550.7</ele>
        <time>2026-02-08T09:25:34.000Z</time>
      </trkpt>
      <trkpt lat="43.04029" lon="-0.33456">
        <ele>1550.6</ele>
        <time>2026-02-08T09:25:37.000Z</time>
      </trkpt>
      <trkpt lat="43.04031" lon="-0.33455">
        <ele>1550.6</ele>
        <time>2026-02-08T09:25:40.000Z</time>
      </trkpt>
      <trkpt lat="43.04031" lon="-0.33453">
        <ele>1550.6</ele>
        <time>2026-02-08T09:25:43.000Z</time>
      </trkpt>
      <trkpt lat="43.04032" lon="-0.33451">
        <ele>1550.5</ele>
        <time>2026-02-08T09:25:46.000Z</time>
      </trkpt>
      <trkpt lat="43.04033" lon="-0.33449">
        <ele>1550.6</ele>
        <time>2026-02-08T09:25:49.000Z</time>
      </trkpt>
      <trkpt lat="43.04034" lon="-0.33446">
        <ele>1550.6</ele>
        <time>2026-02-08T09:25:52.000Z</time>
      </trkpt>
      <trkpt lat="43.04035" lon="-0.33444">
        <ele>1550.7</ele>
        <time>2026-02-08T09:25:55.000Z</time>
      </trkpt>
      <trkpt lat="43.04035" lon="-0.33442">
        <ele>1550.8</ele>
        <time>2026-02-08T09:25:58.000Z</time>
      </trkpt>
      <trkpt lat="43.04036" lon="-0.33439">
        <ele>1550.9</ele>
        <time>2026-02-08T09:26:01.000Z</time>
      </trkpt>
      <trkpt lat="43.04036" lon="-0.33436">
        <ele>1551.2</ele>
        <time>2026-02-08T09:26:04.000Z</time>
      </trkpt>
      <trkpt lat="43.04037" lon="-0.33433">
        <ele>1551.6</ele>
        <time>2026-02-08T09:26:07.000Z</time>
      </trkpt>
      <trkpt lat="43.04037" lon="-0.33429">
        <ele>1551.9</ele>
        <time>2026-02-08T09:26:10.000Z</time>
      </trkpt>
      <trkpt lat="43.04037" lon="-0.33426">
        <ele>1552.3</ele>
        <time>2026-02-08T09:26:13.000Z</time>
      </trkpt>
      <trkpt lat="43.04037" lon="-0.33423">
        <ele>1552.6</ele>
        <time>2026-02-08T09:26:16.000Z</time>
      </trkpt>
      <trkpt lat="43.04036" lon="-0.33419">
        <ele>1552.9</ele>
        <time>2026-02-08T09:26:19.000Z</time>
      </trkpt>
      <trkpt lat="43.04037" lon="-0.33416">
        <ele>1553.2</ele>
        <time>2026-02-08T09:26:22.000Z</time>
      </trkpt>
      <trkpt lat="43.04038" lon="-0.33414">
        <ele>1553.5</ele>
        <time>2026-02-08T09:26:25.000Z</time>
      </trkpt>
      <trkpt lat="43.04039" lon="-0.33412">
        <ele>1553.7</ele>
        <time>2026-02-08T09:26:28.000Z</time>
      </trkpt>
      <trkpt lat="43.04041" lon="-0.3341">
        <ele>1553.9</ele>
        <time>2026-02-08T09:26:31.000Z</time>
      </trkpt>
      <trkpt lat="43.04041" lon="-0.33407">
        <ele>1554.1</ele>
        <time>2026-02-08T09:26:34.000Z</time>
      </trkpt>
      <trkpt lat="43.04042" lon="-0.33404">
        <ele>1554.2</ele>
        <time>2026-02-08T09:26:37.000Z</time>
      </trkpt>
      <trkpt lat="43.04043" lon="-0.33401">
        <ele>1554.3</ele>
        <time>2026-02-08T09:26:40.000Z</time>
      </trkpt>
      <trkpt lat="43.04043" lon="-0.33397">
        <ele>1554.4</ele>
        <time>2026-02-08T09:26:43.000Z</time>
      </trkpt>
      <trkpt lat="43.04043" lon="-0.33393">
        <ele>1554.4</ele>
        <time>2026-02-08T09:26:46.000Z</time>
      </trkpt>
      <trkpt lat="43.04043" lon="-0.3339">
        <ele>1554.3</ele>
        <time>2026-02-08T09:26:49.000Z</time>
      </trkpt>
      <trkpt lat="43.04043" lon="-0.33387">
        <ele>1554.2</ele>
        <time>2026-02-08T09:26:52.000Z</time>
      </trkpt>
      <trkpt lat="43.04043" lon="-0.33385">
        <ele>1554.1</ele>
        <time>2026-02-08T09:26:55.000Z</time>
      </trkpt>
      <trkpt lat="43.04043" lon="-0.33382">
        <ele>1553.8</ele>
        <time>2026-02-08T09:26:58.000Z</time>
      </trkpt>
      <trkpt lat="43.04044" lon="-0.3338">
        <ele>1553.4</ele>
        <time>2026-02-08T09:27:01.000Z</time>
      </trkpt>
      <trkpt lat="43.04044" lon="-0.33377">
        <ele>1552.7</ele>
        <time>2026-02-08T09:27:04.000Z</time>
      </trkpt>
      <trkpt lat="43.04044" lon="-0.33373">
        <ele>1551.9</ele>
        <time>2026-02-08T09:27:07.000Z</time>
      </trkpt>
      <trkpt lat="43.04045" lon="-0.3337">
        <ele>1551</ele>
        <time>2026-02-08T09:27:10.000Z</time>
      </trkpt>
      <trkpt lat="43.04045" lon="-0.33367">
        <ele>1550.2</ele>
        <time>2026-02-08T09:27:13.000Z</time>
      </trkpt>
      <trkpt lat="43.04046" lon="-0.33364">
        <ele>1549.4</ele>
        <time>2026-02-08T09:27:16.000Z</time>
      </trkpt>
      <trkpt lat="43.04046" lon="-0.33361">
        <ele>1548.7</ele>
        <time>2026-02-08T09:27:19.000Z</time>
      </trkpt>
      <trkpt lat="43.04046" lon="-0.33358">
        <ele>1548</ele>
        <time>2026-02-08T09:27:22.000Z</time>
      </trkpt>
      <trkpt lat="43.04046" lon="-0.33354">
        <ele>1547.4</ele>
        <time>2026-02-08T09:27:25.000Z</time>
      </trkpt>
      <trkpt lat="43.04046" lon="-0.33351">
        <ele>1546.7</ele>
        <time>2026-02-08T09:27:28.000Z</time>
      </trkpt>
      <trkpt lat="43.04046" lon="-0.3335">
        <ele>1546.1</ele>
        <time>2026-02-08T09:27:31.000Z</time>
      </trkpt>
      <trkpt lat="43.04047" lon="-0.33351">
        <ele>1545.7</ele>
        <time>2026-02-08T09:27:34.000Z</time>
      </trkpt>
      <trkpt lat="43.04048" lon="-0.33352">
        <ele>1545.5</ele>
        <time>2026-02-08T09:27:37.000Z</time>
      </trkpt>
      <trkpt lat="43.04048" lon="-0.33354">
        <ele>1545.6</ele>
        <time>2026-02-08T09:27:40.000Z</time>
      </trkpt>
      <trkpt lat="43.04047" lon="-0.33355">
        <ele>1545.6</ele>
        <time>2026-02-08T09:27:43.000Z</time>
      </trkpt>
      <trkpt lat="43.04047" lon="-0.33356">
        <ele>1545.6</ele>
        <time>2026-02-08T09:27:46.000Z</time>
      </trkpt>
      <trkpt lat="43.04047" lon="-0.33356">
        <ele>1545.6</ele>
        <time>2026-02-08T09:27:47.000Z</time>
      </trkpt>
      <trkpt lat="43.04047" lon="-0.33357">
        <ele>1545.6</ele>
        <time>2026-02-08T09:27:48.000Z</time>
      </trkpt>
      <trkpt lat="43.04047" lon="-0.33357">
        <ele>1545.6</ele>
        <time>2026-02-08T09:27:49.000Z</time>
      </trkpt>
      <trkpt lat="43.04047" lon="-0.33357">
        <ele>1545.6</ele>
        <time>2026-02-08T09:27:50.000Z</time>
      </trkpt>
      <trkpt lat="43.04047" lon="-0.33357">
        <ele>1545.6</ele>
        <time>2026-02-08T09:27:53.000Z</time>
      </trkpt>
      <trkpt lat="43.04047" lon="-0.33357">
        <ele>1545.6</ele>
        <time>2026-02-08T09:27:54.000Z</time>
      </trkpt>
      <trkpt lat="43.04047" lon="-0.33357">
        <ele>1545.6</ele>
        <time>2026-02-08T09:27:55.000Z</time>
      </trkpt>
      <trkpt lat="43.04047" lon="-0.33357">
        <ele>1545.6</ele>
        <time>2026-02-08T09:27:56.000Z</time>
      </trkpt>
      <trkpt lat="43.04047" lon="-0.33357">
        <ele>1545.6</ele>
        <time>2026-02-08T09:27:59.000Z</time>
      </trkpt>
      <trkpt lat="43.04047" lon="-0.33357">
        <ele>1545.6</ele>
        <time>2026-02-08T09:28:02.000Z</time>
      </trkpt>
      <trkpt lat="43.04047" lon="-0.33357">
        <ele>1545.6</ele>
        <time>2026-02-08T09:28:05.000Z</time>
      </trkpt>
      <trkpt lat="43.04047" lon="-0.33357">
        <ele>1545.6</ele>
        <time>2026-02-08T09:28:08.000Z</time>
      </trkpt>
      <trkpt lat="43.04047" lon="-0.33357">
        <ele>1545.6</ele>
        <time>2026-02-08T09:28:11.000Z</time>
      </trkpt>
      <trkpt lat="43.04047" lon="-0.33356">
        <ele>1545.6</ele>
        <time>2026-02-08T09:28:14.000Z</time>
      </trkpt>
      <trkpt lat="43.04047" lon="-0.33356">
        <ele>1545.6</ele>
        <time>2026-02-08T09:28:17.000Z</time>
      </trkpt>
      <trkpt lat="43.04047" lon="-0.33356">
        <ele>1545.6</ele>
        <time>2026-02-08T09:28:20.000Z</time>
      </trkpt>
      <trkpt lat="43.04047" lon="-0.33356">
        <ele>1545.6</ele>
        <time>2026-02-08T09:28:23.000Z</time>
      </trkpt>
      <trkpt lat="43.04047" lon="-0.33356">
        <ele>1545.7</ele>
        <time>2026-02-08T09:28:26.000Z</time>
      </trkpt>
      <trkpt lat="43.04048" lon="-0.33355">
        <ele>1545.7</ele>
        <time>2026-02-08T09:28:29.000Z</time>
      </trkpt>
      <trkpt lat="43.04048" lon="-0.33355">
        <ele>1545.7</ele>
        <time>2026-02-08T09:28:30.000Z</time>
      </trkpt>
      <trkpt lat="43.04047" lon="-0.33355">
        <ele>1545.7</ele>
        <time>2026-02-08T09:28:31.000Z</time>
      </trkpt>
      <trkpt lat="43.04047" lon="-0.33355">
        <ele>1545.7</ele>
        <time>2026-02-08T09:28:34.000Z</time>
      </trkpt>
      <trkpt lat="43.04047" lon="-0.33355">
        <ele>1545.7</ele>
        <time>2026-02-08T09:28:35.000Z</time>
      </trkpt>
      <trkpt lat="43.04047" lon="-0.33355">
        <ele>1545.7</ele>
        <time>2026-02-08T09:28:38.000Z</time>
      </trkpt>
      <trkpt lat="43.04047" lon="-0.33355">
        <ele>1545.7</ele>
        <time>2026-02-08T09:28:41.000Z</time>
      </trkpt>
      <trkpt lat="43.04048" lon="-0.33355">
        <ele>1545.7</ele>
        <time>2026-02-08T09:28:44.000Z</time>
      </trkpt>
      <trkpt lat="43.04048" lon="-0.33355">
        <ele>1545.7</ele>
        <time>2026-02-08T09:28:47.000Z</time>
      </trkpt>
      <trkpt lat="43.04048" lon="-0.33355">
        <ele>1545.7</ele>
        <time>2026-02-08T09:28:50.000Z</time>
      </trkpt>
      <trkpt lat="43.04048" lon="-0.33355">
        <ele>1545.7</ele>
        <time>2026-02-08T09:28:53.000Z</time>
      </trkpt>
      <trkpt lat="43.04048" lon="-0.33355">
        <ele>1545.7</ele>
        <time>2026-02-08T09:28:56.000Z</time>
      </trkpt>
      <trkpt lat="43.04047" lon="-0.33356">
        <ele>1545.7</ele>
        <time>2026-02-08T09:28:59.000Z</time>
      </trkpt>
      <trkpt lat="43.04047" lon="-0.33356">
        <ele>1545.7</ele>
        <time>2026-02-08T09:29:02.000Z</time>
      </trkpt>
      <trkpt lat="43.04047" lon="-0.33356">
        <ele>1545.6</ele>
        <time>2026-02-08T09:29:05.000Z</time>
      </trkpt>
      <trkpt lat="43.04047" lon="-0.33356">
        <ele>1545.6</ele>
        <time>2026-02-08T09:29:08.000Z</time>
      </trkpt>
      <trkpt lat="43.04049" lon="-0.33356">
        <ele>1545.6</ele>
        <time>2026-02-08T09:29:11.000Z</time>
      </trkpt>
      <trkpt lat="43.04049" lon="-0.33356">
        <ele>1545.6</ele>
        <time>2026-02-08T09:29:14.000Z</time>
      </trkpt>
      <trkpt lat="43.04048" lon="-0.33356">
        <ele>1545.6</ele>
        <time>2026-02-08T09:29:17.000Z</time>
      </trkpt>
      <trkpt lat="43.04048" lon="-0.33355">
        <ele>1545.6</ele>
        <time>2026-02-08T09:29:18.000Z</time>
      </trkpt>
      <trkpt lat="43.04048" lon="-0.33355">
        <ele>1545.6</ele>
        <time>2026-02-08T09:29:21.000Z</time>
      </trkpt>
      <trkpt lat="43.04048" lon="-0.33355">
        <ele>1545.6</ele>
        <time>2026-02-08T09:29:22.000Z</time>
      </trkpt>
      <trkpt lat="43.04048" lon="-0.33355">
        <ele>1545.5</ele>
        <time>2026-02-08T09:29:23.000Z</time>
      </trkpt>
      <trkpt lat="43.04048" lon="-0.33355">
        <ele>1545.5</ele>
        <time>2026-02-08T09:29:24.000Z</time>
      </trkpt>
      <trkpt lat="43.04048" lon="-0.33355">
        <ele>1545.5</ele>
        <time>2026-02-08T09:29:25.000Z</time>
      </trkpt>
      <trkpt lat="43.04049" lon="-0.33355">
        <ele>1545.5</ele>
        <time>2026-02-08T09:29:26.000Z</time>
      </trkpt>
      <trkpt lat="43.04049" lon="-0.33356">
        <ele>1545.4</ele>
        <time>2026-02-08T09:29:29.000Z</time>
      </trkpt>
      <trkpt lat="43.04051" lon="-0.33356">
        <ele>1545.3</ele>
        <time>2026-02-08T09:29:32.000Z</time>
      </trkpt>
      <trkpt lat="43.04053" lon="-0.33356">
        <ele>1545.1</ele>
        <time>2026-02-08T09:29:35.000Z</time>
      </trkpt>
      <trkpt lat="43.04055" lon="-0.33356">
        <ele>1544.8</ele>
        <time>2026-02-08T09:29:38.000Z</time>
      </trkpt>
      <trkpt lat="43.04055" lon="-0.33357">
        <ele>1544.3</ele>
        <time>2026-02-08T09:29:41.000Z</time>
      </trkpt>
      <trkpt lat="43.04056" lon="-0.33359">
        <ele>1543.6</ele>
        <time>2026-02-08T09:29:44.000Z</time>
      </trkpt>
      <trkpt lat="43.04058" lon="-0.3336">
        <ele>1542.7</ele>
        <time>2026-02-08T09:29:47.000Z</time>
      </trkpt>
      <trkpt lat="43.04059" lon="-0.3336">
        <ele>1541.8</ele>
        <time>2026-02-08T09:29:50.000Z</time>
      </trkpt>
      <trkpt lat="43.04061" lon="-0.3336">
        <ele>1540.9</ele>
        <time>2026-02-08T09:29:53.000Z</time>
      </trkpt>
      <trkpt lat="43.04064" lon="-0.3336">
        <ele>1539.8</ele>
        <time>2026-02-08T09:29:56.000Z</time>
      </trkpt>
      <trkpt lat="43.04066" lon="-0.3336">
        <ele>1538.9</ele>
        <time>2026-02-08T09:29:59.000Z</time>
      </trkpt>
      <trkpt lat="43.04067" lon="-0.33361">
        <ele>1538.3</ele>
        <time>2026-02-08T09:30:02.000Z</time>
      </trkpt>
      <trkpt lat="43.04068" lon="-0.33362">
        <ele>1537.7</ele>
        <time>2026-02-08T09:30:05.000Z</time>
      </trkpt>
      <trkpt lat="43.04068" lon="-0.33362">
        <ele>1537.3</ele>
        <time>2026-02-08T09:30:08.000Z</time>
      </trkpt>
      <trkpt lat="43.04068" lon="-0.33362">
        <ele>1536.8</ele>
        <time>2026-02-08T09:30:11.000Z</time>
      </trkpt>
      <trkpt lat="43.04069" lon="-0.33362">
        <ele>1536.4</ele>
        <time>2026-02-08T09:30:14.000Z</time>
      </trkpt>
      <trkpt lat="43.04069" lon="-0.3336">
        <ele>1536.3</ele>
        <time>2026-02-08T09:30:17.000Z</time>
      </trkpt>
      <trkpt lat="43.04067" lon="-0.33362">
        <ele>1536.3</ele>
        <time>2026-02-08T09:30:20.000Z</time>
      </trkpt>
      <trkpt lat="43.04065" lon="-0.33364">
        <ele>1536.2</ele>
        <time>2026-02-08T09:30:23.000Z</time>
      </trkpt>
      <trkpt lat="43.04066" lon="-0.33364">
        <ele>1536.1</ele>
        <time>2026-02-08T09:30:26.000Z</time>
      </trkpt>
      <trkpt lat="43.04068" lon="-0.33366">
        <ele>1536.1</ele>
        <time>2026-02-08T09:30:29.000Z</time>
      </trkpt>
      <trkpt lat="43.04068" lon="-0.33366">
        <ele>1536</ele>
        <time>2026-02-08T09:30:32.000Z</time>
      </trkpt>
      <trkpt lat="43.04068" lon="-0.33366">
        <ele>1536</ele>
        <time>2026-02-08T09:30:33.000Z</time>
      </trkpt>
      <trkpt lat="43.04068" lon="-0.33367">
        <ele>1536</ele>
        <time>2026-02-08T09:30:34.000Z</time>
      </trkpt>
      <trkpt lat="43.04067" lon="-0.33367">
        <ele>1536</ele>
        <time>2026-02-08T09:30:37.000Z</time>
      </trkpt>
      <trkpt lat="43.04067" lon="-0.33367">
        <ele>1536</ele>
        <time>2026-02-08T09:30:40.000Z</time>
      </trkpt>
      <trkpt lat="43.04067" lon="-0.33367">
        <ele>1535.9</ele>
        <time>2026-02-08T09:30:43.000Z</time>
      </trkpt>
      <trkpt lat="43.04067" lon="-0.33367">
        <ele>1535.9</ele>
        <time>2026-02-08T09:30:46.000Z</time>
      </trkpt>
      <trkpt lat="43.04067" lon="-0.33367">
        <ele>1535.9</ele>
        <time>2026-02-08T09:30:49.000Z</time>
      </trkpt>
      <trkpt lat="43.04067" lon="-0.33367">
        <ele>1535.9</ele>
        <time>2026-02-08T09:30:52.000Z</time>
      </trkpt>
      <trkpt lat="43.04068" lon="-0.33368">
        <ele>1535.8</ele>
        <time>2026-02-08T09:30:54.000Z</time>
      </trkpt>
      <trkpt lat="43.04068" lon="-0.33368">
        <ele>1535.8</ele>
        <time>2026-02-08T09:30:55.000Z</time>
      </trkpt>
      <trkpt lat="43.04068" lon="-0.33369">
        <ele>1535.7</ele>
        <time>2026-02-08T09:30:58.000Z</time>
      </trkpt>
      <trkpt lat="43.0407" lon="-0.3337">
        <ele>1535.7</ele>
        <time>2026-02-08T09:31:01.000Z</time>
      </trkpt>
      <trkpt lat="43.04072" lon="-0.3337">
        <ele>1535.5</ele>
        <time>2026-02-08T09:31:04.000Z</time>
      </trkpt>
      <trkpt lat="43.04073" lon="-0.3337">
        <ele>1535.3</ele>
        <time>2026-02-08T09:31:07.000Z</time>
      </trkpt>
      <trkpt lat="43.04075" lon="-0.33369">
        <ele>1534.9</ele>
        <time>2026-02-08T09:31:10.000Z</time>
      </trkpt>
      <trkpt lat="43.04076" lon="-0.33367">
        <ele>1534.3</ele>
        <time>2026-02-08T09:31:13.000Z</time>
      </trkpt>
      <trkpt lat="43.04078" lon="-0.33364">
        <ele>1533.6</ele>
        <time>2026-02-08T09:31:16.000Z</time>
      </trkpt>
      <trkpt lat="43.0408" lon="-0.33364">
        <ele>1532.9</ele>
        <time>2026-02-08T09:31:19.000Z</time>
      </trkpt>
      <trkpt lat="43.04081" lon="-0.33364">
        <ele>1532.2</ele>
        <time>2026-02-08T09:31:22.000Z</time>
      </trkpt>
      <trkpt lat="43.04083" lon="-0.33363">
        <ele>1531.6</ele>
        <time>2026-02-08T09:31:25.000Z</time>
      </trkpt>
      <trkpt lat="43.04084" lon="-0.33363">
        <ele>1531</ele>
        <time>2026-02-08T09:31:28.000Z</time>
      </trkpt>
      <trkpt lat="43.04085" lon="-0.33361">
        <ele>1530.3</ele>
        <time>2026-02-08T09:31:31.000Z</time>
      </trkpt>
      <trkpt lat="43.04087" lon="-0.33359">
        <ele>1529.7</ele>
        <time>2026-02-08T09:31:34.000Z</time>
      </trkpt>
      <trkpt lat="43.04087" lon="-0.33358">
        <ele>1529.2</ele>
        <time>2026-02-08T09:31:37.000Z</time>
      </trkpt>
      <trkpt lat="43.04087" lon="-0.33356">
        <ele>1528.8</ele>
        <time>2026-02-08T09:31:40.000Z</time>
      </trkpt>
      <trkpt lat="43.04087" lon="-0.33355">
        <ele>1528.3</ele>
        <time>2026-02-08T09:31:43.000Z</time>
      </trkpt>
      <trkpt lat="43.04087" lon="-0.33354">
        <ele>1527.9</ele>
        <time>2026-02-08T09:31:46.000Z</time>
      </trkpt>
      <trkpt lat="43.04089" lon="-0.33355">
        <ele>1527.5</ele>
        <time>2026-02-08T09:31:49.000Z</time>
      </trkpt>
      <trkpt lat="43.04089" lon="-0.33356">
        <ele>1526.9</ele>
        <time>2026-02-08T09:31:52.000Z</time>
      </trkpt>
      <trkpt lat="43.0409" lon="-0.33358">
        <ele>1526.2</ele>
        <time>2026-02-08T09:31:55.000Z</time>
      </trkpt>
      <trkpt lat="43.04092" lon="-0.33357">
        <ele>1525.5</ele>
        <time>2026-02-08T09:31:58.000Z</time>
      </trkpt>
      <trkpt lat="43.04093" lon="-0.33357">
        <ele>1524.7</ele>
        <time>2026-02-08T09:32:01.000Z</time>
      </trkpt>
      <trkpt lat="43.04094" lon="-0.33357">
        <ele>1523.9</ele>
        <time>2026-02-08T09:32:04.000Z</time>
      </trkpt>
      <trkpt lat="43.04093" lon="-0.33355">
        <ele>1523</ele>
        <time>2026-02-08T09:32:07.000Z</time>
      </trkpt>
      <trkpt lat="43.04094" lon="-0.33353">
        <ele>1522.3</ele>
        <time>2026-02-08T09:32:10.000Z</time>
      </trkpt>
      <trkpt lat="43.04095" lon="-0.33353">
        <ele>1521.7</ele>
        <time>2026-02-08T09:32:13.000Z</time>
      </trkpt>
      <trkpt lat="43.04096" lon="-0.33352">
        <ele>1521</ele>
        <time>2026-02-08T09:32:16.000Z</time>
      </trkpt>
      <trkpt lat="43.04097" lon="-0.33351">
        <ele>1520.3</ele>
        <time>2026-02-08T09:32:19.000Z</time>
      </trkpt>
      <trkpt lat="43.04097" lon="-0.3335">
        <ele>1519.8</ele>
        <time>2026-02-08T09:32:22.000Z</time>
      </trkpt>
      <trkpt lat="43.04097" lon="-0.3335">
        <ele>1519.5</ele>
        <time>2026-02-08T09:32:25.000Z</time>
      </trkpt>
      <trkpt lat="43.04096" lon="-0.3335">
        <ele>1519.5</ele>
        <time>2026-02-08T09:32:26.000Z</time>
      </trkpt>
      <trkpt lat="43.04096" lon="-0.33349">
        <ele>1519.4</ele>
        <time>2026-02-08T09:32:27.000Z</time>
      </trkpt>
      <trkpt lat="43.04096" lon="-0.33348">
        <ele>1519.3</ele>
        <time>2026-02-08T09:32:28.000Z</time>
      </trkpt>
      <trkpt lat="43.04095" lon="-0.33347">
        <ele>1519.2</ele>
        <time>2026-02-08T09:32:31.000Z</time>
      </trkpt>
      <trkpt lat="43.04095" lon="-0.33347">
        <ele>1519.1</ele>
        <time>2026-02-08T09:32:32.000Z</time>
      </trkpt>
      <trkpt lat="43.04095" lon="-0.33347">
        <ele>1519.1</ele>
        <time>2026-02-08T09:32:33.000Z</time>
      </trkpt>
      <trkpt lat="43.04095" lon="-0.33347">
        <ele>1519</ele>
        <time>2026-02-08T09:32:34.000Z</time>
      </trkpt>
      <trkpt lat="43.04095" lon="-0.33347">
        <ele>1519</ele>
        <time>2026-02-08T09:32:35.000Z</time>
      </trkpt>
      <trkpt lat="43.04094" lon="-0.33346">
        <ele>1518.8</ele>
        <time>2026-02-08T09:32:38.000Z</time>
      </trkpt>
      <trkpt lat="43.04095" lon="-0.33344">
        <ele>1518.6</ele>
        <time>2026-02-08T09:32:41.000Z</time>
      </trkpt>
      <trkpt lat="43.04096" lon="-0.33343">
        <ele>1518.4</ele>
        <time>2026-02-08T09:32:44.000Z</time>
      </trkpt>
      <trkpt lat="43.04097" lon="-0.33341">
        <ele>1518</ele>
        <time>2026-02-08T09:32:47.000Z</time>
      </trkpt>
      <trkpt lat="43.04098" lon="-0.33339">
        <ele>1517.4</ele>
        <time>2026-02-08T09:32:50.000Z</time>
      </trkpt>
      <trkpt lat="43.041" lon="-0.33337">
        <ele>1516.6</ele>
        <time>2026-02-08T09:32:53.000Z</time>
      </trkpt>
      <trkpt lat="43.04101" lon="-0.33335">
        <ele>1515.8</ele>
        <time>2026-02-08T09:32:56.000Z</time>
      </trkpt>
      <trkpt lat="43.04103" lon="-0.33334">
        <ele>1514.9</ele>
        <time>2026-02-08T09:32:59.000Z</time>
      </trkpt>
      <trkpt lat="43.04104" lon="-0.33332">
        <ele>1514.2</ele>
        <time>2026-02-08T09:33:02.000Z</time>
      </trkpt>
      <trkpt lat="43.04104" lon="-0.3333">
        <ele>1513.8</ele>
        <time>2026-02-08T09:33:05.000Z</time>
      </trkpt>
      <trkpt lat="43.04104" lon="-0.33329">
        <ele>1513.7</ele>
        <time>2026-02-08T09:33:06.000Z</time>
      </trkpt>
      <trkpt lat="43.04104" lon="-0.33329">
        <ele>1513.7</ele>
        <time>2026-02-08T09:33:07.000Z</time>
      </trkpt>
      <trkpt lat="43.04104" lon="-0.33329">
        <ele>1513.6</ele>
        <time>2026-02-08T09:33:08.000Z</time>
      </trkpt>
      <trkpt lat="43.04104" lon="-0.33328">
        <ele>1513.4</ele>
        <time>2026-02-08T09:33:11.000Z</time>
      </trkpt>
      <trkpt lat="43.04104" lon="-0.33327">
        <ele>1513.3</ele>
        <time>2026-02-08T09:33:12.000Z</time>
      </trkpt>
      <trkpt lat="43.04104" lon="-0.33326">
        <ele>1513.3</ele>
        <time>2026-02-08T09:33:13.000Z</time>
      </trkpt>
      <trkpt lat="43.04105" lon="-0.33325">
        <ele>1513</ele>
        <time>2026-02-08T09:33:16.000Z</time>
      </trkpt>
      <trkpt lat="43.04107" lon="-0.33324">
        <ele>1512.7</ele>
        <time>2026-02-08T09:33:19.000Z</time>
      </trkpt>
      <trkpt lat="43.04109" lon="-0.33325">
        <ele>1512.1</ele>
        <time>2026-02-08T09:33:22.000Z</time>
      </trkpt>
      <trkpt lat="43.0411" lon="-0.33325">
        <ele>1511.3</ele>
        <time>2026-02-08T09:33:25.000Z</time>
      </trkpt>
      <trkpt lat="43.04111" lon="-0.33326">
        <ele>1510.3</ele>
        <time>2026-02-08T09:33:28.000Z</time>
      </trkpt>
      <trkpt lat="43.04113" lon="-0.33326">
        <ele>1509.1</ele>
        <time>2026-02-08T09:33:31.000Z</time>
      </trkpt>
      <trkpt lat="43.04116" lon="-0.33326">
        <ele>1508</ele>
        <time>2026-02-08T09:33:34.000Z</time>
      </trkpt>
      <trkpt lat="43.04118" lon="-0.33326">
        <ele>1506.8</ele>
        <time>2026-02-08T09:33:37.000Z</time>
      </trkpt>
      <trkpt lat="43.0412" lon="-0.33327">
        <ele>1505.7</ele>
        <time>2026-02-08T09:33:40.000Z</time>
      </trkpt>
      <trkpt lat="43.04122" lon="-0.33329">
        <ele>1504.8</ele>
        <time>2026-02-08T09:33:43.000Z</time>
      </trkpt>
      <trkpt lat="43.04123" lon="-0.33331">
        <ele>1503.9</ele>
        <time>2026-02-08T09:33:46.000Z</time>
      </trkpt>
      <trkpt lat="43.04126" lon="-0.33333">
        <ele>1503.2</ele>
        <time>2026-02-08T09:33:49.000Z</time>
      </trkpt>
      <trkpt lat="43.04128" lon="-0.33333">
        <ele>1502.7</ele>
        <time>2026-02-08T09:33:52.000Z</time>
      </trkpt>
      <trkpt lat="43.04129" lon="-0.33335">
        <ele>1502.1</ele>
        <time>2026-02-08T09:33:55.000Z</time>
      </trkpt>
      <trkpt lat="43.0413" lon="-0.33336">
        <ele>1501.4</ele>
        <time>2026-02-08T09:33:58.000Z</time>
      </trkpt>
      <trkpt lat="43.04131" lon="-0.33336">
        <ele>1500.7</ele>
        <time>2026-02-08T09:34:01.000Z</time>
      </trkpt>
      <trkpt lat="43.04133" lon="-0.33336">
        <ele>1500.1</ele>
        <time>2026-02-08T09:34:04.000Z</time>
      </trkpt>
      <trkpt lat="43.04134" lon="-0.33337">
        <ele>1499.6</ele>
        <time>2026-02-08T09:34:07.000Z</time>
      </trkpt>
      <trkpt lat="43.04137" lon="-0.33339">
        <ele>1498.9</ele>
        <time>2026-02-08T09:34:10.000Z</time>
      </trkpt>
      <trkpt lat="43.04138" lon="-0.33342">
        <ele>1498.5</ele>
        <time>2026-02-08T09:34:13.000Z</time>
      </trkpt>
      <trkpt lat="43.0414" lon="-0.33344">
        <ele>1498.1</ele>
        <time>2026-02-08T09:34:16.000Z</time>
      </trkpt>
      <trkpt lat="43.04141" lon="-0.33345">
        <ele>1497.7</ele>
        <time>2026-02-08T09:34:19.000Z</time>
      </trkpt>
      <trkpt lat="43.04142" lon="-0.33347">
        <ele>1497.2</ele>
        <time>2026-02-08T09:34:22.000Z</time>
      </trkpt>
      <trkpt lat="43.04144" lon="-0.33348">
        <ele>1496.6</ele>
        <time>2026-02-08T09:34:25.000Z</time>
      </trkpt>
      <trkpt lat="43.04145" lon="-0.33348">
        <ele>1495.9</ele>
        <time>2026-02-08T09:34:28.000Z</time>
      </trkpt>
      <trkpt lat="43.04147" lon="-0.3335">
        <ele>1495.2</ele>
        <time>2026-02-08T09:34:31.000Z</time>
      </trkpt>
      <trkpt lat="43.04148" lon="-0.33352">
        <ele>1494.7</ele>
        <time>2026-02-08T09:34:34.000Z</time>
      </trkpt>
      <trkpt lat="43.04149" lon="-0.33354">
        <ele>1494.4</ele>
        <time>2026-02-08T09:34:37.000Z</time>
      </trkpt>
      <trkpt lat="43.04153" lon="-0.33356">
        <ele>1494.2</ele>
        <time>2026-02-08T09:34:40.000Z</time>
      </trkpt>
      <trkpt lat="43.04155" lon="-0.33359">
        <ele>1494</ele>
        <time>2026-02-08T09:34:43.000Z</time>
      </trkpt>
      <trkpt lat="43.04157" lon="-0.33359">
        <ele>1493.6</ele>
        <time>2026-02-08T09:34:46.000Z</time>
      </trkpt>
      <trkpt lat="43.04158" lon="-0.33358">
        <ele>1493.1</ele>
        <time>2026-02-08T09:34:49.000Z</time>
      </trkpt>
      <trkpt lat="43.0416" lon="-0.33361">
        <ele>1492.6</ele>
        <time>2026-02-08T09:34:52.000Z</time>
      </trkpt>
      <trkpt lat="43.04161" lon="-0.33363">
        <ele>1492</ele>
        <time>2026-02-08T09:34:55.000Z</time>
      </trkpt>
      <trkpt lat="43.04164" lon="-0.33365">
        <ele>1491.6</ele>
        <time>2026-02-08T09:34:58.000Z</time>
      </trkpt>
      <trkpt lat="43.04165" lon="-0.3337">
        <ele>1491.1</ele>
        <time>2026-02-08T09:35:01.000Z</time>
      </trkpt>
      <trkpt lat="43.04165" lon="-0.33374">
        <ele>1490.8</ele>
        <time>2026-02-08T09:35:04.000Z</time>
      </trkpt>
      <trkpt lat="43.04165" lon="-0.33375">
        <ele>1490.6</ele>
        <time>2026-02-08T09:35:07.000Z</time>
      </trkpt>
      <trkpt lat="43.04163" lon="-0.33375">
        <ele>1490.5</ele>
        <time>2026-02-08T09:35:10.000Z</time>
      </trkpt>
      <trkpt lat="43.04163" lon="-0.33375">
        <ele>1490.4</ele>
        <time>2026-02-08T09:35:11.000Z</time>
      </trkpt>
      <trkpt lat="43.04162" lon="-0.33376">
        <ele>1490.3</ele>
        <time>2026-02-08T09:35:14.000Z</time>
      </trkpt>
      <trkpt lat="43.04162" lon="-0.33377">
        <ele>1490.2</ele>
        <time>2026-02-08T09:35:16.000Z</time>
      </trkpt>
      <trkpt lat="43.04162" lon="-0.33377">
        <ele>1490.2</ele>
        <time>2026-02-08T09:35:17.000Z</time>
      </trkpt>
      <trkpt lat="43.04162" lon="-0.33377">
        <ele>1490.2</ele>
        <time>2026-02-08T09:35:18.000Z</time>
      </trkpt>
      <trkpt lat="43.04162" lon="-0.33377">
        <ele>1490.1</ele>
        <time>2026-02-08T09:35:19.000Z</time>
      </trkpt>
      <trkpt lat="43.04162" lon="-0.33377">
        <ele>1490.1</ele>
        <time>2026-02-08T09:35:20.000Z</time>
      </trkpt>
      <trkpt lat="43.04162" lon="-0.33377">
        <ele>1490.1</ele>
        <time>2026-02-08T09:35:21.000Z</time>
      </trkpt>
      <trkpt lat="43.04162" lon="-0.33378">
        <ele>1490.1</ele>
        <time>2026-02-08T09:35:24.000Z</time>
      </trkpt>
      <trkpt lat="43.04162" lon="-0.33378">
        <ele>1490.1</ele>
        <time>2026-02-08T09:35:25.000Z</time>
      </trkpt>
      <trkpt lat="43.04162" lon="-0.33378">
        <ele>1490</ele>
        <time>2026-02-08T09:35:26.000Z</time>
      </trkpt>
      <trkpt lat="43.04162" lon="-0.33379">
        <ele>1490</ele>
        <time>2026-02-08T09:35:29.000Z</time>
      </trkpt>
      <trkpt lat="43.04162" lon="-0.33379">
        <ele>1490</ele>
        <time>2026-02-08T09:35:30.000Z</time>
      </trkpt>
      <trkpt lat="43.04163" lon="-0.3338">
        <ele>1490</ele>
        <time>2026-02-08T09:35:31.000Z</time>
      </trkpt>
      <trkpt lat="43.04163" lon="-0.33381">
        <ele>1490</ele>
        <time>2026-02-08T09:35:32.000Z</time>
      </trkpt>
      <trkpt lat="43.04164" lon="-0.33381">
        <ele>1489.9</ele>
        <time>2026-02-08T09:35:33.000Z</time>
      </trkpt>
      <trkpt lat="43.04165" lon="-0.33384">
        <ele>1489.9</ele>
        <time>2026-02-08T09:35:36.000Z</time>
      </trkpt>
      <trkpt lat="43.04166" lon="-0.33387">
        <ele>1489.8</ele>
        <time>2026-02-08T09:35:39.000Z</time>
      </trkpt>
      <trkpt lat="43.04165" lon="-0.3339">
        <ele>1489.8</ele>
        <time>2026-02-08T09:35:42.000Z</time>
      </trkpt>
      <trkpt lat="43.04166" lon="-0.33393">
        <ele>1489.8</ele>
        <time>2026-02-08T09:35:45.000Z</time>
      </trkpt>
      <trkpt lat="43.04166" lon="-0.33396">
        <ele>1489.8</ele>
        <time>2026-02-08T09:35:48.000Z</time>
      </trkpt>
      <trkpt lat="43.04167" lon="-0.33398">
        <ele>1489.8</ele>
        <time>2026-02-08T09:35:51.000Z</time>
      </trkpt>
      <trkpt lat="43.0417" lon="-0.334">
        <ele>1489.9</ele>
        <time>2026-02-08T09:35:54.000Z</time>
      </trkpt>
      <trkpt lat="43.04171" lon="-0.33401">
        <ele>1489.9</ele>
        <time>2026-02-08T09:35:57.000Z</time>
      </trkpt>
      <trkpt lat="43.04171" lon="-0.33403">
        <ele>1489.9</ele>
        <time>2026-02-08T09:36:00.000Z</time>
      </trkpt>
      <trkpt lat="43.04172" lon="-0.33404">
        <ele>1489.9</ele>
        <time>2026-02-08T09:36:03.000Z</time>
      </trkpt>
      <trkpt lat="43.04172" lon="-0.33406">
        <ele>1489.8</ele>
        <time>2026-02-08T09:36:06.000Z</time>
      </trkpt>
      <trkpt lat="43.04171" lon="-0.33407">
        <ele>1489.8</ele>
        <time>2026-02-08T09:36:09.000Z</time>
      </trkpt>
      <trkpt lat="43.04171" lon="-0.33409">
        <ele>1489.6</ele>
        <time>2026-02-08T09:36:12.000Z</time>
      </trkpt>
      <trkpt lat="43.04172" lon="-0.33411">
        <ele>1489.3</ele>
        <time>2026-02-08T09:36:15.000Z</time>
      </trkpt>
      <trkpt lat="43.04172" lon="-0.33412">
        <ele>1488.8</ele>
        <time>2026-02-08T09:36:18.000Z</time>
      </trkpt>
      <trkpt lat="43.04174" lon="-0.33413">
        <ele>1488.1</ele>
        <time>2026-02-08T09:36:21.000Z</time>
      </trkpt>
      <trkpt lat="43.04176" lon="-0.33415">
        <ele>1487.3</ele>
        <time>2026-02-08T09:36:24.000Z</time>
      </trkpt>
      <trkpt lat="43.04176" lon="-0.33416">
        <ele>1486.6</ele>
        <time>2026-02-08T09:36:27.000Z</time>
      </trkpt>
      <trkpt lat="43.04176" lon="-0.33417">
        <ele>1486.1</ele>
        <time>2026-02-08T09:36:30.000Z</time>
      </trkpt>
      <trkpt lat="43.04176" lon="-0.33417">
        <ele>1485.9</ele>
        <time>2026-02-08T09:36:31.000Z</time>
      </trkpt>
      <trkpt lat="43.04175" lon="-0.33418">
        <ele>1485.7</ele>
        <time>2026-02-08T09:36:34.000Z</time>
      </trkpt>
      <trkpt lat="43.04175" lon="-0.33418">
        <ele>1485.6</ele>
        <time>2026-02-08T09:36:37.000Z</time>
      </trkpt>
      <trkpt lat="43.04175" lon="-0.33418">
        <ele>1485.6</ele>
        <time>2026-02-08T09:36:40.000Z</time>
      </trkpt>
      <trkpt lat="43.04175" lon="-0.33418">
        <ele>1485.5</ele>
        <time>2026-02-08T09:36:42.000Z</time>
      </trkpt>
      <trkpt lat="43.04174" lon="-0.33419">
        <ele>1485.5</ele>
        <time>2026-02-08T09:36:43.000Z</time>
      </trkpt>
      <trkpt lat="43.04174" lon="-0.33419">
        <ele>1485.5</ele>
        <time>2026-02-08T09:36:44.000Z</time>
      </trkpt>
      <trkpt lat="43.04174" lon="-0.33419">
        <ele>1485.5</ele>
        <time>2026-02-08T09:36:45.000Z</time>
      </trkpt>
      <trkpt lat="43.04174" lon="-0.3342">
        <ele>1485.5</ele>
        <time>2026-02-08T09:36:46.000Z</time>
      </trkpt>
      <trkpt lat="43.04174" lon="-0.33419">
        <ele>1485.4</ele>
        <time>2026-02-08T09:36:49.000Z</time>
      </trkpt>
      <trkpt lat="43.04174" lon="-0.33418">
        <ele>1485.4</ele>
        <time>2026-02-08T09:36:52.000Z</time>
      </trkpt>
      <trkpt lat="43.04175" lon="-0.33418">
        <ele>1485.4</ele>
        <time>2026-02-08T09:36:55.000Z</time>
      </trkpt>
      <trkpt lat="43.04176" lon="-0.33419">
        <ele>1485.4</ele>
        <time>2026-02-08T09:36:58.000Z</time>
      </trkpt>
      <trkpt lat="43.04176" lon="-0.3342">
        <ele>1485.4</ele>
        <time>2026-02-08T09:37:01.000Z</time>
      </trkpt>
      <trkpt lat="43.04177" lon="-0.33419">
        <ele>1485.4</ele>
        <time>2026-02-08T09:37:04.000Z</time>
      </trkpt>
      <trkpt lat="43.04177" lon="-0.33419">
        <ele>1485.4</ele>
        <time>2026-02-08T09:37:07.000Z</time>
      </trkpt>
      <trkpt lat="43.04177" lon="-0.33419">
        <ele>1485.4</ele>
        <time>2026-02-08T09:37:10.000Z</time>
      </trkpt>
      <trkpt lat="43.04177" lon="-0.33421">
        <ele>1485.4</ele>
        <time>2026-02-08T09:37:13.000Z</time>
      </trkpt>
      <trkpt lat="43.04176" lon="-0.33423">
        <ele>1485.4</ele>
        <time>2026-02-08T09:37:15.000Z</time>
      </trkpt>
      <trkpt lat="43.04176" lon="-0.33423">
        <ele>1485.4</ele>
        <time>2026-02-08T09:37:16.000Z</time>
      </trkpt>
      <trkpt lat="43.04176" lon="-0.33423">
        <ele>1485.4</ele>
        <time>2026-02-08T09:37:17.000Z</time>
      </trkpt>
      <trkpt lat="43.04176" lon="-0.33423">
        <ele>1485.3</ele>
        <time>2026-02-08T09:37:18.000Z</time>
      </trkpt>
      <trkpt lat="43.04176" lon="-0.33423">
        <ele>1485.3</ele>
        <time>2026-02-08T09:37:21.000Z</time>
      </trkpt>
      <trkpt lat="43.04176" lon="-0.33423">
        <ele>1485.2</ele>
        <time>2026-02-08T09:37:24.000Z</time>
      </trkpt>
      <trkpt lat="43.04176" lon="-0.33422">
        <ele>1485.2</ele>
        <time>2026-02-08T09:37:27.000Z</time>
      </trkpt>
      <trkpt lat="43.04177" lon="-0.33422">
        <ele>1485.1</ele>
        <time>2026-02-08T09:37:29.000Z</time>
      </trkpt>
      <trkpt lat="43.04177" lon="-0.33422">
        <ele>1485.1</ele>
        <time>2026-02-08T09:37:30.000Z</time>
      </trkpt>
      <trkpt lat="43.04178" lon="-0.33421">
        <ele>1485</ele>
        <time>2026-02-08T09:37:33.000Z</time>
      </trkpt>
      <trkpt lat="43.04182" lon="-0.3342">
        <ele>1484.9</ele>
        <time>2026-02-08T09:37:36.000Z</time>
      </trkpt>
      <trkpt lat="43.04185" lon="-0.33419">
        <ele>1484.6</ele>
        <time>2026-02-08T09:37:39.000Z</time>
      </trkpt>
      <trkpt lat="43.04189" lon="-0.33419">
        <ele>1484.2</ele>
        <time>2026-02-08T09:37:42.000Z</time>
      </trkpt>
      <trkpt lat="43.04192" lon="-0.3342">
        <ele>1483.8</ele>
        <time>2026-02-08T09:37:45.000Z</time>
      </trkpt>
      <trkpt lat="43.04194" lon="-0.33421">
        <ele>1483.5</ele>
        <time>2026-02-08T09:37:48.000Z</time>
      </trkpt>
      <trkpt lat="43.04196" lon="-0.33422">
        <ele>1483.1</ele>
        <time>2026-02-08T09:37:51.000Z</time>
      </trkpt>
      <trkpt lat="43.04198" lon="-0.33425">
        <ele>1482.9</ele>
        <time>2026-02-08T09:37:54.000Z</time>
      </trkpt>
      <trkpt lat="43.04199" lon="-0.33428">
        <ele>1482.6</ele>
        <time>2026-02-08T09:37:57.000Z</time>
      </trkpt>
      <trkpt lat="43.04198" lon="-0.33431">
        <ele>1482.3</ele>
        <time>2026-02-08T09:38:00.000Z</time>
      </trkpt>
      <trkpt lat="43.04196" lon="-0.33433">
        <ele>1482</ele>
        <time>2026-02-08T09:38:03.000Z</time>
      </trkpt>
      <trkpt lat="43.04194" lon="-0.33437">
        <ele>1481.5</ele>
        <time>2026-02-08T09:38:06.000Z</time>
      </trkpt>
      <trkpt lat="43.04192" lon="-0.3344">
        <ele>1480.8</ele>
        <time>2026-02-08T09:38:09.000Z</time>
      </trkpt>
      <trkpt lat="43.0419" lon="-0.33442">
        <ele>1480</ele>
        <time>2026-02-08T09:38:12.000Z</time>
      </trkpt>
      <trkpt lat="43.04188" lon="-0.33445">
        <ele>1479.3</ele>
        <time>2026-02-08T09:38:15.000Z</time>
      </trkpt>
      <trkpt lat="43.04187" lon="-0.3345">
        <ele>1478.9</ele>
        <time>2026-02-08T09:38:18.000Z</time>
      </trkpt>
      <trkpt lat="43.04186" lon="-0.33455">
        <ele>1478.4</ele>
        <time>2026-02-08T09:38:21.000Z</time>
      </trkpt>
      <trkpt lat="43.04186" lon="-0.33461">
        <ele>1478.2</ele>
        <time>2026-02-08T09:38:24.000Z</time>
      </trkpt>
      <trkpt lat="43.04186" lon="-0.33465">
        <ele>1478.1</ele>
        <time>2026-02-08T09:38:27.000Z</time>
      </trkpt>
      <trkpt lat="43.04187" lon="-0.3347">
        <ele>1478</ele>
        <time>2026-02-08T09:38:30.000Z</time>
      </trkpt>
      <trkpt lat="43.04189" lon="-0.33474">
        <ele>1477.8</ele>
        <time>2026-02-08T09:38:33.000Z</time>
      </trkpt>
      <trkpt lat="43.04191" lon="-0.33478">
        <ele>1477.6</ele>
        <time>2026-02-08T09:38:36.000Z</time>
      </trkpt>
      <trkpt lat="43.04192" lon="-0.3348">
        <ele>1477.4</ele>
        <time>2026-02-08T09:38:39.000Z</time>
      </trkpt>
      <trkpt lat="43.04193" lon="-0.33483">
        <ele>1477.1</ele>
        <time>2026-02-08T09:38:42.000Z</time>
      </trkpt>
      <trkpt lat="43.04195" lon="-0.33485">
        <ele>1476.6</ele>
        <time>2026-02-08T09:38:45.000Z</time>
      </trkpt>
      <trkpt lat="43.04196" lon="-0.33487">
        <ele>1476.2</ele>
        <time>2026-02-08T09:38:48.000Z</time>
      </trkpt>
      <trkpt lat="43.042" lon="-0.33488">
        <ele>1475.8</ele>
        <time>2026-02-08T09:38:51.000Z</time>
      </trkpt>
      <trkpt lat="43.04203" lon="-0.33488">
        <ele>1475.3</ele>
        <time>2026-02-08T09:38:54.000Z</time>
      </trkpt>
      <trkpt lat="43.04206" lon="-0.3349">
        <ele>1474.8</ele>
        <time>2026-02-08T09:38:57.000Z</time>
      </trkpt>
      <trkpt lat="43.04208" lon="-0.33493">
        <ele>1474.4</ele>
        <time>2026-02-08T09:39:00.000Z</time>
      </trkpt>
      <trkpt lat="43.04211" lon="-0.33496">
        <ele>1473.9</ele>
        <time>2026-02-08T09:39:03.000Z</time>
      </trkpt>
      <trkpt lat="43.04214" lon="-0.335">
        <ele>1473.4</ele>
        <time>2026-02-08T09:39:06.000Z</time>
      </trkpt>
      <trkpt lat="43.04216" lon="-0.33504">
        <ele>1473.1</ele>
        <time>2026-02-08T09:39:09.000Z</time>
      </trkpt>
      <trkpt lat="43.04217" lon="-0.33508">
        <ele>1472.9</ele>
        <time>2026-02-08T09:39:12.000Z</time>
      </trkpt>
      <trkpt lat="43.04219" lon="-0.33512">
        <ele>1472.8</ele>
        <time>2026-02-08T09:39:15.000Z</time>
      </trkpt>
      <trkpt lat="43.04221" lon="-0.33516">
        <ele>1472.7</ele>
        <time>2026-02-08T09:39:18.000Z</time>
      </trkpt>
      <trkpt lat="43.04223" lon="-0.3352">
        <ele>1472.6</ele>
        <time>2026-02-08T09:39:21.000Z</time>
      </trkpt>
      <trkpt lat="43.04226" lon="-0.33523">
        <ele>1472.6</ele>
        <time>2026-02-08T09:39:24.000Z</time>
      </trkpt>
      <trkpt lat="43.04229" lon="-0.33526">
        <ele>1472.5</ele>
        <time>2026-02-08T09:39:27.000Z</time>
      </trkpt>
      <trkpt lat="43.0423" lon="-0.3353">
        <ele>1472.5</ele>
        <time>2026-02-08T09:39:30.000Z</time>
      </trkpt>
      <trkpt lat="43.04232" lon="-0.33534">
        <ele>1472.6</ele>
        <time>2026-02-08T09:39:33.000Z</time>
      </trkpt>
      <trkpt lat="43.04233" lon="-0.33538">
        <ele>1472.6</ele>
        <time>2026-02-08T09:39:36.000Z</time>
      </trkpt>
      <trkpt lat="43.04232" lon="-0.33542">
        <ele>1472.7</ele>
        <time>2026-02-08T09:39:39.000Z</time>
      </trkpt>
      <trkpt lat="43.0423" lon="-0.33545">
        <ele>1472.7</ele>
        <time>2026-02-08T09:39:42.000Z</time>
      </trkpt>
      <trkpt lat="43.04229" lon="-0.33549">
        <ele>1472.8</ele>
        <time>2026-02-08T09:39:45.000Z</time>
      </trkpt>
      <trkpt lat="43.04229" lon="-0.33553">
        <ele>1472.9</ele>
        <time>2026-02-08T09:39:48.000Z</time>
      </trkpt>
      <trkpt lat="43.04229" lon="-0.33556">
        <ele>1472.9</ele>
        <time>2026-02-08T09:39:51.000Z</time>
      </trkpt>
      <trkpt lat="43.0423" lon="-0.3356">
        <ele>1473</ele>
        <time>2026-02-08T09:39:54.000Z</time>
      </trkpt>
      <trkpt lat="43.04232" lon="-0.33563">
        <ele>1473</ele>
        <time>2026-02-08T09:39:57.000Z</time>
      </trkpt>
      <trkpt lat="43.04234" lon="-0.33566">
        <ele>1473</ele>
        <time>2026-02-08T09:40:00.000Z</time>
      </trkpt>
      <trkpt lat="43.04236" lon="-0.3357">
        <ele>1472.8</ele>
        <time>2026-02-08T09:40:03.000Z</time>
      </trkpt>
      <trkpt lat="43.04237" lon="-0.33573">
        <ele>1472.6</ele>
        <time>2026-02-08T09:40:06.000Z</time>
      </trkpt>
      <trkpt lat="43.04238" lon="-0.33576">
        <ele>1472.3</ele>
        <time>2026-02-08T09:40:09.000Z</time>
      </trkpt>
      <trkpt lat="43.04238" lon="-0.33578">
        <ele>1471.7</ele>
        <time>2026-02-08T09:40:12.000Z</time>
      </trkpt>
      <trkpt lat="43.04239" lon="-0.33583">
        <ele>1471.1</ele>
        <time>2026-02-08T09:40:15.000Z</time>
      </trkpt>
      <trkpt lat="43.0424" lon="-0.33587">
        <ele>1470.3</ele>
        <time>2026-02-08T09:40:18.000Z</time>
      </trkpt>
      <trkpt lat="43.04242" lon="-0.33589">
        <ele>1469.5</ele>
        <time>2026-02-08T09:40:21.000Z</time>
      </trkpt>
      <trkpt lat="43.04245" lon="-0.33591">
        <ele>1468.7</ele>
        <time>2026-02-08T09:40:24.000Z</time>
      </trkpt>
      <trkpt lat="43.04248" lon="-0.33595">
        <ele>1467.9</ele>
        <time>2026-02-08T09:40:27.000Z</time>
      </trkpt>
      <trkpt lat="43.04251" lon="-0.33597">
        <ele>1467.2</ele>
        <time>2026-02-08T09:40:30.000Z</time>
      </trkpt>
      <trkpt lat="43.04254" lon="-0.33599">
        <ele>1466.4</ele>
        <time>2026-02-08T09:40:33.000Z</time>
      </trkpt>
      <trkpt lat="43.04256" lon="-0.336">
        <ele>1465.8</ele>
        <time>2026-02-08T09:40:36.000Z</time>
      </trkpt>
      <trkpt lat="43.04259" lon="-0.33602">
        <ele>1465.2</ele>
        <time>2026-02-08T09:40:39.000Z</time>
      </trkpt>
      <trkpt lat="43.04261" lon="-0.33605">
        <ele>1464.5</ele>
        <time>2026-02-08T09:40:42.000Z</time>
      </trkpt>
      <trkpt lat="43.04264" lon="-0.33607">
        <ele>1463.8</ele>
        <time>2026-02-08T09:40:45.000Z</time>
      </trkpt>
      <trkpt lat="43.04267" lon="-0.3361">
        <ele>1463.1</ele>
        <time>2026-02-08T09:40:48.000Z</time>
      </trkpt>
      <trkpt lat="43.04267" lon="-0.33612">
        <ele>1461.8</ele>
        <time>2026-02-08T09:40:51.000Z</time>
      </trkpt>
      <trkpt lat="43.04267" lon="-0.33614">
        <ele>1461.3</ele>
        <time>2026-02-08T09:40:54.000Z</time>
      </trkpt>
      <trkpt lat="43.04268" lon="-0.33617">
        <ele>1460.8</ele>
        <time>2026-02-08T09:40:57.000Z</time>
      </trkpt>
      <trkpt lat="43.0427" lon="-0.33619">
        <ele>1460.3</ele>
        <time>2026-02-08T09:41:00.000Z</time>
      </trkpt>
      <trkpt lat="43.04273" lon="-0.33621">
        <ele>1459.6</ele>
        <time>2026-02-08T09:41:03.000Z</time>
      </trkpt>
      <trkpt lat="43.04275" lon="-0.33623">
        <ele>1459</ele>
        <time>2026-02-08T09:41:06.000Z</time>
      </trkpt>
      <trkpt lat="43.04279" lon="-0.33624">
        <ele>1458.3</ele>
        <time>2026-02-08T09:41:09.000Z</time>
      </trkpt>
      <trkpt lat="43.04281" lon="-0.33626">
        <ele>1457.4</ele>
        <time>2026-02-08T09:41:12.000Z</time>
      </trkpt>
      <trkpt lat="43.04283" lon="-0.33629">
        <ele>1456.5</ele>
        <time>2026-02-08T09:41:15.000Z</time>
      </trkpt>
      <trkpt lat="43.04285" lon="-0.33628">
        <ele>1455.7</ele>
        <time>2026-02-08T09:41:18.000Z</time>
      </trkpt>
      <trkpt lat="43.04289" lon="-0.33627">
        <ele>1454.7</ele>
        <time>2026-02-08T09:41:21.000Z</time>
      </trkpt>
      <trkpt lat="43.04293" lon="-0.33627">
        <ele>1454</ele>
        <time>2026-02-08T09:41:24.000Z</time>
      </trkpt>
      <trkpt lat="43.04297" lon="-0.33628">
        <ele>1453.2</ele>
        <time>2026-02-08T09:41:27.000Z</time>
      </trkpt>
      <trkpt lat="43.04299" lon="-0.3363">
        <ele>1452.3</ele>
        <time>2026-02-08T09:41:30.000Z</time>
      </trkpt>
      <trkpt lat="43.04302" lon="-0.33633">
        <ele>1451.6</ele>
        <time>2026-02-08T09:41:33.000Z</time>
      </trkpt>
      <trkpt lat="43.04304" lon="-0.33633">
        <ele>1450.8</ele>
        <time>2026-02-08T09:41:36.000Z</time>
      </trkpt>
      <trkpt lat="43.04305" lon="-0.33633">
        <ele>1449.9</ele>
        <time>2026-02-08T09:41:39.000Z</time>
      </trkpt>
      <trkpt lat="43.04308" lon="-0.33632">
        <ele>1449.1</ele>
        <time>2026-02-08T09:41:42.000Z</time>
      </trkpt>
      <trkpt lat="43.0431" lon="-0.3363">
        <ele>1448.3</ele>
        <time>2026-02-08T09:41:45.000Z</time>
      </trkpt>
      <trkpt lat="43.04314" lon="-0.33631">
        <ele>1447.6</ele>
        <time>2026-02-08T09:41:48.000Z</time>
      </trkpt>
      <trkpt lat="43.04318" lon="-0.33632">
        <ele>1446.9</ele>
        <time>2026-02-08T09:41:51.000Z</time>
      </trkpt>
      <trkpt lat="43.04321" lon="-0.33633">
        <ele>1446.5</ele>
        <time>2026-02-08T09:41:54.000Z</time>
      </trkpt>
      <trkpt lat="43.04322" lon="-0.33634">
        <ele>1446.2</ele>
        <time>2026-02-08T09:41:57.000Z</time>
      </trkpt>
      <trkpt lat="43.04322" lon="-0.33634">
        <ele>1446</ele>
        <time>2026-02-08T09:42:00.000Z</time>
      </trkpt>
      <trkpt lat="43.04322" lon="-0.33634">
        <ele>1445.9</ele>
        <time>2026-02-08T09:42:01.000Z</time>
      </trkpt>
      <trkpt lat="43.04322" lon="-0.33634">
        <ele>1445.9</ele>
        <time>2026-02-08T09:42:02.000Z</time>
      </trkpt>
      <trkpt lat="43.04322" lon="-0.33634">
        <ele>1445.9</ele>
        <time>2026-02-08T09:42:03.000Z</time>
      </trkpt>
      <trkpt lat="43.04322" lon="-0.33634">
        <ele>1445.8</ele>
        <time>2026-02-08T09:42:04.000Z</time>
      </trkpt>
      <trkpt lat="43.04322" lon="-0.33634">
        <ele>1445.8</ele>
        <time>2026-02-08T09:42:05.000Z</time>
      </trkpt>
      <trkpt lat="43.04322" lon="-0.33634">
        <ele>1445.7</ele>
        <time>2026-02-08T09:42:08.000Z</time>
      </trkpt>
      <trkpt lat="43.04322" lon="-0.33634">
        <ele>1445.5</ele>
        <time>2026-02-08T09:42:11.000Z</time>
      </trkpt>
      <trkpt lat="43.04323" lon="-0.33634">
        <ele>1445.5</ele>
        <time>2026-02-08T09:42:12.000Z</time>
      </trkpt>
      <trkpt lat="43.04323" lon="-0.33634">
        <ele>1445.5</ele>
        <time>2026-02-08T09:42:13.000Z</time>
      </trkpt>
      <trkpt lat="43.04323" lon="-0.33634">
        <ele>1445.5</ele>
        <time>2026-02-08T09:42:14.000Z</time>
      </trkpt>
      <trkpt lat="43.04323" lon="-0.33634">
        <ele>1445.5</ele>
        <time>2026-02-08T09:42:15.000Z</time>
      </trkpt>
      <trkpt lat="43.04323" lon="-0.33634">
        <ele>1445.5</ele>
        <time>2026-02-08T09:42:16.000Z</time>
      </trkpt>
      <trkpt lat="43.04324" lon="-0.33634">
        <ele>1445.4</ele>
        <time>2026-02-08T09:42:19.000Z</time>
      </trkpt>
      <trkpt lat="43.04324" lon="-0.33634">
        <ele>1445.4</ele>
        <time>2026-02-08T09:42:22.000Z</time>
      </trkpt>
      <trkpt lat="43.04324" lon="-0.33635">
        <ele>1445.4</ele>
        <time>2026-02-08T09:42:24.000Z</time>
      </trkpt>
      <trkpt lat="43.04324" lon="-0.33635">
        <ele>1445.4</ele>
        <time>2026-02-08T09:42:25.000Z</time>
      </trkpt>
      <trkpt lat="43.04324" lon="-0.33635">
        <ele>1445.7</ele>
        <time>2026-02-08T09:42:28.000Z</time>
      </trkpt>
      <trkpt lat="43.04324" lon="-0.33635">
        <ele>1445.8</ele>
        <time>2026-02-08T09:42:31.000Z</time>
      </trkpt>
      <trkpt lat="43.04324" lon="-0.33635">
        <ele>1445.8</ele>
        <time>2026-02-08T09:42:32.000Z</time>
      </trkpt>
      <trkpt lat="43.04324" lon="-0.33635">
        <ele>1445.8</ele>
        <time>2026-02-08T09:42:33.000Z</time>
      </trkpt>
      <trkpt lat="43.04324" lon="-0.33635">
        <ele>1445.8</ele>
        <time>2026-02-08T09:42:34.000Z</time>
      </trkpt>
      <trkpt lat="43.04324" lon="-0.33635">
        <ele>1445.7</ele>
        <time>2026-02-08T09:42:35.000Z</time>
      </trkpt>
      <trkpt lat="43.04324" lon="-0.33635">
        <ele>1445.7</ele>
        <time>2026-02-08T09:42:36.000Z</time>
      </trkpt>
      <trkpt lat="43.04323" lon="-0.33635">
        <ele>1445.7</ele>
        <time>2026-02-08T09:42:39.000Z</time>
      </trkpt>
      <trkpt lat="43.04323" lon="-0.33635">
        <ele>1445.7</ele>
        <time>2026-02-08T09:42:40.000Z</time>
      </trkpt>
      <trkpt lat="43.04323" lon="-0.33636">
        <ele>1445.7</ele>
        <time>2026-02-08T09:42:41.000Z</time>
      </trkpt>
      <trkpt lat="43.04322" lon="-0.33636">
        <ele>1445.7</ele>
        <time>2026-02-08T09:42:44.000Z</time>
      </trkpt>
      <trkpt lat="43.04322" lon="-0.33637">
        <ele>1445.7</ele>
        <time>2026-02-08T09:42:47.000Z</time>
      </trkpt>
      <trkpt lat="43.04321" lon="-0.33637">
        <ele>1445.7</ele>
        <time>2026-02-08T09:42:50.000Z</time>
      </trkpt>
      <trkpt lat="43.04321" lon="-0.33637">
        <ele>1445.7</ele>
        <time>2026-02-08T09:42:52.000Z</time>
      </trkpt>
      <trkpt lat="43.04322" lon="-0.33638">
        <ele>1445.7</ele>
        <time>2026-02-08T09:42:53.000Z</time>
      </trkpt>
      <trkpt lat="43.04322" lon="-0.33639">
        <ele>1445.7</ele>
        <time>2026-02-08T09:42:54.000Z</time>
      </trkpt>
      <trkpt lat="43.04324" lon="-0.3364">
        <ele>1445.6</ele>
        <time>2026-02-08T09:42:57.000Z</time>
      </trkpt>
      <trkpt lat="43.04326" lon="-0.3364">
        <ele>1445.5</ele>
        <time>2026-02-08T09:43:00.000Z</time>
      </trkpt>
      <trkpt lat="43.04327" lon="-0.33639">
        <ele>1445.4</ele>
        <time>2026-02-08T09:43:03.000Z</time>
      </trkpt>
      <trkpt lat="43.04328" lon="-0.33638">
        <ele>1445</ele>
        <time>2026-02-08T09:43:06.000Z</time>
      </trkpt>
      <trkpt lat="43.0433" lon="-0.33637">
        <ele>1444.5</ele>
        <time>2026-02-08T09:43:09.000Z</time>
      </trkpt>
      <trkpt lat="43.0433" lon="-0.33636">
        <ele>1443.7</ele>
        <time>2026-02-08T09:43:12.000Z</time>
      </trkpt>
      <trkpt lat="43.04331" lon="-0.33635">
        <ele>1442.8</ele>
        <time>2026-02-08T09:43:15.000Z</time>
      </trkpt>
      <trkpt lat="43.04333" lon="-0.33634">
        <ele>1441.9</ele>
        <time>2026-02-08T09:43:18.000Z</time>
      </trkpt>
      <trkpt lat="43.04335" lon="-0.33636">
        <ele>1441.3</ele>
        <time>2026-02-08T09:43:21.000Z</time>
      </trkpt>
      <trkpt lat="43.04337" lon="-0.33638">
        <ele>1440.8</ele>
        <time>2026-02-08T09:43:24.000Z</time>
      </trkpt>
      <trkpt lat="43.04339" lon="-0.33641">
        <ele>1440.5</ele>
        <time>2026-02-08T09:43:27.000Z</time>
      </trkpt>
      <trkpt lat="43.04341" lon="-0.33644">
        <ele>1440.3</ele>
        <time>2026-02-08T09:43:30.000Z</time>
      </trkpt>
      <trkpt lat="43.04344" lon="-0.33646">
        <ele>1440.2</ele>
        <time>2026-02-08T09:43:33.000Z</time>
      </trkpt>
      <trkpt lat="43.04345" lon="-0.33647">
        <ele>1440.2</ele>
        <time>2026-02-08T09:43:36.000Z</time>
      </trkpt>
      <trkpt lat="43.04347" lon="-0.33648">
        <ele>1440.2</ele>
        <time>2026-02-08T09:43:39.000Z</time>
      </trkpt>
      <trkpt lat="43.0435" lon="-0.3365">
        <ele>1440.4</ele>
        <time>2026-02-08T09:43:42.000Z</time>
      </trkpt>
      <trkpt lat="43.04351" lon="-0.33648">
        <ele>1440.5</ele>
        <time>2026-02-08T09:43:45.000Z</time>
      </trkpt>
      <trkpt lat="43.04353" lon="-0.33645">
        <ele>1440.6</ele>
        <time>2026-02-08T09:43:48.000Z</time>
      </trkpt>
      <trkpt lat="43.04356" lon="-0.33643">
        <ele>1440.6</ele>
        <time>2026-02-08T09:43:51.000Z</time>
      </trkpt>
      <trkpt lat="43.04358" lon="-0.33643">
        <ele>1440.6</ele>
        <time>2026-02-08T09:43:54.000Z</time>
      </trkpt>
      <trkpt lat="43.0436" lon="-0.33643">
        <ele>1440.6</ele>
        <time>2026-02-08T09:43:57.000Z</time>
      </trkpt>
      <trkpt lat="43.04363" lon="-0.33641">
        <ele>1440.5</ele>
        <time>2026-02-08T09:44:00.000Z</time>
      </trkpt>
      <trkpt lat="43.04365" lon="-0.33641">
        <ele>1440.5</ele>
        <time>2026-02-08T09:44:03.000Z</time>
      </trkpt>
      <trkpt lat="43.04366" lon="-0.33642">
        <ele>1440.4</ele>
        <time>2026-02-08T09:44:06.000Z</time>
      </trkpt>
      <trkpt lat="43.04365" lon="-0.33642">
        <ele>1440.4</ele>
        <time>2026-02-08T09:44:07.000Z</time>
      </trkpt>
      <trkpt lat="43.04365" lon="-0.33642">
        <ele>1440.4</ele>
        <time>2026-02-08T09:44:08.000Z</time>
      </trkpt>
      <trkpt lat="43.04365" lon="-0.33642">
        <ele>1440.3</ele>
        <time>2026-02-08T09:44:11.000Z</time>
      </trkpt>
      <trkpt lat="43.04365" lon="-0.33642">
        <ele>1440.3</ele>
        <time>2026-02-08T09:44:12.000Z</time>
      </trkpt>
      <trkpt lat="43.04365" lon="-0.33642">
        <ele>1440.3</ele>
        <time>2026-02-08T09:44:13.000Z</time>
      </trkpt>
      <trkpt lat="43.04365" lon="-0.33642">
        <ele>1440.2</ele>
        <time>2026-02-08T09:44:14.000Z</time>
      </trkpt>
      <trkpt lat="43.04365" lon="-0.33642">
        <ele>1440.2</ele>
        <time>2026-02-08T09:44:15.000Z</time>
      </trkpt>
      <trkpt lat="43.04366" lon="-0.33642">
        <ele>1440.2</ele>
        <time>2026-02-08T09:44:16.000Z</time>
      </trkpt>
      <trkpt lat="43.04366" lon="-0.33642">
        <ele>1440.2</ele>
        <time>2026-02-08T09:44:17.000Z</time>
      </trkpt>
      <trkpt lat="43.04365" lon="-0.33642">
        <ele>1440.2</ele>
        <time>2026-02-08T09:44:18.000Z</time>
      </trkpt>
      <trkpt lat="43.04365" lon="-0.33642">
        <ele>1440.1</ele>
        <time>2026-02-08T09:44:21.000Z</time>
      </trkpt>
      <trkpt lat="43.04367" lon="-0.33642">
        <ele>1440.1</ele>
        <time>2026-02-08T09:44:24.000Z</time>
      </trkpt>
      <trkpt lat="43.04367" lon="-0.33642">
        <ele>1440.1</ele>
        <time>2026-02-08T09:44:27.000Z</time>
      </trkpt>
      <trkpt lat="43.04367" lon="-0.33642">
        <ele>1440.1</ele>
        <time>2026-02-08T09:44:28.000Z</time>
      </trkpt>
      <trkpt lat="43.04367" lon="-0.33642">
        <ele>1440.1</ele>
        <time>2026-02-08T09:44:29.000Z</time>
      </trkpt>
      <trkpt lat="43.04367" lon="-0.33642">
        <ele>1440.1</ele>
        <time>2026-02-08T09:44:30.000Z</time>
      </trkpt>
      <trkpt lat="43.04367" lon="-0.33641">
        <ele>1440.1</ele>
        <time>2026-02-08T09:44:33.000Z</time>
      </trkpt>
      <trkpt lat="43.04367" lon="-0.33641">
        <ele>1440.1</ele>
        <time>2026-02-08T09:44:36.000Z</time>
      </trkpt>
      <trkpt lat="43.04366" lon="-0.33642">
        <ele>1440.1</ele>
        <time>2026-02-08T09:44:39.000Z</time>
      </trkpt>
      <trkpt lat="43.04366" lon="-0.33642">
        <ele>1440.1</ele>
        <time>2026-02-08T09:44:40.000Z</time>
      </trkpt>
      <trkpt lat="43.04366" lon="-0.33642">
        <ele>1440.1</ele>
        <time>2026-02-08T09:44:41.000Z</time>
      </trkpt>
      <trkpt lat="43.04367" lon="-0.33642">
        <ele>1440.1</ele>
        <time>2026-02-08T09:44:44.000Z</time>
      </trkpt>
      <trkpt lat="43.04367" lon="-0.33642">
        <ele>1440.1</ele>
        <time>2026-02-08T09:44:47.000Z</time>
      </trkpt>
      <trkpt lat="43.04368" lon="-0.33642">
        <ele>1440.1</ele>
        <time>2026-02-08T09:44:48.000Z</time>
      </trkpt>
      <trkpt lat="43.04368" lon="-0.33642">
        <ele>1440.1</ele>
        <time>2026-02-08T09:44:49.000Z</time>
      </trkpt>
      <trkpt lat="43.04368" lon="-0.33642">
        <ele>1440.1</ele>
        <time>2026-02-08T09:44:50.000Z</time>
      </trkpt>
      <trkpt lat="43.04368" lon="-0.33642">
        <ele>1440.1</ele>
        <time>2026-02-08T09:44:53.000Z</time>
      </trkpt>
      <trkpt lat="43.04368" lon="-0.33642">
        <ele>1440.1</ele>
        <time>2026-02-08T09:44:56.000Z</time>
      </trkpt>
      <trkpt lat="43.04368" lon="-0.33642">
        <ele>1440.1</ele>
        <time>2026-02-08T09:44:57.000Z</time>
      </trkpt>
      <trkpt lat="43.04368" lon="-0.33642">
        <ele>1440.1</ele>
        <time>2026-02-08T09:44:58.000Z</time>
      </trkpt>
      <trkpt lat="43.04368" lon="-0.33642">
        <ele>1440.1</ele>
        <time>2026-02-08T09:44:59.000Z</time>
      </trkpt>
      <trkpt lat="43.04368" lon="-0.33642">
        <ele>1440.1</ele>
        <time>2026-02-08T09:45:00.000Z</time>
      </trkpt>
      <trkpt lat="43.04368" lon="-0.33642">
        <ele>1440.1</ele>
        <time>2026-02-08T09:45:01.000Z</time>
      </trkpt>
      <trkpt lat="43.04368" lon="-0.33641">
        <ele>1440.1</ele>
        <time>2026-02-08T09:45:04.000Z</time>
      </trkpt>
      <trkpt lat="43.04367" lon="-0.33641">
        <ele>1440.1</ele>
        <time>2026-02-08T09:45:07.000Z</time>
      </trkpt>
      <trkpt lat="43.04368" lon="-0.33641">
        <ele>1440.1</ele>
        <time>2026-02-08T09:45:10.000Z</time>
      </trkpt>
      <trkpt lat="43.04368" lon="-0.33641">
        <ele>1440.1</ele>
        <time>2026-02-08T09:45:11.000Z</time>
      </trkpt>
      <trkpt lat="43.04369" lon="-0.33641">
        <ele>1440.1</ele>
        <time>2026-02-08T09:45:14.000Z</time>
      </trkpt>
      <trkpt lat="43.04369" lon="-0.3364">
        <ele>1440</ele>
        <time>2026-02-08T09:45:17.000Z</time>
      </trkpt>
      <trkpt lat="43.04369" lon="-0.33639">
        <ele>1440</ele>
        <time>2026-02-08T09:45:20.000Z</time>
      </trkpt>
      <trkpt lat="43.04369" lon="-0.33639">
        <ele>1440</ele>
        <time>2026-02-08T09:45:21.000Z</time>
      </trkpt>
      <trkpt lat="43.0437" lon="-0.33639">
        <ele>1440</ele>
        <time>2026-02-08T09:45:24.000Z</time>
      </trkpt>
      <trkpt lat="43.04368" lon="-0.33639">
        <ele>1440</ele>
        <time>2026-02-08T09:45:27.000Z</time>
      </trkpt>
      <trkpt lat="43.04367" lon="-0.33642">
        <ele>1440</ele>
        <time>2026-02-08T09:45:30.000Z</time>
      </trkpt>
      <trkpt lat="43.04367" lon="-0.33642">
        <ele>1440</ele>
        <time>2026-02-08T09:45:31.000Z</time>
      </trkpt>
      <trkpt lat="43.04366" lon="-0.33643">
        <ele>1439.9</ele>
        <time>2026-02-08T09:45:34.000Z</time>
      </trkpt>
      <trkpt lat="43.04371" lon="-0.3364">
        <ele>1439.9</ele>
        <time>2026-02-08T09:45:37.000Z</time>
      </trkpt>
      <trkpt lat="43.04371" lon="-0.3364">
        <ele>1439.9</ele>
        <time>2026-02-08T09:45:40.000Z</time>
      </trkpt>
      <trkpt lat="43.04371" lon="-0.3364">
        <ele>1439.9</ele>
        <time>2026-02-08T09:45:43.000Z</time>
      </trkpt>
      <trkpt lat="43.04371" lon="-0.3364">
        <ele>1439.9</ele>
        <time>2026-02-08T09:45:46.000Z</time>
      </trkpt>
      <trkpt lat="43.04371" lon="-0.3364">
        <ele>1439.9</ele>
        <time>2026-02-08T09:45:47.000Z</time>
      </trkpt>
      <trkpt lat="43.04371" lon="-0.3364">
        <ele>1439.9</ele>
        <time>2026-02-08T09:45:48.000Z</time>
      </trkpt>
      <trkpt lat="43.04372" lon="-0.3364">
        <ele>1439.9</ele>
        <time>2026-02-08T09:45:51.000Z</time>
      </trkpt>
      <trkpt lat="43.04372" lon="-0.33641">
        <ele>1439.9</ele>
        <time>2026-02-08T09:45:52.000Z</time>
      </trkpt>
      <trkpt lat="43.04372" lon="-0.33641">
        <ele>1439.9</ele>
        <time>2026-02-08T09:45:53.000Z</time>
      </trkpt>
      <trkpt lat="43.04372" lon="-0.33641">
        <ele>1439.9</ele>
        <time>2026-02-08T09:45:54.000Z</time>
      </trkpt>
      <trkpt lat="43.04372" lon="-0.33641">
        <ele>1439.9</ele>
        <time>2026-02-08T09:45:55.000Z</time>
      </trkpt>
      <trkpt lat="43.04372" lon="-0.33641">
        <ele>1439.9</ele>
        <time>2026-02-08T09:45:58.000Z</time>
      </trkpt>
      <trkpt lat="43.04372" lon="-0.33641">
        <ele>1439.8</ele>
        <time>2026-02-08T09:45:59.000Z</time>
      </trkpt>
      <trkpt lat="43.04372" lon="-0.33641">
        <ele>1439.6</ele>
        <time>2026-02-08T09:46:00.000Z</time>
      </trkpt>
      <trkpt lat="43.04372" lon="-0.33641">
        <ele>1439.7</ele>
        <time>2026-02-08T09:46:03.000Z</time>
      </trkpt>
      <trkpt lat="43.0437" lon="-0.3364">
        <ele>1439.3</ele>
        <time>2026-02-08T09:46:06.000Z</time>
      </trkpt>
      <trkpt lat="43.04369" lon="-0.33639">
        <ele>1438.8</ele>
        <time>2026-02-08T09:46:09.000Z</time>
      </trkpt>
      <trkpt lat="43.0437" lon="-0.33639">
        <ele>1439.4</ele>
        <time>2026-02-08T09:46:10.000Z</time>
      </trkpt>
      <trkpt lat="43.0437" lon="-0.3364">
        <ele>1439.8</ele>
        <time>2026-02-08T09:46:11.000Z</time>
      </trkpt>
      <trkpt lat="43.04371" lon="-0.3364">
        <ele>1440</ele>
        <time>2026-02-08T09:46:12.000Z</time>
      </trkpt>
      <trkpt lat="43.04371" lon="-0.3364">
        <ele>1439.8</ele>
        <time>2026-02-08T09:46:13.000Z</time>
      </trkpt>
      <trkpt lat="43.0437" lon="-0.33641">
        <ele>1439.8</ele>
        <time>2026-02-08T09:46:16.000Z</time>
      </trkpt>
      <trkpt lat="43.04371" lon="-0.33642">
        <ele>1440</ele>
        <time>2026-02-08T09:46:19.000Z</time>
      </trkpt>
      <trkpt lat="43.04371" lon="-0.33642">
        <ele>1440</ele>
        <time>2026-02-08T09:46:22.000Z</time>
      </trkpt>
      <trkpt lat="43.04371" lon="-0.33642">
        <ele>1440</ele>
        <time>2026-02-08T09:46:25.000Z</time>
      </trkpt>
      <trkpt lat="43.04371" lon="-0.33642">
        <ele>1440.1</ele>
        <time>2026-02-08T09:46:28.000Z</time>
      </trkpt>
      <trkpt lat="43.0437" lon="-0.33642">
        <ele>1440.2</ele>
        <time>2026-02-08T09:46:31.000Z</time>
      </trkpt>
      <trkpt lat="43.0437" lon="-0.33642">
        <ele>1440.2</ele>
        <time>2026-02-08T09:46:32.000Z</time>
      </trkpt>
      <trkpt lat="43.0437" lon="-0.33642">
        <ele>1440.2</ele>
        <time>2026-02-08T09:46:33.000Z</time>
      </trkpt>
      <trkpt lat="43.0437" lon="-0.33642">
        <ele>1440.3</ele>
        <time>2026-02-08T09:46:36.000Z</time>
      </trkpt>
      <trkpt lat="43.04371" lon="-0.33641">
        <ele>1440.1</ele>
        <time>2026-02-08T09:46:39.000Z</time>
      </trkpt>
      <trkpt lat="43.04372" lon="-0.33641">
        <ele>1440.1</ele>
        <time>2026-02-08T09:46:40.000Z</time>
      </trkpt>
      <trkpt lat="43.04373" lon="-0.33641">
        <ele>1440.1</ele>
        <time>2026-02-08T09:46:43.000Z</time>
      </trkpt>
      <trkpt lat="43.04373" lon="-0.33642">
        <ele>1440.1</ele>
        <time>2026-02-08T09:46:46.000Z</time>
      </trkpt>
      <trkpt lat="43.04373" lon="-0.33642">
        <ele>1440.1</ele>
        <time>2026-02-08T09:46:49.000Z</time>
      </trkpt>
      <trkpt lat="43.04371" lon="-0.33643">
        <ele>1440</ele>
        <time>2026-02-08T09:46:52.000Z</time>
      </trkpt>
      <trkpt lat="43.04372" lon="-0.33643">
        <ele>1440</ele>
        <time>2026-02-08T09:46:53.000Z</time>
      </trkpt>
      <trkpt lat="43.04371" lon="-0.33643">
        <ele>1440</ele>
        <time>2026-02-08T09:46:56.000Z</time>
      </trkpt>
      <trkpt lat="43.04371" lon="-0.33643">
        <ele>1440</ele>
        <time>2026-02-08T09:46:59.000Z</time>
      </trkpt>
      <trkpt lat="43.04371" lon="-0.33643">
        <ele>1439.9</ele>
        <time>2026-02-08T09:47:01.000Z</time>
      </trkpt>
      <trkpt lat="43.04371" lon="-0.33643">
        <ele>1439.9</ele>
        <time>2026-02-08T09:47:02.000Z</time>
      </trkpt>
      <trkpt lat="43.04371" lon="-0.33643">
        <ele>1439.9</ele>
        <time>2026-02-08T09:47:03.000Z</time>
      </trkpt>
      <trkpt lat="43.0437" lon="-0.33644">
        <ele>1440</ele>
        <time>2026-02-08T09:47:06.000Z</time>
      </trkpt>
      <trkpt lat="43.0437" lon="-0.33644">
        <ele>1440</ele>
        <time>2026-02-08T09:47:07.000Z</time>
      </trkpt>
      <trkpt lat="43.0437" lon="-0.33644">
        <ele>1440</ele>
        <time>2026-02-08T09:47:08.000Z</time>
      </trkpt>
      <trkpt lat="43.0437" lon="-0.33645">
        <ele>1440</ele>
        <time>2026-02-08T09:47:11.000Z</time>
      </trkpt>
      <trkpt lat="43.0437" lon="-0.33645">
        <ele>1440</ele>
        <time>2026-02-08T09:47:14.000Z</time>
      </trkpt>
      <trkpt lat="43.04371" lon="-0.33645">
        <ele>1440</ele>
        <time>2026-02-08T09:47:17.000Z</time>
      </trkpt>
      <trkpt lat="43.04371" lon="-0.33644">
        <ele>1440</ele>
        <time>2026-02-08T09:47:18.000Z</time>
      </trkpt>
      <trkpt lat="43.04371" lon="-0.33645">
        <ele>1440</ele>
        <time>2026-02-08T09:47:19.000Z</time>
      </trkpt>
      <trkpt lat="43.04371" lon="-0.33645">
        <ele>1440</ele>
        <time>2026-02-08T09:47:20.000Z</time>
      </trkpt>
      <trkpt lat="43.04371" lon="-0.33645">
        <ele>1440</ele>
        <time>2026-02-08T09:47:21.000Z</time>
      </trkpt>
      <trkpt lat="43.04372" lon="-0.33646">
        <ele>1440</ele>
        <time>2026-02-08T09:47:24.000Z</time>
      </trkpt>
      <trkpt lat="43.04373" lon="-0.33646">
        <ele>1440.1</ele>
        <time>2026-02-08T09:47:27.000Z</time>
      </trkpt>
      <trkpt lat="43.04373" lon="-0.33646">
        <ele>1440.1</ele>
        <time>2026-02-08T09:47:30.000Z</time>
      </trkpt>
      <trkpt lat="43.04373" lon="-0.33646">
        <ele>1440.1</ele>
        <time>2026-02-08T09:47:33.000Z</time>
      </trkpt>
      <trkpt lat="43.04373" lon="-0.33646">
        <ele>1440.1</ele>
        <time>2026-02-08T09:47:36.000Z</time>
      </trkpt>
      <trkpt lat="43.04373" lon="-0.33646">
        <ele>1440.1</ele>
        <time>2026-02-08T09:47:39.000Z</time>
      </trkpt>
      <trkpt lat="43.04373" lon="-0.33646">
        <ele>1440.1</ele>
        <time>2026-02-08T09:47:42.000Z</time>
      </trkpt>
      <trkpt lat="43.04372" lon="-0.33645">
        <ele>1440.1</ele>
        <time>2026-02-08T09:47:45.000Z</time>
      </trkpt>
      <trkpt lat="43.04371" lon="-0.33645">
        <ele>1440.1</ele>
        <time>2026-02-08T09:47:48.000Z</time>
      </trkpt>
      <trkpt lat="43.04371" lon="-0.33645">
        <ele>1440.1</ele>
        <time>2026-02-08T09:47:49.000Z</time>
      </trkpt>
      <trkpt lat="43.04371" lon="-0.33646">
        <ele>1440.1</ele>
        <time>2026-02-08T09:47:50.000Z</time>
      </trkpt>
      <trkpt lat="43.04371" lon="-0.33646">
        <ele>1440.1</ele>
        <time>2026-02-08T09:47:51.000Z</time>
      </trkpt>
      <trkpt lat="43.04372" lon="-0.33647">
        <ele>1440</ele>
        <time>2026-02-08T09:47:54.000Z</time>
      </trkpt>
      <trkpt lat="43.04373" lon="-0.33646">
        <ele>1440</ele>
        <time>2026-02-08T09:47:57.000Z</time>
      </trkpt>
      <trkpt lat="43.04374" lon="-0.33648">
        <ele>1439.9</ele>
        <time>2026-02-08T09:48:00.000Z</time>
      </trkpt>
      <trkpt lat="43.04375" lon="-0.33649">
        <ele>1439.7</ele>
        <time>2026-02-08T09:48:03.000Z</time>
      </trkpt>
      <trkpt lat="43.04377" lon="-0.33649">
        <ele>1439.3</ele>
        <time>2026-02-08T09:48:06.000Z</time>
      </trkpt>
      <trkpt lat="43.04378" lon="-0.33649">
        <ele>1438.7</ele>
        <time>2026-02-08T09:48:09.000Z</time>
      </trkpt>
      <trkpt lat="43.04378" lon="-0.33648">
        <ele>1437.7</ele>
        <time>2026-02-08T09:48:12.000Z</time>
      </trkpt>
      <trkpt lat="43.04379" lon="-0.33645">
        <ele>1436.5</ele>
        <time>2026-02-08T09:48:15.000Z</time>
      </trkpt>
      <trkpt lat="43.04381" lon="-0.33642">
        <ele>1435.3</ele>
        <time>2026-02-08T09:48:18.000Z</time>
      </trkpt>
      <trkpt lat="43.04383" lon="-0.33641">
        <ele>1434.2</ele>
        <time>2026-02-08T09:48:21.000Z</time>
      </trkpt>
      <trkpt lat="43.04386" lon="-0.3364">
        <ele>1433.6</ele>
        <time>2026-02-08T09:48:24.000Z</time>
      </trkpt>
      <trkpt lat="43.04389" lon="-0.33638">
        <ele>1433.2</ele>
        <time>2026-02-08T09:48:27.000Z</time>
      </trkpt>
      <trkpt lat="43.04394" lon="-0.33638">
        <ele>1432.8</ele>
        <time>2026-02-08T09:48:30.000Z</time>
      </trkpt>
      <trkpt lat="43.04399" lon="-0.33638">
        <ele>1432.6</ele>
        <time>2026-02-08T09:48:33.000Z</time>
      </trkpt>
      <trkpt lat="43.04402" lon="-0.33639">
        <ele>1432.5</ele>
        <time>2026-02-08T09:48:36.000Z</time>
      </trkpt>
      <trkpt lat="43.04404" lon="-0.33641">
        <ele>1432.5</ele>
        <time>2026-02-08T09:48:39.000Z</time>
      </trkpt>
      <trkpt lat="43.04406" lon="-0.33643">
        <ele>1432.6</ele>
        <time>2026-02-08T09:48:42.000Z</time>
      </trkpt>
      <trkpt lat="43.04409" lon="-0.33645">
        <ele>1432.8</ele>
        <time>2026-02-08T09:48:45.000Z</time>
      </trkpt>
      <trkpt lat="43.04411" lon="-0.33646">
        <ele>1433.1</ele>
        <time>2026-02-08T09:48:48.000Z</time>
      </trkpt>
      <trkpt lat="43.04415" lon="-0.33646">
        <ele>1433.3</ele>
        <time>2026-02-08T09:48:51.000Z</time>
      </trkpt>
      <trkpt lat="43.04418" lon="-0.33647">
        <ele>1433.5</ele>
        <time>2026-02-08T09:48:54.000Z</time>
      </trkpt>
      <trkpt lat="43.0442" lon="-0.33649">
        <ele>1433.7</ele>
        <time>2026-02-08T09:48:57.000Z</time>
      </trkpt>
      <trkpt lat="43.04423" lon="-0.33651">
        <ele>1433.9</ele>
        <time>2026-02-08T09:49:00.000Z</time>
      </trkpt>
      <trkpt lat="43.04425" lon="-0.33652">
        <ele>1434.1</ele>
        <time>2026-02-08T09:49:03.000Z</time>
      </trkpt>
      <trkpt lat="43.04427" lon="-0.33651">
        <ele>1434.1</ele>
        <time>2026-02-08T09:49:06.000Z</time>
      </trkpt>
      <trkpt lat="43.04429" lon="-0.33651">
        <ele>1434.1</ele>
        <time>2026-02-08T09:49:09.000Z</time>
      </trkpt>
      <trkpt lat="43.04428" lon="-0.33652">
        <ele>1434</ele>
        <time>2026-02-08T09:49:12.000Z</time>
      </trkpt>
      <trkpt lat="43.04428" lon="-0.33653">
        <ele>1434</ele>
        <time>2026-02-08T09:49:15.000Z</time>
      </trkpt>
      <trkpt lat="43.04429" lon="-0.33654">
        <ele>1433.9</ele>
        <time>2026-02-08T09:49:18.000Z</time>
      </trkpt>
      <trkpt lat="43.04429" lon="-0.33656">
        <ele>1433.9</ele>
        <time>2026-02-08T09:49:21.000Z</time>
      </trkpt>
      <trkpt lat="43.0443" lon="-0.33659">
        <ele>1433.8</ele>
        <time>2026-02-08T09:49:24.000Z</time>
      </trkpt>
      <trkpt lat="43.0443" lon="-0.33663">
        <ele>1433.6</ele>
        <time>2026-02-08T09:49:27.000Z</time>
      </trkpt>
      <trkpt lat="43.04429" lon="-0.33667">
        <ele>1433.4</ele>
        <time>2026-02-08T09:49:30.000Z</time>
      </trkpt>
      <trkpt lat="43.04429" lon="-0.33672">
        <ele>1433.1</ele>
        <time>2026-02-08T09:49:33.000Z</time>
      </trkpt>
      <trkpt lat="43.04428" lon="-0.33675">
        <ele>1432.7</ele>
        <time>2026-02-08T09:49:36.000Z</time>
      </trkpt>
      <trkpt lat="43.04426" lon="-0.33678">
        <ele>1432.2</ele>
        <time>2026-02-08T09:49:39.000Z</time>
      </trkpt>
      <trkpt lat="43.04425" lon="-0.3368">
        <ele>1431.7</ele>
        <time>2026-02-08T09:49:42.000Z</time>
      </trkpt>
      <trkpt lat="43.04424" lon="-0.33684">
        <ele>1431.2</ele>
        <time>2026-02-08T09:49:45.000Z</time>
      </trkpt>
      <trkpt lat="43.04424" lon="-0.33687">
        <ele>1430.9</ele>
        <time>2026-02-08T09:49:48.000Z</time>
      </trkpt>
      <trkpt lat="43.04422" lon="-0.3369">
        <ele>1430.7</ele>
        <time>2026-02-08T09:49:51.000Z</time>
      </trkpt>
      <trkpt lat="43.04421" lon="-0.33693">
        <ele>1430.5</ele>
        <time>2026-02-08T09:49:54.000Z</time>
      </trkpt>
      <trkpt lat="43.04421" lon="-0.33696">
        <ele>1430.2</ele>
        <time>2026-02-08T09:49:57.000Z</time>
      </trkpt>
      <trkpt lat="43.04421" lon="-0.337">
        <ele>1430</ele>
        <time>2026-02-08T09:50:00.000Z</time>
      </trkpt>
      <trkpt lat="43.04421" lon="-0.33704">
        <ele>1429.8</ele>
        <time>2026-02-08T09:50:03.000Z</time>
      </trkpt>
      <trkpt lat="43.0442" lon="-0.33709">
        <ele>1429.6</ele>
        <time>2026-02-08T09:50:06.000Z</time>
      </trkpt>
      <trkpt lat="43.04419" lon="-0.33711">
        <ele>1429.6</ele>
        <time>2026-02-08T09:50:09.000Z</time>
      </trkpt>
      <trkpt lat="43.04419" lon="-0.33716">
        <ele>1429.6</ele>
        <time>2026-02-08T09:50:12.000Z</time>
      </trkpt>
      <trkpt lat="43.0442" lon="-0.33721">
        <ele>1429.6</ele>
        <time>2026-02-08T09:50:15.000Z</time>
      </trkpt>
      <trkpt lat="43.04422" lon="-0.33724">
        <ele>1429.6</ele>
        <time>2026-02-08T09:50:18.000Z</time>
      </trkpt>
      <trkpt lat="43.04426" lon="-0.33727">
        <ele>1429.5</ele>
        <time>2026-02-08T09:50:21.000Z</time>
      </trkpt>
      <trkpt lat="43.04428" lon="-0.3373">
        <ele>1429.4</ele>
        <time>2026-02-08T09:50:24.000Z</time>
      </trkpt>
      <trkpt lat="43.0443" lon="-0.33733">
        <ele>1429.4</ele>
        <time>2026-02-08T09:50:27.000Z</time>
      </trkpt>
      <trkpt lat="43.0443" lon="-0.33736">
        <ele>1429.3</ele>
        <time>2026-02-08T09:50:30.000Z</time>
      </trkpt>
      <trkpt lat="43.04431" lon="-0.33739">
        <ele>1429.3</ele>
        <time>2026-02-08T09:50:33.000Z</time>
      </trkpt>
      <trkpt lat="43.0443" lon="-0.3374">
        <ele>1429.3</ele>
        <time>2026-02-08T09:50:34.000Z</time>
      </trkpt>
      <trkpt lat="43.0443" lon="-0.3374">
        <ele>1429.3</ele>
        <time>2026-02-08T09:50:35.000Z</time>
      </trkpt>
      <trkpt lat="43.0443" lon="-0.3374">
        <ele>1429.3</ele>
        <time>2026-02-08T09:50:38.000Z</time>
      </trkpt>
      <trkpt lat="43.0443" lon="-0.3374">
        <ele>1429.3</ele>
        <time>2026-02-08T09:50:39.000Z</time>
      </trkpt>
      <trkpt lat="43.04429" lon="-0.33741">
        <ele>1429.3</ele>
        <time>2026-02-08T09:50:40.000Z</time>
      </trkpt>
      <trkpt lat="43.04429" lon="-0.33742">
        <ele>1429.2</ele>
        <time>2026-02-08T09:50:43.000Z</time>
      </trkpt>
      <trkpt lat="43.04429" lon="-0.33742">
        <ele>1429.2</ele>
        <time>2026-02-08T09:50:44.000Z</time>
      </trkpt>
      <trkpt lat="43.04429" lon="-0.33744">
        <ele>1429.2</ele>
        <time>2026-02-08T09:50:45.000Z</time>
      </trkpt>
      <trkpt lat="43.04429" lon="-0.33744">
        <ele>1429.2</ele>
        <time>2026-02-08T09:50:48.000Z</time>
      </trkpt>
      <trkpt lat="43.04429" lon="-0.33746">
        <ele>1429.2</ele>
        <time>2026-02-08T09:50:51.000Z</time>
      </trkpt>
      <trkpt lat="43.04428" lon="-0.33746">
        <ele>1429.2</ele>
        <time>2026-02-08T09:50:52.000Z</time>
      </trkpt>
      <trkpt lat="43.04428" lon="-0.33747">
        <ele>1429.1</ele>
        <time>2026-02-08T09:50:53.000Z</time>
      </trkpt>
      <trkpt lat="43.04429" lon="-0.33748">
        <ele>1429.1</ele>
        <time>2026-02-08T09:50:56.000Z</time>
      </trkpt>
      <trkpt lat="43.0443" lon="-0.3375">
        <ele>1429</ele>
        <time>2026-02-08T09:50:59.000Z</time>
      </trkpt>
      <trkpt lat="43.0443" lon="-0.33751">
        <ele>1429</ele>
        <time>2026-02-08T09:51:02.000Z</time>
      </trkpt>
      <trkpt lat="43.04431" lon="-0.33751">
        <ele>1429.1</ele>
        <time>2026-02-08T09:51:04.000Z</time>
      </trkpt>
      <trkpt lat="43.04432" lon="-0.33751">
        <ele>1429.1</ele>
        <time>2026-02-08T09:51:05.000Z</time>
      </trkpt>
      <trkpt lat="43.04432" lon="-0.33751">
        <ele>1429</ele>
        <time>2026-02-08T09:51:08.000Z</time>
      </trkpt>
      <trkpt lat="43.04431" lon="-0.33752">
        <ele>1429</ele>
        <time>2026-02-08T09:51:11.000Z</time>
      </trkpt>
      <trkpt lat="43.04431" lon="-0.33752">
        <ele>1429</ele>
        <time>2026-02-08T09:51:14.000Z</time>
      </trkpt>
      <trkpt lat="43.04431" lon="-0.33752">
        <ele>1429</ele>
        <time>2026-02-08T09:51:17.000Z</time>
      </trkpt>
      <trkpt lat="43.04431" lon="-0.33752">
        <ele>1429</ele>
        <time>2026-02-08T09:51:18.000Z</time>
      </trkpt>
      <trkpt lat="43.04431" lon="-0.33752">
        <ele>1429</ele>
        <time>2026-02-08T09:51:21.000Z</time>
      </trkpt>
      <trkpt lat="43.04431" lon="-0.33752">
        <ele>1429</ele>
        <time>2026-02-08T09:51:24.000Z</time>
      </trkpt>
      <trkpt lat="43.04431" lon="-0.33752">
        <ele>1429</ele>
        <time>2026-02-08T09:51:25.000Z</time>
      </trkpt>
      <trkpt lat="43.04431" lon="-0.33752">
        <ele>1429</ele>
        <time>2026-02-08T09:51:28.000Z</time>
      </trkpt>
      <trkpt lat="43.04433" lon="-0.33753">
        <ele>1429</ele>
        <time>2026-02-08T09:51:31.000Z</time>
      </trkpt>
      <trkpt lat="43.04435" lon="-0.33755">
        <ele>1429</ele>
        <time>2026-02-08T09:51:34.000Z</time>
      </trkpt>
      <trkpt lat="43.04435" lon="-0.33755">
        <ele>1429</ele>
        <time>2026-02-08T09:51:35.000Z</time>
      </trkpt>
      <trkpt lat="43.04436" lon="-0.33755">
        <ele>1429</ele>
        <time>2026-02-08T09:51:36.000Z</time>
      </trkpt>
      <trkpt lat="43.04436" lon="-0.33755">
        <ele>1429</ele>
        <time>2026-02-08T09:51:37.000Z</time>
      </trkpt>
      <trkpt lat="43.04436" lon="-0.33755">
        <ele>1429</ele>
        <time>2026-02-08T09:51:38.000Z</time>
      </trkpt>
      <trkpt lat="43.04436" lon="-0.33755">
        <ele>1429</ele>
        <time>2026-02-08T09:51:41.000Z</time>
      </trkpt>
      <trkpt lat="43.04435" lon="-0.33756">
        <ele>1429</ele>
        <time>2026-02-08T09:51:44.000Z</time>
      </trkpt>
      <trkpt lat="43.04435" lon="-0.33757">
        <ele>1428.9</ele>
        <time>2026-02-08T09:51:45.000Z</time>
      </trkpt>
      <trkpt lat="43.04435" lon="-0.33757">
        <ele>1428.9</ele>
        <time>2026-02-08T09:51:48.000Z</time>
      </trkpt>
      <trkpt lat="43.04434" lon="-0.33757">
        <ele>1428.9</ele>
        <time>2026-02-08T09:51:49.000Z</time>
      </trkpt>
      <trkpt lat="43.04434" lon="-0.33757">
        <ele>1428.9</ele>
        <time>2026-02-08T09:51:50.000Z</time>
      </trkpt>
      <trkpt lat="43.04434" lon="-0.33757">
        <ele>1428.9</ele>
        <time>2026-02-08T09:51:51.000Z</time>
      </trkpt>
      <trkpt lat="43.04434" lon="-0.33757">
        <ele>1428.9</ele>
        <time>2026-02-08T09:51:52.000Z</time>
      </trkpt>
      <trkpt lat="43.04434" lon="-0.33756">
        <ele>1428.9</ele>
        <time>2026-02-08T09:51:53.000Z</time>
      </trkpt>
      <trkpt lat="43.04432" lon="-0.33756">
        <ele>1428.9</ele>
        <time>2026-02-08T09:51:56.000Z</time>
      </trkpt>
      <trkpt lat="43.04432" lon="-0.33755">
        <ele>1428.9</ele>
        <time>2026-02-08T09:51:59.000Z</time>
      </trkpt>
      <trkpt lat="43.04432" lon="-0.33755">
        <ele>1428.9</ele>
        <time>2026-02-08T09:52:01.000Z</time>
      </trkpt>
      <trkpt lat="43.04432" lon="-0.33754">
        <ele>1428.9</ele>
        <time>2026-02-08T09:52:02.000Z</time>
      </trkpt>
      <trkpt lat="43.04432" lon="-0.33754">
        <ele>1428.9</ele>
        <time>2026-02-08T09:52:03.000Z</time>
      </trkpt>
      <trkpt lat="43.04432" lon="-0.33753">
        <ele>1428.8</ele>
        <time>2026-02-08T09:52:06.000Z</time>
      </trkpt>
      <trkpt lat="43.04432" lon="-0.33753">
        <ele>1428.8</ele>
        <time>2026-02-08T09:52:07.000Z</time>
      </trkpt>
      <trkpt lat="43.04432" lon="-0.33753">
        <ele>1428.8</ele>
        <time>2026-02-08T09:52:08.000Z</time>
      </trkpt>
      <trkpt lat="43.04433" lon="-0.33752">
        <ele>1428.8</ele>
        <time>2026-02-08T09:52:09.000Z</time>
      </trkpt>
      <trkpt lat="43.04433" lon="-0.33752">
        <ele>1428.8</ele>
        <time>2026-02-08T09:52:10.000Z</time>
      </trkpt>
      <trkpt lat="43.04434" lon="-0.33752">
        <ele>1428.8</ele>
        <time>2026-02-08T09:52:11.000Z</time>
      </trkpt>
      <trkpt lat="43.04435" lon="-0.3375">
        <ele>1428.8</ele>
        <time>2026-02-08T09:52:12.000Z</time>
      </trkpt>
      <trkpt lat="43.04435" lon="-0.33749">
        <ele>1428.8</ele>
        <time>2026-02-08T09:52:13.000Z</time>
      </trkpt>
      <trkpt lat="43.04435" lon="-0.33746">
        <ele>1428.8</ele>
        <time>2026-02-08T09:52:16.000Z</time>
      </trkpt>
      <trkpt lat="43.04436" lon="-0.33743">
        <ele>1428.8</ele>
        <time>2026-02-08T09:52:19.000Z</time>
      </trkpt>
      <trkpt lat="43.04436" lon="-0.33743">
        <ele>1428.8</ele>
        <time>2026-02-08T09:52:20.000Z</time>
      </trkpt>
      <trkpt lat="43.04436" lon="-0.33743">
        <ele>1428.8</ele>
        <time>2026-02-08T09:52:21.000Z</time>
      </trkpt>
      <trkpt lat="43.04435" lon="-0.33743">
        <ele>1428.8</ele>
        <time>2026-02-08T09:52:24.000Z</time>
      </trkpt>
      <trkpt lat="43.04435" lon="-0.33743">
        <ele>1428.8</ele>
        <time>2026-02-08T09:52:27.000Z</time>
      </trkpt>
      <trkpt lat="43.04435" lon="-0.33743">
        <ele>1428.8</ele>
        <time>2026-02-08T09:52:30.000Z</time>
      </trkpt>
      <trkpt lat="43.04435" lon="-0.33743">
        <ele>1428.8</ele>
        <time>2026-02-08T09:52:33.000Z</time>
      </trkpt>
      <trkpt lat="43.04433" lon="-0.33741">
        <ele>1428.8</ele>
        <time>2026-02-08T09:52:36.000Z</time>
      </trkpt>
      <trkpt lat="43.04432" lon="-0.33742">
        <ele>1428.8</ele>
        <time>2026-02-08T09:52:39.000Z</time>
      </trkpt>
      <trkpt lat="43.04432" lon="-0.33742">
        <ele>1428.8</ele>
        <time>2026-02-08T09:52:42.000Z</time>
      </trkpt>
      <trkpt lat="43.04431" lon="-0.33741">
        <ele>1428.8</ele>
        <time>2026-02-08T09:52:43.000Z</time>
      </trkpt>
      <trkpt lat="43.04431" lon="-0.33741">
        <ele>1428.8</ele>
        <time>2026-02-08T09:52:44.000Z</time>
      </trkpt>
      <trkpt lat="43.0443" lon="-0.33741">
        <ele>1428.8</ele>
        <time>2026-02-08T09:52:45.000Z</time>
      </trkpt>
      <trkpt lat="43.0443" lon="-0.33741">
        <ele>1428.8</ele>
        <time>2026-02-08T09:52:48.000Z</time>
      </trkpt>
      <trkpt lat="43.04431" lon="-0.33741">
        <ele>1428.7</ele>
        <time>2026-02-08T09:52:51.000Z</time>
      </trkpt>
      <trkpt lat="43.0443" lon="-0.33741">
        <ele>1428.8</ele>
        <time>2026-02-08T09:52:52.000Z</time>
      </trkpt>
      <trkpt lat="43.0443" lon="-0.33741">
        <ele>1428.8</ele>
        <time>2026-02-08T09:52:53.000Z</time>
      </trkpt>
      <trkpt lat="43.0443" lon="-0.3374">
        <ele>1428.8</ele>
        <time>2026-02-08T09:52:54.000Z</time>
      </trkpt>
      <trkpt lat="43.0443" lon="-0.33741">
        <ele>1428.8</ele>
        <time>2026-02-08T09:52:55.000Z</time>
      </trkpt>
      <trkpt lat="43.0443" lon="-0.33741">
        <ele>1428.7</ele>
        <time>2026-02-08T09:52:56.000Z</time>
      </trkpt>
      <trkpt lat="43.04431" lon="-0.33742">
        <ele>1428.7</ele>
        <time>2026-02-08T09:52:59.000Z</time>
      </trkpt>
      <trkpt lat="43.0443" lon="-0.33744">
        <ele>1428.7</ele>
        <time>2026-02-08T09:53:02.000Z</time>
      </trkpt>
      <trkpt lat="43.0443" lon="-0.33744">
        <ele>1428.7</ele>
        <time>2026-02-08T09:53:03.000Z</time>
      </trkpt>
      <trkpt lat="43.0443" lon="-0.33744">
        <ele>1428.7</ele>
        <time>2026-02-08T09:53:04.000Z</time>
      </trkpt>
      <trkpt lat="43.04429" lon="-0.33744">
        <ele>1428.7</ele>
        <time>2026-02-08T09:53:07.000Z</time>
      </trkpt>
      <trkpt lat="43.04429" lon="-0.33745">
        <ele>1428.7</ele>
        <time>2026-02-08T09:53:10.000Z</time>
      </trkpt>
      <trkpt lat="43.04429" lon="-0.33746">
        <ele>1428.7</ele>
        <time>2026-02-08T09:53:13.000Z</time>
      </trkpt>
      <trkpt lat="43.04429" lon="-0.33747">
        <ele>1428.7</ele>
        <time>2026-02-08T09:53:16.000Z</time>
      </trkpt>
      <trkpt lat="43.04429" lon="-0.33747">
        <ele>1428.7</ele>
        <time>2026-02-08T09:53:17.000Z</time>
      </trkpt>
      <trkpt lat="43.0443" lon="-0.33747">
        <ele>1428.7</ele>
        <time>2026-02-08T09:53:18.000Z</time>
      </trkpt>
      <trkpt lat="43.0443" lon="-0.33748">
        <ele>1428.6</ele>
        <time>2026-02-08T09:53:21.000Z</time>
      </trkpt>
      <trkpt lat="43.0443" lon="-0.33748">
        <ele>1428.6</ele>
        <time>2026-02-08T09:53:22.000Z</time>
      </trkpt>
      <trkpt lat="43.0443" lon="-0.33748">
        <ele>1428.5</ele>
        <time>2026-02-08T09:53:23.000Z</time>
      </trkpt>
      <trkpt lat="43.0443" lon="-0.33748">
        <ele>1428.6</ele>
        <time>2026-02-08T09:53:24.000Z</time>
      </trkpt>
      <trkpt lat="43.0443" lon="-0.33748">
        <ele>1428.6</ele>
        <time>2026-02-08T09:53:25.000Z</time>
      </trkpt>
      <trkpt lat="43.04429" lon="-0.33748">
        <ele>1428.6</ele>
        <time>2026-02-08T09:53:26.000Z</time>
      </trkpt>
      <trkpt lat="43.04429" lon="-0.33748">
        <ele>1428.3</ele>
        <time>2026-02-08T09:53:29.000Z</time>
      </trkpt>
      <trkpt lat="43.04429" lon="-0.33749">
        <ele>1428.4</ele>
        <time>2026-02-08T09:53:30.000Z</time>
      </trkpt>
      <trkpt lat="43.04429" lon="-0.33751">
        <ele>1428.4</ele>
        <time>2026-02-08T09:53:33.000Z</time>
      </trkpt>
      <trkpt lat="43.04428" lon="-0.33749">
        <ele>1428.4</ele>
        <time>2026-02-08T09:53:36.000Z</time>
      </trkpt>
      <trkpt lat="43.0443" lon="-0.33749">
        <ele>1428.5</ele>
        <time>2026-02-08T09:53:37.000Z</time>
      </trkpt>
      <trkpt lat="43.04431" lon="-0.33749">
        <ele>1428.5</ele>
        <time>2026-02-08T09:53:38.000Z</time>
      </trkpt>
      <trkpt lat="43.04431" lon="-0.33749">
        <ele>1428.4</ele>
        <time>2026-02-08T09:53:41.000Z</time>
      </trkpt>
      <trkpt lat="43.04431" lon="-0.3375">
        <ele>1428.4</ele>
        <time>2026-02-08T09:53:44.000Z</time>
      </trkpt>
      <trkpt lat="43.04431" lon="-0.3375">
        <ele>1428.4</ele>
        <time>2026-02-08T09:53:47.000Z</time>
      </trkpt>
      <trkpt lat="43.04431" lon="-0.33751">
        <ele>1428.4</ele>
        <time>2026-02-08T09:53:50.000Z</time>
      </trkpt>
      <trkpt lat="43.04431" lon="-0.33751">
        <ele>1428.4</ele>
        <time>2026-02-08T09:53:53.000Z</time>
      </trkpt>
      <trkpt lat="43.04431" lon="-0.3375">
        <ele>1428.4</ele>
        <time>2026-02-08T09:53:56.000Z</time>
      </trkpt>
      <trkpt lat="43.04431" lon="-0.3375">
        <ele>1428.5</ele>
        <time>2026-02-08T09:53:59.000Z</time>
      </trkpt>
      <trkpt lat="43.04431" lon="-0.3375">
        <ele>1428.5</ele>
        <time>2026-02-08T09:54:02.000Z</time>
      </trkpt>
      <trkpt lat="43.04432" lon="-0.33751">
        <ele>1428.5</ele>
        <time>2026-02-08T09:54:05.000Z</time>
      </trkpt>
      <trkpt lat="43.04431" lon="-0.33751">
        <ele>1428.5</ele>
        <time>2026-02-08T09:54:08.000Z</time>
      </trkpt>
      <trkpt lat="43.04431" lon="-0.33751">
        <ele>1428.5</ele>
        <time>2026-02-08T09:54:11.000Z</time>
      </trkpt>
      <trkpt lat="43.04429" lon="-0.33751">
        <ele>1428.5</ele>
        <time>2026-02-08T09:54:14.000Z</time>
      </trkpt>
      <trkpt lat="43.04428" lon="-0.33751">
        <ele>1428.5</ele>
        <time>2026-02-08T09:54:17.000Z</time>
      </trkpt>
      <trkpt lat="43.04429" lon="-0.33752">
        <ele>1428.5</ele>
        <time>2026-02-08T09:54:19.000Z</time>
      </trkpt>
      <trkpt lat="43.04429" lon="-0.33752">
        <ele>1428.5</ele>
        <time>2026-02-08T09:54:20.000Z</time>
      </trkpt>
      <trkpt lat="43.04429" lon="-0.33752">
        <ele>1428.5</ele>
        <time>2026-02-08T09:54:21.000Z</time>
      </trkpt>
      <trkpt lat="43.04429" lon="-0.33752">
        <ele>1428.5</ele>
        <time>2026-02-08T09:54:22.000Z</time>
      </trkpt>
      <trkpt lat="43.04429" lon="-0.33752">
        <ele>1428.5</ele>
        <time>2026-02-08T09:54:23.000Z</time>
      </trkpt>
      <trkpt lat="43.04429" lon="-0.33752">
        <ele>1428.4</ele>
        <time>2026-02-08T09:54:26.000Z</time>
      </trkpt>
      <trkpt lat="43.04429" lon="-0.33752">
        <ele>1428.4</ele>
        <time>2026-02-08T09:54:27.000Z</time>
      </trkpt>
      <trkpt lat="43.04429" lon="-0.33752">
        <ele>1428.4</ele>
        <time>2026-02-08T09:54:28.000Z</time>
      </trkpt>
      <trkpt lat="43.04429" lon="-0.33752">
        <ele>1428.4</ele>
        <time>2026-02-08T09:54:31.000Z</time>
      </trkpt>
      <trkpt lat="43.04428" lon="-0.33752">
        <ele>1428.5</ele>
        <time>2026-02-08T09:54:34.000Z</time>
      </trkpt>
      <trkpt lat="43.04428" lon="-0.33752">
        <ele>1428.5</ele>
        <time>2026-02-08T09:54:37.000Z</time>
      </trkpt>
      <trkpt lat="43.04428" lon="-0.33752">
        <ele>1428.5</ele>
        <time>2026-02-08T09:54:38.000Z</time>
      </trkpt>
      <trkpt lat="43.04428" lon="-0.33752">
        <ele>1428.5</ele>
        <time>2026-02-08T09:54:41.000Z</time>
      </trkpt>
      <trkpt lat="43.04428" lon="-0.33752">
        <ele>1428.5</ele>
        <time>2026-02-08T09:54:44.000Z</time>
      </trkpt>
      <trkpt lat="43.04428" lon="-0.33752">
        <ele>1428.5</ele>
        <time>2026-02-08T09:54:47.000Z</time>
      </trkpt>
      <trkpt lat="43.04428" lon="-0.33752">
        <ele>1428.5</ele>
        <time>2026-02-08T09:54:50.000Z</time>
      </trkpt>
      <trkpt lat="43.04428" lon="-0.33752">
        <ele>1428.5</ele>
        <time>2026-02-08T09:54:53.000Z</time>
      </trkpt>
      <trkpt lat="43.04428" lon="-0.33752">
        <ele>1428.5</ele>
        <time>2026-02-08T09:54:56.000Z</time>
      </trkpt>
      <trkpt lat="43.04428" lon="-0.33752">
        <ele>1428.5</ele>
        <time>2026-02-08T09:54:59.000Z</time>
      </trkpt>
      <trkpt lat="43.04428" lon="-0.33752">
        <ele>1428.5</ele>
        <time>2026-02-08T09:55:00.000Z</time>
      </trkpt>
      <trkpt lat="43.04428" lon="-0.33753">
        <ele>1428.5</ele>
        <time>2026-02-08T09:55:01.000Z</time>
      </trkpt>
      <trkpt lat="43.04428" lon="-0.33755">
        <ele>1428.5</ele>
        <time>2026-02-08T09:55:04.000Z</time>
      </trkpt>
      <trkpt lat="43.04432" lon="-0.33757">
        <ele>1428.5</ele>
        <time>2026-02-08T09:55:07.000Z</time>
      </trkpt>
      <trkpt lat="43.04436" lon="-0.3376">
        <ele>1428.5</ele>
        <time>2026-02-08T09:55:10.000Z</time>
      </trkpt>
      <trkpt lat="43.04439" lon="-0.33762">
        <ele>1428.4</ele>
        <time>2026-02-08T09:55:13.000Z</time>
      </trkpt>
      <trkpt lat="43.04441" lon="-0.33765">
        <ele>1428.3</ele>
        <time>2026-02-08T09:55:16.000Z</time>
      </trkpt>
      <trkpt lat="43.0444" lon="-0.33769">
        <ele>1428.1</ele>
        <time>2026-02-08T09:55:19.000Z</time>
      </trkpt>
      <trkpt lat="43.04441" lon="-0.33772">
        <ele>1427.9</ele>
        <time>2026-02-08T09:55:22.000Z</time>
      </trkpt>
      <trkpt lat="43.04441" lon="-0.33775">
        <ele>1427.7</ele>
        <time>2026-02-08T09:55:25.000Z</time>
      </trkpt>
      <trkpt lat="43.0444" lon="-0.33778">
        <ele>1427.3</ele>
        <time>2026-02-08T09:55:28.000Z</time>
      </trkpt>
      <trkpt lat="43.04439" lon="-0.33781">
        <ele>1427</ele>
        <time>2026-02-08T09:55:31.000Z</time>
      </trkpt>
      <trkpt lat="43.04438" lon="-0.33785">
        <ele>1426.6</ele>
        <time>2026-02-08T09:55:34.000Z</time>
      </trkpt>
      <trkpt lat="43.04438" lon="-0.33785">
        <ele>1426.4</ele>
        <time>2026-02-08T09:55:37.000Z</time>
      </trkpt>
      <trkpt lat="43.04438" lon="-0.33788">
        <ele>1426.2</ele>
        <time>2026-02-08T09:55:40.000Z</time>
      </trkpt>
      <trkpt lat="43.04437" lon="-0.33791">
        <ele>1425.9</ele>
        <time>2026-02-08T09:55:43.000Z</time>
      </trkpt>
      <trkpt lat="43.04437" lon="-0.33794">
        <ele>1425.6</ele>
        <time>2026-02-08T09:55:46.000Z</time>
      </trkpt>
      <trkpt lat="43.04437" lon="-0.33797">
        <ele>1425.2</ele>
        <time>2026-02-08T09:55:49.000Z</time>
      </trkpt>
      <trkpt lat="43.04437" lon="-0.33801">
        <ele>1424.8</ele>
        <time>2026-02-08T09:55:52.000Z</time>
      </trkpt>
      <trkpt lat="43.04438" lon="-0.33804">
        <ele>1424.2</ele>
        <time>2026-02-08T09:55:55.000Z</time>
      </trkpt>
      <trkpt lat="43.0444" lon="-0.33807">
        <ele>1423.6</ele>
        <time>2026-02-08T09:55:58.000Z</time>
      </trkpt>
      <trkpt lat="43.0444" lon="-0.33808">
        <ele>1423.2</ele>
        <time>2026-02-08T09:56:01.000Z</time>
      </trkpt>
      <trkpt lat="43.0444" lon="-0.33808">
        <ele>1422.9</ele>
        <time>2026-02-08T09:56:04.000Z</time>
      </trkpt>
      <trkpt lat="43.0444" lon="-0.33808">
        <ele>1422.8</ele>
        <time>2026-02-08T09:56:05.000Z</time>
      </trkpt>
      <trkpt lat="43.0444" lon="-0.3381">
        <ele>1422.8</ele>
        <time>2026-02-08T09:56:06.000Z</time>
      </trkpt>
      <trkpt lat="43.0444" lon="-0.3381">
        <ele>1422.7</ele>
        <time>2026-02-08T09:56:09.000Z</time>
      </trkpt>
      <trkpt lat="43.0444" lon="-0.3381">
        <ele>1422.5</ele>
        <time>2026-02-08T09:56:12.000Z</time>
      </trkpt>
      <trkpt lat="43.0444" lon="-0.3381">
        <ele>1422.4</ele>
        <time>2026-02-08T09:56:15.000Z</time>
      </trkpt>
      <trkpt lat="43.0444" lon="-0.3381">
        <ele>1422.3</ele>
        <time>2026-02-08T09:56:18.000Z</time>
      </trkpt>
      <trkpt lat="43.0444" lon="-0.3381">
        <ele>1422.3</ele>
        <time>2026-02-08T09:56:21.000Z</time>
      </trkpt>
      <trkpt lat="43.0444" lon="-0.33811">
        <ele>1422.3</ele>
        <time>2026-02-08T09:56:24.000Z</time>
      </trkpt>
      <trkpt lat="43.04439" lon="-0.33812">
        <ele>1422.2</ele>
        <time>2026-02-08T09:56:25.000Z</time>
      </trkpt>
      <trkpt lat="43.04439" lon="-0.33813">
        <ele>1422.2</ele>
        <time>2026-02-08T09:56:26.000Z</time>
      </trkpt>
      <trkpt lat="43.04438" lon="-0.33815">
        <ele>1422.1</ele>
        <time>2026-02-08T09:56:29.000Z</time>
      </trkpt>
      <trkpt lat="43.04438" lon="-0.33819">
        <ele>1422.1</ele>
        <time>2026-02-08T09:56:32.000Z</time>
      </trkpt>
      <trkpt lat="43.04437" lon="-0.3382">
        <ele>1422.1</ele>
        <time>2026-02-08T09:56:35.000Z</time>
      </trkpt>
      <trkpt lat="43.04436" lon="-0.33822">
        <ele>1422.2</ele>
        <time>2026-02-08T09:56:38.000Z</time>
      </trkpt>
      <trkpt lat="43.04436" lon="-0.33822">
        <ele>1422.2</ele>
        <time>2026-02-08T09:56:41.000Z</time>
      </trkpt>
      <trkpt lat="43.04436" lon="-0.33823">
        <ele>1422.2</ele>
        <time>2026-02-08T09:56:44.000Z</time>
      </trkpt>
      <trkpt lat="43.04435" lon="-0.33825">
        <ele>1422.3</ele>
        <time>2026-02-08T09:56:47.000Z</time>
      </trkpt>
      <trkpt lat="43.04433" lon="-0.33827">
        <ele>1422.4</ele>
        <time>2026-02-08T09:56:50.000Z</time>
      </trkpt>
      <trkpt lat="43.04432" lon="-0.3383">
        <ele>1422.5</ele>
        <time>2026-02-08T09:56:53.000Z</time>
      </trkpt>
      <trkpt lat="43.0443" lon="-0.33833">
        <ele>1422.6</ele>
        <time>2026-02-08T09:56:56.000Z</time>
      </trkpt>
      <trkpt lat="43.04428" lon="-0.33836">
        <ele>1422.7</ele>
        <time>2026-02-08T09:56:59.000Z</time>
      </trkpt>
      <trkpt lat="43.04427" lon="-0.33841">
        <ele>1422.6</ele>
        <time>2026-02-08T09:57:02.000Z</time>
      </trkpt>
      <trkpt lat="43.04426" lon="-0.33846">
        <ele>1422.6</ele>
        <time>2026-02-08T09:57:05.000Z</time>
      </trkpt>
      <trkpt lat="43.04425" lon="-0.33851">
        <ele>1422.5</ele>
        <time>2026-02-08T09:57:08.000Z</time>
      </trkpt>
      <trkpt lat="43.04425" lon="-0.33855">
        <ele>1422.3</ele>
        <time>2026-02-08T09:57:11.000Z</time>
      </trkpt>
      <trkpt lat="43.04425" lon="-0.33859">
        <ele>1422</ele>
        <time>2026-02-08T09:57:14.000Z</time>
      </trkpt>
      <trkpt lat="43.04425" lon="-0.33862">
        <ele>1421.7</ele>
        <time>2026-02-08T09:57:17.000Z</time>
      </trkpt>
      <trkpt lat="43.04426" lon="-0.33865">
        <ele>1421.3</ele>
        <time>2026-02-08T09:57:20.000Z</time>
      </trkpt>
      <trkpt lat="43.04426" lon="-0.33867">
        <ele>1421</ele>
        <time>2026-02-08T09:57:23.000Z</time>
      </trkpt>
      <trkpt lat="43.04426" lon="-0.33869">
        <ele>1420.8</ele>
        <time>2026-02-08T09:57:26.000Z</time>
      </trkpt>
      <trkpt lat="43.04426" lon="-0.33871">
        <ele>1420.7</ele>
        <time>2026-02-08T09:57:29.000Z</time>
      </trkpt>
      <trkpt lat="43.04427" lon="-0.33873">
        <ele>1420.6</ele>
        <time>2026-02-08T09:57:32.000Z</time>
      </trkpt>
      <trkpt lat="43.04428" lon="-0.33874">
        <ele>1420.6</ele>
        <time>2026-02-08T09:57:35.000Z</time>
      </trkpt>
      <trkpt lat="43.04428" lon="-0.33875">
        <ele>1420.6</ele>
        <time>2026-02-08T09:57:37.000Z</time>
      </trkpt>
      <trkpt lat="43.04428" lon="-0.33875">
        <ele>1420.6</ele>
        <time>2026-02-08T09:57:38.000Z</time>
      </trkpt>
      <trkpt lat="43.04428" lon="-0.33875">
        <ele>1420.6</ele>
        <time>2026-02-08T09:57:39.000Z</time>
      </trkpt>
      <trkpt lat="43.04428" lon="-0.33876">
        <ele>1420.5</ele>
        <time>2026-02-08T09:57:42.000Z</time>
      </trkpt>
      <trkpt lat="43.04428" lon="-0.33876">
        <ele>1420.5</ele>
        <time>2026-02-08T09:57:43.000Z</time>
      </trkpt>
      <trkpt lat="43.04429" lon="-0.33876">
        <ele>1420.5</ele>
        <time>2026-02-08T09:57:44.000Z</time>
      </trkpt>
      <trkpt lat="43.04429" lon="-0.33877">
        <ele>1420.4</ele>
        <time>2026-02-08T09:57:47.000Z</time>
      </trkpt>
      <trkpt lat="43.0443" lon="-0.3388">
        <ele>1420.3</ele>
        <time>2026-02-08T09:57:50.000Z</time>
      </trkpt>
      <trkpt lat="43.04431" lon="-0.33882">
        <ele>1420.1</ele>
        <time>2026-02-08T09:57:53.000Z</time>
      </trkpt>
      <trkpt lat="43.04433" lon="-0.33886">
        <ele>1419.7</ele>
        <time>2026-02-08T09:57:56.000Z</time>
      </trkpt>
      <trkpt lat="43.04434" lon="-0.33889">
        <ele>1419.1</ele>
        <time>2026-02-08T09:57:59.000Z</time>
      </trkpt>
      <trkpt lat="43.04434" lon="-0.33889">
        <ele>1418.4</ele>
        <time>2026-02-08T09:58:02.000Z</time>
      </trkpt>
      <trkpt lat="43.04432" lon="-0.33889">
        <ele>1418.1</ele>
        <time>2026-02-08T09:58:05.000Z</time>
      </trkpt>
      <trkpt lat="43.0443" lon="-0.3389">
        <ele>1417.9</ele>
        <time>2026-02-08T09:58:08.000Z</time>
      </trkpt>
      <trkpt lat="43.04428" lon="-0.3389">
        <ele>1417.8</ele>
        <time>2026-02-08T09:58:11.000Z</time>
      </trkpt>
      <trkpt lat="43.04426" lon="-0.33891">
        <ele>1417.8</ele>
        <time>2026-02-08T09:58:14.000Z</time>
      </trkpt>
      <trkpt lat="43.04423" lon="-0.33895">
        <ele>1417.9</ele>
        <time>2026-02-08T09:58:17.000Z</time>
      </trkpt>
      <trkpt lat="43.04422" lon="-0.339">
        <ele>1417.9</ele>
        <time>2026-02-08T09:58:20.000Z</time>
      </trkpt>
      <trkpt lat="43.04421" lon="-0.33905">
        <ele>1417.8</ele>
        <time>2026-02-08T09:58:23.000Z</time>
      </trkpt>
      <trkpt lat="43.04421" lon="-0.3391">
        <ele>1417.6</ele>
        <time>2026-02-08T09:58:26.000Z</time>
      </trkpt>
      <trkpt lat="43.0442" lon="-0.33914">
        <ele>1417.3</ele>
        <time>2026-02-08T09:58:29.000Z</time>
      </trkpt>
      <trkpt lat="43.0442" lon="-0.33917">
        <ele>1417</ele>
        <time>2026-02-08T09:58:32.000Z</time>
      </trkpt>
      <trkpt lat="43.0442" lon="-0.33921">
        <ele>1416.6</ele>
        <time>2026-02-08T09:58:35.000Z</time>
      </trkpt>
      <trkpt lat="43.04419" lon="-0.33927">
        <ele>1416.4</ele>
        <time>2026-02-08T09:58:38.000Z</time>
      </trkpt>
      <trkpt lat="43.04419" lon="-0.33932">
        <ele>1416.1</ele>
        <time>2026-02-08T09:58:41.000Z</time>
      </trkpt>
      <trkpt lat="43.04418" lon="-0.33937">
        <ele>1415.9</ele>
        <time>2026-02-08T09:58:44.000Z</time>
      </trkpt>
      <trkpt lat="43.04418" lon="-0.33939">
        <ele>1415.8</ele>
        <time>2026-02-08T09:58:47.000Z</time>
      </trkpt>
      <trkpt lat="43.04417" lon="-0.33942">
        <ele>1415.8</ele>
        <time>2026-02-08T09:58:50.000Z</time>
      </trkpt>
      <trkpt lat="43.04415" lon="-0.33945">
        <ele>1415.8</ele>
        <time>2026-02-08T09:58:53.000Z</time>
      </trkpt>
      <trkpt lat="43.04415" lon="-0.33949">
        <ele>1415.8</ele>
        <time>2026-02-08T09:58:56.000Z</time>
      </trkpt>
      <trkpt lat="43.04415" lon="-0.33951">
        <ele>1415.7</ele>
        <time>2026-02-08T09:58:59.000Z</time>
      </trkpt>
      <trkpt lat="43.04416" lon="-0.33953">
        <ele>1415.4</ele>
        <time>2026-02-08T09:59:02.000Z</time>
      </trkpt>
      <trkpt lat="43.04417" lon="-0.33955">
        <ele>1415.1</ele>
        <time>2026-02-08T09:59:05.000Z</time>
      </trkpt>
      <trkpt lat="43.04417" lon="-0.33958">
        <ele>1414.6</ele>
        <time>2026-02-08T09:59:08.000Z</time>
      </trkpt>
      <trkpt lat="43.04418" lon="-0.33961">
        <ele>1414.1</ele>
        <time>2026-02-08T09:59:11.000Z</time>
      </trkpt>
      <trkpt lat="43.0442" lon="-0.33963">
        <ele>1413.7</ele>
        <time>2026-02-08T09:59:14.000Z</time>
      </trkpt>
      <trkpt lat="43.04422" lon="-0.33965">
        <ele>1413.4</ele>
        <time>2026-02-08T09:59:17.000Z</time>
      </trkpt>
      <trkpt lat="43.04424" lon="-0.33966">
        <ele>1413.2</ele>
        <time>2026-02-08T09:59:20.000Z</time>
      </trkpt>
      <trkpt lat="43.04426" lon="-0.33968">
        <ele>1412.9</ele>
        <time>2026-02-08T09:59:23.000Z</time>
      </trkpt>
      <trkpt lat="43.04429" lon="-0.33969">
        <ele>1412.6</ele>
        <time>2026-02-08T09:59:26.000Z</time>
      </trkpt>
      <trkpt lat="43.04431" lon="-0.33971">
        <ele>1412.2</ele>
        <time>2026-02-08T09:59:29.000Z</time>
      </trkpt>
      <trkpt lat="43.04431" lon="-0.33971">
        <ele>1411.9</ele>
        <time>2026-02-08T09:59:32.000Z</time>
      </trkpt>
      <trkpt lat="43.04431" lon="-0.33971">
        <ele>1411.8</ele>
        <time>2026-02-08T09:59:34.000Z</time>
      </trkpt>
      <trkpt lat="43.04431" lon="-0.33971">
        <ele>1411.7</ele>
        <time>2026-02-08T09:59:35.000Z</time>
      </trkpt>
      <trkpt lat="43.04431" lon="-0.33971">
        <ele>1411.7</ele>
        <time>2026-02-08T09:59:36.000Z</time>
      </trkpt>
      <trkpt lat="43.04431" lon="-0.33971">
        <ele>1411.6</ele>
        <time>2026-02-08T09:59:39.000Z</time>
      </trkpt>
      <trkpt lat="43.0443" lon="-0.33971">
        <ele>1411.5</ele>
        <time>2026-02-08T09:59:42.000Z</time>
      </trkpt>
      <trkpt lat="43.0443" lon="-0.33972">
        <ele>1411.4</ele>
        <time>2026-02-08T09:59:45.000Z</time>
      </trkpt>
      <trkpt lat="43.0443" lon="-0.33971">
        <ele>1411.4</ele>
        <time>2026-02-08T09:59:48.000Z</time>
      </trkpt>
      <trkpt lat="43.0443" lon="-0.33972">
        <ele>1411.3</ele>
        <time>2026-02-08T09:59:51.000Z</time>
      </trkpt>
      <trkpt lat="43.04429" lon="-0.33973">
        <ele>1411.3</ele>
        <time>2026-02-08T09:59:52.000Z</time>
      </trkpt>
      <trkpt lat="43.04429" lon="-0.33974">
        <ele>1411.3</ele>
        <time>2026-02-08T09:59:53.000Z</time>
      </trkpt>
      <trkpt lat="43.04428" lon="-0.33974">
        <ele>1411.3</ele>
        <time>2026-02-08T09:59:54.000Z</time>
      </trkpt>
      <trkpt lat="43.04428" lon="-0.33975">
        <ele>1411.2</ele>
        <time>2026-02-08T09:59:57.000Z</time>
      </trkpt>
      <trkpt lat="43.04428" lon="-0.33976">
        <ele>1411.2</ele>
        <time>2026-02-08T10:00:00.000Z</time>
      </trkpt>
      <trkpt lat="43.04428" lon="-0.33977">
        <ele>1411.2</ele>
        <time>2026-02-08T10:00:03.000Z</time>
      </trkpt>
      <trkpt lat="43.04427" lon="-0.33977">
        <ele>1411.3</ele>
        <time>2026-02-08T10:00:06.000Z</time>
      </trkpt>
      <trkpt lat="43.04425" lon="-0.33978">
        <ele>1411.4</ele>
        <time>2026-02-08T10:00:09.000Z</time>
      </trkpt>
      <trkpt lat="43.04423" lon="-0.33979">
        <ele>1411.6</ele>
        <time>2026-02-08T10:00:12.000Z</time>
      </trkpt>
      <trkpt lat="43.04421" lon="-0.3398">
        <ele>1412</ele>
        <time>2026-02-08T10:00:15.000Z</time>
      </trkpt>
      <trkpt lat="43.0442" lon="-0.33983">
        <ele>1412.5</ele>
        <time>2026-02-08T10:00:18.000Z</time>
      </trkpt>
      <trkpt lat="43.04419" lon="-0.33985">
        <ele>1413</ele>
        <time>2026-02-08T10:00:21.000Z</time>
      </trkpt>
      <trkpt lat="43.04419" lon="-0.33988">
        <ele>1413.5</ele>
        <time>2026-02-08T10:00:24.000Z</time>
      </trkpt>
      <trkpt lat="43.04419" lon="-0.33992">
        <ele>1414</ele>
        <time>2026-02-08T10:00:27.000Z</time>
      </trkpt>
      <trkpt lat="43.04419" lon="-0.33995">
        <ele>1414.3</ele>
        <time>2026-02-08T10:00:30.000Z</time>
      </trkpt>
      <trkpt lat="43.04421" lon="-0.33998">
        <ele>1414.4</ele>
        <time>2026-02-08T10:00:33.000Z</time>
      </trkpt>
      <trkpt lat="43.04422" lon="-0.34001">
        <ele>1414.4</ele>
        <time>2026-02-08T10:00:36.000Z</time>
      </trkpt>
      <trkpt lat="43.04422" lon="-0.34005">
        <ele>1414.4</ele>
        <time>2026-02-08T10:00:39.000Z</time>
      </trkpt>
      <trkpt lat="43.04421" lon="-0.34009">
        <ele>1414.5</ele>
        <time>2026-02-08T10:00:42.000Z</time>
      </trkpt>
      <trkpt lat="43.0442" lon="-0.34011">
        <ele>1414.5</ele>
        <time>2026-02-08T10:00:45.000Z</time>
      </trkpt>
      <trkpt lat="43.04419" lon="-0.34013">
        <ele>1414.6</ele>
        <time>2026-02-08T10:00:48.000Z</time>
      </trkpt>
      <trkpt lat="43.04419" lon="-0.34015">
        <ele>1414.8</ele>
        <time>2026-02-08T10:00:51.000Z</time>
      </trkpt>
      <trkpt lat="43.04419" lon="-0.34015">
        <ele>1415.1</ele>
        <time>2026-02-08T10:00:54.000Z</time>
      </trkpt>
      <trkpt lat="43.04419" lon="-0.34018">
        <ele>1415.3</ele>
        <time>2026-02-08T10:00:57.000Z</time>
      </trkpt>
      <trkpt lat="43.0442" lon="-0.34019">
        <ele>1415.4</ele>
        <time>2026-02-08T10:01:00.000Z</time>
      </trkpt>
      <trkpt lat="43.04421" lon="-0.34021">
        <ele>1415.4</ele>
        <time>2026-02-08T10:01:03.000Z</time>
      </trkpt>
      <trkpt lat="43.04422" lon="-0.34022">
        <ele>1415.4</ele>
        <time>2026-02-08T10:01:06.000Z</time>
      </trkpt>
      <trkpt lat="43.04421" lon="-0.34023">
        <ele>1415.4</ele>
        <time>2026-02-08T10:01:09.000Z</time>
      </trkpt>
      <trkpt lat="43.04421" lon="-0.34024">
        <ele>1415.5</ele>
        <time>2026-02-08T10:01:10.000Z</time>
      </trkpt>
      <trkpt lat="43.04421" lon="-0.34025">
        <ele>1415.5</ele>
        <time>2026-02-08T10:01:11.000Z</time>
      </trkpt>
      <trkpt lat="43.04421" lon="-0.34025">
        <ele>1415.5</ele>
        <time>2026-02-08T10:01:12.000Z</time>
      </trkpt>
      <trkpt lat="43.04421" lon="-0.34026">
        <ele>1415.5</ele>
        <time>2026-02-08T10:01:13.000Z</time>
      </trkpt>
      <trkpt lat="43.04421" lon="-0.34029">
        <ele>1415.6</ele>
        <time>2026-02-08T10:01:16.000Z</time>
      </trkpt>
      <trkpt lat="43.04421" lon="-0.34028">
        <ele>1415.7</ele>
        <time>2026-02-08T10:01:19.000Z</time>
      </trkpt>
      <trkpt lat="43.04421" lon="-0.34028">
        <ele>1415.7</ele>
        <time>2026-02-08T10:01:20.000Z</time>
      </trkpt>
      <trkpt lat="43.04421" lon="-0.34028">
        <ele>1415.8</ele>
        <time>2026-02-08T10:01:21.000Z</time>
      </trkpt>
      <trkpt lat="43.04421" lon="-0.34029">
        <ele>1415.8</ele>
        <time>2026-02-08T10:01:24.000Z</time>
      </trkpt>
      <trkpt lat="43.04421" lon="-0.3403">
        <ele>1415.9</ele>
        <time>2026-02-08T10:01:25.000Z</time>
      </trkpt>
      <trkpt lat="43.04421" lon="-0.3403">
        <ele>1416.1</ele>
        <time>2026-02-08T10:01:28.000Z</time>
      </trkpt>
      <trkpt lat="43.04421" lon="-0.3403">
        <ele>1416.2</ele>
        <time>2026-02-08T10:01:31.000Z</time>
      </trkpt>
      <trkpt lat="43.04421" lon="-0.3403">
        <ele>1416.3</ele>
        <time>2026-02-08T10:01:34.000Z</time>
      </trkpt>
      <trkpt lat="43.04421" lon="-0.3403">
        <ele>1416.4</ele>
        <time>2026-02-08T10:01:35.000Z</time>
      </trkpt>
      <trkpt lat="43.04421" lon="-0.3403">
        <ele>1416.4</ele>
        <time>2026-02-08T10:01:36.000Z</time>
      </trkpt>
      <trkpt lat="43.04421" lon="-0.34031">
        <ele>1416.5</ele>
        <time>2026-02-08T10:01:37.000Z</time>
      </trkpt>
      <trkpt lat="43.04421" lon="-0.34031">
        <ele>1416.5</ele>
        <time>2026-02-08T10:01:38.000Z</time>
      </trkpt>
      <trkpt lat="43.04421" lon="-0.34031">
        <ele>1416.6</ele>
        <time>2026-02-08T10:01:41.000Z</time>
      </trkpt>
      <trkpt lat="43.04421" lon="-0.34031">
        <ele>1416.6</ele>
        <time>2026-02-08T10:01:42.000Z</time>
      </trkpt>
      <trkpt lat="43.04421" lon="-0.34031">
        <ele>1416.6</ele>
        <time>2026-02-08T10:01:43.000Z</time>
      </trkpt>
      <trkpt lat="43.04421" lon="-0.34031">
        <ele>1416.6</ele>
        <time>2026-02-08T10:01:46.000Z</time>
      </trkpt>
      <trkpt lat="43.04422" lon="-0.34031">
        <ele>1416.7</ele>
        <time>2026-02-08T10:01:49.000Z</time>
      </trkpt>
      <trkpt lat="43.04422" lon="-0.34031">
        <ele>1416.7</ele>
        <time>2026-02-08T10:01:50.000Z</time>
      </trkpt>
      <trkpt lat="43.04422" lon="-0.34031">
        <ele>1416.7</ele>
        <time>2026-02-08T10:01:51.000Z</time>
      </trkpt>
      <trkpt lat="43.04422" lon="-0.34031">
        <ele>1416.7</ele>
        <time>2026-02-08T10:01:52.000Z</time>
      </trkpt>
      <trkpt lat="43.04422" lon="-0.34031">
        <ele>1416.7</ele>
        <time>2026-02-08T10:01:53.000Z</time>
      </trkpt>
      <trkpt lat="43.04422" lon="-0.3403">
        <ele>1416.7</ele>
        <time>2026-02-08T10:01:54.000Z</time>
      </trkpt>
      <trkpt lat="43.04422" lon="-0.3403">
        <ele>1416.7</ele>
        <time>2026-02-08T10:01:57.000Z</time>
      </trkpt>
      <trkpt lat="43.04422" lon="-0.3403">
        <ele>1416.7</ele>
        <time>2026-02-08T10:01:58.000Z</time>
      </trkpt>
      <trkpt lat="43.04422" lon="-0.34031">
        <ele>1416.7</ele>
        <time>2026-02-08T10:02:01.000Z</time>
      </trkpt>
      <trkpt lat="43.04422" lon="-0.34031">
        <ele>1416.7</ele>
        <time>2026-02-08T10:02:02.000Z</time>
      </trkpt>
      <trkpt lat="43.04422" lon="-0.34031">
        <ele>1416.7</ele>
        <time>2026-02-08T10:02:03.000Z</time>
      </trkpt>
      <trkpt lat="43.04422" lon="-0.3403">
        <ele>1416.7</ele>
        <time>2026-02-08T10:02:06.000Z</time>
      </trkpt>
      <trkpt lat="43.04423" lon="-0.34029">
        <ele>1416.7</ele>
        <time>2026-02-08T10:02:09.000Z</time>
      </trkpt>
      <trkpt lat="43.04423" lon="-0.34029">
        <ele>1416.7</ele>
        <time>2026-02-08T10:02:12.000Z</time>
      </trkpt>
      <trkpt lat="43.04423" lon="-0.3403">
        <ele>1416.7</ele>
        <time>2026-02-08T10:02:14.000Z</time>
      </trkpt>
      <trkpt lat="43.04423" lon="-0.3403">
        <ele>1416.7</ele>
        <time>2026-02-08T10:02:15.000Z</time>
      </trkpt>
      <trkpt lat="43.04423" lon="-0.34029">
        <ele>1416.7</ele>
        <time>2026-02-08T10:02:18.000Z</time>
      </trkpt>
      <trkpt lat="43.04423" lon="-0.34027">
        <ele>1416.7</ele>
        <time>2026-02-08T10:02:21.000Z</time>
      </trkpt>
      <trkpt lat="43.04424" lon="-0.34024">
        <ele>1416.7</ele>
        <time>2026-02-08T10:02:24.000Z</time>
      </trkpt>
      <trkpt lat="43.04424" lon="-0.3402">
        <ele>1416.5</ele>
        <time>2026-02-08T10:02:27.000Z</time>
      </trkpt>
      <trkpt lat="43.04426" lon="-0.34018">
        <ele>1416.3</ele>
        <time>2026-02-08T10:02:30.000Z</time>
      </trkpt>
      <trkpt lat="43.04429" lon="-0.34018">
        <ele>1416</ele>
        <time>2026-02-08T10:02:33.000Z</time>
      </trkpt>
      <trkpt lat="43.04432" lon="-0.34017">
        <ele>1415.3</ele>
        <time>2026-02-08T10:02:36.000Z</time>
      </trkpt>
      <trkpt lat="43.04435" lon="-0.34017">
        <ele>1414.3</ele>
        <time>2026-02-08T10:02:39.000Z</time>
      </trkpt>
      <trkpt lat="43.04438" lon="-0.34017">
        <ele>1413.1</ele>
        <time>2026-02-08T10:02:42.000Z</time>
      </trkpt>
      <trkpt lat="43.0444" lon="-0.34018">
        <ele>1411.9</ele>
        <time>2026-02-08T10:02:45.000Z</time>
      </trkpt>
      <trkpt lat="43.04442" lon="-0.34021">
        <ele>1410.9</ele>
        <time>2026-02-08T10:02:48.000Z</time>
      </trkpt>
      <trkpt lat="43.04441" lon="-0.34024">
        <ele>1410.1</ele>
        <time>2026-02-08T10:02:51.000Z</time>
      </trkpt>
      <trkpt lat="43.04442" lon="-0.34028">
        <ele>1409.7</ele>
        <time>2026-02-08T10:02:54.000Z</time>
      </trkpt>
      <trkpt lat="43.04444" lon="-0.3403">
        <ele>1409.3</ele>
        <time>2026-02-08T10:02:57.000Z</time>
      </trkpt>
      <trkpt lat="43.04446" lon="-0.34033">
        <ele>1408.9</ele>
        <time>2026-02-08T10:03:00.000Z</time>
      </trkpt>
      <trkpt lat="43.04448" lon="-0.34037">
        <ele>1408.5</ele>
        <time>2026-02-08T10:03:03.000Z</time>
      </trkpt>
      <trkpt lat="43.04451" lon="-0.3404">
        <ele>1408.1</ele>
        <time>2026-02-08T10:03:06.000Z</time>
      </trkpt>
      <trkpt lat="43.04453" lon="-0.34043">
        <ele>1407.7</ele>
        <time>2026-02-08T10:03:09.000Z</time>
      </trkpt>
      <trkpt lat="43.04455" lon="-0.34046">
        <ele>1407.3</ele>
        <time>2026-02-08T10:03:12.000Z</time>
      </trkpt>
      <trkpt lat="43.04455" lon="-0.34046">
        <ele>1407</ele>
        <time>2026-02-08T10:03:15.000Z</time>
      </trkpt>
      <trkpt lat="43.04455" lon="-0.34047">
        <ele>1406.9</ele>
        <time>2026-02-08T10:03:18.000Z</time>
      </trkpt>
      <trkpt lat="43.04457" lon="-0.34049">
        <ele>1406.9</ele>
        <time>2026-02-08T10:03:21.000Z</time>
      </trkpt>
      <trkpt lat="43.04459" lon="-0.34051">
        <ele>1406.8</ele>
        <time>2026-02-08T10:03:24.000Z</time>
      </trkpt>
      <trkpt lat="43.04462" lon="-0.34052">
        <ele>1406.8</ele>
        <time>2026-02-08T10:03:27.000Z</time>
      </trkpt>
      <trkpt lat="43.04463" lon="-0.34053">
        <ele>1406.8</ele>
        <time>2026-02-08T10:03:30.000Z</time>
      </trkpt>
      <trkpt lat="43.04465" lon="-0.34054">
        <ele>1406.9</ele>
        <time>2026-02-08T10:03:33.000Z</time>
      </trkpt>
      <trkpt lat="43.04466" lon="-0.34055">
        <ele>1407.2</ele>
        <time>2026-02-08T10:03:36.000Z</time>
      </trkpt>
      <trkpt lat="43.04468" lon="-0.34058">
        <ele>1407.5</ele>
        <time>2026-02-08T10:03:39.000Z</time>
      </trkpt>
      <trkpt lat="43.04469" lon="-0.34062">
        <ele>1407.8</ele>
        <time>2026-02-08T10:03:42.000Z</time>
      </trkpt>
      <trkpt lat="43.0447" lon="-0.34067">
        <ele>1408.1</ele>
        <time>2026-02-08T10:03:45.000Z</time>
      </trkpt>
      <trkpt lat="43.0447" lon="-0.34071">
        <ele>1408.3</ele>
        <time>2026-02-08T10:03:48.000Z</time>
      </trkpt>
      <trkpt lat="43.04469" lon="-0.34075">
        <ele>1408.5</ele>
        <time>2026-02-08T10:03:51.000Z</time>
      </trkpt>
      <trkpt lat="43.04469" lon="-0.34078">
        <ele>1408.5</ele>
        <time>2026-02-08T10:03:54.000Z</time>
      </trkpt>
      <trkpt lat="43.04468" lon="-0.34083">
        <ele>1408.6</ele>
        <time>2026-02-08T10:03:57.000Z</time>
      </trkpt>
      <trkpt lat="43.04468" lon="-0.34086">
        <ele>1408.7</ele>
        <time>2026-02-08T10:04:00.000Z</time>
      </trkpt>
      <trkpt lat="43.04469" lon="-0.3409">
        <ele>1408.8</ele>
        <time>2026-02-08T10:04:03.000Z</time>
      </trkpt>
      <trkpt lat="43.04469" lon="-0.34094">
        <ele>1408.8</ele>
        <time>2026-02-08T10:04:06.000Z</time>
      </trkpt>
      <trkpt lat="43.0447" lon="-0.34097">
        <ele>1408.9</ele>
        <time>2026-02-08T10:04:09.000Z</time>
      </trkpt>
      <trkpt lat="43.0447" lon="-0.341">
        <ele>1409</ele>
        <time>2026-02-08T10:04:12.000Z</time>
      </trkpt>
      <trkpt lat="43.04471" lon="-0.34104">
        <ele>1409</ele>
        <time>2026-02-08T10:04:15.000Z</time>
      </trkpt>
      <trkpt lat="43.04471" lon="-0.34107">
        <ele>1409</ele>
        <time>2026-02-08T10:04:18.000Z</time>
      </trkpt>
      <trkpt lat="43.04472" lon="-0.34111">
        <ele>1409</ele>
        <time>2026-02-08T10:04:21.000Z</time>
      </trkpt>
      <trkpt lat="43.04472" lon="-0.34115">
        <ele>1409</ele>
        <time>2026-02-08T10:04:24.000Z</time>
      </trkpt>
      <trkpt lat="43.04473" lon="-0.34118">
        <ele>1408.9</ele>
        <time>2026-02-08T10:04:27.000Z</time>
      </trkpt>
      <trkpt lat="43.04473" lon="-0.34121">
        <ele>1409</ele>
        <time>2026-02-08T10:04:30.000Z</time>
      </trkpt>
      <trkpt lat="43.04473" lon="-0.34124">
        <ele>1409</ele>
        <time>2026-02-08T10:04:33.000Z</time>
      </trkpt>
      <trkpt lat="43.04474" lon="-0.34128">
        <ele>1408.9</ele>
        <time>2026-02-08T10:04:36.000Z</time>
      </trkpt>
      <trkpt lat="43.04474" lon="-0.34132">
        <ele>1408.9</ele>
        <time>2026-02-08T10:04:39.000Z</time>
      </trkpt>
      <trkpt lat="43.04475" lon="-0.34136">
        <ele>1408.8</ele>
        <time>2026-02-08T10:04:42.000Z</time>
      </trkpt>
      <trkpt lat="43.04475" lon="-0.3414">
        <ele>1408.7</ele>
        <time>2026-02-08T10:04:45.000Z</time>
      </trkpt>
      <trkpt lat="43.04474" lon="-0.34142">
        <ele>1408.6</ele>
        <time>2026-02-08T10:04:48.000Z</time>
      </trkpt>
      <trkpt lat="43.04472" lon="-0.34146">
        <ele>1408.5</ele>
        <time>2026-02-08T10:04:51.000Z</time>
      </trkpt>
      <trkpt lat="43.04471" lon="-0.3415">
        <ele>1408.4</ele>
        <time>2026-02-08T10:04:54.000Z</time>
      </trkpt>
      <trkpt lat="43.04471" lon="-0.34154">
        <ele>1408.4</ele>
        <time>2026-02-08T10:04:57.000Z</time>
      </trkpt>
      <trkpt lat="43.04469" lon="-0.34157">
        <ele>1408.3</ele>
        <time>2026-02-08T10:05:00.000Z</time>
      </trkpt>
      <trkpt lat="43.04469" lon="-0.34157">
        <ele>1408.3</ele>
        <time>2026-02-08T10:05:03.000Z</time>
      </trkpt>
      <trkpt lat="43.04469" lon="-0.34157">
        <ele>1408.3</ele>
        <time>2026-02-08T10:05:05.000Z</time>
      </trkpt>
      <trkpt lat="43.04469" lon="-0.34157">
        <ele>1408.3</ele>
        <time>2026-02-08T10:05:06.000Z</time>
      </trkpt>
      <trkpt lat="43.04469" lon="-0.34157">
        <ele>1408.3</ele>
        <time>2026-02-08T10:05:09.000Z</time>
      </trkpt>
      <trkpt lat="43.04469" lon="-0.34159">
        <ele>1408.3</ele>
        <time>2026-02-08T10:05:12.000Z</time>
      </trkpt>
      <trkpt lat="43.04469" lon="-0.3416">
        <ele>1408.3</ele>
        <time>2026-02-08T10:05:13.000Z</time>
      </trkpt>
      <trkpt lat="43.04469" lon="-0.34163">
        <ele>1408.3</ele>
        <time>2026-02-08T10:05:16.000Z</time>
      </trkpt>
      <trkpt lat="43.0447" lon="-0.34166">
        <ele>1408.2</ele>
        <time>2026-02-08T10:05:19.000Z</time>
      </trkpt>
      <trkpt lat="43.0447" lon="-0.34168">
        <ele>1408.1</ele>
        <time>2026-02-08T10:05:22.000Z</time>
      </trkpt>
      <trkpt lat="43.04469" lon="-0.34171">
        <ele>1408</ele>
        <time>2026-02-08T10:05:25.000Z</time>
      </trkpt>
      <trkpt lat="43.0447" lon="-0.34175">
        <ele>1407.8</ele>
        <time>2026-02-08T10:05:28.000Z</time>
      </trkpt>
      <trkpt lat="43.0447" lon="-0.3418">
        <ele>1407.6</ele>
        <time>2026-02-08T10:05:31.000Z</time>
      </trkpt>
      <trkpt lat="43.04471" lon="-0.34183">
        <ele>1407.3</ele>
        <time>2026-02-08T10:05:34.000Z</time>
      </trkpt>
      <trkpt lat="43.04472" lon="-0.34186">
        <ele>1406.9</ele>
        <time>2026-02-08T10:05:37.000Z</time>
      </trkpt>
      <trkpt lat="43.04472" lon="-0.3419">
        <ele>1406.3</ele>
        <time>2026-02-08T10:05:40.000Z</time>
      </trkpt>
      <trkpt lat="43.04473" lon="-0.34193">
        <ele>1405.6</ele>
        <time>2026-02-08T10:05:43.000Z</time>
      </trkpt>
      <trkpt lat="43.04473" lon="-0.34197">
        <ele>1404.9</ele>
        <time>2026-02-08T10:05:46.000Z</time>
      </trkpt>
      <trkpt lat="43.04472" lon="-0.34201">
        <ele>1404.1</ele>
        <time>2026-02-08T10:05:49.000Z</time>
      </trkpt>
      <trkpt lat="43.04472" lon="-0.34205">
        <ele>1403.4</ele>
        <time>2026-02-08T10:05:52.000Z</time>
      </trkpt>
      <trkpt lat="43.04472" lon="-0.34209">
        <ele>1402.7</ele>
        <time>2026-02-08T10:05:55.000Z</time>
      </trkpt>
      <trkpt lat="43.04473" lon="-0.34212">
        <ele>1402.1</ele>
        <time>2026-02-08T10:05:58.000Z</time>
      </trkpt>
      <trkpt lat="43.04473" lon="-0.34216">
        <ele>1401.6</ele>
        <time>2026-02-08T10:06:01.000Z</time>
      </trkpt>
      <trkpt lat="43.04473" lon="-0.34219">
        <ele>1401</ele>
        <time>2026-02-08T10:06:04.000Z</time>
      </trkpt>
      <trkpt lat="43.04473" lon="-0.34223">
        <ele>1400.4</ele>
        <time>2026-02-08T10:06:07.000Z</time>
      </trkpt>
      <trkpt lat="43.04473" lon="-0.34227">
        <ele>1399.8</ele>
        <time>2026-02-08T10:06:10.000Z</time>
      </trkpt>
      <trkpt lat="43.04472" lon="-0.34231">
        <ele>1399.1</ele>
        <time>2026-02-08T10:06:13.000Z</time>
      </trkpt>
      <trkpt lat="43.04471" lon="-0.34235">
        <ele>1398.6</ele>
        <time>2026-02-08T10:06:16.000Z</time>
      </trkpt>
      <trkpt lat="43.0447" lon="-0.34239">
        <ele>1398.1</ele>
        <time>2026-02-08T10:06:19.000Z</time>
      </trkpt>
      <trkpt lat="43.04469" lon="-0.34243">
        <ele>1397.1</ele>
        <time>2026-02-08T10:06:22.000Z</time>
      </trkpt>
      <trkpt lat="43.04468" lon="-0.34247">
        <ele>1396.8</ele>
        <time>2026-02-08T10:06:25.000Z</time>
      </trkpt>
      <trkpt lat="43.04468" lon="-0.3425">
        <ele>1396.5</ele>
        <time>2026-02-08T10:06:28.000Z</time>
      </trkpt>
      <trkpt lat="43.04467" lon="-0.34254">
        <ele>1396.1</ele>
        <time>2026-02-08T10:06:31.000Z</time>
      </trkpt>
      <trkpt lat="43.04467" lon="-0.34258">
        <ele>1395.7</ele>
        <time>2026-02-08T10:06:34.000Z</time>
      </trkpt>
      <trkpt lat="43.04467" lon="-0.34261">
        <ele>1395.4</ele>
        <time>2026-02-08T10:06:37.000Z</time>
      </trkpt>
      <trkpt lat="43.04467" lon="-0.34265">
        <ele>1394.9</ele>
        <time>2026-02-08T10:06:40.000Z</time>
      </trkpt>
      <trkpt lat="43.04466" lon="-0.34268">
        <ele>1394.3</ele>
        <time>2026-02-08T10:06:43.000Z</time>
      </trkpt>
      <trkpt lat="43.04465" lon="-0.34272">
        <ele>1393.9</ele>
        <time>2026-02-08T10:06:46.000Z</time>
      </trkpt>
      <trkpt lat="43.04465" lon="-0.34277">
        <ele>1393.4</ele>
        <time>2026-02-08T10:06:49.000Z</time>
      </trkpt>
      <trkpt lat="43.04464" lon="-0.34281">
        <ele>1393.1</ele>
        <time>2026-02-08T10:06:52.000Z</time>
      </trkpt>
      <trkpt lat="43.04463" lon="-0.34286">
        <ele>1392.7</ele>
        <time>2026-02-08T10:06:55.000Z</time>
      </trkpt>
      <trkpt lat="43.04463" lon="-0.3429">
        <ele>1392.4</ele>
        <time>2026-02-08T10:06:58.000Z</time>
      </trkpt>
      <trkpt lat="43.04463" lon="-0.34293">
        <ele>1392</ele>
        <time>2026-02-08T10:07:01.000Z</time>
      </trkpt>
      <trkpt lat="43.04463" lon="-0.34297">
        <ele>1391.5</ele>
        <time>2026-02-08T10:07:04.000Z</time>
      </trkpt>
      <trkpt lat="43.04464" lon="-0.34299">
        <ele>1391.1</ele>
        <time>2026-02-08T10:07:07.000Z</time>
      </trkpt>
      <trkpt lat="43.04466" lon="-0.34302">
        <ele>1390.7</ele>
        <time>2026-02-08T10:07:10.000Z</time>
      </trkpt>
      <trkpt lat="43.04468" lon="-0.34303">
        <ele>1390.1</ele>
        <time>2026-02-08T10:07:13.000Z</time>
      </trkpt>
      <trkpt lat="43.0447" lon="-0.34304">
        <ele>1389.6</ele>
        <time>2026-02-08T10:07:16.000Z</time>
      </trkpt>
      <trkpt lat="43.04473" lon="-0.34306">
        <ele>1389</ele>
        <time>2026-02-08T10:07:19.000Z</time>
      </trkpt>
      <trkpt lat="43.04476" lon="-0.34307">
        <ele>1388.5</ele>
        <time>2026-02-08T10:07:22.000Z</time>
      </trkpt>
      <trkpt lat="43.04479" lon="-0.34309">
        <ele>1388</ele>
        <time>2026-02-08T10:07:25.000Z</time>
      </trkpt>
      <trkpt lat="43.04482" lon="-0.34311">
        <ele>1387.7</ele>
        <time>2026-02-08T10:07:28.000Z</time>
      </trkpt>
      <trkpt lat="43.04484" lon="-0.34313">
        <ele>1387.6</ele>
        <time>2026-02-08T10:07:31.000Z</time>
      </trkpt>
      <trkpt lat="43.04486" lon="-0.34316">
        <ele>1387.6</ele>
        <time>2026-02-08T10:07:34.000Z</time>
      </trkpt>
      <trkpt lat="43.04489" lon="-0.34319">
        <ele>1387.6</ele>
        <time>2026-02-08T10:07:37.000Z</time>
      </trkpt>
      <trkpt lat="43.04491" lon="-0.34322">
        <ele>1387.6</ele>
        <time>2026-02-08T10:07:40.000Z</time>
      </trkpt>
      <trkpt lat="43.04493" lon="-0.34325">
        <ele>1387.6</ele>
        <time>2026-02-08T10:07:43.000Z</time>
      </trkpt>
      <trkpt lat="43.04495" lon="-0.34327">
        <ele>1387.7</ele>
        <time>2026-02-08T10:07:46.000Z</time>
      </trkpt>
      <trkpt lat="43.04497" lon="-0.3433">
        <ele>1387.7</ele>
        <time>2026-02-08T10:07:49.000Z</time>
      </trkpt>
      <trkpt lat="43.04499" lon="-0.34332">
        <ele>1387.8</ele>
        <time>2026-02-08T10:07:52.000Z</time>
      </trkpt>
      <trkpt lat="43.04502" lon="-0.34333">
        <ele>1388</ele>
        <time>2026-02-08T10:07:55.000Z</time>
      </trkpt>
      <trkpt lat="43.04504" lon="-0.34334">
        <ele>1388.1</ele>
        <time>2026-02-08T10:07:58.000Z</time>
      </trkpt>
      <trkpt lat="43.04507" lon="-0.34336">
        <ele>1388.3</ele>
        <time>2026-02-08T10:08:01.000Z</time>
      </trkpt>
      <trkpt lat="43.04509" lon="-0.34338">
        <ele>1388.5</ele>
        <time>2026-02-08T10:08:04.000Z</time>
      </trkpt>
      <trkpt lat="43.04512" lon="-0.34339">
        <ele>1388.6</ele>
        <time>2026-02-08T10:08:07.000Z</time>
      </trkpt>
      <trkpt lat="43.04515" lon="-0.34341">
        <ele>1388.8</ele>
        <time>2026-02-08T10:08:10.000Z</time>
      </trkpt>
      <trkpt lat="43.04517" lon="-0.34342">
        <ele>1388.8</ele>
        <time>2026-02-08T10:08:13.000Z</time>
      </trkpt>
      <trkpt lat="43.0452" lon="-0.34343">
        <ele>1388.9</ele>
        <time>2026-02-08T10:08:16.000Z</time>
      </trkpt>
      <trkpt lat="43.04522" lon="-0.34344">
        <ele>1388.9</ele>
        <time>2026-02-08T10:08:19.000Z</time>
      </trkpt>
      <trkpt lat="43.04525" lon="-0.34345">
        <ele>1389</ele>
        <time>2026-02-08T10:08:22.000Z</time>
      </trkpt>
      <trkpt lat="43.04528" lon="-0.34346">
        <ele>1389</ele>
        <time>2026-02-08T10:08:25.000Z</time>
      </trkpt>
      <trkpt lat="43.04531" lon="-0.34347">
        <ele>1389</ele>
        <time>2026-02-08T10:08:28.000Z</time>
      </trkpt>
      <trkpt lat="43.04533" lon="-0.34348">
        <ele>1389</ele>
        <time>2026-02-08T10:08:31.000Z</time>
      </trkpt>
      <trkpt lat="43.04535" lon="-0.34349">
        <ele>1389</ele>
        <time>2026-02-08T10:08:34.000Z</time>
      </trkpt>
      <trkpt lat="43.04538" lon="-0.3435">
        <ele>1389</ele>
        <time>2026-02-08T10:08:37.000Z</time>
      </trkpt>
      <trkpt lat="43.0454" lon="-0.34351">
        <ele>1388.9</ele>
        <time>2026-02-08T10:08:40.000Z</time>
      </trkpt>
      <trkpt lat="43.04543" lon="-0.34351">
        <ele>1388.9</ele>
        <time>2026-02-08T10:08:43.000Z</time>
      </trkpt>
      <trkpt lat="43.04545" lon="-0.34352">
        <ele>1388.9</ele>
        <time>2026-02-08T10:08:46.000Z</time>
      </trkpt>
      <trkpt lat="43.04548" lon="-0.34353">
        <ele>1388.9</ele>
        <time>2026-02-08T10:08:49.000Z</time>
      </trkpt>
      <trkpt lat="43.0455" lon="-0.34355">
        <ele>1388.9</ele>
        <time>2026-02-08T10:08:52.000Z</time>
      </trkpt>
      <trkpt lat="43.04553" lon="-0.34357">
        <ele>1388.9</ele>
        <time>2026-02-08T10:08:55.000Z</time>
      </trkpt>
      <trkpt lat="43.04555" lon="-0.34359">
        <ele>1388.9</ele>
        <time>2026-02-08T10:08:58.000Z</time>
      </trkpt>
      <trkpt lat="43.04557" lon="-0.34361">
        <ele>1388.9</ele>
        <time>2026-02-08T10:09:01.000Z</time>
      </trkpt>
      <trkpt lat="43.0456" lon="-0.34363">
        <ele>1388.8</ele>
        <time>2026-02-08T10:09:04.000Z</time>
      </trkpt>
      <trkpt lat="43.04562" lon="-0.34365">
        <ele>1388.8</ele>
        <time>2026-02-08T10:09:07.000Z</time>
      </trkpt>
      <trkpt lat="43.04564" lon="-0.34367">
        <ele>1388.8</ele>
        <time>2026-02-08T10:09:10.000Z</time>
      </trkpt>
      <trkpt lat="43.04566" lon="-0.3437">
        <ele>1388.9</ele>
        <time>2026-02-08T10:09:13.000Z</time>
      </trkpt>
      <trkpt lat="43.04568" lon="-0.34372">
        <ele>1388.9</ele>
        <time>2026-02-08T10:09:16.000Z</time>
      </trkpt>
      <trkpt lat="43.0457" lon="-0.34376">
        <ele>1388.9</ele>
        <time>2026-02-08T10:09:19.000Z</time>
      </trkpt>
      <trkpt lat="43.04571" lon="-0.34379">
        <ele>1388.9</ele>
        <time>2026-02-08T10:09:22.000Z</time>
      </trkpt>
      <trkpt lat="43.04572" lon="-0.34382">
        <ele>1388.8</ele>
        <time>2026-02-08T10:09:25.000Z</time>
      </trkpt>
      <trkpt lat="43.04574" lon="-0.34386">
        <ele>1388.8</ele>
        <time>2026-02-08T10:09:28.000Z</time>
      </trkpt>
      <trkpt lat="43.04575" lon="-0.34389">
        <ele>1388.7</ele>
        <time>2026-02-08T10:09:31.000Z</time>
      </trkpt>
      <trkpt lat="43.04576" lon="-0.34393">
        <ele>1388.7</ele>
        <time>2026-02-08T10:09:34.000Z</time>
      </trkpt>
      <trkpt lat="43.04577" lon="-0.34396">
        <ele>1388.6</ele>
        <time>2026-02-08T10:09:37.000Z</time>
      </trkpt>
      <trkpt lat="43.04579" lon="-0.344">
        <ele>1388.5</ele>
        <time>2026-02-08T10:09:40.000Z</time>
      </trkpt>
      <trkpt lat="43.04581" lon="-0.34402">
        <ele>1388.4</ele>
        <time>2026-02-08T10:09:43.000Z</time>
      </trkpt>
      <trkpt lat="43.04584" lon="-0.34404">
        <ele>1388.3</ele>
        <time>2026-02-08T10:09:46.000Z</time>
      </trkpt>
      <trkpt lat="43.04586" lon="-0.34406">
        <ele>1388.1</ele>
        <time>2026-02-08T10:09:49.000Z</time>
      </trkpt>
      <trkpt lat="43.04589" lon="-0.34407">
        <ele>1387.9</ele>
        <time>2026-02-08T10:09:52.000Z</time>
      </trkpt>
      <trkpt lat="43.04592" lon="-0.34409">
        <ele>1387.7</ele>
        <time>2026-02-08T10:09:55.000Z</time>
      </trkpt>
      <trkpt lat="43.04594" lon="-0.34411">
        <ele>1387.5</ele>
        <time>2026-02-08T10:09:58.000Z</time>
      </trkpt>
      <trkpt lat="43.04597" lon="-0.34412">
        <ele>1387.2</ele>
        <time>2026-02-08T10:10:01.000Z</time>
      </trkpt>
      <trkpt lat="43.046" lon="-0.34414">
        <ele>1386.9</ele>
        <time>2026-02-08T10:10:04.000Z</time>
      </trkpt>
      <trkpt lat="43.04603" lon="-0.34416">
        <ele>1386.6</ele>
        <time>2026-02-08T10:10:07.000Z</time>
      </trkpt>
      <trkpt lat="43.04605" lon="-0.34418">
        <ele>1386.4</ele>
        <time>2026-02-08T10:10:10.000Z</time>
      </trkpt>
      <trkpt lat="43.04607" lon="-0.34421">
        <ele>1386.2</ele>
        <time>2026-02-08T10:10:13.000Z</time>
      </trkpt>
      <trkpt lat="43.0461" lon="-0.34422">
        <ele>1386</ele>
        <time>2026-02-08T10:10:16.000Z</time>
      </trkpt>
      <trkpt lat="43.04612" lon="-0.34424">
        <ele>1385.9</ele>
        <time>2026-02-08T10:10:19.000Z</time>
      </trkpt>
      <trkpt lat="43.04616" lon="-0.34426">
        <ele>1385.7</ele>
        <time>2026-02-08T10:10:22.000Z</time>
      </trkpt>
      <trkpt lat="43.04618" lon="-0.34427">
        <ele>1385.6</ele>
        <time>2026-02-08T10:10:25.000Z</time>
      </trkpt>
      <trkpt lat="43.04621" lon="-0.34428">
        <ele>1385.5</ele>
        <time>2026-02-08T10:10:28.000Z</time>
      </trkpt>
      <trkpt lat="43.04623" lon="-0.34429">
        <ele>1385.5</ele>
        <time>2026-02-08T10:10:31.000Z</time>
      </trkpt>
      <trkpt lat="43.04625" lon="-0.3443">
        <ele>1385.6</ele>
        <time>2026-02-08T10:10:34.000Z</time>
      </trkpt>
      <trkpt lat="43.04628" lon="-0.34431">
        <ele>1385.7</ele>
        <time>2026-02-08T10:10:37.000Z</time>
      </trkpt>
      <trkpt lat="43.0463" lon="-0.34432">
        <ele>1385.9</ele>
        <time>2026-02-08T10:10:40.000Z</time>
      </trkpt>
      <trkpt lat="43.04633" lon="-0.34434">
        <ele>1386</ele>
        <time>2026-02-08T10:10:43.000Z</time>
      </trkpt>
      <trkpt lat="43.04636" lon="-0.34435">
        <ele>1386.2</ele>
        <time>2026-02-08T10:10:46.000Z</time>
      </trkpt>
      <trkpt lat="43.04638" lon="-0.34437">
        <ele>1386.2</ele>
        <time>2026-02-08T10:10:49.000Z</time>
      </trkpt>
      <trkpt lat="43.04641" lon="-0.34439">
        <ele>1386.2</ele>
        <time>2026-02-08T10:10:52.000Z</time>
      </trkpt>
      <trkpt lat="43.04644" lon="-0.3444">
        <ele>1386.2</ele>
        <time>2026-02-08T10:10:55.000Z</time>
      </trkpt>
      <trkpt lat="43.04646" lon="-0.34442">
        <ele>1386.2</ele>
        <time>2026-02-08T10:10:58.000Z</time>
      </trkpt>
      <trkpt lat="43.04647" lon="-0.34446">
        <ele>1386.2</ele>
        <time>2026-02-08T10:11:01.000Z</time>
      </trkpt>
      <trkpt lat="43.04648" lon="-0.3445">
        <ele>1386.2</ele>
        <time>2026-02-08T10:11:04.000Z</time>
      </trkpt>
      <trkpt lat="43.04648" lon="-0.34451">
        <ele>1386.1</ele>
        <time>2026-02-08T10:11:07.000Z</time>
      </trkpt>
      <trkpt lat="43.04649" lon="-0.34451">
        <ele>1386.1</ele>
        <time>2026-02-08T10:11:10.000Z</time>
      </trkpt>
      <trkpt lat="43.04649" lon="-0.34451">
        <ele>1386.1</ele>
        <time>2026-02-08T10:11:11.000Z</time>
      </trkpt>
      <trkpt lat="43.04649" lon="-0.34451">
        <ele>1386</ele>
        <time>2026-02-08T10:11:14.000Z</time>
      </trkpt>
      <trkpt lat="43.04649" lon="-0.34451">
        <ele>1386</ele>
        <time>2026-02-08T10:11:16.000Z</time>
      </trkpt>
      <trkpt lat="43.04649" lon="-0.34451">
        <ele>1386</ele>
        <time>2026-02-08T10:11:17.000Z</time>
      </trkpt>
      <trkpt lat="43.04649" lon="-0.34451">
        <ele>1386</ele>
        <time>2026-02-08T10:11:18.000Z</time>
      </trkpt>
      <trkpt lat="43.04649" lon="-0.34451">
        <ele>1385.9</ele>
        <time>2026-02-08T10:11:19.000Z</time>
      </trkpt>
      <trkpt lat="43.04649" lon="-0.34451">
        <ele>1385.9</ele>
        <time>2026-02-08T10:11:22.000Z</time>
      </trkpt>
      <trkpt lat="43.04649" lon="-0.34451">
        <ele>1385.9</ele>
        <time>2026-02-08T10:11:25.000Z</time>
      </trkpt>
      <trkpt lat="43.04649" lon="-0.34451">
        <ele>1385.9</ele>
        <time>2026-02-08T10:11:27.000Z</time>
      </trkpt>
      <trkpt lat="43.04649" lon="-0.34451">
        <ele>1385.9</ele>
        <time>2026-02-08T10:11:28.000Z</time>
      </trkpt>
      <trkpt lat="43.04649" lon="-0.34451">
        <ele>1385.8</ele>
        <time>2026-02-08T10:11:29.000Z</time>
      </trkpt>
      <trkpt lat="43.04649" lon="-0.34451">
        <ele>1385.8</ele>
        <time>2026-02-08T10:11:30.000Z</time>
      </trkpt>
      <trkpt lat="43.04649" lon="-0.34451">
        <ele>1385.8</ele>
        <time>2026-02-08T10:11:31.000Z</time>
      </trkpt>
      <trkpt lat="43.04649" lon="-0.34451">
        <ele>1385.8</ele>
        <time>2026-02-08T10:11:32.000Z</time>
      </trkpt>
      <trkpt lat="43.04649" lon="-0.34451">
        <ele>1385.8</ele>
        <time>2026-02-08T10:11:33.000Z</time>
      </trkpt>
      <trkpt lat="43.04649" lon="-0.34451">
        <ele>1385.7</ele>
        <time>2026-02-08T10:11:36.000Z</time>
      </trkpt>
      <trkpt lat="43.04649" lon="-0.34451">
        <ele>1385.6</ele>
        <time>2026-02-08T10:11:39.000Z</time>
      </trkpt>
      <trkpt lat="43.04649" lon="-0.34451">
        <ele>1385.6</ele>
        <time>2026-02-08T10:11:42.000Z</time>
      </trkpt>
      <trkpt lat="43.04649" lon="-0.34451">
        <ele>1385.6</ele>
        <time>2026-02-08T10:11:45.000Z</time>
      </trkpt>
      <trkpt lat="43.04649" lon="-0.34451">
        <ele>1385.6</ele>
        <time>2026-02-08T10:11:47.000Z</time>
      </trkpt>
      <trkpt lat="43.04649" lon="-0.34451">
        <ele>1385.6</ele>
        <time>2026-02-08T10:11:48.000Z</time>
      </trkpt>
      <trkpt lat="43.04649" lon="-0.34451">
        <ele>1385.6</ele>
        <time>2026-02-08T10:11:51.000Z</time>
      </trkpt>
      <trkpt lat="43.04649" lon="-0.34451">
        <ele>1385.6</ele>
        <time>2026-02-08T10:11:54.000Z</time>
      </trkpt>
      <trkpt lat="43.04649" lon="-0.34451">
        <ele>1385.6</ele>
        <time>2026-02-08T10:11:57.000Z</time>
      </trkpt>
      <trkpt lat="43.04649" lon="-0.34451">
        <ele>1385.6</ele>
        <time>2026-02-08T10:12:00.000Z</time>
      </trkpt>
      <trkpt lat="43.04649" lon="-0.34451">
        <ele>1385.6</ele>
        <time>2026-02-08T10:12:03.000Z</time>
      </trkpt>
      <trkpt lat="43.04649" lon="-0.34451">
        <ele>1385.6</ele>
        <time>2026-02-08T10:12:06.000Z</time>
      </trkpt>
      <trkpt lat="43.04649" lon="-0.34451">
        <ele>1385.6</ele>
        <time>2026-02-08T10:12:09.000Z</time>
      </trkpt>
      <trkpt lat="43.04649" lon="-0.34451">
        <ele>1385.6</ele>
        <time>2026-02-08T10:12:12.000Z</time>
      </trkpt>
      <trkpt lat="43.04649" lon="-0.34451">
        <ele>1385.6</ele>
        <time>2026-02-08T10:12:15.000Z</time>
      </trkpt>
      <trkpt lat="43.04649" lon="-0.34451">
        <ele>1385.6</ele>
        <time>2026-02-08T10:12:18.000Z</time>
      </trkpt>
      <trkpt lat="43.04649" lon="-0.34451">
        <ele>1385.6</ele>
        <time>2026-02-08T10:12:21.000Z</time>
      </trkpt>
      <trkpt lat="43.04649" lon="-0.34451">
        <ele>1385.6</ele>
        <time>2026-02-08T10:12:24.000Z</time>
      </trkpt>
      <trkpt lat="43.04649" lon="-0.34451">
        <ele>1385.6</ele>
        <time>2026-02-08T10:12:27.000Z</time>
      </trkpt>
      <trkpt lat="43.04649" lon="-0.34451">
        <ele>1385.6</ele>
        <time>2026-02-08T10:12:30.000Z</time>
      </trkpt>
      <trkpt lat="43.04649" lon="-0.34451">
        <ele>1385.5</ele>
        <time>2026-02-08T10:12:33.000Z</time>
      </trkpt>
      <trkpt lat="43.04649" lon="-0.34451">
        <ele>1385.5</ele>
        <time>2026-02-08T10:12:34.000Z</time>
      </trkpt>
      <trkpt lat="43.04649" lon="-0.34451">
        <ele>1385.5</ele>
        <time>2026-02-08T10:12:35.000Z</time>
      </trkpt>
      <trkpt lat="43.04649" lon="-0.34451">
        <ele>1385.6</ele>
        <time>2026-02-08T10:12:36.000Z</time>
      </trkpt>
      <trkpt lat="43.04649" lon="-0.34451">
        <ele>1385.6</ele>
        <time>2026-02-08T10:12:37.000Z</time>
      </trkpt>
      <trkpt lat="43.04649" lon="-0.34451">
        <ele>1385.6</ele>
        <time>2026-02-08T10:12:38.000Z</time>
      </trkpt>
      <trkpt lat="43.04648" lon="-0.34451">
        <ele>1385.5</ele>
        <time>2026-02-08T10:12:41.000Z</time>
      </trkpt>
      <trkpt lat="43.04648" lon="-0.34451">
        <ele>1385.5</ele>
        <time>2026-02-08T10:12:42.000Z</time>
      </trkpt>
      <trkpt lat="43.04648" lon="-0.34452">
        <ele>1385.5</ele>
        <time>2026-02-08T10:12:43.000Z</time>
      </trkpt>
      <trkpt lat="43.04649" lon="-0.34456">
        <ele>1385.4</ele>
        <time>2026-02-08T10:12:46.000Z</time>
      </trkpt>
      <trkpt lat="43.04651" lon="-0.3446">
        <ele>1385.3</ele>
        <time>2026-02-08T10:12:49.000Z</time>
      </trkpt>
      <trkpt lat="43.04652" lon="-0.34464">
        <ele>1385.2</ele>
        <time>2026-02-08T10:12:52.000Z</time>
      </trkpt>
      <trkpt lat="43.04654" lon="-0.34468">
        <ele>1385.1</ele>
        <time>2026-02-08T10:12:55.000Z</time>
      </trkpt>
      <trkpt lat="43.04655" lon="-0.34472">
        <ele>1385</ele>
        <time>2026-02-08T10:12:58.000Z</time>
      </trkpt>
      <trkpt lat="43.04657" lon="-0.34476">
        <ele>1384.7</ele>
        <time>2026-02-08T10:13:01.000Z</time>
      </trkpt>
      <trkpt lat="43.04658" lon="-0.34479">
        <ele>1384.4</ele>
        <time>2026-02-08T10:13:04.000Z</time>
      </trkpt>
      <trkpt lat="43.04659" lon="-0.34481">
        <ele>1384.1</ele>
        <time>2026-02-08T10:13:07.000Z</time>
      </trkpt>
      <trkpt lat="43.04659" lon="-0.34481">
        <ele>1384</ele>
        <time>2026-02-08T10:13:10.000Z</time>
      </trkpt>
      <trkpt lat="43.04659" lon="-0.34481">
        <ele>1383.9</ele>
        <time>2026-02-08T10:13:11.000Z</time>
      </trkpt>
      <trkpt lat="43.04659" lon="-0.34481">
        <ele>1383.6</ele>
        <time>2026-02-08T10:13:14.000Z</time>
      </trkpt>
      <trkpt lat="43.04659" lon="-0.34482">
        <ele>1383.4</ele>
        <time>2026-02-08T10:13:17.000Z</time>
      </trkpt>
      <trkpt lat="43.0466" lon="-0.34483">
        <ele>1383.4</ele>
        <time>2026-02-08T10:13:18.000Z</time>
      </trkpt>
      <trkpt lat="43.0466" lon="-0.34484">
        <ele>1383.3</ele>
        <time>2026-02-08T10:13:19.000Z</time>
      </trkpt>
      <trkpt lat="43.04662" lon="-0.34488">
        <ele>1383.2</ele>
        <time>2026-02-08T10:13:22.000Z</time>
      </trkpt>
      <trkpt lat="43.04663" lon="-0.34493">
        <ele>1383</ele>
        <time>2026-02-08T10:13:25.000Z</time>
      </trkpt>
      <trkpt lat="43.04665" lon="-0.34497">
        <ele>1382.7</ele>
        <time>2026-02-08T10:13:28.000Z</time>
      </trkpt>
      <trkpt lat="43.04666" lon="-0.34501">
        <ele>1382.4</ele>
        <time>2026-02-08T10:13:31.000Z</time>
      </trkpt>
      <trkpt lat="43.04667" lon="-0.34505">
        <ele>1382.1</ele>
        <time>2026-02-08T10:13:34.000Z</time>
      </trkpt>
      <trkpt lat="43.04669" lon="-0.34508">
        <ele>1381.9</ele>
        <time>2026-02-08T10:13:37.000Z</time>
      </trkpt>
      <trkpt lat="43.0467" lon="-0.34512">
        <ele>1381.8</ele>
        <time>2026-02-08T10:13:40.000Z</time>
      </trkpt>
      <trkpt lat="43.04671" lon="-0.34515">
        <ele>1381.8</ele>
        <time>2026-02-08T10:13:43.000Z</time>
      </trkpt>
      <trkpt lat="43.04672" lon="-0.34518">
        <ele>1381.8</ele>
        <time>2026-02-08T10:13:46.000Z</time>
      </trkpt>
      <trkpt lat="43.04673" lon="-0.34522">
        <ele>1381.7</ele>
        <time>2026-02-08T10:13:49.000Z</time>
      </trkpt>
      <trkpt lat="43.04675" lon="-0.34525">
        <ele>1381.6</ele>
        <time>2026-02-08T10:13:52.000Z</time>
      </trkpt>
      <trkpt lat="43.04676" lon="-0.34529">
        <ele>1381.5</ele>
        <time>2026-02-08T10:13:55.000Z</time>
      </trkpt>
      <trkpt lat="43.04678" lon="-0.34533">
        <ele>1381.4</ele>
        <time>2026-02-08T10:13:58.000Z</time>
      </trkpt>
      <trkpt lat="43.04679" lon="-0.34537">
        <ele>1381.2</ele>
        <time>2026-02-08T10:14:01.000Z</time>
      </trkpt>
      <trkpt lat="43.04681" lon="-0.34541">
        <ele>1381.1</ele>
        <time>2026-02-08T10:14:04.000Z</time>
      </trkpt>
      <trkpt lat="43.04682" lon="-0.34546">
        <ele>1380.9</ele>
        <time>2026-02-08T10:14:07.000Z</time>
      </trkpt>
      <trkpt lat="43.04682" lon="-0.3455">
        <ele>1380.6</ele>
        <time>2026-02-08T10:14:10.000Z</time>
      </trkpt>
      <trkpt lat="43.04683" lon="-0.34555">
        <ele>1380.3</ele>
        <time>2026-02-08T10:14:13.000Z</time>
      </trkpt>
      <trkpt lat="43.04683" lon="-0.34559">
        <ele>1380</ele>
        <time>2026-02-08T10:14:16.000Z</time>
      </trkpt>
      <trkpt lat="43.04683" lon="-0.34564">
        <ele>1379.7</ele>
        <time>2026-02-08T10:14:19.000Z</time>
      </trkpt>
      <trkpt lat="43.04684" lon="-0.34568">
        <ele>1379.3</ele>
        <time>2026-02-08T10:14:22.000Z</time>
      </trkpt>
      <trkpt lat="43.04684" lon="-0.34572">
        <ele>1378.8</ele>
        <time>2026-02-08T10:14:25.000Z</time>
      </trkpt>
      <trkpt lat="43.04684" lon="-0.34576">
        <ele>1378.4</ele>
        <time>2026-02-08T10:14:28.000Z</time>
      </trkpt>
      <trkpt lat="43.04684" lon="-0.3458">
        <ele>1378</ele>
        <time>2026-02-08T10:14:31.000Z</time>
      </trkpt>
      <trkpt lat="43.04685" lon="-0.34583">
        <ele>1377.7</ele>
        <time>2026-02-08T10:14:34.000Z</time>
      </trkpt>
      <trkpt lat="43.04685" lon="-0.34587">
        <ele>1377.4</ele>
        <time>2026-02-08T10:14:37.000Z</time>
      </trkpt>
      <trkpt lat="43.04686" lon="-0.3459">
        <ele>1377</ele>
        <time>2026-02-08T10:14:40.000Z</time>
      </trkpt>
      <trkpt lat="43.04687" lon="-0.34594">
        <ele>1376.5</ele>
        <time>2026-02-08T10:14:43.000Z</time>
      </trkpt>
      <trkpt lat="43.04688" lon="-0.34598">
        <ele>1376</ele>
        <time>2026-02-08T10:14:46.000Z</time>
      </trkpt>
      <trkpt lat="43.04689" lon="-0.34603">
        <ele>1375.7</ele>
        <time>2026-02-08T10:14:49.000Z</time>
      </trkpt>
      <trkpt lat="43.0469" lon="-0.34607">
        <ele>1375.2</ele>
        <time>2026-02-08T10:14:52.000Z</time>
      </trkpt>
      <trkpt lat="43.04691" lon="-0.34612">
        <ele>1374.7</ele>
        <time>2026-02-08T10:14:55.000Z</time>
      </trkpt>
      <trkpt lat="43.04691" lon="-0.34617">
        <ele>1374.2</ele>
        <time>2026-02-08T10:14:58.000Z</time>
      </trkpt>
      <trkpt lat="43.04691" lon="-0.34622">
        <ele>1373.5</ele>
        <time>2026-02-08T10:15:01.000Z</time>
      </trkpt>
      <trkpt lat="43.04692" lon="-0.34626">
        <ele>1373</ele>
        <time>2026-02-08T10:15:04.000Z</time>
      </trkpt>
      <trkpt lat="43.04692" lon="-0.3463">
        <ele>1372.3</ele>
        <time>2026-02-08T10:15:07.000Z</time>
      </trkpt>
      <trkpt lat="43.04693" lon="-0.34634">
        <ele>1371.6</ele>
        <time>2026-02-08T10:15:10.000Z</time>
      </trkpt>
      <trkpt lat="43.04693" lon="-0.34639">
        <ele>1371.2</ele>
        <time>2026-02-08T10:15:13.000Z</time>
      </trkpt>
      <trkpt lat="43.04694" lon="-0.34643">
        <ele>1370.7</ele>
        <time>2026-02-08T10:15:16.000Z</time>
      </trkpt>
      <trkpt lat="43.04694" lon="-0.34648">
        <ele>1370.4</ele>
        <time>2026-02-08T10:15:19.000Z</time>
      </trkpt>
      <trkpt lat="43.04694" lon="-0.34652">
        <ele>1370</ele>
        <time>2026-02-08T10:15:22.000Z</time>
      </trkpt>
      <trkpt lat="43.04694" lon="-0.34656">
        <ele>1369.6</ele>
        <time>2026-02-08T10:15:25.000Z</time>
      </trkpt>
      <trkpt lat="43.04695" lon="-0.3466">
        <ele>1369</ele>
        <time>2026-02-08T10:15:28.000Z</time>
      </trkpt>
      <trkpt lat="43.04695" lon="-0.34664">
        <ele>1368.3</ele>
        <time>2026-02-08T10:15:31.000Z</time>
      </trkpt>
      <trkpt lat="43.04696" lon="-0.34668">
        <ele>1367.5</ele>
        <time>2026-02-08T10:15:34.000Z</time>
      </trkpt>
      <trkpt lat="43.04697" lon="-0.34672">
        <ele>1366.8</ele>
        <time>2026-02-08T10:15:37.000Z</time>
      </trkpt>
      <trkpt lat="43.04698" lon="-0.34676">
        <ele>1366.1</ele>
        <time>2026-02-08T10:15:40.000Z</time>
      </trkpt>
      <trkpt lat="43.04699" lon="-0.3468">
        <ele>1365.6</ele>
        <time>2026-02-08T10:15:43.000Z</time>
      </trkpt>
      <trkpt lat="43.047" lon="-0.34684">
        <ele>1365.2</ele>
        <time>2026-02-08T10:15:46.000Z</time>
      </trkpt>
      <trkpt lat="43.04701" lon="-0.34688">
        <ele>1364.8</ele>
        <time>2026-02-08T10:15:49.000Z</time>
      </trkpt>
      <trkpt lat="43.04702" lon="-0.34693">
        <ele>1364.3</ele>
        <time>2026-02-08T10:15:52.000Z</time>
      </trkpt>
      <trkpt lat="43.04703" lon="-0.34698">
        <ele>1364</ele>
        <time>2026-02-08T10:15:55.000Z</time>
      </trkpt>
      <trkpt lat="43.04704" lon="-0.34702">
        <ele>1363.7</ele>
        <time>2026-02-08T10:15:58.000Z</time>
      </trkpt>
      <trkpt lat="43.04706" lon="-0.34706">
        <ele>1363.5</ele>
        <time>2026-02-08T10:16:01.000Z</time>
      </trkpt>
      <trkpt lat="43.04707" lon="-0.3471">
        <ele>1363.3</ele>
        <time>2026-02-08T10:16:04.000Z</time>
      </trkpt>
      <trkpt lat="43.04707" lon="-0.34714">
        <ele>1363.3</ele>
        <time>2026-02-08T10:16:07.000Z</time>
      </trkpt>
      <trkpt lat="43.04708" lon="-0.34717">
        <ele>1363.2</ele>
        <time>2026-02-08T10:16:10.000Z</time>
      </trkpt>
      <trkpt lat="43.04708" lon="-0.34718">
        <ele>1363.2</ele>
        <time>2026-02-08T10:16:13.000Z</time>
      </trkpt>
      <trkpt lat="43.04708" lon="-0.34718">
        <ele>1363.2</ele>
        <time>2026-02-08T10:16:14.000Z</time>
      </trkpt>
      <trkpt lat="43.04708" lon="-0.34718">
        <ele>1363.3</ele>
        <time>2026-02-08T10:16:15.000Z</time>
      </trkpt>
      <trkpt lat="43.04708" lon="-0.34718">
        <ele>1363.3</ele>
        <time>2026-02-08T10:16:16.000Z</time>
      </trkpt>
      <trkpt lat="43.04708" lon="-0.34718">
        <ele>1363.2</ele>
        <time>2026-02-08T10:16:19.000Z</time>
      </trkpt>
      <trkpt lat="43.04708" lon="-0.34718">
        <ele>1363.3</ele>
        <time>2026-02-08T10:16:22.000Z</time>
      </trkpt>
      <trkpt lat="43.04708" lon="-0.34718">
        <ele>1363.3</ele>
        <time>2026-02-08T10:16:25.000Z</time>
      </trkpt>
      <trkpt lat="43.04709" lon="-0.34719">
        <ele>1363.3</ele>
        <time>2026-02-08T10:16:27.000Z</time>
      </trkpt>
      <trkpt lat="43.04709" lon="-0.3472">
        <ele>1363.3</ele>
        <time>2026-02-08T10:16:28.000Z</time>
      </trkpt>
      <trkpt lat="43.0471" lon="-0.34723">
        <ele>1363.4</ele>
        <time>2026-02-08T10:16:31.000Z</time>
      </trkpt>
      <trkpt lat="43.04712" lon="-0.34726">
        <ele>1363.4</ele>
        <time>2026-02-08T10:16:34.000Z</time>
      </trkpt>
      <trkpt lat="43.04713" lon="-0.34729">
        <ele>1363.6</ele>
        <time>2026-02-08T10:16:37.000Z</time>
      </trkpt>
      <trkpt lat="43.04715" lon="-0.34731">
        <ele>1363.7</ele>
        <time>2026-02-08T10:16:40.000Z</time>
      </trkpt>
      <trkpt lat="43.04716" lon="-0.34732">
        <ele>1363.9</ele>
        <time>2026-02-08T10:16:43.000Z</time>
      </trkpt>
      <trkpt lat="43.04716" lon="-0.34732">
        <ele>1363.9</ele>
        <time>2026-02-08T10:16:44.000Z</time>
      </trkpt>
      <trkpt lat="43.04716" lon="-0.34732">
        <ele>1363.9</ele>
        <time>2026-02-08T10:16:45.000Z</time>
      </trkpt>
      <trkpt lat="43.04716" lon="-0.34732">
        <ele>1364</ele>
        <time>2026-02-08T10:16:46.000Z</time>
      </trkpt>
      <trkpt lat="43.04716" lon="-0.34732">
        <ele>1364.1</ele>
        <time>2026-02-08T10:16:49.000Z</time>
      </trkpt>
      <trkpt lat="43.04716" lon="-0.34732">
        <ele>1364.2</ele>
        <time>2026-02-08T10:16:52.000Z</time>
      </trkpt>
      <trkpt lat="43.04716" lon="-0.34732">
        <ele>1364.3</ele>
        <time>2026-02-08T10:16:55.000Z</time>
      </trkpt>
      <trkpt lat="43.04716" lon="-0.34732">
        <ele>1364.3</ele>
        <time>2026-02-08T10:16:58.000Z</time>
      </trkpt>
      <trkpt lat="43.04717" lon="-0.34734">
        <ele>1364.4</ele>
        <time>2026-02-08T10:17:00.000Z</time>
      </trkpt>
      <trkpt lat="43.04717" lon="-0.34735">
        <ele>1364.4</ele>
        <time>2026-02-08T10:17:01.000Z</time>
      </trkpt>
      <trkpt lat="43.04719" lon="-0.34738">
        <ele>1364.4</ele>
        <time>2026-02-08T10:17:04.000Z</time>
      </trkpt>
      <trkpt lat="43.04721" lon="-0.34741">
        <ele>1364.5</ele>
        <time>2026-02-08T10:17:07.000Z</time>
      </trkpt>
      <trkpt lat="43.04723" lon="-0.34744">
        <ele>1364.5</ele>
        <time>2026-02-08T10:17:10.000Z</time>
      </trkpt>
      <trkpt lat="43.04725" lon="-0.34747">
        <ele>1364.6</ele>
        <time>2026-02-08T10:17:13.000Z</time>
      </trkpt>
      <trkpt lat="43.04728" lon="-0.3475">
        <ele>1364.7</ele>
        <time>2026-02-08T10:17:16.000Z</time>
      </trkpt>
      <trkpt lat="43.0473" lon="-0.34753">
        <ele>1364.8</ele>
        <time>2026-02-08T10:17:19.000Z</time>
      </trkpt>
      <trkpt lat="43.04732" lon="-0.34756">
        <ele>1364.8</ele>
        <time>2026-02-08T10:17:22.000Z</time>
      </trkpt>
      <trkpt lat="43.04734" lon="-0.34759">
        <ele>1364.8</ele>
        <time>2026-02-08T10:17:25.000Z</time>
      </trkpt>
      <trkpt lat="43.04736" lon="-0.34762">
        <ele>1364.9</ele>
        <time>2026-02-08T10:17:28.000Z</time>
      </trkpt>
      <trkpt lat="43.04739" lon="-0.34765">
        <ele>1364.9</ele>
        <time>2026-02-08T10:17:31.000Z</time>
      </trkpt>
      <trkpt lat="43.04741" lon="-0.34768">
        <ele>1364.9</ele>
        <time>2026-02-08T10:17:34.000Z</time>
      </trkpt>
      <trkpt lat="43.04743" lon="-0.34771">
        <ele>1365</ele>
        <time>2026-02-08T10:17:37.000Z</time>
      </trkpt>
      <trkpt lat="43.04745" lon="-0.34774">
        <ele>1365</ele>
        <time>2026-02-08T10:17:40.000Z</time>
      </trkpt>
      <trkpt lat="43.04748" lon="-0.34777">
        <ele>1365</ele>
        <time>2026-02-08T10:17:43.000Z</time>
      </trkpt>
      <trkpt lat="43.0475" lon="-0.3478">
        <ele>1365</ele>
        <time>2026-02-08T10:17:46.000Z</time>
      </trkpt>
      <trkpt lat="43.04753" lon="-0.34783">
        <ele>1365</ele>
        <time>2026-02-08T10:17:49.000Z</time>
      </trkpt>
      <trkpt lat="43.04755" lon="-0.34786">
        <ele>1365</ele>
        <time>2026-02-08T10:17:52.000Z</time>
      </trkpt>
      <trkpt lat="43.04758" lon="-0.34789">
        <ele>1364.9</ele>
        <time>2026-02-08T10:17:55.000Z</time>
      </trkpt>
      <trkpt lat="43.0476" lon="-0.34792">
        <ele>1364.7</ele>
        <time>2026-02-08T10:17:58.000Z</time>
      </trkpt>
      <trkpt lat="43.04762" lon="-0.34795">
        <ele>1364.5</ele>
        <time>2026-02-08T10:18:01.000Z</time>
      </trkpt>
      <trkpt lat="43.04764" lon="-0.34798">
        <ele>1364.3</ele>
        <time>2026-02-08T10:18:04.000Z</time>
      </trkpt>
      <trkpt lat="43.04767" lon="-0.34801">
        <ele>1363.9</ele>
        <time>2026-02-08T10:18:07.000Z</time>
      </trkpt>
      <trkpt lat="43.04769" lon="-0.34803">
        <ele>1363.6</ele>
        <time>2026-02-08T10:18:10.000Z</time>
      </trkpt>
      <trkpt lat="43.04771" lon="-0.34806">
        <ele>1363.2</ele>
        <time>2026-02-08T10:18:13.000Z</time>
      </trkpt>
      <trkpt lat="43.04774" lon="-0.34808">
        <ele>1362.9</ele>
        <time>2026-02-08T10:18:16.000Z</time>
      </trkpt>
      <trkpt lat="43.04775" lon="-0.34812">
        <ele>1362.7</ele>
        <time>2026-02-08T10:18:19.000Z</time>
      </trkpt>
      <trkpt lat="43.04777" lon="-0.34814">
        <ele>1362.7</ele>
        <time>2026-02-08T10:18:22.000Z</time>
      </trkpt>
      <trkpt lat="43.0478" lon="-0.34817">
        <ele>1362.7</ele>
        <time>2026-02-08T10:18:25.000Z</time>
      </trkpt>
      <trkpt lat="43.04782" lon="-0.3482">
        <ele>1362.6</ele>
        <time>2026-02-08T10:18:28.000Z</time>
      </trkpt>
      <trkpt lat="43.04784" lon="-0.34823">
        <ele>1362.5</ele>
        <time>2026-02-08T10:18:31.000Z</time>
      </trkpt>
      <trkpt lat="43.04786" lon="-0.34827">
        <ele>1362.2</ele>
        <time>2026-02-08T10:18:34.000Z</time>
      </trkpt>
      <trkpt lat="43.04788" lon="-0.3483">
        <ele>1362.1</ele>
        <time>2026-02-08T10:18:37.000Z</time>
      </trkpt>
      <trkpt lat="43.0479" lon="-0.34833">
        <ele>1361.8</ele>
        <time>2026-02-08T10:18:40.000Z</time>
      </trkpt>
      <trkpt lat="43.04791" lon="-0.34836">
        <ele>1361.5</ele>
        <time>2026-02-08T10:18:43.000Z</time>
      </trkpt>
      <trkpt lat="43.04793" lon="-0.3484">
        <ele>1361</ele>
        <time>2026-02-08T10:18:46.000Z</time>
      </trkpt>
      <trkpt lat="43.04795" lon="-0.34843">
        <ele>1360.6</ele>
        <time>2026-02-08T10:18:49.000Z</time>
      </trkpt>
      <trkpt lat="43.04797" lon="-0.34846">
        <ele>1360.3</ele>
        <time>2026-02-08T10:18:52.000Z</time>
      </trkpt>
      <trkpt lat="43.04799" lon="-0.34849">
        <ele>1359.9</ele>
        <time>2026-02-08T10:18:55.000Z</time>
      </trkpt>
      <trkpt lat="43.04801" lon="-0.34852">
        <ele>1359.4</ele>
        <time>2026-02-08T10:18:58.000Z</time>
      </trkpt>
      <trkpt lat="43.04803" lon="-0.34855">
        <ele>1359.1</ele>
        <time>2026-02-08T10:19:01.000Z</time>
      </trkpt>
      <trkpt lat="43.04804" lon="-0.34857">
        <ele>1358.8</ele>
        <time>2026-02-08T10:19:04.000Z</time>
      </trkpt>
      <trkpt lat="43.04805" lon="-0.34859">
        <ele>1358.6</ele>
        <time>2026-02-08T10:19:07.000Z</time>
      </trkpt>
      <trkpt lat="43.04805" lon="-0.3486">
        <ele>1358.5</ele>
        <time>2026-02-08T10:19:10.000Z</time>
      </trkpt>
      <trkpt lat="43.04805" lon="-0.3486">
        <ele>1358.5</ele>
        <time>2026-02-08T10:19:12.000Z</time>
      </trkpt>
      <trkpt lat="43.04805" lon="-0.3486">
        <ele>1358.5</ele>
        <time>2026-02-08T10:19:13.000Z</time>
      </trkpt>
      <trkpt lat="43.04804" lon="-0.3486">
        <ele>1358.5</ele>
        <time>2026-02-08T10:19:14.000Z</time>
      </trkpt>
      <trkpt lat="43.04804" lon="-0.3486">
        <ele>1358.6</ele>
        <time>2026-02-08T10:19:17.000Z</time>
      </trkpt>
      <trkpt lat="43.04804" lon="-0.3486">
        <ele>1358.6</ele>
        <time>2026-02-08T10:19:18.000Z</time>
      </trkpt>
      <trkpt lat="43.04804" lon="-0.3486">
        <ele>1358.6</ele>
        <time>2026-02-08T10:19:21.000Z</time>
      </trkpt>
      <trkpt lat="43.04804" lon="-0.3486">
        <ele>1358.6</ele>
        <time>2026-02-08T10:19:22.000Z</time>
      </trkpt>
      <trkpt lat="43.04804" lon="-0.3486">
        <ele>1358.6</ele>
        <time>2026-02-08T10:19:23.000Z</time>
      </trkpt>
      <trkpt lat="43.04804" lon="-0.3486">
        <ele>1358.7</ele>
        <time>2026-02-08T10:19:26.000Z</time>
      </trkpt>
      <trkpt lat="43.04804" lon="-0.3486">
        <ele>1358.7</ele>
        <time>2026-02-08T10:19:29.000Z</time>
      </trkpt>
      <trkpt lat="43.04804" lon="-0.3486">
        <ele>1358.5</ele>
        <time>2026-02-08T10:19:32.000Z</time>
      </trkpt>
      <trkpt lat="43.04804" lon="-0.3486">
        <ele>1358.5</ele>
        <time>2026-02-08T10:19:33.000Z</time>
      </trkpt>
      <trkpt lat="43.04804" lon="-0.3486">
        <ele>1358.4</ele>
        <time>2026-02-08T10:19:34.000Z</time>
      </trkpt>
      <trkpt lat="43.04804" lon="-0.3486">
        <ele>1358.4</ele>
        <time>2026-02-08T10:19:35.000Z</time>
      </trkpt>
      <trkpt lat="43.04804" lon="-0.3486">
        <ele>1358.4</ele>
        <time>2026-02-08T10:19:36.000Z</time>
      </trkpt>
      <trkpt lat="43.04804" lon="-0.3486">
        <ele>1358.5</ele>
        <time>2026-02-08T10:19:39.000Z</time>
      </trkpt>
      <trkpt lat="43.04804" lon="-0.3486">
        <ele>1358.5</ele>
        <time>2026-02-08T10:19:40.000Z</time>
      </trkpt>
      <trkpt lat="43.04804" lon="-0.3486">
        <ele>1358.5</ele>
        <time>2026-02-08T10:19:41.000Z</time>
      </trkpt>
      <trkpt lat="43.04804" lon="-0.3486">
        <ele>1358.5</ele>
        <time>2026-02-08T10:19:44.000Z</time>
      </trkpt>
      <trkpt lat="43.04804" lon="-0.34859">
        <ele>1358.5</ele>
        <time>2026-02-08T10:19:47.000Z</time>
      </trkpt>
      <trkpt lat="43.04804" lon="-0.34862">
        <ele>1358.6</ele>
        <time>2026-02-08T10:19:50.000Z</time>
      </trkpt>
      <trkpt lat="43.04805" lon="-0.34866">
        <ele>1358.6</ele>
        <time>2026-02-08T10:19:53.000Z</time>
      </trkpt>
      <trkpt lat="43.04806" lon="-0.34868">
        <ele>1358.6</ele>
        <time>2026-02-08T10:19:56.000Z</time>
      </trkpt>
      <trkpt lat="43.04808" lon="-0.34868">
        <ele>1358.7</ele>
        <time>2026-02-08T10:19:59.000Z</time>
      </trkpt>
      <trkpt lat="43.0481" lon="-0.3487">
        <ele>1358.7</ele>
        <time>2026-02-08T10:20:02.000Z</time>
      </trkpt>
      <trkpt lat="43.04811" lon="-0.34874">
        <ele>1358.8</ele>
        <time>2026-02-08T10:20:05.000Z</time>
      </trkpt>
      <trkpt lat="43.04812" lon="-0.34873">
        <ele>1358.9</ele>
        <time>2026-02-08T10:20:08.000Z</time>
      </trkpt>
      <trkpt lat="43.04812" lon="-0.34871">
        <ele>1359.1</ele>
        <time>2026-02-08T10:20:11.000Z</time>
      </trkpt>
      <trkpt lat="43.04812" lon="-0.34871">
        <ele>1359.4</ele>
        <time>2026-02-08T10:20:14.000Z</time>
      </trkpt>
      <trkpt lat="43.04811" lon="-0.3487">
        <ele>1359.8</ele>
        <time>2026-02-08T10:20:17.000Z</time>
      </trkpt>
      <trkpt lat="43.04811" lon="-0.3487">
        <ele>1360</ele>
        <time>2026-02-08T10:20:20.000Z</time>
      </trkpt>
      <trkpt lat="43.0481" lon="-0.34869">
        <ele>1360.2</ele>
        <time>2026-02-08T10:20:23.000Z</time>
      </trkpt>
      <trkpt lat="43.04808" lon="-0.34869">
        <ele>1360.3</ele>
        <time>2026-02-08T10:20:26.000Z</time>
      </trkpt>
      <trkpt lat="43.04808" lon="-0.34868">
        <ele>1360.5</ele>
        <time>2026-02-08T10:20:29.000Z</time>
      </trkpt>
      <trkpt lat="43.04808" lon="-0.34868">
        <ele>1360.5</ele>
        <time>2026-02-08T10:20:30.000Z</time>
      </trkpt>
      <trkpt lat="43.04808" lon="-0.34867">
        <ele>1360.5</ele>
        <time>2026-02-08T10:20:33.000Z</time>
      </trkpt>
      <trkpt lat="43.04808" lon="-0.34867">
        <ele>1360.5</ele>
        <time>2026-02-08T10:20:34.000Z</time>
      </trkpt>
      <trkpt lat="43.04808" lon="-0.34867">
        <ele>1360.5</ele>
        <time>2026-02-08T10:20:35.000Z</time>
      </trkpt>
      <trkpt lat="43.04809" lon="-0.34867">
        <ele>1360.6</ele>
        <time>2026-02-08T10:20:36.000Z</time>
      </trkpt>
      <trkpt lat="43.04808" lon="-0.34867">
        <ele>1360.6</ele>
        <time>2026-02-08T10:20:37.000Z</time>
      </trkpt>
      <trkpt lat="43.04808" lon="-0.34866">
        <ele>1360.6</ele>
        <time>2026-02-08T10:20:38.000Z</time>
      </trkpt>
      <trkpt lat="43.04809" lon="-0.34866">
        <ele>1360.6</ele>
        <time>2026-02-08T10:20:41.000Z</time>
      </trkpt>
      <trkpt lat="43.04809" lon="-0.34866">
        <ele>1360.6</ele>
        <time>2026-02-08T10:20:42.000Z</time>
      </trkpt>
      <trkpt lat="43.04809" lon="-0.34866">
        <ele>1360.6</ele>
        <time>2026-02-08T10:20:43.000Z</time>
      </trkpt>
      <trkpt lat="43.04809" lon="-0.34866">
        <ele>1360.7</ele>
        <time>2026-02-08T10:20:46.000Z</time>
      </trkpt>
      <trkpt lat="43.04809" lon="-0.34867">
        <ele>1360.7</ele>
        <time>2026-02-08T10:20:49.000Z</time>
      </trkpt>
      <trkpt lat="43.04808" lon="-0.34867">
        <ele>1360.7</ele>
        <time>2026-02-08T10:20:52.000Z</time>
      </trkpt>
      <trkpt lat="43.0481" lon="-0.34867">
        <ele>1360.7</ele>
        <time>2026-02-08T10:20:54.000Z</time>
      </trkpt>
      <trkpt lat="43.0481" lon="-0.34868">
        <ele>1360.7</ele>
        <time>2026-02-08T10:20:55.000Z</time>
      </trkpt>
      <trkpt lat="43.04816" lon="-0.3487">
        <ele>1360.7</ele>
        <time>2026-02-08T10:20:58.000Z</time>
      </trkpt>
      <trkpt lat="43.04817" lon="-0.3487">
        <ele>1360.7</ele>
        <time>2026-02-08T10:20:59.000Z</time>
      </trkpt>
      <trkpt lat="43.04817" lon="-0.3487">
        <ele>1360.7</ele>
        <time>2026-02-08T10:21:00.000Z</time>
      </trkpt>
      <trkpt lat="43.04817" lon="-0.34869">
        <ele>1360.7</ele>
        <time>2026-02-08T10:21:01.000Z</time>
      </trkpt>
      <trkpt lat="43.04817" lon="-0.34869">
        <ele>1360.7</ele>
        <time>2026-02-08T10:21:02.000Z</time>
      </trkpt>
      <trkpt lat="43.04818" lon="-0.34869">
        <ele>1360.7</ele>
        <time>2026-02-08T10:21:03.000Z</time>
      </trkpt>
      <trkpt lat="43.04818" lon="-0.34869">
        <ele>1360.7</ele>
        <time>2026-02-08T10:21:04.000Z</time>
      </trkpt>
      <trkpt lat="43.04817" lon="-0.34869">
        <ele>1360.7</ele>
        <time>2026-02-08T10:21:05.000Z</time>
      </trkpt>
      <trkpt lat="43.04816" lon="-0.34869">
        <ele>1360.7</ele>
        <time>2026-02-08T10:21:06.000Z</time>
      </trkpt>
      <trkpt lat="43.04815" lon="-0.34869">
        <ele>1360.7</ele>
        <time>2026-02-08T10:21:07.000Z</time>
      </trkpt>
      <trkpt lat="43.04814" lon="-0.34869">
        <ele>1360.7</ele>
        <time>2026-02-08T10:21:08.000Z</time>
      </trkpt>
      <trkpt lat="43.04813" lon="-0.34869">
        <ele>1360.7</ele>
        <time>2026-02-08T10:21:09.000Z</time>
      </trkpt>
      <trkpt lat="43.04812" lon="-0.34869">
        <ele>1360.8</ele>
        <time>2026-02-08T10:21:12.000Z</time>
      </trkpt>
      <trkpt lat="43.04811" lon="-0.34868">
        <ele>1360.8</ele>
        <time>2026-02-08T10:21:15.000Z</time>
      </trkpt>
      <trkpt lat="43.0481" lon="-0.34868">
        <ele>1360.8</ele>
        <time>2026-02-08T10:21:18.000Z</time>
      </trkpt>
      <trkpt lat="43.04809" lon="-0.34868">
        <ele>1360.8</ele>
        <time>2026-02-08T10:21:21.000Z</time>
      </trkpt>
      <trkpt lat="43.04808" lon="-0.34868">
        <ele>1360.8</ele>
        <time>2026-02-08T10:21:22.000Z</time>
      </trkpt>
      <trkpt lat="43.04808" lon="-0.34868">
        <ele>1360.8</ele>
        <time>2026-02-08T10:21:23.000Z</time>
      </trkpt>
      <trkpt lat="43.04809" lon="-0.34868">
        <ele>1360.9</ele>
        <time>2026-02-08T10:21:26.000Z</time>
      </trkpt>
      <trkpt lat="43.0481" lon="-0.3487">
        <ele>1360.9</ele>
        <time>2026-02-08T10:21:29.000Z</time>
      </trkpt>
      <trkpt lat="43.0481" lon="-0.3487">
        <ele>1360.9</ele>
        <time>2026-02-08T10:21:32.000Z</time>
      </trkpt>
      <trkpt lat="43.04808" lon="-0.3487">
        <ele>1360.9</ele>
        <time>2026-02-08T10:21:33.000Z</time>
      </trkpt>
      <trkpt lat="43.04808" lon="-0.34869">
        <ele>1360.9</ele>
        <time>2026-02-08T10:21:34.000Z</time>
      </trkpt>
      <trkpt lat="43.04806" lon="-0.34869">
        <ele>1360.9</ele>
        <time>2026-02-08T10:21:35.000Z</time>
      </trkpt>
      <trkpt lat="43.04807" lon="-0.34867">
        <ele>1360.9</ele>
        <time>2026-02-08T10:21:36.000Z</time>
      </trkpt>
      <trkpt lat="43.04809" lon="-0.34867">
        <ele>1360.8</ele>
        <time>2026-02-08T10:21:39.000Z</time>
      </trkpt>
      <trkpt lat="43.04809" lon="-0.34867">
        <ele>1360.8</ele>
        <time>2026-02-08T10:21:40.000Z</time>
      </trkpt>
      <trkpt lat="43.04811" lon="-0.34866">
        <ele>1360.9</ele>
        <time>2026-02-08T10:21:43.000Z</time>
      </trkpt>
      <trkpt lat="43.04811" lon="-0.34866">
        <ele>1360.9</ele>
        <time>2026-02-08T10:21:46.000Z</time>
      </trkpt>
      <trkpt lat="43.04811" lon="-0.34866">
        <ele>1360.9</ele>
        <time>2026-02-08T10:21:47.000Z</time>
      </trkpt>
      <trkpt lat="43.04812" lon="-0.34866">
        <ele>1360.9</ele>
        <time>2026-02-08T10:21:48.000Z</time>
      </trkpt>
      <trkpt lat="43.04812" lon="-0.34866">
        <ele>1360.9</ele>
        <time>2026-02-08T10:21:51.000Z</time>
      </trkpt>
      <trkpt lat="43.04812" lon="-0.34865">
        <ele>1360.9</ele>
        <time>2026-02-08T10:21:54.000Z</time>
      </trkpt>
      <trkpt lat="43.04812" lon="-0.34865">
        <ele>1360.9</ele>
        <time>2026-02-08T10:21:55.000Z</time>
      </trkpt>
      <trkpt lat="43.04812" lon="-0.34865">
        <ele>1360.9</ele>
        <time>2026-02-08T10:21:56.000Z</time>
      </trkpt>
      <trkpt lat="43.04812" lon="-0.34865">
        <ele>1360.9</ele>
        <time>2026-02-08T10:21:57.000Z</time>
      </trkpt>
      <trkpt lat="43.04812" lon="-0.34865">
        <ele>1360.9</ele>
        <time>2026-02-08T10:21:58.000Z</time>
      </trkpt>
      <trkpt lat="43.04812" lon="-0.34865">
        <ele>1360.7</ele>
        <time>2026-02-08T10:22:01.000Z</time>
      </trkpt>
      <trkpt lat="43.04811" lon="-0.34864">
        <ele>1360.6</ele>
        <time>2026-02-08T10:22:04.000Z</time>
      </trkpt>
      <trkpt lat="43.0481" lon="-0.34864">
        <ele>1360.7</ele>
        <time>2026-02-08T10:22:07.000Z</time>
      </trkpt>
      <trkpt lat="43.0481" lon="-0.34864">
        <ele>1360.7</ele>
        <time>2026-02-08T10:22:08.000Z</time>
      </trkpt>
      <trkpt lat="43.0481" lon="-0.34864">
        <ele>1360.7</ele>
        <time>2026-02-08T10:22:09.000Z</time>
      </trkpt>
      <trkpt lat="43.0481" lon="-0.34864">
        <ele>1360.7</ele>
        <time>2026-02-08T10:22:10.000Z</time>
      </trkpt>
      <trkpt lat="43.04809" lon="-0.34865">
        <ele>1360.8</ele>
        <time>2026-02-08T10:22:13.000Z</time>
      </trkpt>
      <trkpt lat="43.04809" lon="-0.34866">
        <ele>1360.8</ele>
        <time>2026-02-08T10:22:14.000Z</time>
      </trkpt>
      <trkpt lat="43.04808" lon="-0.34866">
        <ele>1360.8</ele>
        <time>2026-02-08T10:22:15.000Z</time>
      </trkpt>
      <trkpt lat="43.04808" lon="-0.34867">
        <ele>1360.8</ele>
        <time>2026-02-08T10:22:18.000Z</time>
      </trkpt>
      <trkpt lat="43.04808" lon="-0.34867">
        <ele>1360.9</ele>
        <time>2026-02-08T10:22:21.000Z</time>
      </trkpt>
      <trkpt lat="43.04808" lon="-0.34866">
        <ele>1360.9</ele>
        <time>2026-02-08T10:22:22.000Z</time>
      </trkpt>
      <trkpt lat="43.04807" lon="-0.34866">
        <ele>1360.9</ele>
        <time>2026-02-08T10:22:23.000Z</time>
      </trkpt>
      <trkpt lat="43.04807" lon="-0.34866">
        <ele>1360.9</ele>
        <time>2026-02-08T10:22:24.000Z</time>
      </trkpt>
      <trkpt lat="43.04806" lon="-0.34866">
        <ele>1360.9</ele>
        <time>2026-02-08T10:22:25.000Z</time>
      </trkpt>
      <trkpt lat="43.04806" lon="-0.34866">
        <ele>1361</ele>
        <time>2026-02-08T10:22:26.000Z</time>
      </trkpt>
      <trkpt lat="43.04805" lon="-0.34867">
        <ele>1361.1</ele>
        <time>2026-02-08T10:22:29.000Z</time>
      </trkpt>
      <trkpt lat="43.04804" lon="-0.34869">
        <ele>1361.1</ele>
        <time>2026-02-08T10:22:32.000Z</time>
      </trkpt>
      <trkpt lat="43.04804" lon="-0.34869">
        <ele>1361.1</ele>
        <time>2026-02-08T10:22:35.000Z</time>
      </trkpt>
      <trkpt lat="43.04804" lon="-0.3487">
        <ele>1361</ele>
        <time>2026-02-08T10:22:38.000Z</time>
      </trkpt>
      <trkpt lat="43.04804" lon="-0.3487">
        <ele>1360.9</ele>
        <time>2026-02-08T10:22:41.000Z</time>
      </trkpt>
      <trkpt lat="43.04806" lon="-0.3487">
        <ele>1361</ele>
        <time>2026-02-08T10:22:44.000Z</time>
      </trkpt>
      <trkpt lat="43.04806" lon="-0.3487">
        <ele>1361</ele>
        <time>2026-02-08T10:22:47.000Z</time>
      </trkpt>
      <trkpt lat="43.04809" lon="-0.3487">
        <ele>1361</ele>
        <time>2026-02-08T10:22:50.000Z</time>
      </trkpt>
      <trkpt lat="43.04809" lon="-0.3487">
        <ele>1361</ele>
        <time>2026-02-08T10:22:53.000Z</time>
      </trkpt>
      <trkpt lat="43.04811" lon="-0.34869">
        <ele>1361</ele>
        <time>2026-02-08T10:22:56.000Z</time>
      </trkpt>
      <trkpt lat="43.0481" lon="-0.34869">
        <ele>1361</ele>
        <time>2026-02-08T10:22:59.000Z</time>
      </trkpt>
      <trkpt lat="43.04808" lon="-0.34869">
        <ele>1360.9</ele>
        <time>2026-02-08T10:23:02.000Z</time>
      </trkpt>
      <trkpt lat="43.04808" lon="-0.3487">
        <ele>1360.9</ele>
        <time>2026-02-08T10:23:05.000Z</time>
      </trkpt>
      <trkpt lat="43.04809" lon="-0.34871">
        <ele>1360.9</ele>
        <time>2026-02-08T10:23:08.000Z</time>
      </trkpt>
      <trkpt lat="43.04809" lon="-0.34872">
        <ele>1360.8</ele>
        <time>2026-02-08T10:23:11.000Z</time>
      </trkpt>
      <trkpt lat="43.04807" lon="-0.34872">
        <ele>1360.8</ele>
        <time>2026-02-08T10:23:14.000Z</time>
      </trkpt>
      <trkpt lat="43.04808" lon="-0.34871">
        <ele>1360.8</ele>
        <time>2026-02-08T10:23:17.000Z</time>
      </trkpt>
      <trkpt lat="43.04811" lon="-0.3487">
        <ele>1360.7</ele>
        <time>2026-02-08T10:23:20.000Z</time>
      </trkpt>
      <trkpt lat="43.04811" lon="-0.3487">
        <ele>1360.7</ele>
        <time>2026-02-08T10:23:21.000Z</time>
      </trkpt>
      <trkpt lat="43.0481" lon="-0.3487">
        <ele>1360.7</ele>
        <time>2026-02-08T10:23:22.000Z</time>
      </trkpt>
      <trkpt lat="43.04809" lon="-0.3487">
        <ele>1360.7</ele>
        <time>2026-02-08T10:23:23.000Z</time>
      </trkpt>
      <trkpt lat="43.0481" lon="-0.3487">
        <ele>1360.7</ele>
        <time>2026-02-08T10:23:24.000Z</time>
      </trkpt>
      <trkpt lat="43.04809" lon="-0.3487">
        <ele>1360.7</ele>
        <time>2026-02-08T10:23:25.000Z</time>
      </trkpt>
      <trkpt lat="43.0481" lon="-0.3487">
        <ele>1360.8</ele>
        <time>2026-02-08T10:23:26.000Z</time>
      </trkpt>
      <trkpt lat="43.04812" lon="-0.3487">
        <ele>1360.8</ele>
        <time>2026-02-08T10:23:29.000Z</time>
      </trkpt>
      <trkpt lat="43.04812" lon="-0.3487">
        <ele>1360.8</ele>
        <time>2026-02-08T10:23:32.000Z</time>
      </trkpt>
      <trkpt lat="43.04813" lon="-0.3487">
        <ele>1360.8</ele>
        <time>2026-02-08T10:23:34.000Z</time>
      </trkpt>
      <trkpt lat="43.04813" lon="-0.34869">
        <ele>1360.8</ele>
        <time>2026-02-08T10:23:35.000Z</time>
      </trkpt>
      <trkpt lat="43.04812" lon="-0.34869">
        <ele>1360.8</ele>
        <time>2026-02-08T10:23:36.000Z</time>
      </trkpt>
      <trkpt lat="43.04811" lon="-0.34868">
        <ele>1360.8</ele>
        <time>2026-02-08T10:23:37.000Z</time>
      </trkpt>
      <trkpt lat="43.04811" lon="-0.34868">
        <ele>1360.8</ele>
        <time>2026-02-08T10:23:38.000Z</time>
      </trkpt>
      <trkpt lat="43.0481" lon="-0.34868">
        <ele>1360.8</ele>
        <time>2026-02-08T10:23:41.000Z</time>
      </trkpt>
      <trkpt lat="43.0481" lon="-0.34869">
        <ele>1360.8</ele>
        <time>2026-02-08T10:23:42.000Z</time>
      </trkpt>
      <trkpt lat="43.04811" lon="-0.34868">
        <ele>1360.8</ele>
        <time>2026-02-08T10:23:43.000Z</time>
      </trkpt>
      <trkpt lat="43.04812" lon="-0.34869">
        <ele>1360.8</ele>
        <time>2026-02-08T10:23:46.000Z</time>
      </trkpt>
      <trkpt lat="43.04812" lon="-0.34869">
        <ele>1360.8</ele>
        <time>2026-02-08T10:23:47.000Z</time>
      </trkpt>
      <trkpt lat="43.04812" lon="-0.34869">
        <ele>1360.8</ele>
        <time>2026-02-08T10:23:48.000Z</time>
      </trkpt>
      <trkpt lat="43.04812" lon="-0.34869">
        <ele>1360.8</ele>
        <time>2026-02-08T10:23:51.000Z</time>
      </trkpt>
      <trkpt lat="43.04812" lon="-0.34869">
        <ele>1360.8</ele>
        <time>2026-02-08T10:23:54.000Z</time>
      </trkpt>
      <trkpt lat="43.04813" lon="-0.34869">
        <ele>1360.8</ele>
        <time>2026-02-08T10:23:56.000Z</time>
      </trkpt>
      <trkpt lat="43.04813" lon="-0.34868">
        <ele>1360.8</ele>
        <time>2026-02-08T10:23:57.000Z</time>
      </trkpt>
      <trkpt lat="43.04813" lon="-0.34868">
        <ele>1360.8</ele>
        <time>2026-02-08T10:23:58.000Z</time>
      </trkpt>
      <trkpt lat="43.04813" lon="-0.34868">
        <ele>1360.8</ele>
        <time>2026-02-08T10:23:59.000Z</time>
      </trkpt>
      <trkpt lat="43.04813" lon="-0.34868">
        <ele>1360.8</ele>
        <time>2026-02-08T10:24:02.000Z</time>
      </trkpt>
      <trkpt lat="43.04813" lon="-0.34868">
        <ele>1360.8</ele>
        <time>2026-02-08T10:24:05.000Z</time>
      </trkpt>
      <trkpt lat="43.04811" lon="-0.34868">
        <ele>1360.8</ele>
        <time>2026-02-08T10:24:07.000Z</time>
      </trkpt>
      <trkpt lat="43.04812" lon="-0.34867">
        <ele>1360.8</ele>
        <time>2026-02-08T10:24:08.000Z</time>
      </trkpt>
      <trkpt lat="43.04812" lon="-0.34867">
        <ele>1360.8</ele>
        <time>2026-02-08T10:24:09.000Z</time>
      </trkpt>
      <trkpt lat="43.04812" lon="-0.34867">
        <ele>1360.8</ele>
        <time>2026-02-08T10:24:10.000Z</time>
      </trkpt>
      <trkpt lat="43.04811" lon="-0.34868">
        <ele>1360.8</ele>
        <time>2026-02-08T10:24:11.000Z</time>
      </trkpt>
      <trkpt lat="43.04811" lon="-0.34868">
        <ele>1360.7</ele>
        <time>2026-02-08T10:24:14.000Z</time>
      </trkpt>
      <trkpt lat="43.04812" lon="-0.34869">
        <ele>1360.7</ele>
        <time>2026-02-08T10:24:16.000Z</time>
      </trkpt>
      <trkpt lat="43.04812" lon="-0.34869">
        <ele>1360.7</ele>
        <time>2026-02-08T10:24:17.000Z</time>
      </trkpt>
      <trkpt lat="43.04812" lon="-0.34869">
        <ele>1360.7</ele>
        <time>2026-02-08T10:24:18.000Z</time>
      </trkpt>
      <trkpt lat="43.04812" lon="-0.34869">
        <ele>1360.7</ele>
        <time>2026-02-08T10:24:21.000Z</time>
      </trkpt>
      <trkpt lat="43.04813" lon="-0.34869">
        <ele>1360.7</ele>
        <time>2026-02-08T10:24:22.000Z</time>
      </trkpt>
      <trkpt lat="43.04813" lon="-0.34868">
        <ele>1360.7</ele>
        <time>2026-02-08T10:24:23.000Z</time>
      </trkpt>
      <trkpt lat="43.04813" lon="-0.34868">
        <ele>1360.7</ele>
        <time>2026-02-08T10:24:24.000Z</time>
      </trkpt>
      <trkpt lat="43.04813" lon="-0.34867">
        <ele>1360.7</ele>
        <time>2026-02-08T10:24:27.000Z</time>
      </trkpt>
      <trkpt lat="43.04814" lon="-0.34866">
        <ele>1360.7</ele>
        <time>2026-02-08T10:24:30.000Z</time>
      </trkpt>
      <trkpt lat="43.04813" lon="-0.34866">
        <ele>1360.7</ele>
        <time>2026-02-08T10:24:33.000Z</time>
      </trkpt>
      <trkpt lat="43.04812" lon="-0.34866">
        <ele>1360.7</ele>
        <time>2026-02-08T10:24:36.000Z</time>
      </trkpt>
      <trkpt lat="43.04812" lon="-0.34866">
        <ele>1360.7</ele>
        <time>2026-02-08T10:24:39.000Z</time>
      </trkpt>
      <trkpt lat="43.04812" lon="-0.34866">
        <ele>1360.7</ele>
        <time>2026-02-08T10:24:42.000Z</time>
      </trkpt>
      <trkpt lat="43.04812" lon="-0.34866">
        <ele>1360.6</ele>
        <time>2026-02-08T10:24:45.000Z</time>
      </trkpt>
      <trkpt lat="43.0481" lon="-0.34867">
        <ele>1360.6</ele>
        <time>2026-02-08T10:24:48.000Z</time>
      </trkpt>
      <trkpt lat="43.0481" lon="-0.34866">
        <ele>1360.6</ele>
        <time>2026-02-08T10:24:49.000Z</time>
      </trkpt>
      <trkpt lat="43.04811" lon="-0.34866">
        <ele>1360.6</ele>
        <time>2026-02-08T10:24:50.000Z</time>
      </trkpt>
      <trkpt lat="43.04811" lon="-0.34865">
        <ele>1360.6</ele>
        <time>2026-02-08T10:24:51.000Z</time>
      </trkpt>
      <trkpt lat="43.04811" lon="-0.34866">
        <ele>1360.6</ele>
        <time>2026-02-08T10:24:52.000Z</time>
      </trkpt>
      <trkpt lat="43.04811" lon="-0.34865">
        <ele>1360.6</ele>
        <time>2026-02-08T10:24:53.000Z</time>
      </trkpt>
      <trkpt lat="43.0481" lon="-0.34864">
        <ele>1360.6</ele>
        <time>2026-02-08T10:24:56.000Z</time>
      </trkpt>
      <trkpt lat="43.04808" lon="-0.34865">
        <ele>1360.6</ele>
        <time>2026-02-08T10:24:59.000Z</time>
      </trkpt>
      <trkpt lat="43.04806" lon="-0.34864">
        <ele>1360.6</ele>
        <time>2026-02-08T10:25:02.000Z</time>
      </trkpt>
      <trkpt lat="43.04806" lon="-0.34864">
        <ele>1360.5</ele>
        <time>2026-02-08T10:25:05.000Z</time>
      </trkpt>
      <trkpt lat="43.04808" lon="-0.34865">
        <ele>1360.5</ele>
        <time>2026-02-08T10:25:08.000Z</time>
      </trkpt>
      <trkpt lat="43.0481" lon="-0.34864">
        <ele>1360.4</ele>
        <time>2026-02-08T10:25:11.000Z</time>
      </trkpt>
      <trkpt lat="43.04809" lon="-0.34863">
        <ele>1360.4</ele>
        <time>2026-02-08T10:25:14.000Z</time>
      </trkpt>
      <trkpt lat="43.04809" lon="-0.34862">
        <ele>1360.4</ele>
        <time>2026-02-08T10:25:17.000Z</time>
      </trkpt>
      <trkpt lat="43.04808" lon="-0.34863">
        <ele>1360.4</ele>
        <time>2026-02-08T10:25:20.000Z</time>
      </trkpt>
      <trkpt lat="43.0481" lon="-0.34863">
        <ele>1360.4</ele>
        <time>2026-02-08T10:25:23.000Z</time>
      </trkpt>
      <trkpt lat="43.04813" lon="-0.34864">
        <ele>1360.4</ele>
        <time>2026-02-08T10:25:26.000Z</time>
      </trkpt>
      <trkpt lat="43.04814" lon="-0.34864">
        <ele>1360.4</ele>
        <time>2026-02-08T10:25:29.000Z</time>
      </trkpt>
      <trkpt lat="43.04815" lon="-0.34863">
        <ele>1360.3</ele>
        <time>2026-02-08T10:25:32.000Z</time>
      </trkpt>
      <trkpt lat="43.04816" lon="-0.34865">
        <ele>1360.4</ele>
        <time>2026-02-08T10:25:35.000Z</time>
      </trkpt>
      <trkpt lat="43.04816" lon="-0.34865">
        <ele>1360.4</ele>
        <time>2026-02-08T10:25:38.000Z</time>
      </trkpt>
      <trkpt lat="43.04815" lon="-0.34864">
        <ele>1360.4</ele>
        <time>2026-02-08T10:25:41.000Z</time>
      </trkpt>
      <trkpt lat="43.04815" lon="-0.34864">
        <ele>1360.4</ele>
        <time>2026-02-08T10:25:44.000Z</time>
      </trkpt>
      <trkpt lat="43.04815" lon="-0.34863">
        <ele>1360.4</ele>
        <time>2026-02-08T10:25:47.000Z</time>
      </trkpt>
      <trkpt lat="43.04814" lon="-0.34865">
        <ele>1360.4</ele>
        <time>2026-02-08T10:25:50.000Z</time>
      </trkpt>
      <trkpt lat="43.04815" lon="-0.34866">
        <ele>1360.4</ele>
        <time>2026-02-08T10:25:53.000Z</time>
      </trkpt>
      <trkpt lat="43.04817" lon="-0.34868">
        <ele>1360.4</ele>
        <time>2026-02-08T10:25:56.000Z</time>
      </trkpt>
      <trkpt lat="43.04817" lon="-0.34868">
        <ele>1360.4</ele>
        <time>2026-02-08T10:25:57.000Z</time>
      </trkpt>
      <trkpt lat="43.04818" lon="-0.34868">
        <ele>1360.4</ele>
        <time>2026-02-08T10:25:58.000Z</time>
      </trkpt>
      <trkpt lat="43.04818" lon="-0.34867">
        <ele>1360.4</ele>
        <time>2026-02-08T10:25:59.000Z</time>
      </trkpt>
      <trkpt lat="43.04819" lon="-0.34867">
        <ele>1360.4</ele>
        <time>2026-02-08T10:26:00.000Z</time>
      </trkpt>
      <trkpt lat="43.04819" lon="-0.34868">
        <ele>1360.4</ele>
        <time>2026-02-08T10:26:03.000Z</time>
      </trkpt>
      <trkpt lat="43.04818" lon="-0.34868">
        <ele>1360.4</ele>
        <time>2026-02-08T10:26:06.000Z</time>
      </trkpt>
      <trkpt lat="43.04819" lon="-0.34867">
        <ele>1360.4</ele>
        <time>2026-02-08T10:26:09.000Z</time>
      </trkpt>
      <trkpt lat="43.04819" lon="-0.34865">
        <ele>1360.3</ele>
        <time>2026-02-08T10:26:12.000Z</time>
      </trkpt>
      <trkpt lat="43.04821" lon="-0.34864">
        <ele>1360.3</ele>
        <time>2026-02-08T10:26:15.000Z</time>
      </trkpt>
      <trkpt lat="43.0482" lon="-0.34863">
        <ele>1360.4</ele>
        <time>2026-02-08T10:26:18.000Z</time>
      </trkpt>
      <trkpt lat="43.04819" lon="-0.34863">
        <ele>1360.4</ele>
        <time>2026-02-08T10:26:21.000Z</time>
      </trkpt>
      <trkpt lat="43.04818" lon="-0.34862">
        <ele>1360.4</ele>
        <time>2026-02-08T10:26:24.000Z</time>
      </trkpt>
      <trkpt lat="43.04819" lon="-0.34862">
        <ele>1360.5</ele>
        <time>2026-02-08T10:26:27.000Z</time>
      </trkpt>
      <trkpt lat="43.04818" lon="-0.34863">
        <ele>1360.5</ele>
        <time>2026-02-08T10:26:30.000Z</time>
      </trkpt>
      <trkpt lat="43.04816" lon="-0.34866">
        <ele>1360.5</ele>
        <time>2026-02-08T10:26:33.000Z</time>
      </trkpt>
      <trkpt lat="43.04815" lon="-0.34865">
        <ele>1360.5</ele>
        <time>2026-02-08T10:26:36.000Z</time>
      </trkpt>
      <trkpt lat="43.04817" lon="-0.34868">
        <ele>1360.5</ele>
        <time>2026-02-08T10:26:39.000Z</time>
      </trkpt>
      <trkpt lat="43.04816" lon="-0.34867">
        <ele>1360.5</ele>
        <time>2026-02-08T10:26:42.000Z</time>
      </trkpt>
      <trkpt lat="43.04813" lon="-0.34866">
        <ele>1360.5</ele>
        <time>2026-02-08T10:26:45.000Z</time>
      </trkpt>
      <trkpt lat="43.04812" lon="-0.34868">
        <ele>1360.5</ele>
        <time>2026-02-08T10:26:48.000Z</time>
      </trkpt>
      <trkpt lat="43.04811" lon="-0.34871">
        <ele>1360.5</ele>
        <time>2026-02-08T10:26:51.000Z</time>
      </trkpt>
      <trkpt lat="43.04812" lon="-0.34871">
        <ele>1360.5</ele>
        <time>2026-02-08T10:26:54.000Z</time>
      </trkpt>
      <trkpt lat="43.04812" lon="-0.34871">
        <ele>1360.5</ele>
        <time>2026-02-08T10:26:55.000Z</time>
      </trkpt>
      <trkpt lat="43.04814" lon="-0.3487">
        <ele>1360.4</ele>
        <time>2026-02-08T10:26:58.000Z</time>
      </trkpt>
      <trkpt lat="43.04811" lon="-0.34869">
        <ele>1360.4</ele>
        <time>2026-02-08T10:27:01.000Z</time>
      </trkpt>
      <trkpt lat="43.04809" lon="-0.3487">
        <ele>1360.4</ele>
        <time>2026-02-08T10:27:04.000Z</time>
      </trkpt>
      <trkpt lat="43.04802" lon="-0.34865">
        <ele>1360.4</ele>
        <time>2026-02-08T10:27:08.000Z</time>
      </trkpt>
      <trkpt lat="43.04805" lon="-0.34866">
        <ele>1360.5</ele>
        <time>2026-02-08T10:27:11.000Z</time>
      </trkpt>
      <trkpt lat="43.04808" lon="-0.34867">
        <ele>1360.4</ele>
        <time>2026-02-08T10:27:14.000Z</time>
      </trkpt>
      <trkpt lat="43.04809" lon="-0.34867">
        <ele>1360.4</ele>
        <time>2026-02-08T10:27:17.000Z</time>
      </trkpt>
      <trkpt lat="43.0481" lon="-0.34868">
        <ele>1360.5</ele>
        <time>2026-02-08T10:27:20.000Z</time>
      </trkpt>
      <trkpt lat="43.04813" lon="-0.3487">
        <ele>1360.5</ele>
        <time>2026-02-08T10:27:23.000Z</time>
      </trkpt>
      <trkpt lat="43.04814" lon="-0.34869">
        <ele>1360.5</ele>
        <time>2026-02-08T10:27:25.000Z</time>
      </trkpt>
      <trkpt lat="43.04815" lon="-0.34869">
        <ele>1360.5</ele>
        <time>2026-02-08T10:27:26.000Z</time>
      </trkpt>
      <trkpt lat="43.04818" lon="-0.34869">
        <ele>1360.5</ele>
        <time>2026-02-08T10:27:29.000Z</time>
      </trkpt>
      <trkpt lat="43.04819" lon="-0.34869">
        <ele>1360.5</ele>
        <time>2026-02-08T10:27:32.000Z</time>
      </trkpt>
      <trkpt lat="43.0482" lon="-0.34869">
        <ele>1360.5</ele>
        <time>2026-02-08T10:27:35.000Z</time>
      </trkpt>
      <trkpt lat="43.04819" lon="-0.34868">
        <ele>1360.4</ele>
        <time>2026-02-08T10:27:38.000Z</time>
      </trkpt>
      <trkpt lat="43.04818" lon="-0.34869">
        <ele>1360.4</ele>
        <time>2026-02-08T10:27:39.000Z</time>
      </trkpt>
      <trkpt lat="43.04817" lon="-0.34869">
        <ele>1360.5</ele>
        <time>2026-02-08T10:27:40.000Z</time>
      </trkpt>
      <trkpt lat="43.04816" lon="-0.34867">
        <ele>1360.5</ele>
        <time>2026-02-08T10:27:43.000Z</time>
      </trkpt>
      <trkpt lat="43.04817" lon="-0.34867">
        <ele>1360.5</ele>
        <time>2026-02-08T10:27:46.000Z</time>
      </trkpt>
      <trkpt lat="43.04812" lon="-0.34868">
        <ele>1360.5</ele>
        <time>2026-02-08T10:27:49.000Z</time>
      </trkpt>
      <trkpt lat="43.04813" lon="-0.34867">
        <ele>1360.5</ele>
        <time>2026-02-08T10:27:50.000Z</time>
      </trkpt>
      <trkpt lat="43.04813" lon="-0.34867">
        <ele>1360.5</ele>
        <time>2026-02-08T10:27:51.000Z</time>
      </trkpt>
      <trkpt lat="43.04815" lon="-0.34867">
        <ele>1360.5</ele>
        <time>2026-02-08T10:27:54.000Z</time>
      </trkpt>
      <trkpt lat="43.04816" lon="-0.34868">
        <ele>1360.5</ele>
        <time>2026-02-08T10:27:57.000Z</time>
      </trkpt>
      <trkpt lat="43.04815" lon="-0.34867">
        <ele>1360.5</ele>
        <time>2026-02-08T10:28:00.000Z</time>
      </trkpt>
      <trkpt lat="43.04813" lon="-0.34867">
        <ele>1360.5</ele>
        <time>2026-02-08T10:28:01.000Z</time>
      </trkpt>
      <trkpt lat="43.0481" lon="-0.34867">
        <ele>1360.5</ele>
        <time>2026-02-08T10:28:02.000Z</time>
      </trkpt>
      <trkpt lat="43.04808" lon="-0.34867">
        <ele>1360.5</ele>
        <time>2026-02-08T10:28:03.000Z</time>
      </trkpt>
      <trkpt lat="43.04806" lon="-0.34867">
        <ele>1360.5</ele>
        <time>2026-02-08T10:28:04.000Z</time>
      </trkpt>
      <trkpt lat="43.04805" lon="-0.34868">
        <ele>1360.5</ele>
        <time>2026-02-08T10:28:05.000Z</time>
      </trkpt>
      <trkpt lat="43.04805" lon="-0.34867">
        <ele>1360.5</ele>
        <time>2026-02-08T10:28:08.000Z</time>
      </trkpt>
      <trkpt lat="43.04801" lon="-0.34866">
        <ele>1360.5</ele>
        <time>2026-02-08T10:28:11.000Z</time>
      </trkpt>
      <trkpt lat="43.04799" lon="-0.34867">
        <ele>1360.4</ele>
        <time>2026-02-08T10:28:14.000Z</time>
      </trkpt>
      <trkpt lat="43.04798" lon="-0.34866">
        <ele>1360.4</ele>
        <time>2026-02-08T10:28:17.000Z</time>
      </trkpt>
      <trkpt lat="43.048" lon="-0.34866">
        <ele>1360.4</ele>
        <time>2026-02-08T10:28:20.000Z</time>
      </trkpt>
      <trkpt lat="43.04802" lon="-0.34867">
        <ele>1360.4</ele>
        <time>2026-02-08T10:28:23.000Z</time>
      </trkpt>
      <trkpt lat="43.04804" lon="-0.34867">
        <ele>1360.4</ele>
        <time>2026-02-08T10:28:26.000Z</time>
      </trkpt>
      <trkpt lat="43.04806" lon="-0.34868">
        <ele>1360.4</ele>
        <time>2026-02-08T10:28:29.000Z</time>
      </trkpt>
      <trkpt lat="43.04808" lon="-0.34869">
        <ele>1360.4</ele>
        <time>2026-02-08T10:28:32.000Z</time>
      </trkpt>
      <trkpt lat="43.04808" lon="-0.34869">
        <ele>1360.4</ele>
        <time>2026-02-08T10:28:33.000Z</time>
      </trkpt>
      <trkpt lat="43.04809" lon="-0.3487">
        <ele>1360.4</ele>
        <time>2026-02-08T10:28:34.000Z</time>
      </trkpt>
      <trkpt lat="43.04809" lon="-0.34869">
        <ele>1360.3</ele>
        <time>2026-02-08T10:28:37.000Z</time>
      </trkpt>
      <trkpt lat="43.04807" lon="-0.34871">
        <ele>1360.4</ele>
        <time>2026-02-08T10:28:40.000Z</time>
      </trkpt>
      <trkpt lat="43.04807" lon="-0.34871">
        <ele>1360.4</ele>
        <time>2026-02-08T10:28:41.000Z</time>
      </trkpt>
      <trkpt lat="43.04808" lon="-0.34871">
        <ele>1360.4</ele>
        <time>2026-02-08T10:28:42.000Z</time>
      </trkpt>
      <trkpt lat="43.04808" lon="-0.34871">
        <ele>1360.4</ele>
        <time>2026-02-08T10:28:43.000Z</time>
      </trkpt>
      <trkpt lat="43.04811" lon="-0.3487">
        <ele>1360.4</ele>
        <time>2026-02-08T10:28:46.000Z</time>
      </trkpt>
      <trkpt lat="43.04808" lon="-0.34869">
        <ele>1360.5</ele>
        <time>2026-02-08T10:28:49.000Z</time>
      </trkpt>
      <trkpt lat="43.04806" lon="-0.34868">
        <ele>1360.5</ele>
        <time>2026-02-08T10:28:50.000Z</time>
      </trkpt>
      <trkpt lat="43.04806" lon="-0.34868">
        <ele>1360.5</ele>
        <time>2026-02-08T10:28:51.000Z</time>
      </trkpt>
      <trkpt lat="43.04806" lon="-0.34868">
        <ele>1360.5</ele>
        <time>2026-02-08T10:28:52.000Z</time>
      </trkpt>
      <trkpt lat="43.04807" lon="-0.34868">
        <ele>1360.5</ele>
        <time>2026-02-08T10:28:53.000Z</time>
      </trkpt>
      <trkpt lat="43.04807" lon="-0.34869">
        <ele>1360.5</ele>
        <time>2026-02-08T10:28:54.000Z</time>
      </trkpt>
      <trkpt lat="43.04807" lon="-0.34869">
        <ele>1360.6</ele>
        <time>2026-02-08T10:28:57.000Z</time>
      </trkpt>
      <trkpt lat="43.04807" lon="-0.34869">
        <ele>1360.5</ele>
        <time>2026-02-08T10:29:00.000Z</time>
      </trkpt>
      <trkpt lat="43.04808" lon="-0.34868">
        <ele>1360.5</ele>
        <time>2026-02-08T10:29:01.000Z</time>
      </trkpt>
      <trkpt lat="43.04808" lon="-0.34868">
        <ele>1360.4</ele>
        <time>2026-02-08T10:29:02.000Z</time>
      </trkpt>
      <trkpt lat="43.04808" lon="-0.34868">
        <ele>1360.3</ele>
        <time>2026-02-08T10:29:03.000Z</time>
      </trkpt>
      <trkpt lat="43.04808" lon="-0.34868">
        <ele>1360.3</ele>
        <time>2026-02-08T10:29:06.000Z</time>
      </trkpt>
      <trkpt lat="43.04808" lon="-0.34868">
        <ele>1360.3</ele>
        <time>2026-02-08T10:29:07.000Z</time>
      </trkpt>
      <trkpt lat="43.04809" lon="-0.34868">
        <ele>1360.3</ele>
        <time>2026-02-08T10:29:08.000Z</time>
      </trkpt>
      <trkpt lat="43.04807" lon="-0.34868">
        <ele>1360.3</ele>
        <time>2026-02-08T10:29:09.000Z</time>
      </trkpt>
      <trkpt lat="43.04806" lon="-0.34869">
        <ele>1360.3</ele>
        <time>2026-02-08T10:29:12.000Z</time>
      </trkpt>
      <trkpt lat="43.04806" lon="-0.3487">
        <ele>1360.4</ele>
        <time>2026-02-08T10:29:15.000Z</time>
      </trkpt>
      <trkpt lat="43.04807" lon="-0.34869">
        <ele>1360.4</ele>
        <time>2026-02-08T10:29:18.000Z</time>
      </trkpt>
      <trkpt lat="43.04808" lon="-0.34869">
        <ele>1360.5</ele>
        <time>2026-02-08T10:29:19.000Z</time>
      </trkpt>
      <trkpt lat="43.04808" lon="-0.34869">
        <ele>1360.5</ele>
        <time>2026-02-08T10:29:20.000Z</time>
      </trkpt>
      <trkpt lat="43.04808" lon="-0.34869">
        <ele>1360.5</ele>
        <time>2026-02-08T10:29:21.000Z</time>
      </trkpt>
      <trkpt lat="43.0481" lon="-0.34871">
        <ele>1360.6</ele>
        <time>2026-02-08T10:29:24.000Z</time>
      </trkpt>
      <trkpt lat="43.0481" lon="-0.34876">
        <ele>1360.6</ele>
        <time>2026-02-08T10:29:27.000Z</time>
      </trkpt>
      <trkpt lat="43.04811" lon="-0.34877">
        <ele>1360.6</ele>
        <time>2026-02-08T10:29:30.000Z</time>
      </trkpt>
      <trkpt lat="43.04812" lon="-0.34878">
        <ele>1360.4</ele>
        <time>2026-02-08T10:29:33.000Z</time>
      </trkpt>
      <trkpt lat="43.04811" lon="-0.34878">
        <ele>1360.3</ele>
        <time>2026-02-08T10:29:36.000Z</time>
      </trkpt>
      <trkpt lat="43.04809" lon="-0.34876">
        <ele>1360</ele>
        <time>2026-02-08T10:29:39.000Z</time>
      </trkpt>
      <trkpt lat="43.04808" lon="-0.34874">
        <ele>1359.6</ele>
        <time>2026-02-08T10:29:42.000Z</time>
      </trkpt>
      <trkpt lat="43.04807" lon="-0.34873">
        <ele>1359.4</ele>
        <time>2026-02-08T10:29:45.000Z</time>
      </trkpt>
      <trkpt lat="43.04807" lon="-0.34872">
        <ele>1359</ele>
        <time>2026-02-08T10:29:48.000Z</time>
      </trkpt>
      <trkpt lat="43.04806" lon="-0.34871">
        <ele>1359.1</ele>
        <time>2026-02-08T10:29:51.000Z</time>
      </trkpt>
      <trkpt lat="43.04807" lon="-0.34871">
        <ele>1358.8</ele>
        <time>2026-02-08T10:29:54.000Z</time>
      </trkpt>
      <trkpt lat="43.04807" lon="-0.34871">
        <ele>1358.6</ele>
        <time>2026-02-08T10:29:57.000Z</time>
      </trkpt>
      <trkpt lat="43.04807" lon="-0.34871">
        <ele>1358.6</ele>
        <time>2026-02-08T10:29:59.000Z</time>
      </trkpt>
      <trkpt lat="43.04807" lon="-0.34871">
        <ele>1358.6</ele>
        <time>2026-02-08T10:30:00.000Z</time>
      </trkpt>
      <trkpt lat="43.04807" lon="-0.34871">
        <ele>1358.6</ele>
        <time>2026-02-08T10:30:01.000Z</time>
      </trkpt>
      <trkpt lat="43.04807" lon="-0.3487">
        <ele>1358.5</ele>
        <time>2026-02-08T10:30:04.000Z</time>
      </trkpt>
      <trkpt lat="43.04808" lon="-0.34869">
        <ele>1358.5</ele>
        <time>2026-02-08T10:30:07.000Z</time>
      </trkpt>
      <trkpt lat="43.04808" lon="-0.34869">
        <ele>1358.6</ele>
        <time>2026-02-08T10:30:10.000Z</time>
      </trkpt>
      <trkpt lat="43.04808" lon="-0.34868">
        <ele>1358.6</ele>
        <time>2026-02-08T10:30:11.000Z</time>
      </trkpt>
      <trkpt lat="43.04808" lon="-0.34868">
        <ele>1358.6</ele>
        <time>2026-02-08T10:30:12.000Z</time>
      </trkpt>
      <trkpt lat="43.04808" lon="-0.34867">
        <ele>1358.6</ele>
        <time>2026-02-08T10:30:13.000Z</time>
      </trkpt>
      <trkpt lat="43.04808" lon="-0.34867">
        <ele>1358.6</ele>
        <time>2026-02-08T10:30:14.000Z</time>
      </trkpt>
      <trkpt lat="43.04807" lon="-0.34868">
        <ele>1358.6</ele>
        <time>2026-02-08T10:30:17.000Z</time>
      </trkpt>
      <trkpt lat="43.04808" lon="-0.34869">
        <ele>1358.6</ele>
        <time>2026-02-08T10:30:20.000Z</time>
      </trkpt>
      <trkpt lat="43.04808" lon="-0.3487">
        <ele>1358.6</ele>
        <time>2026-02-08T10:30:23.000Z</time>
      </trkpt>
      <trkpt lat="43.04808" lon="-0.3487">
        <ele>1358.6</ele>
        <time>2026-02-08T10:30:25.000Z</time>
      </trkpt>
      <trkpt lat="43.04808" lon="-0.3487">
        <ele>1358.6</ele>
        <time>2026-02-08T10:30:26.000Z</time>
      </trkpt>
      <trkpt lat="43.04806" lon="-0.34867">
        <ele>1358.7</ele>
        <time>2026-02-08T10:30:29.000Z</time>
      </trkpt>
      <trkpt lat="43.04805" lon="-0.34861">
        <ele>1358.6</ele>
        <time>2026-02-08T10:30:32.000Z</time>
      </trkpt>
      <trkpt lat="43.04806" lon="-0.34859">
        <ele>1358.6</ele>
        <time>2026-02-08T10:30:35.000Z</time>
      </trkpt>
      <trkpt lat="43.04807" lon="-0.3486">
        <ele>1358.5</ele>
        <time>2026-02-08T10:30:38.000Z</time>
      </trkpt>
      <trkpt lat="43.04806" lon="-0.34861">
        <ele>1358.4</ele>
        <time>2026-02-08T10:30:41.000Z</time>
      </trkpt>
      <trkpt lat="43.04807" lon="-0.34861">
        <ele>1358.4</ele>
        <time>2026-02-08T10:30:42.000Z</time>
      </trkpt>
      <trkpt lat="43.04807" lon="-0.34861">
        <ele>1358.4</ele>
        <time>2026-02-08T10:30:43.000Z</time>
      </trkpt>
      <trkpt lat="43.04806" lon="-0.34861">
        <ele>1358.3</ele>
        <time>2026-02-08T10:30:46.000Z</time>
      </trkpt>
      <trkpt lat="43.04806" lon="-0.34861">
        <ele>1358.3</ele>
        <time>2026-02-08T10:30:49.000Z</time>
      </trkpt>
      <trkpt lat="43.04805" lon="-0.34862">
        <ele>1358.3</ele>
        <time>2026-02-08T10:30:51.000Z</time>
      </trkpt>
      <trkpt lat="43.04805" lon="-0.34861">
        <ele>1358.3</ele>
        <time>2026-02-08T10:30:52.000Z</time>
      </trkpt>
      <trkpt lat="43.04805" lon="-0.34862">
        <ele>1358.3</ele>
        <time>2026-02-08T10:30:53.000Z</time>
      </trkpt>
      <trkpt lat="43.04804" lon="-0.34862">
        <ele>1358.3</ele>
        <time>2026-02-08T10:30:56.000Z</time>
      </trkpt>
      <trkpt lat="43.04804" lon="-0.34863">
        <ele>1358.3</ele>
        <time>2026-02-08T10:30:59.000Z</time>
      </trkpt>
      <trkpt lat="43.04805" lon="-0.34864">
        <ele>1358.2</ele>
        <time>2026-02-08T10:31:00.000Z</time>
      </trkpt>
      <trkpt lat="43.04805" lon="-0.34865">
        <ele>1358.1</ele>
        <time>2026-02-08T10:31:01.000Z</time>
      </trkpt>
      <trkpt lat="43.04805" lon="-0.34865">
        <ele>1358.1</ele>
        <time>2026-02-08T10:31:02.000Z</time>
      </trkpt>
      <trkpt lat="43.04804" lon="-0.34865">
        <ele>1358.1</ele>
        <time>2026-02-08T10:31:03.000Z</time>
      </trkpt>
      <trkpt lat="43.04804" lon="-0.34865">
        <ele>1358.1</ele>
        <time>2026-02-08T10:31:04.000Z</time>
      </trkpt>
      <trkpt lat="43.04804" lon="-0.34865">
        <ele>1358.1</ele>
        <time>2026-02-08T10:31:05.000Z</time>
      </trkpt>
      <trkpt lat="43.04804" lon="-0.34865">
        <ele>1358.1</ele>
        <time>2026-02-08T10:31:06.000Z</time>
      </trkpt>
      <trkpt lat="43.04804" lon="-0.34865">
        <ele>1358.1</ele>
        <time>2026-02-08T10:31:07.000Z</time>
      </trkpt>
      <trkpt lat="43.04804" lon="-0.34864">
        <ele>1358.1</ele>
        <time>2026-02-08T10:31:08.000Z</time>
      </trkpt>
      <trkpt lat="43.04804" lon="-0.34864">
        <ele>1358.1</ele>
        <time>2026-02-08T10:31:09.000Z</time>
      </trkpt>
      <trkpt lat="43.04803" lon="-0.34864">
        <ele>1358.1</ele>
        <time>2026-02-08T10:31:10.000Z</time>
      </trkpt>
      <trkpt lat="43.04803" lon="-0.34863">
        <ele>1358.1</ele>
        <time>2026-02-08T10:31:11.000Z</time>
      </trkpt>
      <trkpt lat="43.04804" lon="-0.34863">
        <ele>1358.1</ele>
        <time>2026-02-08T10:31:12.000Z</time>
      </trkpt>
      <trkpt lat="43.04803" lon="-0.34863">
        <ele>1358.1</ele>
        <time>2026-02-08T10:31:13.000Z</time>
      </trkpt>
      <trkpt lat="43.04804" lon="-0.34867">
        <ele>1358.1</ele>
        <time>2026-02-08T10:31:16.000Z</time>
      </trkpt>
      <trkpt lat="43.04804" lon="-0.34867">
        <ele>1358.1</ele>
        <time>2026-02-08T10:31:19.000Z</time>
      </trkpt>
      <trkpt lat="43.04803" lon="-0.34868">
        <ele>1358.1</ele>
        <time>2026-02-08T10:31:22.000Z</time>
      </trkpt>
      <trkpt lat="43.04803" lon="-0.34868">
        <ele>1358.1</ele>
        <time>2026-02-08T10:31:23.000Z</time>
      </trkpt>
      <trkpt lat="43.04803" lon="-0.34868">
        <ele>1358.1</ele>
        <time>2026-02-08T10:31:24.000Z</time>
      </trkpt>
      <trkpt lat="43.04804" lon="-0.34868">
        <ele>1358.1</ele>
        <time>2026-02-08T10:31:27.000Z</time>
      </trkpt>
      <trkpt lat="43.04803" lon="-0.34868">
        <ele>1358.1</ele>
        <time>2026-02-08T10:31:30.000Z</time>
      </trkpt>
      <trkpt lat="43.04803" lon="-0.34868">
        <ele>1358</ele>
        <time>2026-02-08T10:31:31.000Z</time>
      </trkpt>
      <trkpt lat="43.04804" lon="-0.34868">
        <ele>1358</ele>
        <time>2026-02-08T10:31:34.000Z</time>
      </trkpt>
      <trkpt lat="43.04804" lon="-0.34867">
        <ele>1358</ele>
        <time>2026-02-08T10:31:35.000Z</time>
      </trkpt>
      <trkpt lat="43.04804" lon="-0.34867">
        <ele>1358</ele>
        <time>2026-02-08T10:31:36.000Z</time>
      </trkpt>
      <trkpt lat="43.04805" lon="-0.34868">
        <ele>1358</ele>
        <time>2026-02-08T10:31:39.000Z</time>
      </trkpt>
      <trkpt lat="43.04805" lon="-0.34868">
        <ele>1358</ele>
        <time>2026-02-08T10:31:40.000Z</time>
      </trkpt>
      <trkpt lat="43.04805" lon="-0.34868">
        <ele>1357.9</ele>
        <time>2026-02-08T10:31:41.000Z</time>
      </trkpt>
      <trkpt lat="43.04805" lon="-0.34868">
        <ele>1357.9</ele>
        <time>2026-02-08T10:31:42.000Z</time>
      </trkpt>
      <trkpt lat="43.04805" lon="-0.34868">
        <ele>1357.9</ele>
        <time>2026-02-08T10:31:43.000Z</time>
      </trkpt>
      <trkpt lat="43.04805" lon="-0.34867">
        <ele>1357.9</ele>
        <time>2026-02-08T10:31:46.000Z</time>
      </trkpt>
      <trkpt lat="43.04805" lon="-0.34867">
        <ele>1357.9</ele>
        <time>2026-02-08T10:31:49.000Z</time>
      </trkpt>
      <trkpt lat="43.04805" lon="-0.34867">
        <ele>1357.9</ele>
        <time>2026-02-08T10:31:52.000Z</time>
      </trkpt>
      <trkpt lat="43.04805" lon="-0.34867">
        <ele>1357.9</ele>
        <time>2026-02-08T10:31:55.000Z</time>
      </trkpt>
      <trkpt lat="43.04805" lon="-0.34866">
        <ele>1357.9</ele>
        <time>2026-02-08T10:31:58.000Z</time>
      </trkpt>
      <trkpt lat="43.04805" lon="-0.34866">
        <ele>1357.9</ele>
        <time>2026-02-08T10:32:01.000Z</time>
      </trkpt>
      <trkpt lat="43.04805" lon="-0.34866">
        <ele>1357.8</ele>
        <time>2026-02-08T10:32:04.000Z</time>
      </trkpt>
      <trkpt lat="43.04805" lon="-0.34866">
        <ele>1357.8</ele>
        <time>2026-02-08T10:32:07.000Z</time>
      </trkpt>
      <trkpt lat="43.04805" lon="-0.34866">
        <ele>1357.8</ele>
        <time>2026-02-08T10:32:10.000Z</time>
      </trkpt>
      <trkpt lat="43.04805" lon="-0.34867">
        <ele>1357.8</ele>
        <time>2026-02-08T10:32:13.000Z</time>
      </trkpt>
      <trkpt lat="43.04805" lon="-0.34866">
        <ele>1357.8</ele>
        <time>2026-02-08T10:32:15.000Z</time>
      </trkpt>
      <trkpt lat="43.04805" lon="-0.34866">
        <ele>1357.8</ele>
        <time>2026-02-08T10:32:16.000Z</time>
      </trkpt>
      <trkpt lat="43.04805" lon="-0.34866">
        <ele>1357.8</ele>
        <time>2026-02-08T10:32:17.000Z</time>
      </trkpt>
      <trkpt lat="43.04805" lon="-0.34866">
        <ele>1357.8</ele>
        <time>2026-02-08T10:32:18.000Z</time>
      </trkpt>
      <trkpt lat="43.04805" lon="-0.34866">
        <ele>1357.8</ele>
        <time>2026-02-08T10:32:21.000Z</time>
      </trkpt>
      <trkpt lat="43.04805" lon="-0.34866">
        <ele>1357.8</ele>
        <time>2026-02-08T10:32:24.000Z</time>
      </trkpt>
      <trkpt lat="43.04805" lon="-0.34866">
        <ele>1357.8</ele>
        <time>2026-02-08T10:32:27.000Z</time>
      </trkpt>
      <trkpt lat="43.04805" lon="-0.34866">
        <ele>1357.8</ele>
        <time>2026-02-08T10:32:30.000Z</time>
      </trkpt>
      <trkpt lat="43.04805" lon="-0.34866">
        <ele>1357.8</ele>
        <time>2026-02-08T10:32:33.000Z</time>
      </trkpt>
      <trkpt lat="43.04805" lon="-0.34866">
        <ele>1357.8</ele>
        <time>2026-02-08T10:32:36.000Z</time>
      </trkpt>
      <trkpt lat="43.04805" lon="-0.34866">
        <ele>1357.8</ele>
        <time>2026-02-08T10:32:39.000Z</time>
      </trkpt>
      <trkpt lat="43.04806" lon="-0.34867">
        <ele>1357.8</ele>
        <time>2026-02-08T10:32:42.000Z</time>
      </trkpt>
      <trkpt lat="43.04806" lon="-0.34867">
        <ele>1357.8</ele>
        <time>2026-02-08T10:32:45.000Z</time>
      </trkpt>
      <trkpt lat="43.04806" lon="-0.34866">
        <ele>1357.8</ele>
        <time>2026-02-08T10:32:48.000Z</time>
      </trkpt>
      <trkpt lat="43.04806" lon="-0.34867">
        <ele>1357.8</ele>
        <time>2026-02-08T10:32:51.000Z</time>
      </trkpt>
      <trkpt lat="43.04806" lon="-0.34867">
        <ele>1357.8</ele>
        <time>2026-02-08T10:32:52.000Z</time>
      </trkpt>
      <trkpt lat="43.04806" lon="-0.34867">
        <ele>1357.8</ele>
        <time>2026-02-08T10:32:53.000Z</time>
      </trkpt>
      <trkpt lat="43.04803" lon="-0.34868">
        <ele>1357.7</ele>
        <time>2026-02-08T10:32:56.000Z</time>
      </trkpt>
      <trkpt lat="43.04799" lon="-0.34869">
        <ele>1357.7</ele>
        <time>2026-02-08T10:32:59.000Z</time>
      </trkpt>
      <trkpt lat="43.04795" lon="-0.3487">
        <ele>1357.6</ele>
        <time>2026-02-08T10:33:02.000Z</time>
      </trkpt>
      <trkpt lat="43.04792" lon="-0.34871">
        <ele>1357.5</ele>
        <time>2026-02-08T10:33:05.000Z</time>
      </trkpt>
      <trkpt lat="43.04788" lon="-0.34872">
        <ele>1357.4</ele>
        <time>2026-02-08T10:33:08.000Z</time>
      </trkpt>
      <trkpt lat="43.04785" lon="-0.34874">
        <ele>1357.3</ele>
        <time>2026-02-08T10:33:11.000Z</time>
      </trkpt>
      <trkpt lat="43.04783" lon="-0.34876">
        <ele>1357.1</ele>
        <time>2026-02-08T10:33:14.000Z</time>
      </trkpt>
      <trkpt lat="43.0478" lon="-0.34877">
        <ele>1356.9</ele>
        <time>2026-02-08T10:33:17.000Z</time>
      </trkpt>
      <trkpt lat="43.04778" lon="-0.34879">
        <ele>1356.5</ele>
        <time>2026-02-08T10:33:20.000Z</time>
      </trkpt>
      <trkpt lat="43.04776" lon="-0.34881">
        <ele>1356</ele>
        <time>2026-02-08T10:33:23.000Z</time>
      </trkpt>
      <trkpt lat="43.04775" lon="-0.34884">
        <ele>1355.5</ele>
        <time>2026-02-08T10:33:26.000Z</time>
      </trkpt>
      <trkpt lat="43.04773" lon="-0.34887">
        <ele>1354.9</ele>
        <time>2026-02-08T10:33:29.000Z</time>
      </trkpt>
      <trkpt lat="43.04773" lon="-0.34891">
        <ele>1354.2</ele>
        <time>2026-02-08T10:33:32.000Z</time>
      </trkpt>
      <trkpt lat="43.04772" lon="-0.34895">
        <ele>1353.7</ele>
        <time>2026-02-08T10:33:35.000Z</time>
      </trkpt>
      <trkpt lat="43.04771" lon="-0.34899">
        <ele>1353.4</ele>
        <time>2026-02-08T10:33:38.000Z</time>
      </trkpt>
      <trkpt lat="43.0477" lon="-0.34903">
        <ele>1352.9</ele>
        <time>2026-02-08T10:33:41.000Z</time>
      </trkpt>
      <trkpt lat="43.04769" lon="-0.34907">
        <ele>1352.5</ele>
        <time>2026-02-08T10:33:44.000Z</time>
      </trkpt>
      <trkpt lat="43.04769" lon="-0.34913">
        <ele>1352.1</ele>
        <time>2026-02-08T10:33:47.000Z</time>
      </trkpt>
      <trkpt lat="43.04768" lon="-0.34917">
        <ele>1351.7</ele>
        <time>2026-02-08T10:33:50.000Z</time>
      </trkpt>
      <trkpt lat="43.04768" lon="-0.34922">
        <ele>1351.3</ele>
        <time>2026-02-08T10:33:53.000Z</time>
      </trkpt>
      <trkpt lat="43.04768" lon="-0.34927">
        <ele>1351</ele>
        <time>2026-02-08T10:33:56.000Z</time>
      </trkpt>
      <trkpt lat="43.04768" lon="-0.34931">
        <ele>1350.7</ele>
        <time>2026-02-08T10:33:59.000Z</time>
      </trkpt>
      <trkpt lat="43.04768" lon="-0.34935">
        <ele>1350.4</ele>
        <time>2026-02-08T10:34:02.000Z</time>
      </trkpt>
      <trkpt lat="43.04769" lon="-0.3494">
        <ele>1350.2</ele>
        <time>2026-02-08T10:34:05.000Z</time>
      </trkpt>
      <trkpt lat="43.0477" lon="-0.34945">
        <ele>1350.1</ele>
        <time>2026-02-08T10:34:08.000Z</time>
      </trkpt>
      <trkpt lat="43.0477" lon="-0.3495">
        <ele>1349.8</ele>
        <time>2026-02-08T10:34:11.000Z</time>
      </trkpt>
      <trkpt lat="43.0477" lon="-0.34955">
        <ele>1349.5</ele>
        <time>2026-02-08T10:34:14.000Z</time>
      </trkpt>
      <trkpt lat="43.04771" lon="-0.3496">
        <ele>1349.3</ele>
        <time>2026-02-08T10:34:17.000Z</time>
      </trkpt>
      <trkpt lat="43.04772" lon="-0.34964">
        <ele>1349.1</ele>
        <time>2026-02-08T10:34:20.000Z</time>
      </trkpt>
      <trkpt lat="43.04773" lon="-0.34967">
        <ele>1349</ele>
        <time>2026-02-08T10:34:23.000Z</time>
      </trkpt>
      <trkpt lat="43.04773" lon="-0.34967">
        <ele>1349</ele>
        <time>2026-02-08T10:34:26.000Z</time>
      </trkpt>
      <trkpt lat="43.04773" lon="-0.34967">
        <ele>1348.9</ele>
        <time>2026-02-08T10:34:27.000Z</time>
      </trkpt>
      <trkpt lat="43.04773" lon="-0.34967">
        <ele>1348.9</ele>
        <time>2026-02-08T10:34:28.000Z</time>
      </trkpt>
      <trkpt lat="43.04773" lon="-0.34967">
        <ele>1348.9</ele>
        <time>2026-02-08T10:34:31.000Z</time>
      </trkpt>
      <trkpt lat="43.04773" lon="-0.34967">
        <ele>1348.9</ele>
        <time>2026-02-08T10:34:32.000Z</time>
      </trkpt>
      <trkpt lat="43.04773" lon="-0.34966">
        <ele>1348.9</ele>
        <time>2026-02-08T10:34:33.000Z</time>
      </trkpt>
      <trkpt lat="43.04774" lon="-0.34965">
        <ele>1348.9</ele>
        <time>2026-02-08T10:34:36.000Z</time>
      </trkpt>
      <trkpt lat="43.04774" lon="-0.34966">
        <ele>1348.9</ele>
        <time>2026-02-08T10:34:37.000Z</time>
      </trkpt>
      <trkpt lat="43.04775" lon="-0.34966">
        <ele>1348.9</ele>
        <time>2026-02-08T10:34:38.000Z</time>
      </trkpt>
      <trkpt lat="43.04775" lon="-0.34966">
        <ele>1348.9</ele>
        <time>2026-02-08T10:34:39.000Z</time>
      </trkpt>
      <trkpt lat="43.04776" lon="-0.34967">
        <ele>1348.9</ele>
        <time>2026-02-08T10:34:40.000Z</time>
      </trkpt>
      <trkpt lat="43.04778" lon="-0.34968">
        <ele>1348.9</ele>
        <time>2026-02-08T10:34:43.000Z</time>
      </trkpt>
      <trkpt lat="43.0478" lon="-0.34969">
        <ele>1348.9</ele>
        <time>2026-02-08T10:34:46.000Z</time>
      </trkpt>
      <trkpt lat="43.04782" lon="-0.34972">
        <ele>1348.9</ele>
        <time>2026-02-08T10:34:49.000Z</time>
      </trkpt>
      <trkpt lat="43.04784" lon="-0.34975">
        <ele>1348.9</ele>
        <time>2026-02-08T10:34:52.000Z</time>
      </trkpt>
      <trkpt lat="43.04787" lon="-0.34978">
        <ele>1348.8</ele>
        <time>2026-02-08T10:34:55.000Z</time>
      </trkpt>
      <trkpt lat="43.04789" lon="-0.34981">
        <ele>1348.7</ele>
        <time>2026-02-08T10:34:58.000Z</time>
      </trkpt>
      <trkpt lat="43.04791" lon="-0.34984">
        <ele>1348.6</ele>
        <time>2026-02-08T10:35:01.000Z</time>
      </trkpt>
      <trkpt lat="43.04794" lon="-0.34987">
        <ele>1348.5</ele>
        <time>2026-02-08T10:35:04.000Z</time>
      </trkpt>
      <trkpt lat="43.04796" lon="-0.34991">
        <ele>1348.2</ele>
        <time>2026-02-08T10:35:07.000Z</time>
      </trkpt>
      <trkpt lat="43.04798" lon="-0.34995">
        <ele>1347.9</ele>
        <time>2026-02-08T10:35:10.000Z</time>
      </trkpt>
      <trkpt lat="43.04799" lon="-0.34999">
        <ele>1347.4</ele>
        <time>2026-02-08T10:35:13.000Z</time>
      </trkpt>
      <trkpt lat="43.04801" lon="-0.35003">
        <ele>1346.6</ele>
        <time>2026-02-08T10:35:16.000Z</time>
      </trkpt>
      <trkpt lat="43.04802" lon="-0.35007">
        <ele>1345.7</ele>
        <time>2026-02-08T10:35:19.000Z</time>
      </trkpt>
      <trkpt lat="43.04803" lon="-0.35012">
        <ele>1345.1</ele>
        <time>2026-02-08T10:35:22.000Z</time>
      </trkpt>
      <trkpt lat="43.04804" lon="-0.35016">
        <ele>1344.6</ele>
        <time>2026-02-08T10:35:25.000Z</time>
      </trkpt>
      <trkpt lat="43.04804" lon="-0.35021">
        <ele>1344</ele>
        <time>2026-02-08T10:35:28.000Z</time>
      </trkpt>
      <trkpt lat="43.04805" lon="-0.35026">
        <ele>1343.4</ele>
        <time>2026-02-08T10:35:31.000Z</time>
      </trkpt>
      <trkpt lat="43.04805" lon="-0.35031">
        <ele>1342.9</ele>
        <time>2026-02-08T10:35:34.000Z</time>
      </trkpt>
      <trkpt lat="43.04805" lon="-0.35035">
        <ele>1342.4</ele>
        <time>2026-02-08T10:35:37.000Z</time>
      </trkpt>
      <trkpt lat="43.04805" lon="-0.3504">
        <ele>1342.1</ele>
        <time>2026-02-08T10:35:40.000Z</time>
      </trkpt>
      <trkpt lat="43.04805" lon="-0.35043">
        <ele>1341.8</ele>
        <time>2026-02-08T10:35:43.000Z</time>
      </trkpt>
      <trkpt lat="43.04805" lon="-0.35044">
        <ele>1341.5</ele>
        <time>2026-02-08T10:35:46.000Z</time>
      </trkpt>
      <trkpt lat="43.04805" lon="-0.35043">
        <ele>1341.4</ele>
        <time>2026-02-08T10:35:47.000Z</time>
      </trkpt>
      <trkpt lat="43.04805" lon="-0.35043">
        <ele>1341.4</ele>
        <time>2026-02-08T10:35:48.000Z</time>
      </trkpt>
      <trkpt lat="43.04805" lon="-0.35043">
        <ele>1341.3</ele>
        <time>2026-02-08T10:35:49.000Z</time>
      </trkpt>
      <trkpt lat="43.04805" lon="-0.35043">
        <ele>1341.2</ele>
        <time>2026-02-08T10:35:52.000Z</time>
      </trkpt>
      <trkpt lat="43.04805" lon="-0.35044">
        <ele>1341.2</ele>
        <time>2026-02-08T10:35:53.000Z</time>
      </trkpt>
      <trkpt lat="43.04805" lon="-0.35044">
        <ele>1341.1</ele>
        <time>2026-02-08T10:35:54.000Z</time>
      </trkpt>
      <trkpt lat="43.04805" lon="-0.35044">
        <ele>1341.1</ele>
        <time>2026-02-08T10:35:57.000Z</time>
      </trkpt>
      <trkpt lat="43.04805" lon="-0.35046">
        <ele>1341</ele>
        <time>2026-02-08T10:36:00.000Z</time>
      </trkpt>
      <trkpt lat="43.04805" lon="-0.35051">
        <ele>1340.9</ele>
        <time>2026-02-08T10:36:03.000Z</time>
      </trkpt>
      <trkpt lat="43.04806" lon="-0.35056">
        <ele>1340.7</ele>
        <time>2026-02-08T10:36:06.000Z</time>
      </trkpt>
      <trkpt lat="43.04806" lon="-0.35062">
        <ele>1340.5</ele>
        <time>2026-02-08T10:36:09.000Z</time>
      </trkpt>
      <trkpt lat="43.04806" lon="-0.35067">
        <ele>1340.3</ele>
        <time>2026-02-08T10:36:12.000Z</time>
      </trkpt>
      <trkpt lat="43.04807" lon="-0.35072">
        <ele>1339.9</ele>
        <time>2026-02-08T10:36:15.000Z</time>
      </trkpt>
      <trkpt lat="43.04808" lon="-0.35077">
        <ele>1339.6</ele>
        <time>2026-02-08T10:36:18.000Z</time>
      </trkpt>
      <trkpt lat="43.04809" lon="-0.35081">
        <ele>1339.3</ele>
        <time>2026-02-08T10:36:21.000Z</time>
      </trkpt>
      <trkpt lat="43.0481" lon="-0.35085">
        <ele>1339.1</ele>
        <time>2026-02-08T10:36:24.000Z</time>
      </trkpt>
      <trkpt lat="43.04811" lon="-0.3509">
        <ele>1338.9</ele>
        <time>2026-02-08T10:36:27.000Z</time>
      </trkpt>
      <trkpt lat="43.04813" lon="-0.35093">
        <ele>1338.7</ele>
        <time>2026-02-08T10:36:30.000Z</time>
      </trkpt>
      <trkpt lat="43.04814" lon="-0.35097">
        <ele>1338.5</ele>
        <time>2026-02-08T10:36:33.000Z</time>
      </trkpt>
      <trkpt lat="43.04815" lon="-0.35101">
        <ele>1338.3</ele>
        <time>2026-02-08T10:36:36.000Z</time>
      </trkpt>
      <trkpt lat="43.04817" lon="-0.35105">
        <ele>1338.1</ele>
        <time>2026-02-08T10:36:39.000Z</time>
      </trkpt>
      <trkpt lat="43.04819" lon="-0.3511">
        <ele>1337.8</ele>
        <time>2026-02-08T10:36:42.000Z</time>
      </trkpt>
      <trkpt lat="43.0482" lon="-0.35114">
        <ele>1337.5</ele>
        <time>2026-02-08T10:36:45.000Z</time>
      </trkpt>
      <trkpt lat="43.04821" lon="-0.35118">
        <ele>1337.3</ele>
        <time>2026-02-08T10:36:48.000Z</time>
      </trkpt>
      <trkpt lat="43.04822" lon="-0.35122">
        <ele>1337.1</ele>
        <time>2026-02-08T10:36:51.000Z</time>
      </trkpt>
      <trkpt lat="43.04823" lon="-0.35126">
        <ele>1336.9</ele>
        <time>2026-02-08T10:36:54.000Z</time>
      </trkpt>
      <trkpt lat="43.04825" lon="-0.3513">
        <ele>1336.7</ele>
        <time>2026-02-08T10:36:57.000Z</time>
      </trkpt>
      <trkpt lat="43.04827" lon="-0.35133">
        <ele>1336.4</ele>
        <time>2026-02-08T10:37:00.000Z</time>
      </trkpt>
      <trkpt lat="43.04829" lon="-0.35134">
        <ele>1336</ele>
        <time>2026-02-08T10:37:03.000Z</time>
      </trkpt>
      <trkpt lat="43.04829" lon="-0.35134">
        <ele>1335.5</ele>
        <time>2026-02-08T10:37:06.000Z</time>
      </trkpt>
      <trkpt lat="43.04831" lon="-0.35133">
        <ele>1334.9</ele>
        <time>2026-02-08T10:37:09.000Z</time>
      </trkpt>
      <trkpt lat="43.04834" lon="-0.35133">
        <ele>1334.2</ele>
        <time>2026-02-08T10:37:12.000Z</time>
      </trkpt>
      <trkpt lat="43.04837" lon="-0.35132">
        <ele>1333.3</ele>
        <time>2026-02-08T10:37:15.000Z</time>
      </trkpt>
      <trkpt lat="43.04841" lon="-0.35132">
        <ele>1332.3</ele>
        <time>2026-02-08T10:37:18.000Z</time>
      </trkpt>
      <trkpt lat="43.04844" lon="-0.35134">
        <ele>1331.4</ele>
        <time>2026-02-08T10:37:21.000Z</time>
      </trkpt>
      <trkpt lat="43.04848" lon="-0.35135">
        <ele>1330.7</ele>
        <time>2026-02-08T10:37:24.000Z</time>
      </trkpt>
      <trkpt lat="43.04851" lon="-0.35136">
        <ele>1330.1</ele>
        <time>2026-02-08T10:37:27.000Z</time>
      </trkpt>
      <trkpt lat="43.04854" lon="-0.35137">
        <ele>1329.5</ele>
        <time>2026-02-08T10:37:30.000Z</time>
      </trkpt>
      <trkpt lat="43.04858" lon="-0.35137">
        <ele>1328.9</ele>
        <time>2026-02-08T10:37:33.000Z</time>
      </trkpt>
      <trkpt lat="43.04862" lon="-0.35138">
        <ele>1328.3</ele>
        <time>2026-02-08T10:37:36.000Z</time>
      </trkpt>
      <trkpt lat="43.04865" lon="-0.3514">
        <ele>1327.7</ele>
        <time>2026-02-08T10:37:39.000Z</time>
      </trkpt>
      <trkpt lat="43.04868" lon="-0.35143">
        <ele>1327.3</ele>
        <time>2026-02-08T10:37:42.000Z</time>
      </trkpt>
      <trkpt lat="43.04869" lon="-0.35147">
        <ele>1327</ele>
        <time>2026-02-08T10:37:45.000Z</time>
      </trkpt>
      <trkpt lat="43.04871" lon="-0.35151">
        <ele>1326.9</ele>
        <time>2026-02-08T10:37:48.000Z</time>
      </trkpt>
      <trkpt lat="43.04872" lon="-0.35156">
        <ele>1326.9</ele>
        <time>2026-02-08T10:37:51.000Z</time>
      </trkpt>
      <trkpt lat="43.04872" lon="-0.35161">
        <ele>1326.8</ele>
        <time>2026-02-08T10:37:54.000Z</time>
      </trkpt>
      <trkpt lat="43.04872" lon="-0.35167">
        <ele>1326.8</ele>
        <time>2026-02-08T10:37:57.000Z</time>
      </trkpt>
      <trkpt lat="43.04871" lon="-0.35172">
        <ele>1326.9</ele>
        <time>2026-02-08T10:38:00.000Z</time>
      </trkpt>
      <trkpt lat="43.04871" lon="-0.35178">
        <ele>1326.9</ele>
        <time>2026-02-08T10:38:03.000Z</time>
      </trkpt>
      <trkpt lat="43.0487" lon="-0.35182">
        <ele>1327</ele>
        <time>2026-02-08T10:38:06.000Z</time>
      </trkpt>
      <trkpt lat="43.0487" lon="-0.35185">
        <ele>1327.1</ele>
        <time>2026-02-08T10:38:09.000Z</time>
      </trkpt>
      <trkpt lat="43.04871" lon="-0.35189">
        <ele>1327.2</ele>
        <time>2026-02-08T10:38:12.000Z</time>
      </trkpt>
      <trkpt lat="43.04873" lon="-0.35194">
        <ele>1327.4</ele>
        <time>2026-02-08T10:38:15.000Z</time>
      </trkpt>
      <trkpt lat="43.04875" lon="-0.35197">
        <ele>1327.5</ele>
        <time>2026-02-08T10:38:18.000Z</time>
      </trkpt>
      <trkpt lat="43.04877" lon="-0.35201">
        <ele>1327.7</ele>
        <time>2026-02-08T10:38:21.000Z</time>
      </trkpt>
      <trkpt lat="43.04879" lon="-0.35204">
        <ele>1327.7</ele>
        <time>2026-02-08T10:38:24.000Z</time>
      </trkpt>
      <trkpt lat="43.04882" lon="-0.35209">
        <ele>1327.9</ele>
        <time>2026-02-08T10:38:27.000Z</time>
      </trkpt>
      <trkpt lat="43.04885" lon="-0.35213">
        <ele>1328</ele>
        <time>2026-02-08T10:38:30.000Z</time>
      </trkpt>
      <trkpt lat="43.04887" lon="-0.35216">
        <ele>1328.2</ele>
        <time>2026-02-08T10:38:33.000Z</time>
      </trkpt>
      <trkpt lat="43.0489" lon="-0.35219">
        <ele>1328.3</ele>
        <time>2026-02-08T10:38:36.000Z</time>
      </trkpt>
      <trkpt lat="43.04893" lon="-0.35221">
        <ele>1328.3</ele>
        <time>2026-02-08T10:38:39.000Z</time>
      </trkpt>
      <trkpt lat="43.04895" lon="-0.35225">
        <ele>1328.4</ele>
        <time>2026-02-08T10:38:42.000Z</time>
      </trkpt>
      <trkpt lat="43.04897" lon="-0.35228">
        <ele>1328.4</ele>
        <time>2026-02-08T10:38:45.000Z</time>
      </trkpt>
      <trkpt lat="43.04899" lon="-0.35229">
        <ele>1328.4</ele>
        <time>2026-02-08T10:38:48.000Z</time>
      </trkpt>
      <trkpt lat="43.04901" lon="-0.35232">
        <ele>1328.4</ele>
        <time>2026-02-08T10:38:51.000Z</time>
      </trkpt>
      <trkpt lat="43.04903" lon="-0.35234">
        <ele>1328.4</ele>
        <time>2026-02-08T10:38:54.000Z</time>
      </trkpt>
      <trkpt lat="43.04905" lon="-0.35237">
        <ele>1328.4</ele>
        <time>2026-02-08T10:38:57.000Z</time>
      </trkpt>
      <trkpt lat="43.04907" lon="-0.35241">
        <ele>1328.3</ele>
        <time>2026-02-08T10:39:00.000Z</time>
      </trkpt>
      <trkpt lat="43.0491" lon="-0.35243">
        <ele>1328.3</ele>
        <time>2026-02-08T10:39:03.000Z</time>
      </trkpt>
      <trkpt lat="43.04913" lon="-0.35245">
        <ele>1328.3</ele>
        <time>2026-02-08T10:39:06.000Z</time>
      </trkpt>
      <trkpt lat="43.04916" lon="-0.35248">
        <ele>1328.2</ele>
        <time>2026-02-08T10:39:09.000Z</time>
      </trkpt>
      <trkpt lat="43.04919" lon="-0.3525">
        <ele>1328.2</ele>
        <time>2026-02-08T10:39:12.000Z</time>
      </trkpt>
      <trkpt lat="43.04923" lon="-0.35251">
        <ele>1328.1</ele>
        <time>2026-02-08T10:39:15.000Z</time>
      </trkpt>
      <trkpt lat="43.04927" lon="-0.35253">
        <ele>1328</ele>
        <time>2026-02-08T10:39:18.000Z</time>
      </trkpt>
      <trkpt lat="43.0493" lon="-0.35254">
        <ele>1327.8</ele>
        <time>2026-02-08T10:39:21.000Z</time>
      </trkpt>
      <trkpt lat="43.04933" lon="-0.35255">
        <ele>1327.6</ele>
        <time>2026-02-08T10:39:24.000Z</time>
      </trkpt>
      <trkpt lat="43.04935" lon="-0.35255">
        <ele>1327.2</ele>
        <time>2026-02-08T10:39:27.000Z</time>
      </trkpt>
      <trkpt lat="43.04938" lon="-0.35256">
        <ele>1326.7</ele>
        <time>2026-02-08T10:39:30.000Z</time>
      </trkpt>
      <trkpt lat="43.04941" lon="-0.35257">
        <ele>1326.1</ele>
        <time>2026-02-08T10:39:33.000Z</time>
      </trkpt>
      <trkpt lat="43.04941" lon="-0.35257">
        <ele>1325.4</ele>
        <time>2026-02-08T10:39:36.000Z</time>
      </trkpt>
      <trkpt lat="43.04942" lon="-0.35258">
        <ele>1324.6</ele>
        <time>2026-02-08T10:39:39.000Z</time>
      </trkpt>
      <trkpt lat="43.04942" lon="-0.35258">
        <ele>1323.9</ele>
        <time>2026-02-08T10:39:42.000Z</time>
      </trkpt>
      <trkpt lat="43.04943" lon="-0.35258">
        <ele>1323.4</ele>
        <time>2026-02-08T10:39:45.000Z</time>
      </trkpt>
      <trkpt lat="43.04943" lon="-0.35258">
        <ele>1323.3</ele>
        <time>2026-02-08T10:39:46.000Z</time>
      </trkpt>
      <trkpt lat="43.04942" lon="-0.35257">
        <ele>1323.1</ele>
        <time>2026-02-08T10:39:49.000Z</time>
      </trkpt>
      <trkpt lat="43.04942" lon="-0.35257">
        <ele>1323</ele>
        <time>2026-02-08T10:39:50.000Z</time>
      </trkpt>
      <trkpt lat="43.04942" lon="-0.35257">
        <ele>1322.9</ele>
        <time>2026-02-08T10:39:51.000Z</time>
      </trkpt>
      <trkpt lat="43.04942" lon="-0.35257">
        <ele>1322.8</ele>
        <time>2026-02-08T10:39:52.000Z</time>
      </trkpt>
      <trkpt lat="43.04942" lon="-0.35257">
        <ele>1322.8</ele>
        <time>2026-02-08T10:39:53.000Z</time>
      </trkpt>
      <trkpt lat="43.04942" lon="-0.35258">
        <ele>1322.7</ele>
        <time>2026-02-08T10:39:56.000Z</time>
      </trkpt>
      <trkpt lat="43.04942" lon="-0.35258">
        <ele>1322.6</ele>
        <time>2026-02-08T10:39:57.000Z</time>
      </trkpt>
      <trkpt lat="43.04943" lon="-0.35258">
        <ele>1322.6</ele>
        <time>2026-02-08T10:39:58.000Z</time>
      </trkpt>
      <trkpt lat="43.04943" lon="-0.35259">
        <ele>1322.6</ele>
        <time>2026-02-08T10:40:01.000Z</time>
      </trkpt>
      <trkpt lat="43.04943" lon="-0.35258">
        <ele>1322.6</ele>
        <time>2026-02-08T10:40:04.000Z</time>
      </trkpt>
      <trkpt lat="43.04942" lon="-0.35257">
        <ele>1322.6</ele>
        <time>2026-02-08T10:40:07.000Z</time>
      </trkpt>
      <trkpt lat="43.04941" lon="-0.35258">
        <ele>1322.5</ele>
        <time>2026-02-08T10:40:10.000Z</time>
      </trkpt>
      <trkpt lat="43.04943" lon="-0.35256">
        <ele>1322.6</ele>
        <time>2026-02-08T10:40:13.000Z</time>
      </trkpt>
      <trkpt lat="43.04943" lon="-0.35256">
        <ele>1322.6</ele>
        <time>2026-02-08T10:40:16.000Z</time>
      </trkpt>
      <trkpt lat="43.04943" lon="-0.35256">
        <ele>1322.6</ele>
        <time>2026-02-08T10:40:17.000Z</time>
      </trkpt>
      <trkpt lat="43.04945" lon="-0.35255">
        <ele>1322.6</ele>
        <time>2026-02-08T10:40:18.000Z</time>
      </trkpt>
      <trkpt lat="43.04947" lon="-0.35254">
        <ele>1322.5</ele>
        <time>2026-02-08T10:40:19.000Z</time>
      </trkpt>
      <trkpt lat="43.04947" lon="-0.35254">
        <ele>1322.5</ele>
        <time>2026-02-08T10:40:20.000Z</time>
      </trkpt>
      <trkpt lat="43.04946" lon="-0.35254">
        <ele>1322.5</ele>
        <time>2026-02-08T10:40:21.000Z</time>
      </trkpt>
      <trkpt lat="43.04942" lon="-0.35254">
        <ele>1322.5</ele>
        <time>2026-02-08T10:40:24.000Z</time>
      </trkpt>
      <trkpt lat="43.04939" lon="-0.35252">
        <ele>1322.4</ele>
        <time>2026-02-08T10:40:27.000Z</time>
      </trkpt>
      <trkpt lat="43.04938" lon="-0.35252">
        <ele>1322.4</ele>
        <time>2026-02-08T10:40:30.000Z</time>
      </trkpt>
      <trkpt lat="43.04939" lon="-0.35252">
        <ele>1322.4</ele>
        <time>2026-02-08T10:40:33.000Z</time>
      </trkpt>
      <trkpt lat="43.0494" lon="-0.35251">
        <ele>1322.4</ele>
        <time>2026-02-08T10:40:34.000Z</time>
      </trkpt>
      <trkpt lat="43.0494" lon="-0.3525">
        <ele>1322.4</ele>
        <time>2026-02-08T10:40:35.000Z</time>
      </trkpt>
      <trkpt lat="43.04942" lon="-0.35249">
        <ele>1322.4</ele>
        <time>2026-02-08T10:40:38.000Z</time>
      </trkpt>
      <trkpt lat="43.04942" lon="-0.3525">
        <ele>1322.3</ele>
        <time>2026-02-08T10:40:41.000Z</time>
      </trkpt>
      <trkpt lat="43.04942" lon="-0.35249">
        <ele>1322.3</ele>
        <time>2026-02-08T10:40:44.000Z</time>
      </trkpt>
      <trkpt lat="43.04941" lon="-0.35248">
        <ele>1322.3</ele>
        <time>2026-02-08T10:40:46.000Z</time>
      </trkpt>
      <trkpt lat="43.04941" lon="-0.35248">
        <ele>1322.3</ele>
        <time>2026-02-08T10:40:47.000Z</time>
      </trkpt>
      <trkpt lat="43.04943" lon="-0.35251">
        <ele>1322.3</ele>
        <time>2026-02-08T10:40:48.000Z</time>
      </trkpt>
      <trkpt lat="43.04941" lon="-0.3525">
        <ele>1322.3</ele>
        <time>2026-02-08T10:40:51.000Z</time>
      </trkpt>
      <trkpt lat="43.04941" lon="-0.35252">
        <ele>1322.3</ele>
        <time>2026-02-08T10:40:54.000Z</time>
      </trkpt>
      <trkpt lat="43.04941" lon="-0.35252">
        <ele>1322.3</ele>
        <time>2026-02-08T10:40:55.000Z</time>
      </trkpt>
      <trkpt lat="43.0494" lon="-0.35252">
        <ele>1322.3</ele>
        <time>2026-02-08T10:40:56.000Z</time>
      </trkpt>
      <trkpt lat="43.0494" lon="-0.35252">
        <ele>1322.3</ele>
        <time>2026-02-08T10:40:57.000Z</time>
      </trkpt>
      <trkpt lat="43.0494" lon="-0.35252">
        <ele>1322.3</ele>
        <time>2026-02-08T10:40:58.000Z</time>
      </trkpt>
      <trkpt lat="43.0494" lon="-0.35252">
        <ele>1322.2</ele>
        <time>2026-02-08T10:41:01.000Z</time>
      </trkpt>
      <trkpt lat="43.04938" lon="-0.35253">
        <ele>1322.2</ele>
        <time>2026-02-08T10:41:04.000Z</time>
      </trkpt>
      <trkpt lat="43.04938" lon="-0.35252">
        <ele>1322.2</ele>
        <time>2026-02-08T10:41:07.000Z</time>
      </trkpt>
      <trkpt lat="43.04938" lon="-0.35253">
        <ele>1322.2</ele>
        <time>2026-02-08T10:41:09.000Z</time>
      </trkpt>
      <trkpt lat="43.04938" lon="-0.35254">
        <ele>1322.2</ele>
        <time>2026-02-08T10:41:10.000Z</time>
      </trkpt>
      <trkpt lat="43.04938" lon="-0.35254">
        <ele>1322.2</ele>
        <time>2026-02-08T10:41:11.000Z</time>
      </trkpt>
      <trkpt lat="43.04938" lon="-0.35254">
        <ele>1322.2</ele>
        <time>2026-02-08T10:41:12.000Z</time>
      </trkpt>
      <trkpt lat="43.04939" lon="-0.35254">
        <ele>1322.2</ele>
        <time>2026-02-08T10:41:13.000Z</time>
      </trkpt>
      <trkpt lat="43.0494" lon="-0.35254">
        <ele>1322.2</ele>
        <time>2026-02-08T10:41:16.000Z</time>
      </trkpt>
      <trkpt lat="43.0494" lon="-0.35255">
        <ele>1322.2</ele>
        <time>2026-02-08T10:41:17.000Z</time>
      </trkpt>
      <trkpt lat="43.04939" lon="-0.35255">
        <ele>1322.2</ele>
        <time>2026-02-08T10:41:18.000Z</time>
      </trkpt>
      <trkpt lat="43.04939" lon="-0.35255">
        <ele>1322.2</ele>
        <time>2026-02-08T10:41:21.000Z</time>
      </trkpt>
      <trkpt lat="43.04939" lon="-0.35254">
        <ele>1322.1</ele>
        <time>2026-02-08T10:41:24.000Z</time>
      </trkpt>
      <trkpt lat="43.04937" lon="-0.35254">
        <ele>1322.1</ele>
        <time>2026-02-08T10:41:27.000Z</time>
      </trkpt>
      <trkpt lat="43.04938" lon="-0.35254">
        <ele>1322.1</ele>
        <time>2026-02-08T10:41:29.000Z</time>
      </trkpt>
      <trkpt lat="43.04938" lon="-0.35253">
        <ele>1322.1</ele>
        <time>2026-02-08T10:41:30.000Z</time>
      </trkpt>
      <trkpt lat="43.04938" lon="-0.35254">
        <ele>1322.1</ele>
        <time>2026-02-08T10:41:31.000Z</time>
      </trkpt>
      <trkpt lat="43.04938" lon="-0.35254">
        <ele>1322.1</ele>
        <time>2026-02-08T10:41:32.000Z</time>
      </trkpt>
      <trkpt lat="43.04939" lon="-0.35254">
        <ele>1322.1</ele>
        <time>2026-02-08T10:41:33.000Z</time>
      </trkpt>
      <trkpt lat="43.04943" lon="-0.35253">
        <ele>1322.1</ele>
        <time>2026-02-08T10:41:36.000Z</time>
      </trkpt>
      <trkpt lat="43.04939" lon="-0.35254">
        <ele>1322.1</ele>
        <time>2026-02-08T10:41:39.000Z</time>
      </trkpt>
      <trkpt lat="43.04939" lon="-0.35253">
        <ele>1322.1</ele>
        <time>2026-02-08T10:41:42.000Z</time>
      </trkpt>
      <trkpt lat="43.04939" lon="-0.35252">
        <ele>1322.1</ele>
        <time>2026-02-08T10:41:45.000Z</time>
      </trkpt>
      <trkpt lat="43.04939" lon="-0.35255">
        <ele>1322.1</ele>
        <time>2026-02-08T10:41:48.000Z</time>
      </trkpt>
      <trkpt lat="43.04938" lon="-0.35257">
        <ele>1322.1</ele>
        <time>2026-02-08T10:41:51.000Z</time>
      </trkpt>
      <trkpt lat="43.04939" lon="-0.35255">
        <ele>1322.1</ele>
        <time>2026-02-08T10:41:54.000Z</time>
      </trkpt>
      <trkpt lat="43.04939" lon="-0.35253">
        <ele>1322.1</ele>
        <time>2026-02-08T10:41:57.000Z</time>
      </trkpt>
      <trkpt lat="43.04941" lon="-0.35255">
        <ele>1322</ele>
        <time>2026-02-08T10:42:00.000Z</time>
      </trkpt>
      <trkpt lat="43.04941" lon="-0.35255">
        <ele>1322</ele>
        <time>2026-02-08T10:42:03.000Z</time>
      </trkpt>
      <trkpt lat="43.04943" lon="-0.35254">
        <ele>1322</ele>
        <time>2026-02-08T10:42:06.000Z</time>
      </trkpt>
      <trkpt lat="43.04943" lon="-0.35254">
        <ele>1322</ele>
        <time>2026-02-08T10:42:07.000Z</time>
      </trkpt>
      <trkpt lat="43.04943" lon="-0.35254">
        <ele>1322</ele>
        <time>2026-02-08T10:42:08.000Z</time>
      </trkpt>
      <trkpt lat="43.04944" lon="-0.35253">
        <ele>1322</ele>
        <time>2026-02-08T10:42:09.000Z</time>
      </trkpt>
      <trkpt lat="43.04944" lon="-0.35253">
        <ele>1322</ele>
        <time>2026-02-08T10:42:10.000Z</time>
      </trkpt>
      <trkpt lat="43.04944" lon="-0.35253">
        <ele>1322</ele>
        <time>2026-02-08T10:42:11.000Z</time>
      </trkpt>
      <trkpt lat="43.04944" lon="-0.35253">
        <ele>1322</ele>
        <time>2026-02-08T10:42:14.000Z</time>
      </trkpt>
      <trkpt lat="43.04944" lon="-0.35253">
        <ele>1322</ele>
        <time>2026-02-08T10:42:15.000Z</time>
      </trkpt>
      <trkpt lat="43.04944" lon="-0.35253">
        <ele>1322</ele>
        <time>2026-02-08T10:42:16.000Z</time>
      </trkpt>
      <trkpt lat="43.04944" lon="-0.35253">
        <ele>1322</ele>
        <time>2026-02-08T10:42:17.000Z</time>
      </trkpt>
      <trkpt lat="43.04944" lon="-0.35254">
        <ele>1322.1</ele>
        <time>2026-02-08T10:42:18.000Z</time>
      </trkpt>
      <trkpt lat="43.04944" lon="-0.35254">
        <ele>1322.1</ele>
        <time>2026-02-08T10:42:21.000Z</time>
      </trkpt>
      <trkpt lat="43.04944" lon="-0.35254">
        <ele>1322.1</ele>
        <time>2026-02-08T10:42:22.000Z</time>
      </trkpt>
      <trkpt lat="43.04944" lon="-0.35254">
        <ele>1322.1</ele>
        <time>2026-02-08T10:42:23.000Z</time>
      </trkpt>
      <trkpt lat="43.04944" lon="-0.35254">
        <ele>1322.2</ele>
        <time>2026-02-08T10:42:26.000Z</time>
      </trkpt>
      <trkpt lat="43.04944" lon="-0.35254">
        <ele>1322.2</ele>
        <time>2026-02-08T10:42:29.000Z</time>
      </trkpt>
      <trkpt lat="43.04944" lon="-0.35254">
        <ele>1322.2</ele>
        <time>2026-02-08T10:42:32.000Z</time>
      </trkpt>
      <trkpt lat="43.04944" lon="-0.35254">
        <ele>1322.2</ele>
        <time>2026-02-08T10:42:35.000Z</time>
      </trkpt>
      <trkpt lat="43.04944" lon="-0.35254">
        <ele>1322.2</ele>
        <time>2026-02-08T10:42:38.000Z</time>
      </trkpt>
      <trkpt lat="43.04942" lon="-0.35254">
        <ele>1322.2</ele>
        <time>2026-02-08T10:42:41.000Z</time>
      </trkpt>
      <trkpt lat="43.04942" lon="-0.35254">
        <ele>1322.2</ele>
        <time>2026-02-08T10:42:42.000Z</time>
      </trkpt>
      <trkpt lat="43.04943" lon="-0.35254">
        <ele>1322.2</ele>
        <time>2026-02-08T10:42:43.000Z</time>
      </trkpt>
      <trkpt lat="43.04943" lon="-0.35255">
        <ele>1322.2</ele>
        <time>2026-02-08T10:42:46.000Z</time>
      </trkpt>
      <trkpt lat="43.04943" lon="-0.35256">
        <ele>1322.2</ele>
        <time>2026-02-08T10:42:49.000Z</time>
      </trkpt>
      <trkpt lat="43.04943" lon="-0.35257">
        <ele>1322.2</ele>
        <time>2026-02-08T10:42:50.000Z</time>
      </trkpt>
      <trkpt lat="43.04944" lon="-0.35258">
        <ele>1322.3</ele>
        <time>2026-02-08T10:42:53.000Z</time>
      </trkpt>
      <trkpt lat="43.04943" lon="-0.35258">
        <ele>1322.3</ele>
        <time>2026-02-08T10:42:56.000Z</time>
      </trkpt>
      <trkpt lat="43.04943" lon="-0.35259">
        <ele>1322.3</ele>
        <time>2026-02-08T10:42:59.000Z</time>
      </trkpt>
      <trkpt lat="43.04943" lon="-0.35259">
        <ele>1322.3</ele>
        <time>2026-02-08T10:43:02.000Z</time>
      </trkpt>
      <trkpt lat="43.04943" lon="-0.35259">
        <ele>1322.3</ele>
        <time>2026-02-08T10:43:04.000Z</time>
      </trkpt>
      <trkpt lat="43.04943" lon="-0.3526">
        <ele>1322.3</ele>
        <time>2026-02-08T10:43:05.000Z</time>
      </trkpt>
      <trkpt lat="43.04943" lon="-0.35261">
        <ele>1322.3</ele>
        <time>2026-02-08T10:43:08.000Z</time>
      </trkpt>
      <trkpt lat="43.04943" lon="-0.35261">
        <ele>1322.3</ele>
        <time>2026-02-08T10:43:11.000Z</time>
      </trkpt>
      <trkpt lat="43.04944" lon="-0.35264">
        <ele>1322.3</ele>
        <time>2026-02-08T10:43:14.000Z</time>
      </trkpt>
      <trkpt lat="43.04945" lon="-0.35264">
        <ele>1322.3</ele>
        <time>2026-02-08T10:43:15.000Z</time>
      </trkpt>
      <trkpt lat="43.04945" lon="-0.35264">
        <ele>1322.3</ele>
        <time>2026-02-08T10:43:16.000Z</time>
      </trkpt>
      <trkpt lat="43.04945" lon="-0.35264">
        <ele>1322.3</ele>
        <time>2026-02-08T10:43:19.000Z</time>
      </trkpt>
      <trkpt lat="43.04945" lon="-0.35264">
        <ele>1322.3</ele>
        <time>2026-02-08T10:43:22.000Z</time>
      </trkpt>
      <trkpt lat="43.04945" lon="-0.35264">
        <ele>1322.3</ele>
        <time>2026-02-08T10:43:25.000Z</time>
      </trkpt>
      <trkpt lat="43.04945" lon="-0.35264">
        <ele>1322.3</ele>
        <time>2026-02-08T10:43:28.000Z</time>
      </trkpt>
      <trkpt lat="43.04945" lon="-0.35264">
        <ele>1322.3</ele>
        <time>2026-02-08T10:43:31.000Z</time>
      </trkpt>
      <trkpt lat="43.04945" lon="-0.35265">
        <ele>1322.3</ele>
        <time>2026-02-08T10:43:34.000Z</time>
      </trkpt>
      <trkpt lat="43.04945" lon="-0.35265">
        <ele>1322.3</ele>
        <time>2026-02-08T10:43:37.000Z</time>
      </trkpt>
      <trkpt lat="43.04945" lon="-0.35265">
        <ele>1322.3</ele>
        <time>2026-02-08T10:43:40.000Z</time>
      </trkpt>
      <trkpt lat="43.04945" lon="-0.35264">
        <ele>1322.3</ele>
        <time>2026-02-08T10:43:43.000Z</time>
      </trkpt>
      <trkpt lat="43.04945" lon="-0.35264">
        <ele>1322.3</ele>
        <time>2026-02-08T10:43:46.000Z</time>
      </trkpt>
      <trkpt lat="43.04945" lon="-0.35264">
        <ele>1322.3</ele>
        <time>2026-02-08T10:43:49.000Z</time>
      </trkpt>
      <trkpt lat="43.04945" lon="-0.35266">
        <ele>1322.3</ele>
        <time>2026-02-08T10:43:52.000Z</time>
      </trkpt>
      <trkpt lat="43.04945" lon="-0.35266">
        <ele>1322.3</ele>
        <time>2026-02-08T10:43:55.000Z</time>
      </trkpt>
      <trkpt lat="43.04945" lon="-0.35266">
        <ele>1322.3</ele>
        <time>2026-02-08T10:43:58.000Z</time>
      </trkpt>
      <trkpt lat="43.04944" lon="-0.35266">
        <ele>1322.3</ele>
        <time>2026-02-08T10:44:01.000Z</time>
      </trkpt>
      <trkpt lat="43.04944" lon="-0.35266">
        <ele>1322.3</ele>
        <time>2026-02-08T10:44:04.000Z</time>
      </trkpt>
      <trkpt lat="43.04944" lon="-0.35266">
        <ele>1322.3</ele>
        <time>2026-02-08T10:44:07.000Z</time>
      </trkpt>
      <trkpt lat="43.04944" lon="-0.35266">
        <ele>1322.3</ele>
        <time>2026-02-08T10:44:10.000Z</time>
      </trkpt>
      <trkpt lat="43.04944" lon="-0.35266">
        <ele>1322.3</ele>
        <time>2026-02-08T10:44:13.000Z</time>
      </trkpt>
      <trkpt lat="43.04945" lon="-0.35265">
        <ele>1322.2</ele>
        <time>2026-02-08T10:44:16.000Z</time>
      </trkpt>
      <trkpt lat="43.04944" lon="-0.35265">
        <ele>1322.2</ele>
        <time>2026-02-08T10:44:19.000Z</time>
      </trkpt>
      <trkpt lat="43.04944" lon="-0.35265">
        <ele>1322.2</ele>
        <time>2026-02-08T10:44:22.000Z</time>
      </trkpt>
      <trkpt lat="43.04944" lon="-0.35265">
        <ele>1322.2</ele>
        <time>2026-02-08T10:44:25.000Z</time>
      </trkpt>
      <trkpt lat="43.04944" lon="-0.35265">
        <ele>1322.2</ele>
        <time>2026-02-08T10:44:28.000Z</time>
      </trkpt>
      <trkpt lat="43.04944" lon="-0.35264">
        <ele>1322.1</ele>
        <time>2026-02-08T10:44:31.000Z</time>
      </trkpt>
      <trkpt lat="43.04944" lon="-0.35263">
        <ele>1322.1</ele>
        <time>2026-02-08T10:44:34.000Z</time>
      </trkpt>
      <trkpt lat="43.04944" lon="-0.35263">
        <ele>1322.1</ele>
        <time>2026-02-08T10:44:37.000Z</time>
      </trkpt>
      <trkpt lat="43.04944" lon="-0.35263">
        <ele>1322.1</ele>
        <time>2026-02-08T10:44:40.000Z</time>
      </trkpt>
      <trkpt lat="43.04945" lon="-0.35264">
        <ele>1322</ele>
        <time>2026-02-08T10:44:43.000Z</time>
      </trkpt>
      <trkpt lat="43.04945" lon="-0.35264">
        <ele>1322</ele>
        <time>2026-02-08T10:44:44.000Z</time>
      </trkpt>
      <trkpt lat="43.04945" lon="-0.35264">
        <ele>1322</ele>
        <time>2026-02-08T10:44:45.000Z</time>
      </trkpt>
      <trkpt lat="43.04945" lon="-0.35264">
        <ele>1322</ele>
        <time>2026-02-08T10:44:46.000Z</time>
      </trkpt>
      <trkpt lat="43.04945" lon="-0.35264">
        <ele>1322</ele>
        <time>2026-02-08T10:44:47.000Z</time>
      </trkpt>
      <trkpt lat="43.04945" lon="-0.35264">
        <ele>1322</ele>
        <time>2026-02-08T10:44:48.000Z</time>
      </trkpt>
      <trkpt lat="43.04945" lon="-0.35264">
        <ele>1322</ele>
        <time>2026-02-08T10:44:51.000Z</time>
      </trkpt>
      <trkpt lat="43.04945" lon="-0.35264">
        <ele>1322</ele>
        <time>2026-02-08T10:44:54.000Z</time>
      </trkpt>
      <trkpt lat="43.04945" lon="-0.35263">
        <ele>1321.9</ele>
        <time>2026-02-08T10:44:57.000Z</time>
      </trkpt>
      <trkpt lat="43.04945" lon="-0.35263">
        <ele>1321.9</ele>
        <time>2026-02-08T10:45:00.000Z</time>
      </trkpt>
      <trkpt lat="43.04945" lon="-0.35262">
        <ele>1321.9</ele>
        <time>2026-02-08T10:45:03.000Z</time>
      </trkpt>
      <trkpt lat="43.04945" lon="-0.35261">
        <ele>1321.9</ele>
        <time>2026-02-08T10:45:04.000Z</time>
      </trkpt>
      <trkpt lat="43.04946" lon="-0.3526">
        <ele>1321.9</ele>
        <time>2026-02-08T10:45:05.000Z</time>
      </trkpt>
      <trkpt lat="43.04948" lon="-0.35262">
        <ele>1321.8</ele>
        <time>2026-02-08T10:45:08.000Z</time>
      </trkpt>
      <trkpt lat="43.04952" lon="-0.35264">
        <ele>1321.6</ele>
        <time>2026-02-08T10:45:11.000Z</time>
      </trkpt>
      <trkpt lat="43.04954" lon="-0.35267">
        <ele>1321.3</ele>
        <time>2026-02-08T10:45:14.000Z</time>
      </trkpt>
      <trkpt lat="43.04956" lon="-0.35269">
        <ele>1320.7</ele>
        <time>2026-02-08T10:45:17.000Z</time>
      </trkpt>
      <trkpt lat="43.04959" lon="-0.3527">
        <ele>1319.9</ele>
        <time>2026-02-08T10:45:20.000Z</time>
      </trkpt>
      <trkpt lat="43.04961" lon="-0.35271">
        <ele>1319</ele>
        <time>2026-02-08T10:45:23.000Z</time>
      </trkpt>
      <trkpt lat="43.04963" lon="-0.35271">
        <ele>1318</ele>
        <time>2026-02-08T10:45:26.000Z</time>
      </trkpt>
      <trkpt lat="43.04965" lon="-0.3527">
        <ele>1317.1</ele>
        <time>2026-02-08T10:45:29.000Z</time>
      </trkpt>
      <trkpt lat="43.04969" lon="-0.35271">
        <ele>1316.3</ele>
        <time>2026-02-08T10:45:32.000Z</time>
      </trkpt>
      <trkpt lat="43.04973" lon="-0.35271">
        <ele>1315.5</ele>
        <time>2026-02-08T10:45:35.000Z</time>
      </trkpt>
      <trkpt lat="43.04978" lon="-0.35272">
        <ele>1314.6</ele>
        <time>2026-02-08T10:45:38.000Z</time>
      </trkpt>
      <trkpt lat="43.04983" lon="-0.35272">
        <ele>1313.8</ele>
        <time>2026-02-08T10:45:41.000Z</time>
      </trkpt>
      <trkpt lat="43.04987" lon="-0.35274">
        <ele>1313.1</ele>
        <time>2026-02-08T10:45:44.000Z</time>
      </trkpt>
      <trkpt lat="43.0499" lon="-0.35275">
        <ele>1312.3</ele>
        <time>2026-02-08T10:45:47.000Z</time>
      </trkpt>
      <trkpt lat="43.04993" lon="-0.35275">
        <ele>1311.4</ele>
        <time>2026-02-08T10:45:50.000Z</time>
      </trkpt>
      <trkpt lat="43.04996" lon="-0.35276">
        <ele>1310.6</ele>
        <time>2026-02-08T10:45:53.000Z</time>
      </trkpt>
      <trkpt lat="43.05001" lon="-0.35276">
        <ele>1309.6</ele>
        <time>2026-02-08T10:45:56.000Z</time>
      </trkpt>
      <trkpt lat="43.05005" lon="-0.35277">
        <ele>1308.6</ele>
        <time>2026-02-08T10:45:59.000Z</time>
      </trkpt>
      <trkpt lat="43.05009" lon="-0.35278">
        <ele>1307.6</ele>
        <time>2026-02-08T10:46:02.000Z</time>
      </trkpt>
      <trkpt lat="43.05013" lon="-0.35279">
        <ele>1306.7</ele>
        <time>2026-02-08T10:46:05.000Z</time>
      </trkpt>
      <trkpt lat="43.05016" lon="-0.35281">
        <ele>1306.1</ele>
        <time>2026-02-08T10:46:08.000Z</time>
      </trkpt>
      <trkpt lat="43.05019" lon="-0.35283">
        <ele>1305.6</ele>
        <time>2026-02-08T10:46:11.000Z</time>
      </trkpt>
      <trkpt lat="43.05022" lon="-0.35284">
        <ele>1305.1</ele>
        <time>2026-02-08T10:46:14.000Z</time>
      </trkpt>
      <trkpt lat="43.05021" lon="-0.35283">
        <ele>1304.6</ele>
        <time>2026-02-08T10:46:17.000Z</time>
      </trkpt>
      <trkpt lat="43.0502" lon="-0.3528">
        <ele>1304.3</ele>
        <time>2026-02-08T10:46:20.000Z</time>
      </trkpt>
      <trkpt lat="43.05017" lon="-0.35276">
        <ele>1303.8</ele>
        <time>2026-02-08T10:46:23.000Z</time>
      </trkpt>
      <trkpt lat="43.05013" lon="-0.35273">
        <ele>1303.4</ele>
        <time>2026-02-08T10:46:26.000Z</time>
      </trkpt>
      <trkpt lat="43.05013" lon="-0.3527">
        <ele>1302.8</ele>
        <time>2026-02-08T10:46:29.000Z</time>
      </trkpt>
      <trkpt lat="43.05015" lon="-0.35269">
        <ele>1302.4</ele>
        <time>2026-02-08T10:46:32.000Z</time>
      </trkpt>
      <trkpt lat="43.05018" lon="-0.3527">
        <ele>1302</ele>
        <time>2026-02-08T10:46:35.000Z</time>
      </trkpt>
      <trkpt lat="43.05021" lon="-0.35272">
        <ele>1301.6</ele>
        <time>2026-02-08T10:46:38.000Z</time>
      </trkpt>
      <trkpt lat="43.05024" lon="-0.35273">
        <ele>1301.4</ele>
        <time>2026-02-08T10:46:41.000Z</time>
      </trkpt>
      <trkpt lat="43.05026" lon="-0.35274">
        <ele>1301.3</ele>
        <time>2026-02-08T10:46:44.000Z</time>
      </trkpt>
      <trkpt lat="43.05029" lon="-0.35275">
        <ele>1301.1</ele>
        <time>2026-02-08T10:46:47.000Z</time>
      </trkpt>
      <trkpt lat="43.05032" lon="-0.35275">
        <ele>1300.9</ele>
        <time>2026-02-08T10:46:50.000Z</time>
      </trkpt>
      <trkpt lat="43.05032" lon="-0.35276">
        <ele>1300.5</ele>
        <time>2026-02-08T10:46:53.000Z</time>
      </trkpt>
      <trkpt lat="43.05037" lon="-0.35278">
        <ele>1299.9</ele>
        <time>2026-02-08T10:46:56.000Z</time>
      </trkpt>
      <trkpt lat="43.05041" lon="-0.35278">
        <ele>1299</ele>
        <time>2026-02-08T10:46:59.000Z</time>
      </trkpt>
      <trkpt lat="43.05046" lon="-0.35278">
        <ele>1298</ele>
        <time>2026-02-08T10:47:02.000Z</time>
      </trkpt>
      <trkpt lat="43.05049" lon="-0.35278">
        <ele>1297.1</ele>
        <time>2026-02-08T10:47:05.000Z</time>
      </trkpt>
      <trkpt lat="43.05052" lon="-0.35278">
        <ele>1296.1</ele>
        <time>2026-02-08T10:47:08.000Z</time>
      </trkpt>
      <trkpt lat="43.05055" lon="-0.35278">
        <ele>1294.9</ele>
        <time>2026-02-08T10:47:11.000Z</time>
      </trkpt>
      <trkpt lat="43.05058" lon="-0.35278">
        <ele>1293.9</ele>
        <time>2026-02-08T10:47:14.000Z</time>
      </trkpt>
      <trkpt lat="43.05063" lon="-0.3528">
        <ele>1293.1</ele>
        <time>2026-02-08T10:47:17.000Z</time>
      </trkpt>
      <trkpt lat="43.05065" lon="-0.35282">
        <ele>1292.1</ele>
        <time>2026-02-08T10:47:20.000Z</time>
      </trkpt>
      <trkpt lat="43.05067" lon="-0.35287">
        <ele>1291.5</ele>
        <time>2026-02-08T10:47:23.000Z</time>
      </trkpt>
      <trkpt lat="43.05068" lon="-0.35291">
        <ele>1290.8</ele>
        <time>2026-02-08T10:47:26.000Z</time>
      </trkpt>
      <trkpt lat="43.0507" lon="-0.35293">
        <ele>1289.9</ele>
        <time>2026-02-08T10:47:29.000Z</time>
      </trkpt>
      <trkpt lat="43.05073" lon="-0.35294">
        <ele>1289</ele>
        <time>2026-02-08T10:47:32.000Z</time>
      </trkpt>
      <trkpt lat="43.05077" lon="-0.35294">
        <ele>1288</ele>
        <time>2026-02-08T10:47:35.000Z</time>
      </trkpt>
      <trkpt lat="43.0508" lon="-0.35293">
        <ele>1287</ele>
        <time>2026-02-08T10:47:38.000Z</time>
      </trkpt>
      <trkpt lat="43.05085" lon="-0.35294">
        <ele>1286.1</ele>
        <time>2026-02-08T10:47:41.000Z</time>
      </trkpt>
      <trkpt lat="43.05089" lon="-0.35297">
        <ele>1285.2</ele>
        <time>2026-02-08T10:47:44.000Z</time>
      </trkpt>
      <trkpt lat="43.05092" lon="-0.35301">
        <ele>1284.5</ele>
        <time>2026-02-08T10:47:47.000Z</time>
      </trkpt>
      <trkpt lat="43.05094" lon="-0.35304">
        <ele>1283.7</ele>
        <time>2026-02-08T10:47:50.000Z</time>
      </trkpt>
      <trkpt lat="43.05096" lon="-0.35309">
        <ele>1283</ele>
        <time>2026-02-08T10:47:53.000Z</time>
      </trkpt>
      <trkpt lat="43.05099" lon="-0.35312">
        <ele>1282.2</ele>
        <time>2026-02-08T10:47:56.000Z</time>
      </trkpt>
      <trkpt lat="43.05103" lon="-0.35315">
        <ele>1281.1</ele>
        <time>2026-02-08T10:47:59.000Z</time>
      </trkpt>
      <trkpt lat="43.05106" lon="-0.35317">
        <ele>1279.6</ele>
        <time>2026-02-08T10:48:02.000Z</time>
      </trkpt>
      <trkpt lat="43.05108" lon="-0.3532">
        <ele>1278</ele>
        <time>2026-02-08T10:48:05.000Z</time>
      </trkpt>
      <trkpt lat="43.05109" lon="-0.35323">
        <ele>1276.6</ele>
        <time>2026-02-08T10:48:08.000Z</time>
      </trkpt>
      <trkpt lat="43.05112" lon="-0.35324">
        <ele>1275.3</ele>
        <time>2026-02-08T10:48:11.000Z</time>
      </trkpt>
      <trkpt lat="43.05113" lon="-0.35328">
        <ele>1274.1</ele>
        <time>2026-02-08T10:48:14.000Z</time>
      </trkpt>
      <trkpt lat="43.05113" lon="-0.35331">
        <ele>1272.9</ele>
        <time>2026-02-08T10:48:17.000Z</time>
      </trkpt>
      <trkpt lat="43.05116" lon="-0.35334">
        <ele>1271.7</ele>
        <time>2026-02-08T10:48:20.000Z</time>
      </trkpt>
      <trkpt lat="43.05118" lon="-0.35338">
        <ele>1270.7</ele>
        <time>2026-02-08T10:48:23.000Z</time>
      </trkpt>
      <trkpt lat="43.05119" lon="-0.35343">
        <ele>1269.6</ele>
        <time>2026-02-08T10:48:26.000Z</time>
      </trkpt>
      <trkpt lat="43.0512" lon="-0.35347">
        <ele>1268.5</ele>
        <time>2026-02-08T10:48:29.000Z</time>
      </trkpt>
      <trkpt lat="43.05124" lon="-0.3535">
        <ele>1267.5</ele>
        <time>2026-02-08T10:48:32.000Z</time>
      </trkpt>
      <trkpt lat="43.05127" lon="-0.35355">
        <ele>1266.4</ele>
        <time>2026-02-08T10:48:35.000Z</time>
      </trkpt>
      <trkpt lat="43.05129" lon="-0.35358">
        <ele>1265.4</ele>
        <time>2026-02-08T10:48:38.000Z</time>
      </trkpt>
      <trkpt lat="43.05131" lon="-0.35358">
        <ele>1264.3</ele>
        <time>2026-02-08T10:48:41.000Z</time>
      </trkpt>
      <trkpt lat="43.05135" lon="-0.35361">
        <ele>1263.4</ele>
        <time>2026-02-08T10:48:44.000Z</time>
      </trkpt>
      <trkpt lat="43.05135" lon="-0.35364">
        <ele>1262.4</ele>
        <time>2026-02-08T10:48:47.000Z</time>
      </trkpt>
      <trkpt lat="43.05135" lon="-0.35367">
        <ele>1261.5</ele>
        <time>2026-02-08T10:48:50.000Z</time>
      </trkpt>
      <trkpt lat="43.05136" lon="-0.3537">
        <ele>1260.6</ele>
        <time>2026-02-08T10:48:53.000Z</time>
      </trkpt>
      <trkpt lat="43.05138" lon="-0.35373">
        <ele>1259.6</ele>
        <time>2026-02-08T10:48:56.000Z</time>
      </trkpt>
      <trkpt lat="43.0514" lon="-0.35376">
        <ele>1258.6</ele>
        <time>2026-02-08T10:48:59.000Z</time>
      </trkpt>
      <trkpt lat="43.05143" lon="-0.35379">
        <ele>1257.6</ele>
        <time>2026-02-08T10:49:02.000Z</time>
      </trkpt>
      <trkpt lat="43.05145" lon="-0.35382">
        <ele>1256.6</ele>
        <time>2026-02-08T10:49:05.000Z</time>
      </trkpt>
      <trkpt lat="43.05148" lon="-0.35387">
        <ele>1255.5</ele>
        <time>2026-02-08T10:49:08.000Z</time>
      </trkpt>
      <trkpt lat="43.05147" lon="-0.35391">
        <ele>1254.5</ele>
        <time>2026-02-08T10:49:11.000Z</time>
      </trkpt>
      <trkpt lat="43.05147" lon="-0.35392">
        <ele>1253.5</ele>
        <time>2026-02-08T10:49:14.000Z</time>
      </trkpt>
      <trkpt lat="43.05147" lon="-0.35393">
        <ele>1252.6</ele>
        <time>2026-02-08T10:49:17.000Z</time>
      </trkpt>
      <trkpt lat="43.0515" lon="-0.35396">
        <ele>1251.9</ele>
        <time>2026-02-08T10:49:20.000Z</time>
      </trkpt>
      <trkpt lat="43.05151" lon="-0.35398">
        <ele>1251.1</ele>
        <time>2026-02-08T10:49:23.000Z</time>
      </trkpt>
      <trkpt lat="43.05152" lon="-0.35402">
        <ele>1250.4</ele>
        <time>2026-02-08T10:49:26.000Z</time>
      </trkpt>
      <trkpt lat="43.05155" lon="-0.35403">
        <ele>1249.6</ele>
        <time>2026-02-08T10:49:29.000Z</time>
      </trkpt>
      <trkpt lat="43.05157" lon="-0.35404">
        <ele>1248.8</ele>
        <time>2026-02-08T10:49:32.000Z</time>
      </trkpt>
      <trkpt lat="43.0516" lon="-0.35404">
        <ele>1248</ele>
        <time>2026-02-08T10:49:35.000Z</time>
      </trkpt>
      <trkpt lat="43.05161" lon="-0.35406">
        <ele>1247.2</ele>
        <time>2026-02-08T10:49:38.000Z</time>
      </trkpt>
      <trkpt lat="43.05162" lon="-0.35407">
        <ele>1246.1</ele>
        <time>2026-02-08T10:49:41.000Z</time>
      </trkpt>
      <trkpt lat="43.05165" lon="-0.35408">
        <ele>1245.1</ele>
        <time>2026-02-08T10:49:44.000Z</time>
      </trkpt>
      <trkpt lat="43.05167" lon="-0.35409">
        <ele>1244.1</ele>
        <time>2026-02-08T10:49:47.000Z</time>
      </trkpt>
      <trkpt lat="43.0517" lon="-0.35408">
        <ele>1243.2</ele>
        <time>2026-02-08T10:49:50.000Z</time>
      </trkpt>
      <trkpt lat="43.05172" lon="-0.35409">
        <ele>1242.5</ele>
        <time>2026-02-08T10:49:53.000Z</time>
      </trkpt>
      <trkpt lat="43.05176" lon="-0.35411">
        <ele>1241.7</ele>
        <time>2026-02-08T10:49:56.000Z</time>
      </trkpt>
      <trkpt lat="43.05179" lon="-0.35412">
        <ele>1241</ele>
        <time>2026-02-08T10:49:59.000Z</time>
      </trkpt>
      <trkpt lat="43.05179" lon="-0.35415">
        <ele>1240.3</ele>
        <time>2026-02-08T10:50:02.000Z</time>
      </trkpt>
      <trkpt lat="43.05179" lon="-0.35417">
        <ele>1239.7</ele>
        <time>2026-02-08T10:50:05.000Z</time>
      </trkpt>
      <trkpt lat="43.05178" lon="-0.35417">
        <ele>1239.5</ele>
        <time>2026-02-08T10:50:07.000Z</time>
      </trkpt>
      <trkpt lat="43.05178" lon="-0.35417">
        <ele>1239.4</ele>
        <time>2026-02-08T10:50:08.000Z</time>
      </trkpt>
      <trkpt lat="43.05178" lon="-0.35417">
        <ele>1239.4</ele>
        <time>2026-02-08T10:50:09.000Z</time>
      </trkpt>
      <trkpt lat="43.05178" lon="-0.35418">
        <ele>1239.3</ele>
        <time>2026-02-08T10:50:10.000Z</time>
      </trkpt>
      <trkpt lat="43.05177" lon="-0.35418">
        <ele>1239.2</ele>
        <time>2026-02-08T10:50:13.000Z</time>
      </trkpt>
      <trkpt lat="43.05178" lon="-0.35418">
        <ele>1239.1</ele>
        <time>2026-02-08T10:50:16.000Z</time>
      </trkpt>
      <trkpt lat="43.05178" lon="-0.35418">
        <ele>1239.1</ele>
        <time>2026-02-08T10:50:17.000Z</time>
      </trkpt>
      <trkpt lat="43.05179" lon="-0.35418">
        <ele>1239.1</ele>
        <time>2026-02-08T10:50:18.000Z</time>
      </trkpt>
      <trkpt lat="43.05178" lon="-0.35418">
        <ele>1239.1</ele>
        <time>2026-02-08T10:50:21.000Z</time>
      </trkpt>
      <trkpt lat="43.05178" lon="-0.35418">
        <ele>1239</ele>
        <time>2026-02-08T10:50:22.000Z</time>
      </trkpt>
      <trkpt lat="43.05178" lon="-0.35419">
        <ele>1239</ele>
        <time>2026-02-08T10:50:23.000Z</time>
      </trkpt>
      <trkpt lat="43.05179" lon="-0.35421">
        <ele>1238.9</ele>
        <time>2026-02-08T10:50:26.000Z</time>
      </trkpt>
      <trkpt lat="43.05181" lon="-0.35425">
        <ele>1238.5</ele>
        <time>2026-02-08T10:50:29.000Z</time>
      </trkpt>
      <trkpt lat="43.05183" lon="-0.35428">
        <ele>1238</ele>
        <time>2026-02-08T10:50:32.000Z</time>
      </trkpt>
      <trkpt lat="43.05183" lon="-0.35432">
        <ele>1237.3</ele>
        <time>2026-02-08T10:50:35.000Z</time>
      </trkpt>
      <trkpt lat="43.05184" lon="-0.35434">
        <ele>1236.5</ele>
        <time>2026-02-08T10:50:38.000Z</time>
      </trkpt>
      <trkpt lat="43.05186" lon="-0.35434">
        <ele>1235.6</ele>
        <time>2026-02-08T10:50:41.000Z</time>
      </trkpt>
      <trkpt lat="43.05186" lon="-0.35436">
        <ele>1234.8</ele>
        <time>2026-02-08T10:50:44.000Z</time>
      </trkpt>
      <trkpt lat="43.05187" lon="-0.35438">
        <ele>1234.1</ele>
        <time>2026-02-08T10:50:47.000Z</time>
      </trkpt>
      <trkpt lat="43.05188" lon="-0.3544">
        <ele>1233.4</ele>
        <time>2026-02-08T10:50:50.000Z</time>
      </trkpt>
      <trkpt lat="43.05189" lon="-0.35442">
        <ele>1232.8</ele>
        <time>2026-02-08T10:50:53.000Z</time>
      </trkpt>
      <trkpt lat="43.05189" lon="-0.35445">
        <ele>1232.1</ele>
        <time>2026-02-08T10:50:56.000Z</time>
      </trkpt>
      <trkpt lat="43.05191" lon="-0.35447">
        <ele>1231.4</ele>
        <time>2026-02-08T10:50:59.000Z</time>
      </trkpt>
      <trkpt lat="43.05192" lon="-0.35451">
        <ele>1230.5</ele>
        <time>2026-02-08T10:51:02.000Z</time>
      </trkpt>
      <trkpt lat="43.05193" lon="-0.35453">
        <ele>1229.7</ele>
        <time>2026-02-08T10:51:05.000Z</time>
      </trkpt>
      <trkpt lat="43.05193" lon="-0.35457">
        <ele>1229</ele>
        <time>2026-02-08T10:51:08.000Z</time>
      </trkpt>
      <trkpt lat="43.05192" lon="-0.3546">
        <ele>1228.3</ele>
        <time>2026-02-08T10:51:11.000Z</time>
      </trkpt>
      <trkpt lat="43.05193" lon="-0.35462">
        <ele>1227.6</ele>
        <time>2026-02-08T10:51:14.000Z</time>
      </trkpt>
      <trkpt lat="43.05193" lon="-0.35464">
        <ele>1227</ele>
        <time>2026-02-08T10:51:17.000Z</time>
      </trkpt>
      <trkpt lat="43.05193" lon="-0.35466">
        <ele>1226.4</ele>
        <time>2026-02-08T10:51:20.000Z</time>
      </trkpt>
      <trkpt lat="43.05193" lon="-0.35469">
        <ele>1225.9</ele>
        <time>2026-02-08T10:51:23.000Z</time>
      </trkpt>
      <trkpt lat="43.05194" lon="-0.35472">
        <ele>1225.3</ele>
        <time>2026-02-08T10:51:26.000Z</time>
      </trkpt>
      <trkpt lat="43.05196" lon="-0.35474">
        <ele>1224.6</ele>
        <time>2026-02-08T10:51:29.000Z</time>
      </trkpt>
      <trkpt lat="43.05197" lon="-0.35476">
        <ele>1224</ele>
        <time>2026-02-08T10:51:32.000Z</time>
      </trkpt>
      <trkpt lat="43.05197" lon="-0.35479">
        <ele>1223.4</ele>
        <time>2026-02-08T10:51:35.000Z</time>
      </trkpt>
      <trkpt lat="43.05198" lon="-0.35482">
        <ele>1222.7</ele>
        <time>2026-02-08T10:51:38.000Z</time>
      </trkpt>
      <trkpt lat="43.05199" lon="-0.35484">
        <ele>1222.1</ele>
        <time>2026-02-08T10:51:41.000Z</time>
      </trkpt>
      <trkpt lat="43.052" lon="-0.35486">
        <ele>1221.4</ele>
        <time>2026-02-08T10:51:44.000Z</time>
      </trkpt>
      <trkpt lat="43.05202" lon="-0.35487">
        <ele>1220.8</ele>
        <time>2026-02-08T10:51:47.000Z</time>
      </trkpt>
      <trkpt lat="43.05203" lon="-0.3549">
        <ele>1220.2</ele>
        <time>2026-02-08T10:51:50.000Z</time>
      </trkpt>
      <trkpt lat="43.05204" lon="-0.35492">
        <ele>1219.6</ele>
        <time>2026-02-08T10:51:53.000Z</time>
      </trkpt>
      <trkpt lat="43.05205" lon="-0.35495">
        <ele>1219</ele>
        <time>2026-02-08T10:51:56.000Z</time>
      </trkpt>
      <trkpt lat="43.05206" lon="-0.35497">
        <ele>1218.4</ele>
        <time>2026-02-08T10:51:59.000Z</time>
      </trkpt>
      <trkpt lat="43.05207" lon="-0.35499">
        <ele>1217.8</ele>
        <time>2026-02-08T10:52:02.000Z</time>
      </trkpt>
      <trkpt lat="43.05209" lon="-0.35501">
        <ele>1217.2</ele>
        <time>2026-02-08T10:52:05.000Z</time>
      </trkpt>
      <trkpt lat="43.05211" lon="-0.35502">
        <ele>1216.5</ele>
        <time>2026-02-08T10:52:08.000Z</time>
      </trkpt>
      <trkpt lat="43.05215" lon="-0.35504">
        <ele>1216</ele>
        <time>2026-02-08T10:52:11.000Z</time>
      </trkpt>
      <trkpt lat="43.05219" lon="-0.35505">
        <ele>1215.3</ele>
        <time>2026-02-08T10:52:14.000Z</time>
      </trkpt>
      <trkpt lat="43.05221" lon="-0.35507">
        <ele>1214.6</ele>
        <time>2026-02-08T10:52:17.000Z</time>
      </trkpt>
      <trkpt lat="43.0522" lon="-0.3551">
        <ele>1214</ele>
        <time>2026-02-08T10:52:20.000Z</time>
      </trkpt>
      <trkpt lat="43.05221" lon="-0.35512">
        <ele>1213.4</ele>
        <time>2026-02-08T10:52:23.000Z</time>
      </trkpt>
      <trkpt lat="43.0522" lon="-0.35515">
        <ele>1212.6</ele>
        <time>2026-02-08T10:52:26.000Z</time>
      </trkpt>
      <trkpt lat="43.0522" lon="-0.35519">
        <ele>1211.9</ele>
        <time>2026-02-08T10:52:29.000Z</time>
      </trkpt>
      <trkpt lat="43.05222" lon="-0.35521">
        <ele>1211.1</ele>
        <time>2026-02-08T10:52:32.000Z</time>
      </trkpt>
      <trkpt lat="43.05223" lon="-0.35522">
        <ele>1210.4</ele>
        <time>2026-02-08T10:52:35.000Z</time>
      </trkpt>
      <trkpt lat="43.05224" lon="-0.35524">
        <ele>1209.6</ele>
        <time>2026-02-08T10:52:38.000Z</time>
      </trkpt>
      <trkpt lat="43.05226" lon="-0.35526">
        <ele>1208.9</ele>
        <time>2026-02-08T10:52:41.000Z</time>
      </trkpt>
      <trkpt lat="43.05228" lon="-0.35529">
        <ele>1208.3</ele>
        <time>2026-02-08T10:52:44.000Z</time>
      </trkpt>
      <trkpt lat="43.0523" lon="-0.35531">
        <ele>1207.6</ele>
        <time>2026-02-08T10:52:47.000Z</time>
      </trkpt>
      <trkpt lat="43.05232" lon="-0.35535">
        <ele>1207</ele>
        <time>2026-02-08T10:52:50.000Z</time>
      </trkpt>
      <trkpt lat="43.05233" lon="-0.35537">
        <ele>1206.4</ele>
        <time>2026-02-08T10:52:53.000Z</time>
      </trkpt>
      <trkpt lat="43.05235" lon="-0.35539">
        <ele>1206</ele>
        <time>2026-02-08T10:52:56.000Z</time>
      </trkpt>
      <trkpt lat="43.05238" lon="-0.35542">
        <ele>1205.4</ele>
        <time>2026-02-08T10:52:59.000Z</time>
      </trkpt>
      <trkpt lat="43.0524" lon="-0.35545">
        <ele>1204.8</ele>
        <time>2026-02-08T10:53:02.000Z</time>
      </trkpt>
      <trkpt lat="43.05243" lon="-0.35548">
        <ele>1204.3</ele>
        <time>2026-02-08T10:53:05.000Z</time>
      </trkpt>
      <trkpt lat="43.05245" lon="-0.35551">
        <ele>1203.9</ele>
        <time>2026-02-08T10:53:08.000Z</time>
      </trkpt>
      <trkpt lat="43.05246" lon="-0.35553">
        <ele>1203.4</ele>
        <time>2026-02-08T10:53:11.000Z</time>
      </trkpt>
      <trkpt lat="43.05245" lon="-0.35556">
        <ele>1203</ele>
        <time>2026-02-08T10:53:14.000Z</time>
      </trkpt>
      <trkpt lat="43.05248" lon="-0.35559">
        <ele>1202.6</ele>
        <time>2026-02-08T10:53:17.000Z</time>
      </trkpt>
      <trkpt lat="43.0525" lon="-0.3556">
        <ele>1202.1</ele>
        <time>2026-02-08T10:53:20.000Z</time>
      </trkpt>
      <trkpt lat="43.05252" lon="-0.35556">
        <ele>1201.5</ele>
        <time>2026-02-08T10:53:23.000Z</time>
      </trkpt>
      <trkpt lat="43.05255" lon="-0.35556">
        <ele>1201.3</ele>
        <time>2026-02-08T10:53:26.000Z</time>
      </trkpt>
      <trkpt lat="43.05257" lon="-0.35561">
        <ele>1201</ele>
        <time>2026-02-08T10:53:29.000Z</time>
      </trkpt>
      <trkpt lat="43.05256" lon="-0.35567">
        <ele>1200.6</ele>
        <time>2026-02-08T10:53:32.000Z</time>
      </trkpt>
      <trkpt lat="43.05259" lon="-0.35571">
        <ele>1200.2</ele>
        <time>2026-02-08T10:53:35.000Z</time>
      </trkpt>
      <trkpt lat="43.05262" lon="-0.35575">
        <ele>1199.7</ele>
        <time>2026-02-08T10:53:38.000Z</time>
      </trkpt>
      <trkpt lat="43.05265" lon="-0.35578">
        <ele>1199.3</ele>
        <time>2026-02-08T10:53:41.000Z</time>
      </trkpt>
      <trkpt lat="43.05269" lon="-0.35579">
        <ele>1198.7</ele>
        <time>2026-02-08T10:53:44.000Z</time>
      </trkpt>
      <trkpt lat="43.0527" lon="-0.35583">
        <ele>1198</ele>
        <time>2026-02-08T10:53:47.000Z</time>
      </trkpt>
      <trkpt lat="43.05272" lon="-0.35584">
        <ele>1197.5</ele>
        <time>2026-02-08T10:53:50.000Z</time>
      </trkpt>
      <trkpt lat="43.05271" lon="-0.35586">
        <ele>1196.9</ele>
        <time>2026-02-08T10:53:53.000Z</time>
      </trkpt>
      <trkpt lat="43.0527" lon="-0.35589">
        <ele>1196.2</ele>
        <time>2026-02-08T10:53:56.000Z</time>
      </trkpt>
      <trkpt lat="43.05272" lon="-0.35591">
        <ele>1195.6</ele>
        <time>2026-02-08T10:53:59.000Z</time>
      </trkpt>
      <trkpt lat="43.0527" lon="-0.35596">
        <ele>1195</ele>
        <time>2026-02-08T10:54:02.000Z</time>
      </trkpt>
      <trkpt lat="43.05272" lon="-0.35598">
        <ele>1194.4</ele>
        <time>2026-02-08T10:54:05.000Z</time>
      </trkpt>
      <trkpt lat="43.05274" lon="-0.356">
        <ele>1193.9</ele>
        <time>2026-02-08T10:54:08.000Z</time>
      </trkpt>
      <trkpt lat="43.05274" lon="-0.35603">
        <ele>1193.3</ele>
        <time>2026-02-08T10:54:11.000Z</time>
      </trkpt>
      <trkpt lat="43.05275" lon="-0.35602">
        <ele>1192.7</ele>
        <time>2026-02-08T10:54:14.000Z</time>
      </trkpt>
      <trkpt lat="43.05277" lon="-0.35603">
        <ele>1192.2</ele>
        <time>2026-02-08T10:54:17.000Z</time>
      </trkpt>
      <trkpt lat="43.05278" lon="-0.35604">
        <ele>1191.5</ele>
        <time>2026-02-08T10:54:20.000Z</time>
      </trkpt>
      <trkpt lat="43.05279" lon="-0.35605">
        <ele>1190.7</ele>
        <time>2026-02-08T10:54:23.000Z</time>
      </trkpt>
      <trkpt lat="43.05282" lon="-0.35606">
        <ele>1189.9</ele>
        <time>2026-02-08T10:54:26.000Z</time>
      </trkpt>
      <trkpt lat="43.05284" lon="-0.35607">
        <ele>1189.2</ele>
        <time>2026-02-08T10:54:29.000Z</time>
      </trkpt>
      <trkpt lat="43.05286" lon="-0.35608">
        <ele>1188.4</ele>
        <time>2026-02-08T10:54:32.000Z</time>
      </trkpt>
      <trkpt lat="43.05288" lon="-0.3561">
        <ele>1187.7</ele>
        <time>2026-02-08T10:54:35.000Z</time>
      </trkpt>
      <trkpt lat="43.05289" lon="-0.35611">
        <ele>1187.1</ele>
        <time>2026-02-08T10:54:38.000Z</time>
      </trkpt>
      <trkpt lat="43.0529" lon="-0.35613">
        <ele>1186.4</ele>
        <time>2026-02-08T10:54:41.000Z</time>
      </trkpt>
      <trkpt lat="43.05291" lon="-0.35614">
        <ele>1185.8</ele>
        <time>2026-02-08T10:54:44.000Z</time>
      </trkpt>
      <trkpt lat="43.05292" lon="-0.35616">
        <ele>1184.9</ele>
        <time>2026-02-08T10:54:47.000Z</time>
      </trkpt>
      <trkpt lat="43.05293" lon="-0.35618">
        <ele>1184.2</ele>
        <time>2026-02-08T10:54:50.000Z</time>
      </trkpt>
      <trkpt lat="43.05296" lon="-0.35621">
        <ele>1183.4</ele>
        <time>2026-02-08T10:54:53.000Z</time>
      </trkpt>
      <trkpt lat="43.05299" lon="-0.35623">
        <ele>1182.7</ele>
        <time>2026-02-08T10:54:56.000Z</time>
      </trkpt>
      <trkpt lat="43.05302" lon="-0.35626">
        <ele>1181.9</ele>
        <time>2026-02-08T10:54:59.000Z</time>
      </trkpt>
      <trkpt lat="43.05304" lon="-0.35629">
        <ele>1181</ele>
        <time>2026-02-08T10:55:02.000Z</time>
      </trkpt>
      <trkpt lat="43.05305" lon="-0.35631">
        <ele>1180.3</ele>
        <time>2026-02-08T10:55:05.000Z</time>
      </trkpt>
      <trkpt lat="43.05309" lon="-0.35634">
        <ele>1179.7</ele>
        <time>2026-02-08T10:55:08.000Z</time>
      </trkpt>
      <trkpt lat="43.05311" lon="-0.35636">
        <ele>1179.2</ele>
        <time>2026-02-08T10:55:11.000Z</time>
      </trkpt>
      <trkpt lat="43.05313" lon="-0.3564">
        <ele>1178.7</ele>
        <time>2026-02-08T10:55:14.000Z</time>
      </trkpt>
      <trkpt lat="43.05311" lon="-0.35643">
        <ele>1178.2</ele>
        <time>2026-02-08T10:55:17.000Z</time>
      </trkpt>
      <trkpt lat="43.05311" lon="-0.35646">
        <ele>1177.8</ele>
        <time>2026-02-08T10:55:20.000Z</time>
      </trkpt>
      <trkpt lat="43.05313" lon="-0.35649">
        <ele>1177.5</ele>
        <time>2026-02-08T10:55:23.000Z</time>
      </trkpt>
      <trkpt lat="43.05316" lon="-0.35651">
        <ele>1177</ele>
        <time>2026-02-08T10:55:26.000Z</time>
      </trkpt>
      <trkpt lat="43.05319" lon="-0.35653">
        <ele>1176.4</ele>
        <time>2026-02-08T10:55:29.000Z</time>
      </trkpt>
      <trkpt lat="43.05321" lon="-0.35657">
        <ele>1175.7</ele>
        <time>2026-02-08T10:55:32.000Z</time>
      </trkpt>
      <trkpt lat="43.05321" lon="-0.35661">
        <ele>1175</ele>
        <time>2026-02-08T10:55:35.000Z</time>
      </trkpt>
      <trkpt lat="43.05322" lon="-0.35665">
        <ele>1174.2</ele>
        <time>2026-02-08T10:55:38.000Z</time>
      </trkpt>
      <trkpt lat="43.05324" lon="-0.35669">
        <ele>1173.7</ele>
        <time>2026-02-08T10:55:41.000Z</time>
      </trkpt>
      <trkpt lat="43.05325" lon="-0.35672">
        <ele>1173.2</ele>
        <time>2026-02-08T10:55:44.000Z</time>
      </trkpt>
      <trkpt lat="43.05325" lon="-0.35674">
        <ele>1172.8</ele>
        <time>2026-02-08T10:55:47.000Z</time>
      </trkpt>
      <trkpt lat="43.05327" lon="-0.35677">
        <ele>1172.3</ele>
        <time>2026-02-08T10:55:50.000Z</time>
      </trkpt>
      <trkpt lat="43.05328" lon="-0.3568">
        <ele>1171.9</ele>
        <time>2026-02-08T10:55:53.000Z</time>
      </trkpt>
      <trkpt lat="43.05327" lon="-0.35684">
        <ele>1171.7</ele>
        <time>2026-02-08T10:55:56.000Z</time>
      </trkpt>
      <trkpt lat="43.05328" lon="-0.3569">
        <ele>1171.3</ele>
        <time>2026-02-08T10:55:59.000Z</time>
      </trkpt>
      <trkpt lat="43.05329" lon="-0.35694">
        <ele>1171</ele>
        <time>2026-02-08T10:56:02.000Z</time>
      </trkpt>
      <trkpt lat="43.0533" lon="-0.35697">
        <ele>1170.5</ele>
        <time>2026-02-08T10:56:05.000Z</time>
      </trkpt>
      <trkpt lat="43.0533" lon="-0.35702">
        <ele>1169.9</ele>
        <time>2026-02-08T10:56:08.000Z</time>
      </trkpt>
      <trkpt lat="43.05331" lon="-0.35705">
        <ele>1169.3</ele>
        <time>2026-02-08T10:56:11.000Z</time>
      </trkpt>
      <trkpt lat="43.05332" lon="-0.35709">
        <ele>1168.5</ele>
        <time>2026-02-08T10:56:14.000Z</time>
      </trkpt>
      <trkpt lat="43.05333" lon="-0.35713">
        <ele>1167.8</ele>
        <time>2026-02-08T10:56:17.000Z</time>
      </trkpt>
      <trkpt lat="43.05332" lon="-0.35718">
        <ele>1167.2</ele>
        <time>2026-02-08T10:56:20.000Z</time>
      </trkpt>
      <trkpt lat="43.05335" lon="-0.3572">
        <ele>1166.8</ele>
        <time>2026-02-08T10:56:23.000Z</time>
      </trkpt>
      <trkpt lat="43.05336" lon="-0.35723">
        <ele>1166.3</ele>
        <time>2026-02-08T10:56:26.000Z</time>
      </trkpt>
      <trkpt lat="43.05338" lon="-0.35725">
        <ele>1165.9</ele>
        <time>2026-02-08T10:56:29.000Z</time>
      </trkpt>
      <trkpt lat="43.05341" lon="-0.35728">
        <ele>1165.6</ele>
        <time>2026-02-08T10:56:32.000Z</time>
      </trkpt>
      <trkpt lat="43.05345" lon="-0.3573">
        <ele>1165.1</ele>
        <time>2026-02-08T10:56:35.000Z</time>
      </trkpt>
      <trkpt lat="43.05347" lon="-0.35732">
        <ele>1164.8</ele>
        <time>2026-02-08T10:56:38.000Z</time>
      </trkpt>
      <trkpt lat="43.05349" lon="-0.35737">
        <ele>1164.6</ele>
        <time>2026-02-08T10:56:41.000Z</time>
      </trkpt>
      <trkpt lat="43.05352" lon="-0.35738">
        <ele>1164.4</ele>
        <time>2026-02-08T10:56:44.000Z</time>
      </trkpt>
      <trkpt lat="43.05352" lon="-0.35738">
        <ele>1164.4</ele>
        <time>2026-02-08T10:56:46.000Z</time>
      </trkpt>
      <trkpt lat="43.05352" lon="-0.35738">
        <ele>1164.4</ele>
        <time>2026-02-08T10:56:47.000Z</time>
      </trkpt>
      <trkpt lat="43.05352" lon="-0.35739">
        <ele>1164.4</ele>
        <time>2026-02-08T10:56:48.000Z</time>
      </trkpt>
      <trkpt lat="43.05352" lon="-0.35739">
        <ele>1164.3</ele>
        <time>2026-02-08T10:56:49.000Z</time>
      </trkpt>
      <trkpt lat="43.05353" lon="-0.3574">
        <ele>1164.3</ele>
        <time>2026-02-08T10:56:50.000Z</time>
      </trkpt>
      <trkpt lat="43.05354" lon="-0.35742">
        <ele>1164.1</ele>
        <time>2026-02-08T10:56:53.000Z</time>
      </trkpt>
      <trkpt lat="43.05356" lon="-0.35743">
        <ele>1163.9</ele>
        <time>2026-02-08T10:56:56.000Z</time>
      </trkpt>
      <trkpt lat="43.05358" lon="-0.35745">
        <ele>1163.6</ele>
        <time>2026-02-08T10:56:59.000Z</time>
      </trkpt>
      <trkpt lat="43.05359" lon="-0.35749">
        <ele>1163.3</ele>
        <time>2026-02-08T10:57:02.000Z</time>
      </trkpt>
      <trkpt lat="43.05361" lon="-0.35751">
        <ele>1162.9</ele>
        <time>2026-02-08T10:57:05.000Z</time>
      </trkpt>
      <trkpt lat="43.05362" lon="-0.35753">
        <ele>1162.4</ele>
        <time>2026-02-08T10:57:08.000Z</time>
      </trkpt>
      <trkpt lat="43.05363" lon="-0.35756">
        <ele>1161.8</ele>
        <time>2026-02-08T10:57:11.000Z</time>
      </trkpt>
      <trkpt lat="43.05362" lon="-0.35759">
        <ele>1161.2</ele>
        <time>2026-02-08T10:57:14.000Z</time>
      </trkpt>
      <trkpt lat="43.05362" lon="-0.35761">
        <ele>1160.5</ele>
        <time>2026-02-08T10:57:17.000Z</time>
      </trkpt>
      <trkpt lat="43.05364" lon="-0.35763">
        <ele>1159.7</ele>
        <time>2026-02-08T10:57:20.000Z</time>
      </trkpt>
      <trkpt lat="43.05367" lon="-0.35764">
        <ele>1159</ele>
        <time>2026-02-08T10:57:23.000Z</time>
      </trkpt>
      <trkpt lat="43.05368" lon="-0.35766">
        <ele>1158.3</ele>
        <time>2026-02-08T10:57:26.000Z</time>
      </trkpt>
      <trkpt lat="43.05368" lon="-0.35768">
        <ele>1157.8</ele>
        <time>2026-02-08T10:57:29.000Z</time>
      </trkpt>
      <trkpt lat="43.05371" lon="-0.35769">
        <ele>1157.1</ele>
        <time>2026-02-08T10:57:32.000Z</time>
      </trkpt>
      <trkpt lat="43.05374" lon="-0.35771">
        <ele>1156.6</ele>
        <time>2026-02-08T10:57:35.000Z</time>
      </trkpt>
      <trkpt lat="43.05378" lon="-0.35772">
        <ele>1156.2</ele>
        <time>2026-02-08T10:57:38.000Z</time>
      </trkpt>
      <trkpt lat="43.05381" lon="-0.35776">
        <ele>1155.7</ele>
        <time>2026-02-08T10:57:41.000Z</time>
      </trkpt>
      <trkpt lat="43.05383" lon="-0.35778">
        <ele>1155</ele>
        <time>2026-02-08T10:57:44.000Z</time>
      </trkpt>
      <trkpt lat="43.05386" lon="-0.3578">
        <ele>1154.4</ele>
        <time>2026-02-08T10:57:47.000Z</time>
      </trkpt>
      <trkpt lat="43.05389" lon="-0.35782">
        <ele>1153.8</ele>
        <time>2026-02-08T10:57:50.000Z</time>
      </trkpt>
      <trkpt lat="43.05393" lon="-0.35783">
        <ele>1153.2</ele>
        <time>2026-02-08T10:57:53.000Z</time>
      </trkpt>
      <trkpt lat="43.05397" lon="-0.35784">
        <ele>1152.6</ele>
        <time>2026-02-08T10:57:56.000Z</time>
      </trkpt>
      <trkpt lat="43.05398" lon="-0.35785">
        <ele>1152</ele>
        <time>2026-02-08T10:57:59.000Z</time>
      </trkpt>
      <trkpt lat="43.05399" lon="-0.35787">
        <ele>1151.4</ele>
        <time>2026-02-08T10:58:02.000Z</time>
      </trkpt>
      <trkpt lat="43.05402" lon="-0.3579">
        <ele>1150.9</ele>
        <time>2026-02-08T10:58:05.000Z</time>
      </trkpt>
      <trkpt lat="43.05404" lon="-0.35794">
        <ele>1150.4</ele>
        <time>2026-02-08T10:58:08.000Z</time>
      </trkpt>
      <trkpt lat="43.05405" lon="-0.35797">
        <ele>1149.9</ele>
        <time>2026-02-08T10:58:11.000Z</time>
      </trkpt>
      <trkpt lat="43.05405" lon="-0.35801">
        <ele>1149.5</ele>
        <time>2026-02-08T10:58:14.000Z</time>
      </trkpt>
      <trkpt lat="43.05405" lon="-0.35804">
        <ele>1149.1</ele>
        <time>2026-02-08T10:58:17.000Z</time>
      </trkpt>
      <trkpt lat="43.05407" lon="-0.35806">
        <ele>1148.6</ele>
        <time>2026-02-08T10:58:20.000Z</time>
      </trkpt>
      <trkpt lat="43.05409" lon="-0.35809">
        <ele>1148.1</ele>
        <time>2026-02-08T10:58:23.000Z</time>
      </trkpt>
      <trkpt lat="43.05411" lon="-0.3581">
        <ele>1147.5</ele>
        <time>2026-02-08T10:58:26.000Z</time>
      </trkpt>
      <trkpt lat="43.05414" lon="-0.35811">
        <ele>1146.8</ele>
        <time>2026-02-08T10:58:29.000Z</time>
      </trkpt>
      <trkpt lat="43.05414" lon="-0.35813">
        <ele>1146.2</ele>
        <time>2026-02-08T10:58:32.000Z</time>
      </trkpt>
      <trkpt lat="43.05416" lon="-0.35816">
        <ele>1145.5</ele>
        <time>2026-02-08T10:58:35.000Z</time>
      </trkpt>
      <trkpt lat="43.05416" lon="-0.35819">
        <ele>1144.9</ele>
        <time>2026-02-08T10:58:38.000Z</time>
      </trkpt>
      <trkpt lat="43.05418" lon="-0.35822">
        <ele>1144.1</ele>
        <time>2026-02-08T10:58:41.000Z</time>
      </trkpt>
      <trkpt lat="43.05421" lon="-0.35825">
        <ele>1143.1</ele>
        <time>2026-02-08T10:58:44.000Z</time>
      </trkpt>
      <trkpt lat="43.05422" lon="-0.35829">
        <ele>1142.1</ele>
        <time>2026-02-08T10:58:47.000Z</time>
      </trkpt>
      <trkpt lat="43.05423" lon="-0.35832">
        <ele>1141.4</ele>
        <time>2026-02-08T10:58:50.000Z</time>
      </trkpt>
      <trkpt lat="43.05424" lon="-0.35835">
        <ele>1140.8</ele>
        <time>2026-02-08T10:58:53.000Z</time>
      </trkpt>
      <trkpt lat="43.05426" lon="-0.35836">
        <ele>1140.1</ele>
        <time>2026-02-08T10:58:56.000Z</time>
      </trkpt>
      <trkpt lat="43.05427" lon="-0.35838">
        <ele>1139.4</ele>
        <time>2026-02-08T10:58:59.000Z</time>
      </trkpt>
      <trkpt lat="43.05427" lon="-0.3584">
        <ele>1138.8</ele>
        <time>2026-02-08T10:59:02.000Z</time>
      </trkpt>
      <trkpt lat="43.0543" lon="-0.35842">
        <ele>1138.2</ele>
        <time>2026-02-08T10:59:05.000Z</time>
      </trkpt>
      <trkpt lat="43.0543" lon="-0.35845">
        <ele>1137.6</ele>
        <time>2026-02-08T10:59:08.000Z</time>
      </trkpt>
      <trkpt lat="43.05432" lon="-0.35849">
        <ele>1136.9</ele>
        <time>2026-02-08T10:59:11.000Z</time>
      </trkpt>
      <trkpt lat="43.05432" lon="-0.35854">
        <ele>1136.4</ele>
        <time>2026-02-08T10:59:14.000Z</time>
      </trkpt>
      <trkpt lat="43.05431" lon="-0.3586">
        <ele>1135.9</ele>
        <time>2026-02-08T10:59:17.000Z</time>
      </trkpt>
      <trkpt lat="43.05433" lon="-0.35863">
        <ele>1135.5</ele>
        <time>2026-02-08T10:59:20.000Z</time>
      </trkpt>
      <trkpt lat="43.05437" lon="-0.35866">
        <ele>1135</ele>
        <time>2026-02-08T10:59:23.000Z</time>
      </trkpt>
      <trkpt lat="43.0544" lon="-0.35869">
        <ele>1134.4</ele>
        <time>2026-02-08T10:59:26.000Z</time>
      </trkpt>
      <trkpt lat="43.05445" lon="-0.35872">
        <ele>1133.6</ele>
        <time>2026-02-08T10:59:29.000Z</time>
      </trkpt>
      <trkpt lat="43.0545" lon="-0.35875">
        <ele>1132.9</ele>
        <time>2026-02-08T10:59:32.000Z</time>
      </trkpt>
      <trkpt lat="43.05455" lon="-0.35877">
        <ele>1132.2</ele>
        <time>2026-02-08T10:59:35.000Z</time>
      </trkpt>
      <trkpt lat="43.05458" lon="-0.3588">
        <ele>1131.6</ele>
        <time>2026-02-08T10:59:38.000Z</time>
      </trkpt>
      <trkpt lat="43.05462" lon="-0.35881">
        <ele>1131</ele>
        <time>2026-02-08T10:59:41.000Z</time>
      </trkpt>
      <trkpt lat="43.05462" lon="-0.35883">
        <ele>1130.4</ele>
        <time>2026-02-08T10:59:44.000Z</time>
      </trkpt>
      <trkpt lat="43.05463" lon="-0.35885">
        <ele>1129.9</ele>
        <time>2026-02-08T10:59:47.000Z</time>
      </trkpt>
      <trkpt lat="43.05466" lon="-0.35887">
        <ele>1129.4</ele>
        <time>2026-02-08T10:59:50.000Z</time>
      </trkpt>
      <trkpt lat="43.05466" lon="-0.35889">
        <ele>1128.9</ele>
        <time>2026-02-08T10:59:53.000Z</time>
      </trkpt>
      <trkpt lat="43.05466" lon="-0.3589">
        <ele>1128.5</ele>
        <time>2026-02-08T10:59:56.000Z</time>
      </trkpt>
      <trkpt lat="43.05466" lon="-0.35891">
        <ele>1127.9</ele>
        <time>2026-02-08T10:59:59.000Z</time>
      </trkpt>
      <trkpt lat="43.05468" lon="-0.35892">
        <ele>1127.4</ele>
        <time>2026-02-08T11:00:02.000Z</time>
      </trkpt>
      <trkpt lat="43.05471" lon="-0.35893">
        <ele>1126.8</ele>
        <time>2026-02-08T11:00:05.000Z</time>
      </trkpt>
      <trkpt lat="43.05474" lon="-0.35894">
        <ele>1126.3</ele>
        <time>2026-02-08T11:00:08.000Z</time>
      </trkpt>
      <trkpt lat="43.05477" lon="-0.35894">
        <ele>1125.8</ele>
        <time>2026-02-08T11:00:11.000Z</time>
      </trkpt>
      <trkpt lat="43.05481" lon="-0.35894">
        <ele>1125.4</ele>
        <time>2026-02-08T11:00:14.000Z</time>
      </trkpt>
      <trkpt lat="43.05484" lon="-0.35894">
        <ele>1125</ele>
        <time>2026-02-08T11:00:17.000Z</time>
      </trkpt>
      <trkpt lat="43.05485" lon="-0.35896">
        <ele>1124.5</ele>
        <time>2026-02-08T11:00:20.000Z</time>
      </trkpt>
      <trkpt lat="43.05488" lon="-0.35897">
        <ele>1123.9</ele>
        <time>2026-02-08T11:00:23.000Z</time>
      </trkpt>
      <trkpt lat="43.05491" lon="-0.35898">
        <ele>1123.3</ele>
        <time>2026-02-08T11:00:26.000Z</time>
      </trkpt>
      <trkpt lat="43.05494" lon="-0.35899">
        <ele>1122.6</ele>
        <time>2026-02-08T11:00:29.000Z</time>
      </trkpt>
      <trkpt lat="43.05498" lon="-0.359">
        <ele>1121.8</ele>
        <time>2026-02-08T11:00:32.000Z</time>
      </trkpt>
      <trkpt lat="43.05501" lon="-0.35902">
        <ele>1120.9</ele>
        <time>2026-02-08T11:00:35.000Z</time>
      </trkpt>
      <trkpt lat="43.05504" lon="-0.35901">
        <ele>1120.1</ele>
        <time>2026-02-08T11:00:38.000Z</time>
      </trkpt>
      <trkpt lat="43.05506" lon="-0.359">
        <ele>1119.4</ele>
        <time>2026-02-08T11:00:41.000Z</time>
      </trkpt>
      <trkpt lat="43.05506" lon="-0.35901">
        <ele>1118.8</ele>
        <time>2026-02-08T11:00:44.000Z</time>
      </trkpt>
      <trkpt lat="43.05508" lon="-0.35901">
        <ele>1118.1</ele>
        <time>2026-02-08T11:00:47.000Z</time>
      </trkpt>
      <trkpt lat="43.05511" lon="-0.35901">
        <ele>1117.4</ele>
        <time>2026-02-08T11:00:50.000Z</time>
      </trkpt>
      <trkpt lat="43.05509" lon="-0.35902">
        <ele>1116.9</ele>
        <time>2026-02-08T11:00:53.000Z</time>
      </trkpt>
      <trkpt lat="43.05509" lon="-0.35902">
        <ele>1116.4</ele>
        <time>2026-02-08T11:00:56.000Z</time>
      </trkpt>
      <trkpt lat="43.05508" lon="-0.35904">
        <ele>1116.3</ele>
        <time>2026-02-08T11:00:59.000Z</time>
      </trkpt>
      <trkpt lat="43.05508" lon="-0.35905">
        <ele>1116.3</ele>
        <time>2026-02-08T11:01:02.000Z</time>
      </trkpt>
      <trkpt lat="43.05509" lon="-0.35903">
        <ele>1116.3</ele>
        <time>2026-02-08T11:01:05.000Z</time>
      </trkpt>
      <trkpt lat="43.0551" lon="-0.35902">
        <ele>1116.3</ele>
        <time>2026-02-08T11:01:07.000Z</time>
      </trkpt>
      <trkpt lat="43.05509" lon="-0.35902">
        <ele>1116.3</ele>
        <time>2026-02-08T11:01:08.000Z</time>
      </trkpt>
      <trkpt lat="43.05508" lon="-0.35901">
        <ele>1116.5</ele>
        <time>2026-02-08T11:01:11.000Z</time>
      </trkpt>
      <trkpt lat="43.05507" lon="-0.35902">
        <ele>1116.5</ele>
        <time>2026-02-08T11:01:12.000Z</time>
      </trkpt>
      <trkpt lat="43.05507" lon="-0.35902">
        <ele>1116.5</ele>
        <time>2026-02-08T11:01:13.000Z</time>
      </trkpt>
      <trkpt lat="43.05507" lon="-0.35902">
        <ele>1116.5</ele>
        <time>2026-02-08T11:01:14.000Z</time>
      </trkpt>
      <trkpt lat="43.05506" lon="-0.35902">
        <ele>1116.5</ele>
        <time>2026-02-08T11:01:17.000Z</time>
      </trkpt>
      <trkpt lat="43.05508" lon="-0.35904">
        <ele>1116.4</ele>
        <time>2026-02-08T11:01:20.000Z</time>
      </trkpt>
      <trkpt lat="43.05513" lon="-0.35908">
        <ele>1116.3</ele>
        <time>2026-02-08T11:01:23.000Z</time>
      </trkpt>
      <trkpt lat="43.05515" lon="-0.35911">
        <ele>1116.2</ele>
        <time>2026-02-08T11:01:26.000Z</time>
      </trkpt>
      <trkpt lat="43.05515" lon="-0.35917">
        <ele>1116.1</ele>
        <time>2026-02-08T11:01:29.000Z</time>
      </trkpt>
      <trkpt lat="43.05517" lon="-0.35922">
        <ele>1116</ele>
        <time>2026-02-08T11:01:32.000Z</time>
      </trkpt>
      <trkpt lat="43.05518" lon="-0.35926">
        <ele>1115.9</ele>
        <time>2026-02-08T11:01:35.000Z</time>
      </trkpt>
      <trkpt lat="43.05522" lon="-0.35929">
        <ele>1115.7</ele>
        <time>2026-02-08T11:01:38.000Z</time>
      </trkpt>
      <trkpt lat="43.05523" lon="-0.35932">
        <ele>1115.5</ele>
        <time>2026-02-08T11:01:41.000Z</time>
      </trkpt>
      <trkpt lat="43.05525" lon="-0.35932">
        <ele>1115.3</ele>
        <time>2026-02-08T11:01:44.000Z</time>
      </trkpt>
      <trkpt lat="43.05524" lon="-0.3593">
        <ele>1115</ele>
        <time>2026-02-08T11:01:47.000Z</time>
      </trkpt>
      <trkpt lat="43.05525" lon="-0.35931">
        <ele>1115</ele>
        <time>2026-02-08T11:01:48.000Z</time>
      </trkpt>
      <trkpt lat="43.05525" lon="-0.35931">
        <ele>1114.9</ele>
        <time>2026-02-08T11:01:49.000Z</time>
      </trkpt>
      <trkpt lat="43.05525" lon="-0.35932">
        <ele>1114.8</ele>
        <time>2026-02-08T11:01:50.000Z</time>
      </trkpt>
      <trkpt lat="43.05525" lon="-0.35932">
        <ele>1114.7</ele>
        <time>2026-02-08T11:01:51.000Z</time>
      </trkpt>
      <trkpt lat="43.05527" lon="-0.35935">
        <ele>1114.3</ele>
        <time>2026-02-08T11:01:54.000Z</time>
      </trkpt>
      <trkpt lat="43.05526" lon="-0.35937">
        <ele>1114</ele>
        <time>2026-02-08T11:01:57.000Z</time>
      </trkpt>
      <trkpt lat="43.05526" lon="-0.35939">
        <ele>1113.8</ele>
        <time>2026-02-08T11:02:00.000Z</time>
      </trkpt>
      <trkpt lat="43.05525" lon="-0.35941">
        <ele>1113.6</ele>
        <time>2026-02-08T11:02:03.000Z</time>
      </trkpt>
      <trkpt lat="43.05525" lon="-0.35941">
        <ele>1113.4</ele>
        <time>2026-02-08T11:02:06.000Z</time>
      </trkpt>
      <trkpt lat="43.05524" lon="-0.35942">
        <ele>1113</ele>
        <time>2026-02-08T11:02:09.000Z</time>
      </trkpt>
      <trkpt lat="43.05523" lon="-0.35943">
        <ele>1112.9</ele>
        <time>2026-02-08T11:02:10.000Z</time>
      </trkpt>
      <trkpt lat="43.05523" lon="-0.35943">
        <ele>1112.8</ele>
        <time>2026-02-08T11:02:11.000Z</time>
      </trkpt>
      <trkpt lat="43.05523" lon="-0.35943">
        <ele>1112.9</ele>
        <time>2026-02-08T11:02:12.000Z</time>
      </trkpt>
      <trkpt lat="43.05523" lon="-0.35944">
        <ele>1113</ele>
        <time>2026-02-08T11:02:13.000Z</time>
      </trkpt>
      <trkpt lat="43.05523" lon="-0.35944">
        <ele>1113</ele>
        <time>2026-02-08T11:02:16.000Z</time>
      </trkpt>
      <trkpt lat="43.05523" lon="-0.35944">
        <ele>1113</ele>
        <time>2026-02-08T11:02:17.000Z</time>
      </trkpt>
      <trkpt lat="43.05523" lon="-0.35944">
        <ele>1113</ele>
        <time>2026-02-08T11:02:18.000Z</time>
      </trkpt>
      <trkpt lat="43.05524" lon="-0.35944">
        <ele>1112.9</ele>
        <time>2026-02-08T11:02:19.000Z</time>
      </trkpt>
      <trkpt lat="43.05523" lon="-0.35945">
        <ele>1112.9</ele>
        <time>2026-02-08T11:02:20.000Z</time>
      </trkpt>
      <trkpt lat="43.05522" lon="-0.35945">
        <ele>1112.9</ele>
        <time>2026-02-08T11:02:21.000Z</time>
      </trkpt>
      <trkpt lat="43.05522" lon="-0.35944">
        <ele>1112.9</ele>
        <time>2026-02-08T11:02:22.000Z</time>
      </trkpt>
      <trkpt lat="43.05521" lon="-0.35944">
        <ele>1112.9</ele>
        <time>2026-02-08T11:02:23.000Z</time>
      </trkpt>
      <trkpt lat="43.05521" lon="-0.35944">
        <ele>1112.9</ele>
        <time>2026-02-08T11:02:24.000Z</time>
      </trkpt>
      <trkpt lat="43.05521" lon="-0.35944">
        <ele>1112.9</ele>
        <time>2026-02-08T11:02:25.000Z</time>
      </trkpt>
      <trkpt lat="43.05521" lon="-0.35944">
        <ele>1112.9</ele>
        <time>2026-02-08T11:02:26.000Z</time>
      </trkpt>
      <trkpt lat="43.05521" lon="-0.35945">
        <ele>1112.9</ele>
        <time>2026-02-08T11:02:29.000Z</time>
      </trkpt>
      <trkpt lat="43.05521" lon="-0.35945">
        <ele>1112.9</ele>
        <time>2026-02-08T11:02:32.000Z</time>
      </trkpt>
      <trkpt lat="43.0552" lon="-0.35945">
        <ele>1112.9</ele>
        <time>2026-02-08T11:02:34.000Z</time>
      </trkpt>
      <trkpt lat="43.05521" lon="-0.35945">
        <ele>1112.9</ele>
        <time>2026-02-08T11:02:35.000Z</time>
      </trkpt>
      <trkpt lat="43.0552" lon="-0.35945">
        <ele>1112.8</ele>
        <time>2026-02-08T11:02:36.000Z</time>
      </trkpt>
      <trkpt lat="43.0552" lon="-0.35946">
        <ele>1112.8</ele>
        <time>2026-02-08T11:02:37.000Z</time>
      </trkpt>
      <trkpt lat="43.05519" lon="-0.35946">
        <ele>1112.8</ele>
        <time>2026-02-08T11:02:38.000Z</time>
      </trkpt>
      <trkpt lat="43.05519" lon="-0.35947">
        <ele>1112.8</ele>
        <time>2026-02-08T11:02:41.000Z</time>
      </trkpt>
      <trkpt lat="43.05519" lon="-0.35947">
        <ele>1112.8</ele>
        <time>2026-02-08T11:02:42.000Z</time>
      </trkpt>
      <trkpt lat="43.05519" lon="-0.35947">
        <ele>1112.8</ele>
        <time>2026-02-08T11:02:43.000Z</time>
      </trkpt>
      <trkpt lat="43.05519" lon="-0.35948">
        <ele>1112.8</ele>
        <time>2026-02-08T11:02:44.000Z</time>
      </trkpt>
      <trkpt lat="43.05518" lon="-0.35947">
        <ele>1112.8</ele>
        <time>2026-02-08T11:02:45.000Z</time>
      </trkpt>
      <trkpt lat="43.05516" lon="-0.35947">
        <ele>1112.8</ele>
        <time>2026-02-08T11:02:48.000Z</time>
      </trkpt>
      <trkpt lat="43.05515" lon="-0.35947">
        <ele>1112.8</ele>
        <time>2026-02-08T11:02:51.000Z</time>
      </trkpt>
      <trkpt lat="43.05516" lon="-0.35946">
        <ele>1112.8</ele>
        <time>2026-02-08T11:02:54.000Z</time>
      </trkpt>
      <trkpt lat="43.05517" lon="-0.35945">
        <ele>1112.8</ele>
        <time>2026-02-08T11:02:57.000Z</time>
      </trkpt>
      <trkpt lat="43.05519" lon="-0.35945">
        <ele>1112.9</ele>
        <time>2026-02-08T11:03:00.000Z</time>
      </trkpt>
      <trkpt lat="43.0552" lon="-0.35945">
        <ele>1112.9</ele>
        <time>2026-02-08T11:03:03.000Z</time>
      </trkpt>
      <trkpt lat="43.0552" lon="-0.35946">
        <ele>1112.9</ele>
        <time>2026-02-08T11:03:06.000Z</time>
      </trkpt>
      <trkpt lat="43.05521" lon="-0.35946">
        <ele>1112.9</ele>
        <time>2026-02-08T11:03:09.000Z</time>
      </trkpt>
      <trkpt lat="43.05522" lon="-0.35945">
        <ele>1112.8</ele>
        <time>2026-02-08T11:03:12.000Z</time>
      </trkpt>
      <trkpt lat="43.05521" lon="-0.35945">
        <ele>1112.8</ele>
        <time>2026-02-08T11:03:13.000Z</time>
      </trkpt>
      <trkpt lat="43.05522" lon="-0.35945">
        <ele>1112.8</ele>
        <time>2026-02-08T11:03:14.000Z</time>
      </trkpt>
      <trkpt lat="43.05521" lon="-0.35945">
        <ele>1112.8</ele>
        <time>2026-02-08T11:03:15.000Z</time>
      </trkpt>
      <trkpt lat="43.05522" lon="-0.35945">
        <ele>1112.8</ele>
        <time>2026-02-08T11:03:16.000Z</time>
      </trkpt>
      <trkpt lat="43.05522" lon="-0.35946">
        <ele>1112.8</ele>
        <time>2026-02-08T11:03:17.000Z</time>
      </trkpt>
      <trkpt lat="43.05522" lon="-0.35946">
        <ele>1112.8</ele>
        <time>2026-02-08T11:03:18.000Z</time>
      </trkpt>
      <trkpt lat="43.05523" lon="-0.35946">
        <ele>1112.8</ele>
        <time>2026-02-08T11:03:19.000Z</time>
      </trkpt>
      <trkpt lat="43.05523" lon="-0.35946">
        <ele>1112.8</ele>
        <time>2026-02-08T11:03:20.000Z</time>
      </trkpt>
      <trkpt lat="43.05522" lon="-0.35944">
        <ele>1112.8</ele>
        <time>2026-02-08T11:03:23.000Z</time>
      </trkpt>
      <trkpt lat="43.05521" lon="-0.35945">
        <ele>1112.8</ele>
        <time>2026-02-08T11:03:26.000Z</time>
      </trkpt>
      <trkpt lat="43.05517" lon="-0.35947">
        <ele>1112.6</ele>
        <time>2026-02-08T11:03:29.000Z</time>
      </trkpt>
      <trkpt lat="43.05518" lon="-0.35947">
        <ele>1112.6</ele>
        <time>2026-02-08T11:03:32.000Z</time>
      </trkpt>
      <trkpt lat="43.05523" lon="-0.35945">
        <ele>1112.6</ele>
        <time>2026-02-08T11:03:35.000Z</time>
      </trkpt>
      <trkpt lat="43.05525" lon="-0.35946">
        <ele>1112.6</ele>
        <time>2026-02-08T11:03:38.000Z</time>
      </trkpt>
      <trkpt lat="43.05526" lon="-0.35945">
        <ele>1112.6</ele>
        <time>2026-02-08T11:03:41.000Z</time>
      </trkpt>
      <trkpt lat="43.05526" lon="-0.35947">
        <ele>1112.7</ele>
        <time>2026-02-08T11:03:44.000Z</time>
      </trkpt>
      <trkpt lat="43.05527" lon="-0.35948">
        <ele>1112.7</ele>
        <time>2026-02-08T11:03:47.000Z</time>
      </trkpt>
      <trkpt lat="43.05527" lon="-0.35948">
        <ele>1112.7</ele>
        <time>2026-02-08T11:03:48.000Z</time>
      </trkpt>
      <trkpt lat="43.05527" lon="-0.35947">
        <ele>1112.7</ele>
        <time>2026-02-08T11:03:51.000Z</time>
      </trkpt>
      <trkpt lat="43.05527" lon="-0.35948">
        <ele>1112.7</ele>
        <time>2026-02-08T11:03:54.000Z</time>
      </trkpt>
      <trkpt lat="43.05524" lon="-0.35949">
        <ele>1112.7</ele>
        <time>2026-02-08T11:03:57.000Z</time>
      </trkpt>
      <trkpt lat="43.05524" lon="-0.3595">
        <ele>1112.7</ele>
        <time>2026-02-08T11:04:00.000Z</time>
      </trkpt>
      <trkpt lat="43.05523" lon="-0.35949">
        <ele>1112.7</ele>
        <time>2026-02-08T11:04:03.000Z</time>
      </trkpt>
      <trkpt lat="43.05523" lon="-0.3595">
        <ele>1112.7</ele>
        <time>2026-02-08T11:04:04.000Z</time>
      </trkpt>
      <trkpt lat="43.05523" lon="-0.35949">
        <ele>1112.7</ele>
        <time>2026-02-08T11:04:05.000Z</time>
      </trkpt>
      <trkpt lat="43.05522" lon="-0.35949">
        <ele>1112.8</ele>
        <time>2026-02-08T11:04:08.000Z</time>
      </trkpt>
      <trkpt lat="43.05521" lon="-0.35949">
        <ele>1112.8</ele>
        <time>2026-02-08T11:04:11.000Z</time>
      </trkpt>
      <trkpt lat="43.0552" lon="-0.35948">
        <ele>1112.8</ele>
        <time>2026-02-08T11:04:12.000Z</time>
      </trkpt>
      <trkpt lat="43.0552" lon="-0.35947">
        <ele>1112.8</ele>
        <time>2026-02-08T11:04:13.000Z</time>
      </trkpt>
      <trkpt lat="43.0552" lon="-0.35947">
        <ele>1112.8</ele>
        <time>2026-02-08T11:04:14.000Z</time>
      </trkpt>
      <trkpt lat="43.05517" lon="-0.35949">
        <ele>1112.8</ele>
        <time>2026-02-08T11:04:17.000Z</time>
      </trkpt>
      <trkpt lat="43.05517" lon="-0.35949">
        <ele>1112.8</ele>
        <time>2026-02-08T11:04:18.000Z</time>
      </trkpt>
      <trkpt lat="43.05517" lon="-0.35948">
        <ele>1112.8</ele>
        <time>2026-02-08T11:04:19.000Z</time>
      </trkpt>
      <trkpt lat="43.05517" lon="-0.35948">
        <ele>1112.8</ele>
        <time>2026-02-08T11:04:20.000Z</time>
      </trkpt>
      <trkpt lat="43.05517" lon="-0.35945">
        <ele>1112.8</ele>
        <time>2026-02-08T11:04:23.000Z</time>
      </trkpt>
      <trkpt lat="43.05516" lon="-0.35946">
        <ele>1112.9</ele>
        <time>2026-02-08T11:04:26.000Z</time>
      </trkpt>
      <trkpt lat="43.05516" lon="-0.35946">
        <ele>1112.9</ele>
        <time>2026-02-08T11:04:29.000Z</time>
      </trkpt>
      <trkpt lat="43.05517" lon="-0.35945">
        <ele>1112.9</ele>
        <time>2026-02-08T11:04:32.000Z</time>
      </trkpt>
      <trkpt lat="43.05516" lon="-0.35944">
        <ele>1112.9</ele>
        <time>2026-02-08T11:04:33.000Z</time>
      </trkpt>
      <trkpt lat="43.05515" lon="-0.35945">
        <ele>1112.9</ele>
        <time>2026-02-08T11:04:34.000Z</time>
      </trkpt>
      <trkpt lat="43.05515" lon="-0.35945">
        <ele>1112.9</ele>
        <time>2026-02-08T11:04:37.000Z</time>
      </trkpt>
      <trkpt lat="43.05514" lon="-0.35945">
        <ele>1112.9</ele>
        <time>2026-02-08T11:04:39.000Z</time>
      </trkpt>
      <trkpt lat="43.05514" lon="-0.35945">
        <ele>1112.9</ele>
        <time>2026-02-08T11:04:40.000Z</time>
      </trkpt>
      <trkpt lat="43.05514" lon="-0.35945">
        <ele>1112.9</ele>
        <time>2026-02-08T11:04:41.000Z</time>
      </trkpt>
      <trkpt lat="43.05514" lon="-0.35946">
        <ele>1112.9</ele>
        <time>2026-02-08T11:04:44.000Z</time>
      </trkpt>
      <trkpt lat="43.05515" lon="-0.35946">
        <ele>1112.8</ele>
        <time>2026-02-08T11:04:47.000Z</time>
      </trkpt>
      <trkpt lat="43.05514" lon="-0.35946">
        <ele>1112.8</ele>
        <time>2026-02-08T11:04:50.000Z</time>
      </trkpt>
      <trkpt lat="43.05515" lon="-0.35946">
        <ele>1112.8</ele>
        <time>2026-02-08T11:04:53.000Z</time>
      </trkpt>
      <trkpt lat="43.05515" lon="-0.35946">
        <ele>1112.8</ele>
        <time>2026-02-08T11:04:56.000Z</time>
      </trkpt>
      <trkpt lat="43.05515" lon="-0.35947">
        <ele>1112.8</ele>
        <time>2026-02-08T11:04:59.000Z</time>
      </trkpt>
      <trkpt lat="43.05516" lon="-0.35946">
        <ele>1112.8</ele>
        <time>2026-02-08T11:05:02.000Z</time>
      </trkpt>
      <trkpt lat="43.05516" lon="-0.35947">
        <ele>1112.8</ele>
        <time>2026-02-08T11:05:05.000Z</time>
      </trkpt>
      <trkpt lat="43.05517" lon="-0.35947">
        <ele>1112.8</ele>
        <time>2026-02-08T11:05:08.000Z</time>
      </trkpt>
      <trkpt lat="43.05517" lon="-0.35948">
        <ele>1112.8</ele>
        <time>2026-02-08T11:05:11.000Z</time>
      </trkpt>
      <trkpt lat="43.05517" lon="-0.35948">
        <ele>1112.8</ele>
        <time>2026-02-08T11:05:14.000Z</time>
      </trkpt>
      <trkpt lat="43.05517" lon="-0.35947">
        <ele>1112.8</ele>
        <time>2026-02-08T11:05:15.000Z</time>
      </trkpt>
      <trkpt lat="43.05517" lon="-0.35947">
        <ele>1112.8</ele>
        <time>2026-02-08T11:05:16.000Z</time>
      </trkpt>
      <trkpt lat="43.05517" lon="-0.35946">
        <ele>1112.8</ele>
        <time>2026-02-08T11:05:17.000Z</time>
      </trkpt>
      <trkpt lat="43.05516" lon="-0.35946">
        <ele>1112.8</ele>
        <time>2026-02-08T11:05:18.000Z</time>
      </trkpt>
      <trkpt lat="43.05515" lon="-0.35945">
        <ele>1112.8</ele>
        <time>2026-02-08T11:05:21.000Z</time>
      </trkpt>
      <trkpt lat="43.05513" lon="-0.35944">
        <ele>1112.8</ele>
        <time>2026-02-08T11:05:24.000Z</time>
      </trkpt>
      <trkpt lat="43.05513" lon="-0.35944">
        <ele>1112.8</ele>
        <time>2026-02-08T11:05:27.000Z</time>
      </trkpt>
      <trkpt lat="43.05513" lon="-0.35944">
        <ele>1112.8</ele>
        <time>2026-02-08T11:05:30.000Z</time>
      </trkpt>
      <trkpt lat="43.05513" lon="-0.35944">
        <ele>1112.8</ele>
        <time>2026-02-08T11:05:33.000Z</time>
      </trkpt>
      <trkpt lat="43.05513" lon="-0.35945">
        <ele>1112.8</ele>
        <time>2026-02-08T11:05:34.000Z</time>
      </trkpt>
      <trkpt lat="43.05513" lon="-0.35946">
        <ele>1112.7</ele>
        <time>2026-02-08T11:05:35.000Z</time>
      </trkpt>
      <trkpt lat="43.05515" lon="-0.35948">
        <ele>1112.7</ele>
        <time>2026-02-08T11:05:38.000Z</time>
      </trkpt>
      <trkpt lat="43.05517" lon="-0.3595">
        <ele>1112.6</ele>
        <time>2026-02-08T11:05:41.000Z</time>
      </trkpt>
      <trkpt lat="43.05519" lon="-0.35953">
        <ele>1112.4</ele>
        <time>2026-02-08T11:05:44.000Z</time>
      </trkpt>
      <trkpt lat="43.05522" lon="-0.35955">
        <ele>1112.2</ele>
        <time>2026-02-08T11:05:47.000Z</time>
      </trkpt>
      <trkpt lat="43.05523" lon="-0.35959">
        <ele>1111.8</ele>
        <time>2026-02-08T11:05:50.000Z</time>
      </trkpt>
      <trkpt lat="43.05525" lon="-0.35963">
        <ele>1111.2</ele>
        <time>2026-02-08T11:05:53.000Z</time>
      </trkpt>
      <trkpt lat="43.05528" lon="-0.35965">
        <ele>1110.7</ele>
        <time>2026-02-08T11:05:56.000Z</time>
      </trkpt>
      <trkpt lat="43.05531" lon="-0.35968">
        <ele>1110.2</ele>
        <time>2026-02-08T11:05:59.000Z</time>
      </trkpt>
      <trkpt lat="43.05533" lon="-0.35972">
        <ele>1109.8</ele>
        <time>2026-02-08T11:06:02.000Z</time>
      </trkpt>
      <trkpt lat="43.05534" lon="-0.35976">
        <ele>1109.3</ele>
        <time>2026-02-08T11:06:05.000Z</time>
      </trkpt>
      <trkpt lat="43.05537" lon="-0.35978">
        <ele>1108.9</ele>
        <time>2026-02-08T11:06:08.000Z</time>
      </trkpt>
      <trkpt lat="43.05538" lon="-0.35982">
        <ele>1108.5</ele>
        <time>2026-02-08T11:06:11.000Z</time>
      </trkpt>
      <trkpt lat="43.05539" lon="-0.35986">
        <ele>1108.1</ele>
        <time>2026-02-08T11:06:14.000Z</time>
      </trkpt>
      <trkpt lat="43.05539" lon="-0.35989">
        <ele>1107.7</ele>
        <time>2026-02-08T11:06:17.000Z</time>
      </trkpt>
      <trkpt lat="43.05538" lon="-0.35995">
        <ele>1107.3</ele>
        <time>2026-02-08T11:06:20.000Z</time>
      </trkpt>
      <trkpt lat="43.0554" lon="-0.36">
        <ele>1106.9</ele>
        <time>2026-02-08T11:06:23.000Z</time>
      </trkpt>
      <trkpt lat="43.05543" lon="-0.36004">
        <ele>1106.4</ele>
        <time>2026-02-08T11:06:26.000Z</time>
      </trkpt>
      <trkpt lat="43.05545" lon="-0.36009">
        <ele>1106</ele>
        <time>2026-02-08T11:06:29.000Z</time>
      </trkpt>
      <trkpt lat="43.05549" lon="-0.36012">
        <ele>1105.5</ele>
        <time>2026-02-08T11:06:32.000Z</time>
      </trkpt>
      <trkpt lat="43.05551" lon="-0.36016">
        <ele>1105</ele>
        <time>2026-02-08T11:06:35.000Z</time>
      </trkpt>
      <trkpt lat="43.05551" lon="-0.36021">
        <ele>1104.5</ele>
        <time>2026-02-08T11:06:38.000Z</time>
      </trkpt>
      <trkpt lat="43.05552" lon="-0.36025">
        <ele>1104</ele>
        <time>2026-02-08T11:06:41.000Z</time>
      </trkpt>
      <trkpt lat="43.05555" lon="-0.36027">
        <ele>1103.6</ele>
        <time>2026-02-08T11:06:44.000Z</time>
      </trkpt>
      <trkpt lat="43.05558" lon="-0.3603">
        <ele>1103.2</ele>
        <time>2026-02-08T11:06:47.000Z</time>
      </trkpt>
      <trkpt lat="43.05559" lon="-0.36033">
        <ele>1102.9</ele>
        <time>2026-02-08T11:06:50.000Z</time>
      </trkpt>
      <trkpt lat="43.05561" lon="-0.36038">
        <ele>1102.6</ele>
        <time>2026-02-08T11:06:53.000Z</time>
      </trkpt>
      <trkpt lat="43.05562" lon="-0.36042">
        <ele>1102.3</ele>
        <time>2026-02-08T11:06:56.000Z</time>
      </trkpt>
      <trkpt lat="43.05563" lon="-0.36046">
        <ele>1101.8</ele>
        <time>2026-02-08T11:06:59.000Z</time>
      </trkpt>
      <trkpt lat="43.05566" lon="-0.36049">
        <ele>1101.2</ele>
        <time>2026-02-08T11:07:02.000Z</time>
      </trkpt>
      <trkpt lat="43.05569" lon="-0.36053">
        <ele>1100.7</ele>
        <time>2026-02-08T11:07:05.000Z</time>
      </trkpt>
      <trkpt lat="43.05574" lon="-0.36057">
        <ele>1100.1</ele>
        <time>2026-02-08T11:07:08.000Z</time>
      </trkpt>
      <trkpt lat="43.05575" lon="-0.36062">
        <ele>1099.6</ele>
        <time>2026-02-08T11:07:11.000Z</time>
      </trkpt>
      <trkpt lat="43.05576" lon="-0.36068">
        <ele>1099.2</ele>
        <time>2026-02-08T11:07:14.000Z</time>
      </trkpt>
      <trkpt lat="43.05578" lon="-0.36073">
        <ele>1098.7</ele>
        <time>2026-02-08T11:07:17.000Z</time>
      </trkpt>
      <trkpt lat="43.05581" lon="-0.36078">
        <ele>1098.3</ele>
        <time>2026-02-08T11:07:20.000Z</time>
      </trkpt>
      <trkpt lat="43.05584" lon="-0.36083">
        <ele>1097.9</ele>
        <time>2026-02-08T11:07:23.000Z</time>
      </trkpt>
      <trkpt lat="43.05586" lon="-0.36088">
        <ele>1097.5</ele>
        <time>2026-02-08T11:07:26.000Z</time>
      </trkpt>
      <trkpt lat="43.05587" lon="-0.36092">
        <ele>1097.2</ele>
        <time>2026-02-08T11:07:29.000Z</time>
      </trkpt>
      <trkpt lat="43.05587" lon="-0.36096">
        <ele>1096.6</ele>
        <time>2026-02-08T11:07:32.000Z</time>
      </trkpt>
      <trkpt lat="43.05589" lon="-0.36099">
        <ele>1096</ele>
        <time>2026-02-08T11:07:35.000Z</time>
      </trkpt>
      <trkpt lat="43.0559" lon="-0.36103">
        <ele>1095.4</ele>
        <time>2026-02-08T11:07:38.000Z</time>
      </trkpt>
      <trkpt lat="43.05591" lon="-0.36106">
        <ele>1094.8</ele>
        <time>2026-02-08T11:07:41.000Z</time>
      </trkpt>
      <trkpt lat="43.05593" lon="-0.3611">
        <ele>1094.1</ele>
        <time>2026-02-08T11:07:44.000Z</time>
      </trkpt>
      <trkpt lat="43.05596" lon="-0.36112">
        <ele>1093.4</ele>
        <time>2026-02-08T11:07:47.000Z</time>
      </trkpt>
      <trkpt lat="43.05595" lon="-0.36116">
        <ele>1092.7</ele>
        <time>2026-02-08T11:07:50.000Z</time>
      </trkpt>
      <trkpt lat="43.05596" lon="-0.3612">
        <ele>1092</ele>
        <time>2026-02-08T11:07:53.000Z</time>
      </trkpt>
      <trkpt lat="43.05599" lon="-0.36123">
        <ele>1091.4</ele>
        <time>2026-02-08T11:07:56.000Z</time>
      </trkpt>
      <trkpt lat="43.056" lon="-0.36128">
        <ele>1090.8</ele>
        <time>2026-02-08T11:07:59.000Z</time>
      </trkpt>
      <trkpt lat="43.05602" lon="-0.36132">
        <ele>1090.2</ele>
        <time>2026-02-08T11:08:02.000Z</time>
      </trkpt>
      <trkpt lat="43.05604" lon="-0.36137">
        <ele>1089.6</ele>
        <time>2026-02-08T11:08:05.000Z</time>
      </trkpt>
      <trkpt lat="43.05606" lon="-0.36142">
        <ele>1089.1</ele>
        <time>2026-02-08T11:08:08.000Z</time>
      </trkpt>
      <trkpt lat="43.05608" lon="-0.36145">
        <ele>1088.6</ele>
        <time>2026-02-08T11:08:11.000Z</time>
      </trkpt>
      <trkpt lat="43.05607" lon="-0.36151">
        <ele>1088.4</ele>
        <time>2026-02-08T11:08:14.000Z</time>
      </trkpt>
      <trkpt lat="43.05607" lon="-0.36157">
        <ele>1088.3</ele>
        <time>2026-02-08T11:08:17.000Z</time>
      </trkpt>
      <trkpt lat="43.05607" lon="-0.36161">
        <ele>1088.2</ele>
        <time>2026-02-08T11:08:20.000Z</time>
      </trkpt>
      <trkpt lat="43.05607" lon="-0.36167">
        <ele>1088.1</ele>
        <time>2026-02-08T11:08:23.000Z</time>
      </trkpt>
      <trkpt lat="43.0561" lon="-0.36172">
        <ele>1088</ele>
        <time>2026-02-08T11:08:26.000Z</time>
      </trkpt>
      <trkpt lat="43.05612" lon="-0.36178">
        <ele>1087.9</ele>
        <time>2026-02-08T11:08:29.000Z</time>
      </trkpt>
      <trkpt lat="43.05612" lon="-0.36184">
        <ele>1087.8</ele>
        <time>2026-02-08T11:08:32.000Z</time>
      </trkpt>
      <trkpt lat="43.05614" lon="-0.36189">
        <ele>1087.6</ele>
        <time>2026-02-08T11:08:35.000Z</time>
      </trkpt>
      <trkpt lat="43.05615" lon="-0.36195">
        <ele>1087.4</ele>
        <time>2026-02-08T11:08:38.000Z</time>
      </trkpt>
      <trkpt lat="43.05616" lon="-0.36201">
        <ele>1087.2</ele>
        <time>2026-02-08T11:08:41.000Z</time>
      </trkpt>
      <trkpt lat="43.05615" lon="-0.36207">
        <ele>1087</ele>
        <time>2026-02-08T11:08:44.000Z</time>
      </trkpt>
      <trkpt lat="43.05615" lon="-0.36213">
        <ele>1086.7</ele>
        <time>2026-02-08T11:08:47.000Z</time>
      </trkpt>
      <trkpt lat="43.05616" lon="-0.36217">
        <ele>1086.4</ele>
        <time>2026-02-08T11:08:50.000Z</time>
      </trkpt>
      <trkpt lat="43.05616" lon="-0.36219">
        <ele>1085.9</ele>
        <time>2026-02-08T11:08:53.000Z</time>
      </trkpt>
      <trkpt lat="43.05615" lon="-0.36221">
        <ele>1085.3</ele>
        <time>2026-02-08T11:08:56.000Z</time>
      </trkpt>
      <trkpt lat="43.05618" lon="-0.36226">
        <ele>1084.6</ele>
        <time>2026-02-08T11:08:59.000Z</time>
      </trkpt>
      <trkpt lat="43.0562" lon="-0.36229">
        <ele>1083.7</ele>
        <time>2026-02-08T11:09:02.000Z</time>
      </trkpt>
      <trkpt lat="43.05619" lon="-0.36236">
        <ele>1082.7</ele>
        <time>2026-02-08T11:09:05.000Z</time>
      </trkpt>
      <trkpt lat="43.05619" lon="-0.36242">
        <ele>1081.7</ele>
        <time>2026-02-08T11:09:08.000Z</time>
      </trkpt>
      <trkpt lat="43.05618" lon="-0.36247">
        <ele>1080.9</ele>
        <time>2026-02-08T11:09:11.000Z</time>
      </trkpt>
      <trkpt lat="43.05618" lon="-0.36251">
        <ele>1080.3</ele>
        <time>2026-02-08T11:09:14.000Z</time>
      </trkpt>
      <trkpt lat="43.05619" lon="-0.36254">
        <ele>1079.6</ele>
        <time>2026-02-08T11:09:17.000Z</time>
      </trkpt>
      <trkpt lat="43.05619" lon="-0.36257">
        <ele>1078.9</ele>
        <time>2026-02-08T11:09:20.000Z</time>
      </trkpt>
      <trkpt lat="43.0562" lon="-0.3626">
        <ele>1078.2</ele>
        <time>2026-02-08T11:09:23.000Z</time>
      </trkpt>
      <trkpt lat="43.05621" lon="-0.36264">
        <ele>1077.5</ele>
        <time>2026-02-08T11:09:26.000Z</time>
      </trkpt>
      <trkpt lat="43.05625" lon="-0.36269">
        <ele>1076.7</ele>
        <time>2026-02-08T11:09:29.000Z</time>
      </trkpt>
      <trkpt lat="43.05626" lon="-0.36273">
        <ele>1076</ele>
        <time>2026-02-08T11:09:32.000Z</time>
      </trkpt>
      <trkpt lat="43.05628" lon="-0.36277">
        <ele>1075.3</ele>
        <time>2026-02-08T11:09:35.000Z</time>
      </trkpt>
      <trkpt lat="43.05628" lon="-0.36281">
        <ele>1074.6</ele>
        <time>2026-02-08T11:09:38.000Z</time>
      </trkpt>
      <trkpt lat="43.0563" lon="-0.36282">
        <ele>1073.9</ele>
        <time>2026-02-08T11:09:41.000Z</time>
      </trkpt>
      <trkpt lat="43.05631" lon="-0.3628">
        <ele>1073.5</ele>
        <time>2026-02-08T11:09:44.000Z</time>
      </trkpt>
      <trkpt lat="43.05631" lon="-0.36276">
        <ele>1073.1</ele>
        <time>2026-02-08T11:09:47.000Z</time>
      </trkpt>
      <trkpt lat="43.05632" lon="-0.36273">
        <ele>1072.8</ele>
        <time>2026-02-08T11:09:50.000Z</time>
      </trkpt>
      <trkpt lat="43.05633" lon="-0.3627">
        <ele>1072.6</ele>
        <time>2026-02-08T11:09:53.000Z</time>
      </trkpt>
      <trkpt lat="43.05633" lon="-0.36265">
        <ele>1072.3</ele>
        <time>2026-02-08T11:09:56.000Z</time>
      </trkpt>
      <trkpt lat="43.05633" lon="-0.36259">
        <ele>1072.1</ele>
        <time>2026-02-08T11:09:59.000Z</time>
      </trkpt>
      <trkpt lat="43.05634" lon="-0.36252">
        <ele>1071.9</ele>
        <time>2026-02-08T11:10:02.000Z</time>
      </trkpt>
      <trkpt lat="43.05635" lon="-0.36246">
        <ele>1071.6</ele>
        <time>2026-02-08T11:10:05.000Z</time>
      </trkpt>
      <trkpt lat="43.05634" lon="-0.36241">
        <ele>1071.4</ele>
        <time>2026-02-08T11:10:08.000Z</time>
      </trkpt>
      <trkpt lat="43.05634" lon="-0.36236">
        <ele>1071.1</ele>
        <time>2026-02-08T11:10:11.000Z</time>
      </trkpt>
      <trkpt lat="43.05634" lon="-0.36232">
        <ele>1070.8</ele>
        <time>2026-02-08T11:10:14.000Z</time>
      </trkpt>
      <trkpt lat="43.05634" lon="-0.3623">
        <ele>1070.5</ele>
        <time>2026-02-08T11:10:17.000Z</time>
      </trkpt>
      <trkpt lat="43.05636" lon="-0.36225">
        <ele>1070.2</ele>
        <time>2026-02-08T11:10:20.000Z</time>
      </trkpt>
      <trkpt lat="43.05638" lon="-0.36219">
        <ele>1069.9</ele>
        <time>2026-02-08T11:10:23.000Z</time>
      </trkpt>
      <trkpt lat="43.05641" lon="-0.36214">
        <ele>1069.6</ele>
        <time>2026-02-08T11:10:26.000Z</time>
      </trkpt>
      <trkpt lat="43.05642" lon="-0.3621">
        <ele>1069.4</ele>
        <time>2026-02-08T11:10:29.000Z</time>
      </trkpt>
      <trkpt lat="43.05642" lon="-0.36206">
        <ele>1069.2</ele>
        <time>2026-02-08T11:10:32.000Z</time>
      </trkpt>
      <trkpt lat="43.05641" lon="-0.36203">
        <ele>1068.9</ele>
        <time>2026-02-08T11:10:35.000Z</time>
      </trkpt>
      <trkpt lat="43.05641" lon="-0.36199">
        <ele>1068.6</ele>
        <time>2026-02-08T11:10:38.000Z</time>
      </trkpt>
      <trkpt lat="43.05642" lon="-0.36196">
        <ele>1068.4</ele>
        <time>2026-02-08T11:10:41.000Z</time>
      </trkpt>
      <trkpt lat="43.05644" lon="-0.36191">
        <ele>1068.1</ele>
        <time>2026-02-08T11:10:44.000Z</time>
      </trkpt>
      <trkpt lat="43.05642" lon="-0.36184">
        <ele>1067.8</ele>
        <time>2026-02-08T11:10:47.000Z</time>
      </trkpt>
      <trkpt lat="43.05643" lon="-0.36179">
        <ele>1067.4</ele>
        <time>2026-02-08T11:10:50.000Z</time>
      </trkpt>
      <trkpt lat="43.05643" lon="-0.36174">
        <ele>1067</ele>
        <time>2026-02-08T11:10:53.000Z</time>
      </trkpt>
      <trkpt lat="43.05642" lon="-0.36167">
        <ele>1066.7</ele>
        <time>2026-02-08T11:10:56.000Z</time>
      </trkpt>
      <trkpt lat="43.0564" lon="-0.36161">
        <ele>1066.4</ele>
        <time>2026-02-08T11:10:59.000Z</time>
      </trkpt>
      <trkpt lat="43.05638" lon="-0.36155">
        <ele>1066.1</ele>
        <time>2026-02-08T11:11:02.000Z</time>
      </trkpt>
      <trkpt lat="43.05636" lon="-0.36152">
        <ele>1065.8</ele>
        <time>2026-02-08T11:11:05.000Z</time>
      </trkpt>
      <trkpt lat="43.05636" lon="-0.36149">
        <ele>1065.4</ele>
        <time>2026-02-08T11:11:08.000Z</time>
      </trkpt>
      <trkpt lat="43.05637" lon="-0.36145">
        <ele>1065.1</ele>
        <time>2026-02-08T11:11:11.000Z</time>
      </trkpt>
      <trkpt lat="43.05637" lon="-0.36141">
        <ele>1064.8</ele>
        <time>2026-02-08T11:11:14.000Z</time>
      </trkpt>
      <trkpt lat="43.05636" lon="-0.36134">
        <ele>1064.6</ele>
        <time>2026-02-08T11:11:17.000Z</time>
      </trkpt>
      <trkpt lat="43.05635" lon="-0.36128">
        <ele>1064.3</ele>
        <time>2026-02-08T11:11:20.000Z</time>
      </trkpt>
      <trkpt lat="43.05637" lon="-0.36124">
        <ele>1064.1</ele>
        <time>2026-02-08T11:11:23.000Z</time>
      </trkpt>
      <trkpt lat="43.05636" lon="-0.3612">
        <ele>1063.8</ele>
        <time>2026-02-08T11:11:26.000Z</time>
      </trkpt>
      <trkpt lat="43.05634" lon="-0.36116">
        <ele>1063.6</ele>
        <time>2026-02-08T11:11:29.000Z</time>
      </trkpt>
      <trkpt lat="43.05634" lon="-0.36113">
        <ele>1063.4</ele>
        <time>2026-02-08T11:11:32.000Z</time>
      </trkpt>
      <trkpt lat="43.05635" lon="-0.36108">
        <ele>1063.2</ele>
        <time>2026-02-08T11:11:35.000Z</time>
      </trkpt>
      <trkpt lat="43.05638" lon="-0.36103">
        <ele>1062.9</ele>
        <time>2026-02-08T11:11:38.000Z</time>
      </trkpt>
      <trkpt lat="43.05638" lon="-0.36097">
        <ele>1062.7</ele>
        <time>2026-02-08T11:11:41.000Z</time>
      </trkpt>
      <trkpt lat="43.05638" lon="-0.36091">
        <ele>1062.4</ele>
        <time>2026-02-08T11:11:44.000Z</time>
      </trkpt>
      <trkpt lat="43.05638" lon="-0.36087">
        <ele>1062.2</ele>
        <time>2026-02-08T11:11:47.000Z</time>
      </trkpt>
      <trkpt lat="43.05637" lon="-0.36081">
        <ele>1061.9</ele>
        <time>2026-02-08T11:11:50.000Z</time>
      </trkpt>
      <trkpt lat="43.05638" lon="-0.36074">
        <ele>1061.7</ele>
        <time>2026-02-08T11:11:53.000Z</time>
      </trkpt>
      <trkpt lat="43.05638" lon="-0.36068">
        <ele>1061.5</ele>
        <time>2026-02-08T11:11:56.000Z</time>
      </trkpt>
      <trkpt lat="43.05637" lon="-0.36062">
        <ele>1061.3</ele>
        <time>2026-02-08T11:11:59.000Z</time>
      </trkpt>
      <trkpt lat="43.05636" lon="-0.36056">
        <ele>1061.1</ele>
        <time>2026-02-08T11:12:02.000Z</time>
      </trkpt>
      <trkpt lat="43.05635" lon="-0.36051">
        <ele>1060.8</ele>
        <time>2026-02-08T11:12:05.000Z</time>
      </trkpt>
      <trkpt lat="43.05636" lon="-0.36048">
        <ele>1060.5</ele>
        <time>2026-02-08T11:12:08.000Z</time>
      </trkpt>
      <trkpt lat="43.05637" lon="-0.36045">
        <ele>1060.2</ele>
        <time>2026-02-08T11:12:11.000Z</time>
      </trkpt>
      <trkpt lat="43.05638" lon="-0.36041">
        <ele>1059.9</ele>
        <time>2026-02-08T11:12:14.000Z</time>
      </trkpt>
      <trkpt lat="43.05639" lon="-0.36036">
        <ele>1059.5</ele>
        <time>2026-02-08T11:12:17.000Z</time>
      </trkpt>
      <trkpt lat="43.05637" lon="-0.36032">
        <ele>1059.1</ele>
        <time>2026-02-08T11:12:20.000Z</time>
      </trkpt>
      <trkpt lat="43.05636" lon="-0.36028">
        <ele>1058.7</ele>
        <time>2026-02-08T11:12:23.000Z</time>
      </trkpt>
      <trkpt lat="43.05636" lon="-0.36022">
        <ele>1058.3</ele>
        <time>2026-02-08T11:12:26.000Z</time>
      </trkpt>
      <trkpt lat="43.05635" lon="-0.36016">
        <ele>1058</ele>
        <time>2026-02-08T11:12:29.000Z</time>
      </trkpt>
      <trkpt lat="43.05635" lon="-0.36011">
        <ele>1057.7</ele>
        <time>2026-02-08T11:12:32.000Z</time>
      </trkpt>
      <trkpt lat="43.05631" lon="-0.36007">
        <ele>1057.4</ele>
        <time>2026-02-08T11:12:35.000Z</time>
      </trkpt>
      <trkpt lat="43.05631" lon="-0.36001">
        <ele>1057.2</ele>
        <time>2026-02-08T11:12:38.000Z</time>
      </trkpt>
      <trkpt lat="43.0563" lon="-0.35995">
        <ele>1056.8</ele>
        <time>2026-02-08T11:12:41.000Z</time>
      </trkpt>
      <trkpt lat="43.0563" lon="-0.35991">
        <ele>1056.5</ele>
        <time>2026-02-08T11:12:44.000Z</time>
      </trkpt>
      <trkpt lat="43.0563" lon="-0.35986">
        <ele>1056.1</ele>
        <time>2026-02-08T11:12:47.000Z</time>
      </trkpt>
      <trkpt lat="43.05631" lon="-0.35982">
        <ele>1055.7</ele>
        <time>2026-02-08T11:12:50.000Z</time>
      </trkpt>
      <trkpt lat="43.05633" lon="-0.35976">
        <ele>1055.4</ele>
        <time>2026-02-08T11:12:53.000Z</time>
      </trkpt>
      <trkpt lat="43.05633" lon="-0.35972">
        <ele>1054.9</ele>
        <time>2026-02-08T11:12:56.000Z</time>
      </trkpt>
      <trkpt lat="43.05635" lon="-0.35967">
        <ele>1054.5</ele>
        <time>2026-02-08T11:12:59.000Z</time>
      </trkpt>
      <trkpt lat="43.05636" lon="-0.35962">
        <ele>1054</ele>
        <time>2026-02-08T11:13:02.000Z</time>
      </trkpt>
      <trkpt lat="43.05637" lon="-0.35957">
        <ele>1053.6</ele>
        <time>2026-02-08T11:13:05.000Z</time>
      </trkpt>
      <trkpt lat="43.0564" lon="-0.35952">
        <ele>1053.2</ele>
        <time>2026-02-08T11:13:08.000Z</time>
      </trkpt>
      <trkpt lat="43.05642" lon="-0.35947">
        <ele>1052.8</ele>
        <time>2026-02-08T11:13:11.000Z</time>
      </trkpt>
      <trkpt lat="43.05642" lon="-0.35941">
        <ele>1052.4</ele>
        <time>2026-02-08T11:13:14.000Z</time>
      </trkpt>
      <trkpt lat="43.05644" lon="-0.35937">
        <ele>1052</ele>
        <time>2026-02-08T11:13:17.000Z</time>
      </trkpt>
      <trkpt lat="43.05647" lon="-0.35932">
        <ele>1051.7</ele>
        <time>2026-02-08T11:13:20.000Z</time>
      </trkpt>
      <trkpt lat="43.05648" lon="-0.35929">
        <ele>1051.3</ele>
        <time>2026-02-08T11:13:23.000Z</time>
      </trkpt>
      <trkpt lat="43.05647" lon="-0.35926">
        <ele>1050.9</ele>
        <time>2026-02-08T11:13:26.000Z</time>
      </trkpt>
      <trkpt lat="43.05646" lon="-0.35921">
        <ele>1050.6</ele>
        <time>2026-02-08T11:13:29.000Z</time>
      </trkpt>
      <trkpt lat="43.05646" lon="-0.35916">
        <ele>1050.3</ele>
        <time>2026-02-08T11:13:32.000Z</time>
      </trkpt>
      <trkpt lat="43.05647" lon="-0.35912">
        <ele>1050.1</ele>
        <time>2026-02-08T11:13:35.000Z</time>
      </trkpt>
      <trkpt lat="43.05646" lon="-0.35908">
        <ele>1049.9</ele>
        <time>2026-02-08T11:13:38.000Z</time>
      </trkpt>
      <trkpt lat="43.05643" lon="-0.35904">
        <ele>1049.7</ele>
        <time>2026-02-08T11:13:41.000Z</time>
      </trkpt>
      <trkpt lat="43.05643" lon="-0.35899">
        <ele>1049.5</ele>
        <time>2026-02-08T11:13:44.000Z</time>
      </trkpt>
      <trkpt lat="43.05643" lon="-0.35894">
        <ele>1049.4</ele>
        <time>2026-02-08T11:13:47.000Z</time>
      </trkpt>
      <trkpt lat="43.05641" lon="-0.35889">
        <ele>1049.2</ele>
        <time>2026-02-08T11:13:50.000Z</time>
      </trkpt>
      <trkpt lat="43.05642" lon="-0.35883">
        <ele>1049.1</ele>
        <time>2026-02-08T11:13:53.000Z</time>
      </trkpt>
      <trkpt lat="43.05642" lon="-0.35879">
        <ele>1048.9</ele>
        <time>2026-02-08T11:13:56.000Z</time>
      </trkpt>
      <trkpt lat="43.05639" lon="-0.35874">
        <ele>1048.8</ele>
        <time>2026-02-08T11:13:59.000Z</time>
      </trkpt>
      <trkpt lat="43.05639" lon="-0.35872">
        <ele>1048.7</ele>
        <time>2026-02-08T11:14:02.000Z</time>
      </trkpt>
      <trkpt lat="43.05638" lon="-0.35873">
        <ele>1048.6</ele>
        <time>2026-02-08T11:14:05.000Z</time>
      </trkpt>
      <trkpt lat="43.05638" lon="-0.35878">
        <ele>1048.6</ele>
        <time>2026-02-08T11:14:08.000Z</time>
      </trkpt>
      <trkpt lat="43.05638" lon="-0.35882">
        <ele>1048.6</ele>
        <time>2026-02-08T11:14:11.000Z</time>
      </trkpt>
      <trkpt lat="43.05642" lon="-0.35881">
        <ele>1048.6</ele>
        <time>2026-02-08T11:14:14.000Z</time>
      </trkpt>
      <trkpt lat="43.05642" lon="-0.35881">
        <ele>1048.6</ele>
        <time>2026-02-08T11:14:15.000Z</time>
      </trkpt>
      <trkpt lat="43.05642" lon="-0.35881">
        <ele>1048.6</ele>
        <time>2026-02-08T11:14:16.000Z</time>
      </trkpt>
      <trkpt lat="43.05642" lon="-0.35881">
        <ele>1048.7</ele>
        <time>2026-02-08T11:14:17.000Z</time>
      </trkpt>
      <trkpt lat="43.05642" lon="-0.3588">
        <ele>1048.7</ele>
        <time>2026-02-08T11:14:18.000Z</time>
      </trkpt>
      <trkpt lat="43.05642" lon="-0.3588">
        <ele>1048.7</ele>
        <time>2026-02-08T11:14:19.000Z</time>
      </trkpt>
      <trkpt lat="43.05642" lon="-0.3588">
        <ele>1048.7</ele>
        <time>2026-02-08T11:14:20.000Z</time>
      </trkpt>
      <trkpt lat="43.05643" lon="-0.3588">
        <ele>1048.7</ele>
        <time>2026-02-08T11:14:21.000Z</time>
      </trkpt>
      <trkpt lat="43.05644" lon="-0.3588">
        <ele>1048.7</ele>
        <time>2026-02-08T11:14:24.000Z</time>
      </trkpt>
      <trkpt lat="43.05645" lon="-0.3588">
        <ele>1048.7</ele>
        <time>2026-02-08T11:14:27.000Z</time>
      </trkpt>
      <trkpt lat="43.05645" lon="-0.3588">
        <ele>1048.7</ele>
        <time>2026-02-08T11:14:30.000Z</time>
      </trkpt>
      <trkpt lat="43.05645" lon="-0.3588">
        <ele>1048.8</ele>
        <time>2026-02-08T11:14:33.000Z</time>
      </trkpt>
      <trkpt lat="43.05644" lon="-0.35881">
        <ele>1048.8</ele>
        <time>2026-02-08T11:14:36.000Z</time>
      </trkpt>
      <trkpt lat="43.05643" lon="-0.35881">
        <ele>1048.9</ele>
        <time>2026-02-08T11:14:39.000Z</time>
      </trkpt>
      <trkpt lat="43.05643" lon="-0.35882">
        <ele>1048.9</ele>
        <time>2026-02-08T11:14:42.000Z</time>
      </trkpt>
      <trkpt lat="43.05643" lon="-0.35882">
        <ele>1049</ele>
        <time>2026-02-08T11:14:45.000Z</time>
      </trkpt>
      <trkpt lat="43.05643" lon="-0.35883">
        <ele>1049</ele>
        <time>2026-02-08T11:14:48.000Z</time>
      </trkpt>
      <trkpt lat="43.05643" lon="-0.35883">
        <ele>1049.1</ele>
        <time>2026-02-08T11:14:51.000Z</time>
      </trkpt>
      <trkpt lat="43.05643" lon="-0.35884">
        <ele>1049.1</ele>
        <time>2026-02-08T11:14:54.000Z</time>
      </trkpt>
      <trkpt lat="43.05643" lon="-0.35885">
        <ele>1049.2</ele>
        <time>2026-02-08T11:14:57.000Z</time>
      </trkpt>
      <trkpt lat="43.05643" lon="-0.35885">
        <ele>1049.2</ele>
        <time>2026-02-08T11:15:00.000Z</time>
      </trkpt>
      <trkpt lat="43.05644" lon="-0.35884">
        <ele>1049.3</ele>
        <time>2026-02-08T11:15:03.000Z</time>
      </trkpt>
      <trkpt lat="43.05644" lon="-0.35884">
        <ele>1049.3</ele>
        <time>2026-02-08T11:15:04.000Z</time>
      </trkpt>
      <trkpt lat="43.05646" lon="-0.35882">
        <ele>1049.3</ele>
        <time>2026-02-08T11:15:05.000Z</time>
      </trkpt>
      <trkpt lat="43.05647" lon="-0.35877">
        <ele>1049.3</ele>
        <time>2026-02-08T11:15:08.000Z</time>
      </trkpt>
      <trkpt lat="43.05647" lon="-0.35876">
        <ele>1049.4</ele>
        <time>2026-02-08T11:15:11.000Z</time>
      </trkpt>
      <trkpt lat="43.05646" lon="-0.35872">
        <ele>1049.4</ele>
        <time>2026-02-08T11:15:14.000Z</time>
      </trkpt>
      <trkpt lat="43.05643" lon="-0.35865">
        <ele>1049.4</ele>
        <time>2026-02-08T11:15:17.000Z</time>
      </trkpt>
      <trkpt lat="43.05642" lon="-0.35863">
        <ele>1049.4</ele>
        <time>2026-02-08T11:15:20.000Z</time>
      </trkpt>
      <trkpt lat="43.05641" lon="-0.35862">
        <ele>1049.4</ele>
        <time>2026-02-08T11:15:23.000Z</time>
      </trkpt>
      <trkpt lat="43.05642" lon="-0.35862">
        <ele>1049.4</ele>
        <time>2026-02-08T11:15:26.000Z</time>
      </trkpt>
      <trkpt lat="43.05642" lon="-0.35862">
        <ele>1049.4</ele>
        <time>2026-02-08T11:15:27.000Z</time>
      </trkpt>
      <trkpt lat="43.05643" lon="-0.35863">
        <ele>1049.4</ele>
        <time>2026-02-08T11:15:28.000Z</time>
      </trkpt>
      <trkpt lat="43.05642" lon="-0.35864">
        <ele>1049.4</ele>
        <time>2026-02-08T11:15:31.000Z</time>
      </trkpt>
      <trkpt lat="43.0564" lon="-0.35866">
        <ele>1049.4</ele>
        <time>2026-02-08T11:15:34.000Z</time>
      </trkpt>
      <trkpt lat="43.05638" lon="-0.35866">
        <ele>1049.4</ele>
        <time>2026-02-08T11:15:37.000Z</time>
      </trkpt>
      <trkpt lat="43.05638" lon="-0.35866">
        <ele>1049.4</ele>
        <time>2026-02-08T11:15:40.000Z</time>
      </trkpt>
      <trkpt lat="43.05638" lon="-0.35866">
        <ele>1049.4</ele>
        <time>2026-02-08T11:15:43.000Z</time>
      </trkpt>
      <trkpt lat="43.05638" lon="-0.35867">
        <ele>1049.4</ele>
        <time>2026-02-08T11:15:46.000Z</time>
      </trkpt>
      <trkpt lat="43.05638" lon="-0.35867">
        <ele>1049.4</ele>
        <time>2026-02-08T11:15:49.000Z</time>
      </trkpt>
      <trkpt lat="43.05637" lon="-0.35867">
        <ele>1049.5</ele>
        <time>2026-02-08T11:15:52.000Z</time>
      </trkpt>
      <trkpt lat="43.05637" lon="-0.35867">
        <ele>1049.5</ele>
        <time>2026-02-08T11:15:55.000Z</time>
      </trkpt>
      <trkpt lat="43.05637" lon="-0.35867">
        <ele>1049.5</ele>
        <time>2026-02-08T11:15:58.000Z</time>
      </trkpt>
      <trkpt lat="43.05637" lon="-0.35867">
        <ele>1049.6</ele>
        <time>2026-02-08T11:16:01.000Z</time>
      </trkpt>
      <trkpt lat="43.05637" lon="-0.35865">
        <ele>1049.6</ele>
        <time>2026-02-08T11:16:04.000Z</time>
      </trkpt>
      <trkpt lat="43.05637" lon="-0.35864">
        <ele>1049.6</ele>
        <time>2026-02-08T11:16:05.000Z</time>
      </trkpt>
      <trkpt lat="43.05637" lon="-0.35862">
        <ele>1049.6</ele>
        <time>2026-02-08T11:16:06.000Z</time>
      </trkpt>
      <trkpt lat="43.05638" lon="-0.35857">
        <ele>1049.7</ele>
        <time>2026-02-08T11:16:09.000Z</time>
      </trkpt>
      <trkpt lat="43.05639" lon="-0.35855">
        <ele>1049.7</ele>
        <time>2026-02-08T11:16:12.000Z</time>
      </trkpt>
      <trkpt lat="43.05642" lon="-0.35852">
        <ele>1049.7</ele>
        <time>2026-02-08T11:16:15.000Z</time>
      </trkpt>
      <trkpt lat="43.05641" lon="-0.35852">
        <ele>1049.8</ele>
        <time>2026-02-08T11:16:18.000Z</time>
      </trkpt>
      <trkpt lat="43.05643" lon="-0.35852">
        <ele>1049.8</ele>
        <time>2026-02-08T11:16:21.000Z</time>
      </trkpt>
      <trkpt lat="43.05646" lon="-0.35853">
        <ele>1049.9</ele>
        <time>2026-02-08T11:16:24.000Z</time>
      </trkpt>
      <trkpt lat="43.0565" lon="-0.35854">
        <ele>1050</ele>
        <time>2026-02-08T11:16:27.000Z</time>
      </trkpt>
      <trkpt lat="43.05654" lon="-0.35855">
        <ele>1050</ele>
        <time>2026-02-08T11:16:30.000Z</time>
      </trkpt>
      <trkpt lat="43.05657" lon="-0.35857">
        <ele>1050.1</ele>
        <time>2026-02-08T11:16:33.000Z</time>
      </trkpt>
      <trkpt lat="43.05661" lon="-0.3586">
        <ele>1050.2</ele>
        <time>2026-02-08T11:16:36.000Z</time>
      </trkpt>
      <trkpt lat="43.05664" lon="-0.35862">
        <ele>1050.2</ele>
        <time>2026-02-08T11:16:39.000Z</time>
      </trkpt>
      <trkpt lat="43.05666" lon="-0.35865">
        <ele>1050.2</ele>
        <time>2026-02-08T11:16:42.000Z</time>
      </trkpt>
      <trkpt lat="43.05669" lon="-0.35869">
        <ele>1050.2</ele>
        <time>2026-02-08T11:16:45.000Z</time>
      </trkpt>
      <trkpt lat="43.05672" lon="-0.35873">
        <ele>1050.2</ele>
        <time>2026-02-08T11:16:48.000Z</time>
      </trkpt>
      <trkpt lat="43.05675" lon="-0.35877">
        <ele>1050.2</ele>
        <time>2026-02-08T11:16:51.000Z</time>
      </trkpt>
      <trkpt lat="43.05677" lon="-0.3588">
        <ele>1050.2</ele>
        <time>2026-02-08T11:16:54.000Z</time>
      </trkpt>
      <trkpt lat="43.0568" lon="-0.35883">
        <ele>1050.1</ele>
        <time>2026-02-08T11:16:57.000Z</time>
      </trkpt>
      <trkpt lat="43.05683" lon="-0.35886">
        <ele>1050.1</ele>
        <time>2026-02-08T11:17:00.000Z</time>
      </trkpt>
      <trkpt lat="43.05686" lon="-0.3589">
        <ele>1050</ele>
        <time>2026-02-08T11:17:03.000Z</time>
      </trkpt>
      <trkpt lat="43.05688" lon="-0.35894">
        <ele>1049.9</ele>
        <time>2026-02-08T11:17:06.000Z</time>
      </trkpt>
      <trkpt lat="43.05691" lon="-0.35897">
        <ele>1049.8</ele>
        <time>2026-02-08T11:17:09.000Z</time>
      </trkpt>
      <trkpt lat="43.05693" lon="-0.35901">
        <ele>1049.6</ele>
        <time>2026-02-08T11:17:12.000Z</time>
      </trkpt>
      <trkpt lat="43.05695" lon="-0.35905">
        <ele>1049.3</ele>
        <time>2026-02-08T11:17:15.000Z</time>
      </trkpt>
      <trkpt lat="43.05696" lon="-0.3591">
        <ele>1048.9</ele>
        <time>2026-02-08T11:17:18.000Z</time>
      </trkpt>
      <trkpt lat="43.05697" lon="-0.35914">
        <ele>1048.4</ele>
        <time>2026-02-08T11:17:21.000Z</time>
      </trkpt>
      <trkpt lat="43.05698" lon="-0.35919">
        <ele>1047.9</ele>
        <time>2026-02-08T11:17:24.000Z</time>
      </trkpt>
      <trkpt lat="43.05699" lon="-0.35924">
        <ele>1047.6</ele>
        <time>2026-02-08T11:17:27.000Z</time>
      </trkpt>
      <trkpt lat="43.057" lon="-0.35929">
        <ele>1047.2</ele>
        <time>2026-02-08T11:17:30.000Z</time>
      </trkpt>
      <trkpt lat="43.05701" lon="-0.35933">
        <ele>1046.8</ele>
        <time>2026-02-08T11:17:33.000Z</time>
      </trkpt>
      <trkpt lat="43.05701" lon="-0.35938">
        <ele>1046.4</ele>
        <time>2026-02-08T11:17:36.000Z</time>
      </trkpt>
      <trkpt lat="43.05702" lon="-0.35943">
        <ele>1046</ele>
        <time>2026-02-08T11:17:39.000Z</time>
      </trkpt>
      <trkpt lat="43.05703" lon="-0.35948">
        <ele>1045.6</ele>
        <time>2026-02-08T11:17:42.000Z</time>
      </trkpt>
      <trkpt lat="43.05704" lon="-0.35954">
        <ele>1045.2</ele>
        <time>2026-02-08T11:17:45.000Z</time>
      </trkpt>
      <trkpt lat="43.05705" lon="-0.35958">
        <ele>1044.9</ele>
        <time>2026-02-08T11:17:48.000Z</time>
      </trkpt>
      <trkpt lat="43.05706" lon="-0.35963">
        <ele>1044.5</ele>
        <time>2026-02-08T11:17:51.000Z</time>
      </trkpt>
      <trkpt lat="43.05707" lon="-0.35966">
        <ele>1044.1</ele>
        <time>2026-02-08T11:17:54.000Z</time>
      </trkpt>
      <trkpt lat="43.05709" lon="-0.3597">
        <ele>1043.8</ele>
        <time>2026-02-08T11:17:57.000Z</time>
      </trkpt>
      <trkpt lat="43.0571" lon="-0.35975">
        <ele>1043.5</ele>
        <time>2026-02-08T11:18:00.000Z</time>
      </trkpt>
      <trkpt lat="43.05711" lon="-0.35979">
        <ele>1043.3</ele>
        <time>2026-02-08T11:18:03.000Z</time>
      </trkpt>
      <trkpt lat="43.05712" lon="-0.35982">
        <ele>1043</ele>
        <time>2026-02-08T11:18:06.000Z</time>
      </trkpt>
      <trkpt lat="43.05714" lon="-0.35987">
        <ele>1042.7</ele>
        <time>2026-02-08T11:18:09.000Z</time>
      </trkpt>
      <trkpt lat="43.05716" lon="-0.35991">
        <ele>1042.4</ele>
        <time>2026-02-08T11:18:12.000Z</time>
      </trkpt>
      <trkpt lat="43.05717" lon="-0.35994">
        <ele>1042.2</ele>
        <time>2026-02-08T11:18:15.000Z</time>
      </trkpt>
      <trkpt lat="43.05719" lon="-0.35998">
        <ele>1041.8</ele>
        <time>2026-02-08T11:18:18.000Z</time>
      </trkpt>
      <trkpt lat="43.05721" lon="-0.36001">
        <ele>1041.5</ele>
        <time>2026-02-08T11:18:21.000Z</time>
      </trkpt>
      <trkpt lat="43.05722" lon="-0.36005">
        <ele>1041.2</ele>
        <time>2026-02-08T11:18:24.000Z</time>
      </trkpt>
      <trkpt lat="43.05723" lon="-0.3601">
        <ele>1040.9</ele>
        <time>2026-02-08T11:18:27.000Z</time>
      </trkpt>
      <trkpt lat="43.05725" lon="-0.36014">
        <ele>1040.5</ele>
        <time>2026-02-08T11:18:30.000Z</time>
      </trkpt>
      <trkpt lat="43.05727" lon="-0.36019">
        <ele>1040.1</ele>
        <time>2026-02-08T11:18:33.000Z</time>
      </trkpt>
      <trkpt lat="43.05729" lon="-0.36023">
        <ele>1039.7</ele>
        <time>2026-02-08T11:18:36.000Z</time>
      </trkpt>
      <trkpt lat="43.0573" lon="-0.36027">
        <ele>1039.2</ele>
        <time>2026-02-08T11:18:39.000Z</time>
      </trkpt>
      <trkpt lat="43.05732" lon="-0.3603">
        <ele>1038.7</ele>
        <time>2026-02-08T11:18:42.000Z</time>
      </trkpt>
      <trkpt lat="43.05734" lon="-0.36034">
        <ele>1038.1</ele>
        <time>2026-02-08T11:18:45.000Z</time>
      </trkpt>
      <trkpt lat="43.05736" lon="-0.36038">
        <ele>1037.8</ele>
        <time>2026-02-08T11:18:48.000Z</time>
      </trkpt>
      <trkpt lat="43.05741" lon="-0.36041">
        <ele>1037.4</ele>
        <time>2026-02-08T11:18:51.000Z</time>
      </trkpt>
      <trkpt lat="43.05743" lon="-0.36044">
        <ele>1037</ele>
        <time>2026-02-08T11:18:54.000Z</time>
      </trkpt>
      <trkpt lat="43.05745" lon="-0.36047">
        <ele>1036.7</ele>
        <time>2026-02-08T11:18:57.000Z</time>
      </trkpt>
      <trkpt lat="43.05748" lon="-0.3605">
        <ele>1036.4</ele>
        <time>2026-02-08T11:19:00.000Z</time>
      </trkpt>
      <trkpt lat="43.05751" lon="-0.36054">
        <ele>1036.1</ele>
        <time>2026-02-08T11:19:03.000Z</time>
      </trkpt>
      <trkpt lat="43.05754" lon="-0.36057">
        <ele>1035.8</ele>
        <time>2026-02-08T11:19:06.000Z</time>
      </trkpt>
      <trkpt lat="43.05757" lon="-0.36061">
        <ele>1035.5</ele>
        <time>2026-02-08T11:19:09.000Z</time>
      </trkpt>
      <trkpt lat="43.05759" lon="-0.36064">
        <ele>1035.2</ele>
        <time>2026-02-08T11:19:12.000Z</time>
      </trkpt>
      <trkpt lat="43.05761" lon="-0.36068">
        <ele>1034.9</ele>
        <time>2026-02-08T11:19:15.000Z</time>
      </trkpt>
      <trkpt lat="43.05764" lon="-0.36071">
        <ele>1034.6</ele>
        <time>2026-02-08T11:19:18.000Z</time>
      </trkpt>
      <trkpt lat="43.05767" lon="-0.36074">
        <ele>1034.3</ele>
        <time>2026-02-08T11:19:21.000Z</time>
      </trkpt>
      <trkpt lat="43.0577" lon="-0.36077">
        <ele>1034.1</ele>
        <time>2026-02-08T11:19:24.000Z</time>
      </trkpt>
      <trkpt lat="43.05771" lon="-0.36081">
        <ele>1033.7</ele>
        <time>2026-02-08T11:19:27.000Z</time>
      </trkpt>
      <trkpt lat="43.05774" lon="-0.36085">
        <ele>1033.4</ele>
        <time>2026-02-08T11:19:30.000Z</time>
      </trkpt>
      <trkpt lat="43.05776" lon="-0.36089">
        <ele>1033.1</ele>
        <time>2026-02-08T11:19:33.000Z</time>
      </trkpt>
      <trkpt lat="43.05779" lon="-0.36093">
        <ele>1032.9</ele>
        <time>2026-02-08T11:19:36.000Z</time>
      </trkpt>
      <trkpt lat="43.05781" lon="-0.36097">
        <ele>1032.6</ele>
        <time>2026-02-08T11:19:39.000Z</time>
      </trkpt>
      <trkpt lat="43.05784" lon="-0.36101">
        <ele>1032.4</ele>
        <time>2026-02-08T11:19:42.000Z</time>
      </trkpt>
      <trkpt lat="43.05785" lon="-0.36106">
        <ele>1032.1</ele>
        <time>2026-02-08T11:19:45.000Z</time>
      </trkpt>
      <trkpt lat="43.05787" lon="-0.3611">
        <ele>1031.9</ele>
        <time>2026-02-08T11:19:48.000Z</time>
      </trkpt>
      <trkpt lat="43.05789" lon="-0.36114">
        <ele>1031.6</ele>
        <time>2026-02-08T11:19:51.000Z</time>
      </trkpt>
      <trkpt lat="43.0579" lon="-0.36118">
        <ele>1031.4</ele>
        <time>2026-02-08T11:19:54.000Z</time>
      </trkpt>
      <trkpt lat="43.05791" lon="-0.36122">
        <ele>1031.1</ele>
        <time>2026-02-08T11:19:57.000Z</time>
      </trkpt>
      <trkpt lat="43.05792" lon="-0.36126">
        <ele>1030.8</ele>
        <time>2026-02-08T11:20:00.000Z</time>
      </trkpt>
      <trkpt lat="43.05794" lon="-0.36131">
        <ele>1030.4</ele>
        <time>2026-02-08T11:20:03.000Z</time>
      </trkpt>
      <trkpt lat="43.05796" lon="-0.36135">
        <ele>1030.1</ele>
        <time>2026-02-08T11:20:06.000Z</time>
      </trkpt>
      <trkpt lat="43.05798" lon="-0.3614">
        <ele>1029.8</ele>
        <time>2026-02-08T11:20:09.000Z</time>
      </trkpt>
      <trkpt lat="43.05799" lon="-0.36145">
        <ele>1029.5</ele>
        <time>2026-02-08T11:20:12.000Z</time>
      </trkpt>
      <trkpt lat="43.05801" lon="-0.36151">
        <ele>1029.1</ele>
        <time>2026-02-08T11:20:15.000Z</time>
      </trkpt>
      <trkpt lat="43.05802" lon="-0.36156">
        <ele>1028.7</ele>
        <time>2026-02-08T11:20:18.000Z</time>
      </trkpt>
      <trkpt lat="43.05804" lon="-0.36161">
        <ele>1028.3</ele>
        <time>2026-02-08T11:20:21.000Z</time>
      </trkpt>
      <trkpt lat="43.05806" lon="-0.36166">
        <ele>1027.8</ele>
        <time>2026-02-08T11:20:24.000Z</time>
      </trkpt>
      <trkpt lat="43.05807" lon="-0.36171">
        <ele>1027.5</ele>
        <time>2026-02-08T11:20:27.000Z</time>
      </trkpt>
      <trkpt lat="43.05809" lon="-0.36175">
        <ele>1027.2</ele>
        <time>2026-02-08T11:20:30.000Z</time>
      </trkpt>
      <trkpt lat="43.05811" lon="-0.36179">
        <ele>1026.9</ele>
        <time>2026-02-08T11:20:33.000Z</time>
      </trkpt>
      <trkpt lat="43.05813" lon="-0.36184">
        <ele>1026.7</ele>
        <time>2026-02-08T11:20:36.000Z</time>
      </trkpt>
      <trkpt lat="43.05813" lon="-0.36189">
        <ele>1026.6</ele>
        <time>2026-02-08T11:20:39.000Z</time>
      </trkpt>
      <trkpt lat="43.05814" lon="-0.36195">
        <ele>1026.4</ele>
        <time>2026-02-08T11:20:42.000Z</time>
      </trkpt>
      <trkpt lat="43.05815" lon="-0.36199">
        <ele>1026.2</ele>
        <time>2026-02-08T11:20:45.000Z</time>
      </trkpt>
      <trkpt lat="43.05816" lon="-0.36203">
        <ele>1026</ele>
        <time>2026-02-08T11:20:48.000Z</time>
      </trkpt>
      <trkpt lat="43.05817" lon="-0.36208">
        <ele>1025.8</ele>
        <time>2026-02-08T11:20:51.000Z</time>
      </trkpt>
      <trkpt lat="43.05817" lon="-0.36213">
        <ele>1025.7</ele>
        <time>2026-02-08T11:20:54.000Z</time>
      </trkpt>
      <trkpt lat="43.05819" lon="-0.36217">
        <ele>1025.5</ele>
        <time>2026-02-08T11:20:57.000Z</time>
      </trkpt>
      <trkpt lat="43.05819" lon="-0.36221">
        <ele>1025.3</ele>
        <time>2026-02-08T11:21:00.000Z</time>
      </trkpt>
      <trkpt lat="43.05819" lon="-0.36226">
        <ele>1025.1</ele>
        <time>2026-02-08T11:21:03.000Z</time>
      </trkpt>
      <trkpt lat="43.05819" lon="-0.36231">
        <ele>1024.9</ele>
        <time>2026-02-08T11:21:06.000Z</time>
      </trkpt>
      <trkpt lat="43.0582" lon="-0.36236">
        <ele>1024.7</ele>
        <time>2026-02-08T11:21:09.000Z</time>
      </trkpt>
      <trkpt lat="43.05819" lon="-0.36241">
        <ele>1024.5</ele>
        <time>2026-02-08T11:21:12.000Z</time>
      </trkpt>
      <trkpt lat="43.0582" lon="-0.36245">
        <ele>1024.3</ele>
        <time>2026-02-08T11:21:15.000Z</time>
      </trkpt>
      <trkpt lat="43.05822" lon="-0.36251">
        <ele>1024</ele>
        <time>2026-02-08T11:21:18.000Z</time>
      </trkpt>
      <trkpt lat="43.05821" lon="-0.36255">
        <ele>1023.7</ele>
        <time>2026-02-08T11:21:21.000Z</time>
      </trkpt>
      <trkpt lat="43.05821" lon="-0.36259">
        <ele>1023.4</ele>
        <time>2026-02-08T11:21:24.000Z</time>
      </trkpt>
      <trkpt lat="43.0582" lon="-0.36263">
        <ele>1023.1</ele>
        <time>2026-02-08T11:21:27.000Z</time>
      </trkpt>
      <trkpt lat="43.05821" lon="-0.36268">
        <ele>1022.9</ele>
        <time>2026-02-08T11:21:30.000Z</time>
      </trkpt>
      <trkpt lat="43.05822" lon="-0.36274">
        <ele>1022.6</ele>
        <time>2026-02-08T11:21:33.000Z</time>
      </trkpt>
      <trkpt lat="43.05824" lon="-0.36278">
        <ele>1022.4</ele>
        <time>2026-02-08T11:21:36.000Z</time>
      </trkpt>
      <trkpt lat="43.05827" lon="-0.36283">
        <ele>1022.2</ele>
        <time>2026-02-08T11:21:39.000Z</time>
      </trkpt>
      <trkpt lat="43.05827" lon="-0.36289">
        <ele>1021.9</ele>
        <time>2026-02-08T11:21:42.000Z</time>
      </trkpt>
      <trkpt lat="43.05827" lon="-0.36293">
        <ele>1021.7</ele>
        <time>2026-02-08T11:21:45.000Z</time>
      </trkpt>
      <trkpt lat="43.05831" lon="-0.36299">
        <ele>1021.6</ele>
        <time>2026-02-08T11:21:48.000Z</time>
      </trkpt>
      <trkpt lat="43.05833" lon="-0.36304">
        <ele>1021.4</ele>
        <time>2026-02-08T11:21:51.000Z</time>
      </trkpt>
      <trkpt lat="43.05834" lon="-0.36311">
        <ele>1021.2</ele>
        <time>2026-02-08T11:21:54.000Z</time>
      </trkpt>
      <trkpt lat="43.05835" lon="-0.36316">
        <ele>1021</ele>
        <time>2026-02-08T11:21:57.000Z</time>
      </trkpt>
      <trkpt lat="43.05837" lon="-0.36321">
        <ele>1020.8</ele>
        <time>2026-02-08T11:22:00.000Z</time>
      </trkpt>
      <trkpt lat="43.05838" lon="-0.36325">
        <ele>1020.5</ele>
        <time>2026-02-08T11:22:03.000Z</time>
      </trkpt>
      <trkpt lat="43.05839" lon="-0.36329">
        <ele>1020.3</ele>
        <time>2026-02-08T11:22:06.000Z</time>
      </trkpt>
      <trkpt lat="43.05841" lon="-0.36333">
        <ele>1020.2</ele>
        <time>2026-02-08T11:22:09.000Z</time>
      </trkpt>
      <trkpt lat="43.05843" lon="-0.36338">
        <ele>1019.9</ele>
        <time>2026-02-08T11:22:12.000Z</time>
      </trkpt>
      <trkpt lat="43.05844" lon="-0.36343">
        <ele>1019.8</ele>
        <time>2026-02-08T11:22:15.000Z</time>
      </trkpt>
      <trkpt lat="43.05846" lon="-0.36348">
        <ele>1019.6</ele>
        <time>2026-02-08T11:22:18.000Z</time>
      </trkpt>
      <trkpt lat="43.05847" lon="-0.36352">
        <ele>1019.4</ele>
        <time>2026-02-08T11:22:21.000Z</time>
      </trkpt>
      <trkpt lat="43.05849" lon="-0.36356">
        <ele>1019.2</ele>
        <time>2026-02-08T11:22:24.000Z</time>
      </trkpt>
      <trkpt lat="43.05853" lon="-0.3636">
        <ele>1019</ele>
        <time>2026-02-08T11:22:27.000Z</time>
      </trkpt>
      <trkpt lat="43.05852" lon="-0.36365">
        <ele>1018.8</ele>
        <time>2026-02-08T11:22:30.000Z</time>
      </trkpt>
      <trkpt lat="43.05853" lon="-0.3637">
        <ele>1018.6</ele>
        <time>2026-02-08T11:22:33.000Z</time>
      </trkpt>
      <trkpt lat="43.05853" lon="-0.36374">
        <ele>1018.3</ele>
        <time>2026-02-08T11:22:36.000Z</time>
      </trkpt>
      <trkpt lat="43.05855" lon="-0.36378">
        <ele>1018.1</ele>
        <time>2026-02-08T11:22:39.000Z</time>
      </trkpt>
      <trkpt lat="43.05856" lon="-0.36382">
        <ele>1017.9</ele>
        <time>2026-02-08T11:22:42.000Z</time>
      </trkpt>
      <trkpt lat="43.05858" lon="-0.36385">
        <ele>1017.7</ele>
        <time>2026-02-08T11:22:45.000Z</time>
      </trkpt>
      <trkpt lat="43.05859" lon="-0.3639">
        <ele>1017.5</ele>
        <time>2026-02-08T11:22:48.000Z</time>
      </trkpt>
      <trkpt lat="43.0586" lon="-0.36395">
        <ele>1017.3</ele>
        <time>2026-02-08T11:22:51.000Z</time>
      </trkpt>
      <trkpt lat="43.05862" lon="-0.364">
        <ele>1017.1</ele>
        <time>2026-02-08T11:22:54.000Z</time>
      </trkpt>
      <trkpt lat="43.05865" lon="-0.36404">
        <ele>1017.1</ele>
        <time>2026-02-08T11:22:57.000Z</time>
      </trkpt>
      <trkpt lat="43.05868" lon="-0.36408">
        <ele>1017</ele>
        <time>2026-02-08T11:23:00.000Z</time>
      </trkpt>
      <trkpt lat="43.05868" lon="-0.36413">
        <ele>1016.9</ele>
        <time>2026-02-08T11:23:03.000Z</time>
      </trkpt>
      <trkpt lat="43.05867" lon="-0.36418">
        <ele>1016.8</ele>
        <time>2026-02-08T11:23:06.000Z</time>
      </trkpt>
      <trkpt lat="43.05867" lon="-0.36423">
        <ele>1016.7</ele>
        <time>2026-02-08T11:23:09.000Z</time>
      </trkpt>
      <trkpt lat="43.05867" lon="-0.36428">
        <ele>1016.6</ele>
        <time>2026-02-08T11:23:12.000Z</time>
      </trkpt>
      <trkpt lat="43.05867" lon="-0.36433">
        <ele>1016.5</ele>
        <time>2026-02-08T11:23:15.000Z</time>
      </trkpt>
      <trkpt lat="43.05866" lon="-0.36439">
        <ele>1016.3</ele>
        <time>2026-02-08T11:23:18.000Z</time>
      </trkpt>
      <trkpt lat="43.05866" lon="-0.36444">
        <ele>1016.1</ele>
        <time>2026-02-08T11:23:21.000Z</time>
      </trkpt>
      <trkpt lat="43.05867" lon="-0.36448">
        <ele>1015.9</ele>
        <time>2026-02-08T11:23:24.000Z</time>
      </trkpt>
      <trkpt lat="43.05867" lon="-0.36453">
        <ele>1015.8</ele>
        <time>2026-02-08T11:23:27.000Z</time>
      </trkpt>
      <trkpt lat="43.05867" lon="-0.36457">
        <ele>1015.7</ele>
        <time>2026-02-08T11:23:30.000Z</time>
      </trkpt>
      <trkpt lat="43.05868" lon="-0.36462">
        <ele>1015.6</ele>
        <time>2026-02-08T11:23:33.000Z</time>
      </trkpt>
      <trkpt lat="43.05868" lon="-0.36468">
        <ele>1015.4</ele>
        <time>2026-02-08T11:23:36.000Z</time>
      </trkpt>
      <trkpt lat="43.05868" lon="-0.36473">
        <ele>1015.3</ele>
        <time>2026-02-08T11:23:39.000Z</time>
      </trkpt>
      <trkpt lat="43.05869" lon="-0.36479">
        <ele>1015.1</ele>
        <time>2026-02-08T11:23:42.000Z</time>
      </trkpt>
      <trkpt lat="43.05869" lon="-0.36484">
        <ele>1015</ele>
        <time>2026-02-08T11:23:45.000Z</time>
      </trkpt>
      <trkpt lat="43.05869" lon="-0.3649">
        <ele>1014.9</ele>
        <time>2026-02-08T11:23:48.000Z</time>
      </trkpt>
      <trkpt lat="43.05869" lon="-0.36494">
        <ele>1014.8</ele>
        <time>2026-02-08T11:23:51.000Z</time>
      </trkpt>
      <trkpt lat="43.05869" lon="-0.36498">
        <ele>1014.7</ele>
        <time>2026-02-08T11:23:54.000Z</time>
      </trkpt>
      <trkpt lat="43.0587" lon="-0.36503">
        <ele>1014.5</ele>
        <time>2026-02-08T11:23:57.000Z</time>
      </trkpt>
      <trkpt lat="43.0587" lon="-0.36508">
        <ele>1014.4</ele>
        <time>2026-02-08T11:24:00.000Z</time>
      </trkpt>
      <trkpt lat="43.05871" lon="-0.36513">
        <ele>1014.3</ele>
        <time>2026-02-08T11:24:03.000Z</time>
      </trkpt>
      <trkpt lat="43.05872" lon="-0.36517">
        <ele>1014.2</ele>
        <time>2026-02-08T11:24:06.000Z</time>
      </trkpt>
      <trkpt lat="43.05873" lon="-0.36522">
        <ele>1014.2</ele>
        <time>2026-02-08T11:24:09.000Z</time>
      </trkpt>
      <trkpt lat="43.05874" lon="-0.36529">
        <ele>1014.1</ele>
        <time>2026-02-08T11:24:12.000Z</time>
      </trkpt>
      <trkpt lat="43.05875" lon="-0.36534">
        <ele>1014.1</ele>
        <time>2026-02-08T11:24:15.000Z</time>
      </trkpt>
      <trkpt lat="43.05877" lon="-0.36539">
        <ele>1014.1</ele>
        <time>2026-02-08T11:24:18.000Z</time>
      </trkpt>
      <trkpt lat="43.05879" lon="-0.36544">
        <ele>1014.1</ele>
        <time>2026-02-08T11:24:21.000Z</time>
      </trkpt>
      <trkpt lat="43.0588" lon="-0.36549">
        <ele>1014.1</ele>
        <time>2026-02-08T11:24:24.000Z</time>
      </trkpt>
      <trkpt lat="43.05883" lon="-0.36553">
        <ele>1014.1</ele>
        <time>2026-02-08T11:24:27.000Z</time>
      </trkpt>
      <trkpt lat="43.05886" lon="-0.36557">
        <ele>1014.2</ele>
        <time>2026-02-08T11:24:30.000Z</time>
      </trkpt>
      <trkpt lat="43.05889" lon="-0.36562">
        <ele>1014.3</ele>
        <time>2026-02-08T11:24:33.000Z</time>
      </trkpt>
      <trkpt lat="43.05891" lon="-0.36566">
        <ele>1014.4</ele>
        <time>2026-02-08T11:24:36.000Z</time>
      </trkpt>
      <trkpt lat="43.05895" lon="-0.3657">
        <ele>1014.5</ele>
        <time>2026-02-08T11:24:39.000Z</time>
      </trkpt>
      <trkpt lat="43.05897" lon="-0.36573">
        <ele>1014.6</ele>
        <time>2026-02-08T11:24:42.000Z</time>
      </trkpt>
      <trkpt lat="43.05898" lon="-0.36577">
        <ele>1014.7</ele>
        <time>2026-02-08T11:24:45.000Z</time>
      </trkpt>
      <trkpt lat="43.05901" lon="-0.3658">
        <ele>1014.9</ele>
        <time>2026-02-08T11:24:48.000Z</time>
      </trkpt>
      <trkpt lat="43.05902" lon="-0.36584">
        <ele>1015</ele>
        <time>2026-02-08T11:24:51.000Z</time>
      </trkpt>
      <trkpt lat="43.05903" lon="-0.36587">
        <ele>1015.2</ele>
        <time>2026-02-08T11:24:54.000Z</time>
      </trkpt>
      <trkpt lat="43.05905" lon="-0.3659">
        <ele>1015.2</ele>
        <time>2026-02-08T11:24:57.000Z</time>
      </trkpt>
      <trkpt lat="43.05907" lon="-0.36594">
        <ele>1015.3</ele>
        <time>2026-02-08T11:25:00.000Z</time>
      </trkpt>
      <trkpt lat="43.0591" lon="-0.36596">
        <ele>1015.4</ele>
        <time>2026-02-08T11:25:03.000Z</time>
      </trkpt>
      <trkpt lat="43.05914" lon="-0.36598">
        <ele>1015.5</ele>
        <time>2026-02-08T11:25:06.000Z</time>
      </trkpt>
      <trkpt lat="43.05919" lon="-0.366">
        <ele>1015.6</ele>
        <time>2026-02-08T11:25:09.000Z</time>
      </trkpt>
      <trkpt lat="43.05922" lon="-0.36601">
        <ele>1015.7</ele>
        <time>2026-02-08T11:25:12.000Z</time>
      </trkpt>
      <trkpt lat="43.05926" lon="-0.36603">
        <ele>1015.8</ele>
        <time>2026-02-08T11:25:15.000Z</time>
      </trkpt>
      <trkpt lat="43.0593" lon="-0.36603">
        <ele>1015.9</ele>
        <time>2026-02-08T11:25:18.000Z</time>
      </trkpt>
      <trkpt lat="43.05933" lon="-0.36604">
        <ele>1016</ele>
        <time>2026-02-08T11:25:21.000Z</time>
      </trkpt>
      <trkpt lat="43.05937" lon="-0.36604">
        <ele>1016</ele>
        <time>2026-02-08T11:25:24.000Z</time>
      </trkpt>
      <trkpt lat="43.0594" lon="-0.36604">
        <ele>1015.9</ele>
        <time>2026-02-08T11:25:27.000Z</time>
      </trkpt>
      <trkpt lat="43.05945" lon="-0.36604">
        <ele>1015.9</ele>
        <time>2026-02-08T11:25:30.000Z</time>
      </trkpt>
      <trkpt lat="43.05949" lon="-0.36604">
        <ele>1015.9</ele>
        <time>2026-02-08T11:25:33.000Z</time>
      </trkpt>
      <trkpt lat="43.05953" lon="-0.36603">
        <ele>1015.8</ele>
        <time>2026-02-08T11:25:36.000Z</time>
      </trkpt>
      <trkpt lat="43.05956" lon="-0.36604">
        <ele>1015.7</ele>
        <time>2026-02-08T11:25:39.000Z</time>
      </trkpt>
      <trkpt lat="43.0596" lon="-0.36604">
        <ele>1015.6</ele>
        <time>2026-02-08T11:25:42.000Z</time>
      </trkpt>
      <trkpt lat="43.05965" lon="-0.36604">
        <ele>1015.5</ele>
        <time>2026-02-08T11:25:45.000Z</time>
      </trkpt>
      <trkpt lat="43.05967" lon="-0.36603">
        <ele>1015.3</ele>
        <time>2026-02-08T11:25:48.000Z</time>
      </trkpt>
      <trkpt lat="43.0597" lon="-0.36604">
        <ele>1015.1</ele>
        <time>2026-02-08T11:25:51.000Z</time>
      </trkpt>
      <trkpt lat="43.05973" lon="-0.36604">
        <ele>1014.9</ele>
        <time>2026-02-08T11:25:54.000Z</time>
      </trkpt>
      <trkpt lat="43.05976" lon="-0.36605">
        <ele>1014.6</ele>
        <time>2026-02-08T11:25:57.000Z</time>
      </trkpt>
      <trkpt lat="43.0598" lon="-0.36605">
        <ele>1014.3</ele>
        <time>2026-02-08T11:26:00.000Z</time>
      </trkpt>
      <trkpt lat="43.05985" lon="-0.36606">
        <ele>1014</ele>
        <time>2026-02-08T11:26:03.000Z</time>
      </trkpt>
      <trkpt lat="43.05988" lon="-0.36607">
        <ele>1013.7</ele>
        <time>2026-02-08T11:26:06.000Z</time>
      </trkpt>
      <trkpt lat="43.05991" lon="-0.36607">
        <ele>1013.4</ele>
        <time>2026-02-08T11:26:09.000Z</time>
      </trkpt>
      <trkpt lat="43.05993" lon="-0.36607">
        <ele>1013.2</ele>
        <time>2026-02-08T11:26:12.000Z</time>
      </trkpt>
      <trkpt lat="43.05997" lon="-0.36606">
        <ele>1013</ele>
        <time>2026-02-08T11:26:15.000Z</time>
      </trkpt>
      <trkpt lat="43.06002" lon="-0.36606">
        <ele>1012.7</ele>
        <time>2026-02-08T11:26:18.000Z</time>
      </trkpt>
      <trkpt lat="43.06006" lon="-0.36606">
        <ele>1012.4</ele>
        <time>2026-02-08T11:26:21.000Z</time>
      </trkpt>
      <trkpt lat="43.06009" lon="-0.36606">
        <ele>1012.1</ele>
        <time>2026-02-08T11:26:24.000Z</time>
      </trkpt>
      <trkpt lat="43.06013" lon="-0.36605">
        <ele>1011.8</ele>
        <time>2026-02-08T11:26:27.000Z</time>
      </trkpt>
      <trkpt lat="43.06017" lon="-0.36604">
        <ele>1011.6</ele>
        <time>2026-02-08T11:26:30.000Z</time>
      </trkpt>
      <trkpt lat="43.06021" lon="-0.36602">
        <ele>1011.3</ele>
        <time>2026-02-08T11:26:33.000Z</time>
      </trkpt>
      <trkpt lat="43.06025" lon="-0.36602">
        <ele>1011</ele>
        <time>2026-02-08T11:26:36.000Z</time>
      </trkpt>
      <trkpt lat="43.06029" lon="-0.36602">
        <ele>1010.7</ele>
        <time>2026-02-08T11:26:39.000Z</time>
      </trkpt>
      <trkpt lat="43.06033" lon="-0.36602">
        <ele>1010.4</ele>
        <time>2026-02-08T11:26:42.000Z</time>
      </trkpt>
      <trkpt lat="43.06037" lon="-0.36602">
        <ele>1010.1</ele>
        <time>2026-02-08T11:26:45.000Z</time>
      </trkpt>
      <trkpt lat="43.06038" lon="-0.36602">
        <ele>1009.7</ele>
        <time>2026-02-08T11:26:48.000Z</time>
      </trkpt>
      <trkpt lat="43.06039" lon="-0.36602">
        <ele>1009.4</ele>
        <time>2026-02-08T11:26:51.000Z</time>
      </trkpt>
      <trkpt lat="43.06043" lon="-0.36601">
        <ele>1009.1</ele>
        <time>2026-02-08T11:26:54.000Z</time>
      </trkpt>
      <trkpt lat="43.06047" lon="-0.36601">
        <ele>1008.7</ele>
        <time>2026-02-08T11:26:57.000Z</time>
      </trkpt>
      <trkpt lat="43.06052" lon="-0.366">
        <ele>1008.4</ele>
        <time>2026-02-08T11:27:00.000Z</time>
      </trkpt>
      <trkpt lat="43.06056" lon="-0.36601">
        <ele>1008.1</ele>
        <time>2026-02-08T11:27:03.000Z</time>
      </trkpt>
      <trkpt lat="43.0606" lon="-0.36602">
        <ele>1007.8</ele>
        <time>2026-02-08T11:27:06.000Z</time>
      </trkpt>
      <trkpt lat="43.06064" lon="-0.36603">
        <ele>1007.5</ele>
        <time>2026-02-08T11:27:09.000Z</time>
      </trkpt>
      <trkpt lat="43.06069" lon="-0.36602">
        <ele>1007.1</ele>
        <time>2026-02-08T11:27:12.000Z</time>
      </trkpt>
      <trkpt lat="43.06072" lon="-0.36604">
        <ele>1006.8</ele>
        <time>2026-02-08T11:27:15.000Z</time>
      </trkpt>
      <trkpt lat="43.06075" lon="-0.36605">
        <ele>1006.5</ele>
        <time>2026-02-08T11:27:18.000Z</time>
      </trkpt>
      <trkpt lat="43.0608" lon="-0.36607">
        <ele>1006.2</ele>
        <time>2026-02-08T11:27:21.000Z</time>
      </trkpt>
      <trkpt lat="43.06085" lon="-0.36609">
        <ele>1005.9</ele>
        <time>2026-02-08T11:27:24.000Z</time>
      </trkpt>
      <trkpt lat="43.06088" lon="-0.3661">
        <ele>1005.7</ele>
        <time>2026-02-08T11:27:27.000Z</time>
      </trkpt>
      <trkpt lat="43.06091" lon="-0.36612">
        <ele>1005.4</ele>
        <time>2026-02-08T11:27:30.000Z</time>
      </trkpt>
      <trkpt lat="43.06096" lon="-0.36613">
        <ele>1005.1</ele>
        <time>2026-02-08T11:27:33.000Z</time>
      </trkpt>
      <trkpt lat="43.06101" lon="-0.36614">
        <ele>1004.7</ele>
        <time>2026-02-08T11:27:36.000Z</time>
      </trkpt>
      <trkpt lat="43.06106" lon="-0.36613">
        <ele>1004.5</ele>
        <time>2026-02-08T11:27:39.000Z</time>
      </trkpt>
      <trkpt lat="43.06109" lon="-0.36611">
        <ele>1004.3</ele>
        <time>2026-02-08T11:27:42.000Z</time>
      </trkpt>
      <trkpt lat="43.0611" lon="-0.36611">
        <ele>1004.2</ele>
        <time>2026-02-08T11:27:45.000Z</time>
      </trkpt>
      <trkpt lat="43.06112" lon="-0.36609">
        <ele>1004.1</ele>
        <time>2026-02-08T11:27:48.000Z</time>
      </trkpt>
      <trkpt lat="43.06115" lon="-0.36608">
        <ele>1004</ele>
        <time>2026-02-08T11:27:51.000Z</time>
      </trkpt>
      <trkpt lat="43.06118" lon="-0.36606">
        <ele>1003.9</ele>
        <time>2026-02-08T11:27:54.000Z</time>
      </trkpt>
      <trkpt lat="43.06122" lon="-0.36604">
        <ele>1003.9</ele>
        <time>2026-02-08T11:27:57.000Z</time>
      </trkpt>
      <trkpt lat="43.06128" lon="-0.36602">
        <ele>1003.8</ele>
        <time>2026-02-08T11:28:00.000Z</time>
      </trkpt>
      <trkpt lat="43.06132" lon="-0.36602">
        <ele>1003.7</ele>
        <time>2026-02-08T11:28:03.000Z</time>
      </trkpt>
      <trkpt lat="43.06135" lon="-0.36605">
        <ele>1003.6</ele>
        <time>2026-02-08T11:28:06.000Z</time>
      </trkpt>
      <trkpt lat="43.0614" lon="-0.36604">
        <ele>1003.5</ele>
        <time>2026-02-08T11:28:09.000Z</time>
      </trkpt>
      <trkpt lat="43.06144" lon="-0.36604">
        <ele>1003.3</ele>
        <time>2026-02-08T11:28:12.000Z</time>
      </trkpt>
      <trkpt lat="43.06147" lon="-0.36605">
        <ele>1003.1</ele>
        <time>2026-02-08T11:28:15.000Z</time>
      </trkpt>
      <trkpt lat="43.0615" lon="-0.36604">
        <ele>1002.9</ele>
        <time>2026-02-08T11:28:18.000Z</time>
      </trkpt>
      <trkpt lat="43.06154" lon="-0.36603">
        <ele>1002.7</ele>
        <time>2026-02-08T11:28:21.000Z</time>
      </trkpt>
      <trkpt lat="43.06157" lon="-0.36602">
        <ele>1002.6</ele>
        <time>2026-02-08T11:28:24.000Z</time>
      </trkpt>
      <trkpt lat="43.06162" lon="-0.36601">
        <ele>1002.4</ele>
        <time>2026-02-08T11:28:27.000Z</time>
      </trkpt>
      <trkpt lat="43.06165" lon="-0.36601">
        <ele>1002.2</ele>
        <time>2026-02-08T11:28:30.000Z</time>
      </trkpt>
      <trkpt lat="43.06169" lon="-0.36597">
        <ele>1002</ele>
        <time>2026-02-08T11:28:33.000Z</time>
      </trkpt>
      <trkpt lat="43.06173" lon="-0.36595">
        <ele>1001.8</ele>
        <time>2026-02-08T11:28:36.000Z</time>
      </trkpt>
      <trkpt lat="43.06177" lon="-0.36593">
        <ele>1001.6</ele>
        <time>2026-02-08T11:28:39.000Z</time>
      </trkpt>
      <trkpt lat="43.06181" lon="-0.36591">
        <ele>1001.5</ele>
        <time>2026-02-08T11:28:42.000Z</time>
      </trkpt>
      <trkpt lat="43.06185" lon="-0.36589">
        <ele>1001.3</ele>
        <time>2026-02-08T11:28:45.000Z</time>
      </trkpt>
      <trkpt lat="43.0619" lon="-0.36587">
        <ele>1001.2</ele>
        <time>2026-02-08T11:28:48.000Z</time>
      </trkpt>
      <trkpt lat="43.06195" lon="-0.36586">
        <ele>1001.1</ele>
        <time>2026-02-08T11:28:51.000Z</time>
      </trkpt>
      <trkpt lat="43.06198" lon="-0.36585">
        <ele>1000.9</ele>
        <time>2026-02-08T11:28:54.000Z</time>
      </trkpt>
      <trkpt lat="43.06203" lon="-0.36584">
        <ele>1000.7</ele>
        <time>2026-02-08T11:28:57.000Z</time>
      </trkpt>
      <trkpt lat="43.06207" lon="-0.36582">
        <ele>1000.6</ele>
        <time>2026-02-08T11:29:00.000Z</time>
      </trkpt>
      <trkpt lat="43.06211" lon="-0.36582">
        <ele>1000.3</ele>
        <time>2026-02-08T11:29:03.000Z</time>
      </trkpt>
      <trkpt lat="43.06215" lon="-0.3658">
        <ele>1000.1</ele>
        <time>2026-02-08T11:29:06.000Z</time>
      </trkpt>
      <trkpt lat="43.06218" lon="-0.36578">
        <ele>999.9</ele>
        <time>2026-02-08T11:29:09.000Z</time>
      </trkpt>
      <trkpt lat="43.06222" lon="-0.36577">
        <ele>999.6</ele>
        <time>2026-02-08T11:29:12.000Z</time>
      </trkpt>
      <trkpt lat="43.06225" lon="-0.36577">
        <ele>999.3</ele>
        <time>2026-02-08T11:29:15.000Z</time>
      </trkpt>
      <trkpt lat="43.06229" lon="-0.36575">
        <ele>999</ele>
        <time>2026-02-08T11:29:18.000Z</time>
      </trkpt>
      <trkpt lat="43.06232" lon="-0.36575">
        <ele>998.8</ele>
        <time>2026-02-08T11:29:21.000Z</time>
      </trkpt>
      <trkpt lat="43.06237" lon="-0.36573">
        <ele>998.5</ele>
        <time>2026-02-08T11:29:24.000Z</time>
      </trkpt>
      <trkpt lat="43.06241" lon="-0.36572">
        <ele>998.3</ele>
        <time>2026-02-08T11:29:27.000Z</time>
      </trkpt>
      <trkpt lat="43.06244" lon="-0.3657">
        <ele>998.1</ele>
        <time>2026-02-08T11:29:30.000Z</time>
      </trkpt>
      <trkpt lat="43.06248" lon="-0.36569">
        <ele>997.8</ele>
        <time>2026-02-08T11:29:33.000Z</time>
      </trkpt>
      <trkpt lat="43.06251" lon="-0.36568">
        <ele>997.6</ele>
        <time>2026-02-08T11:29:36.000Z</time>
      </trkpt>
      <trkpt lat="43.06255" lon="-0.36566">
        <ele>997.4</ele>
        <time>2026-02-08T11:29:39.000Z</time>
      </trkpt>
      <trkpt lat="43.06258" lon="-0.36564">
        <ele>997.3</ele>
        <time>2026-02-08T11:29:42.000Z</time>
      </trkpt>
      <trkpt lat="43.06261" lon="-0.36562">
        <ele>997.3</ele>
        <time>2026-02-08T11:29:45.000Z</time>
      </trkpt>
      <trkpt lat="43.06266" lon="-0.3656">
        <ele>997.2</ele>
        <time>2026-02-08T11:29:48.000Z</time>
      </trkpt>
      <trkpt lat="43.06269" lon="-0.36558">
        <ele>997.1</ele>
        <time>2026-02-08T11:29:51.000Z</time>
      </trkpt>
      <trkpt lat="43.06273" lon="-0.36556">
        <ele>997</ele>
        <time>2026-02-08T11:29:54.000Z</time>
      </trkpt>
      <trkpt lat="43.06277" lon="-0.36554">
        <ele>997</ele>
        <time>2026-02-08T11:29:57.000Z</time>
      </trkpt>
      <trkpt lat="43.0628" lon="-0.36551">
        <ele>996.9</ele>
        <time>2026-02-08T11:30:00.000Z</time>
      </trkpt>
      <trkpt lat="43.06282" lon="-0.36549">
        <ele>996.8</ele>
        <time>2026-02-08T11:30:03.000Z</time>
      </trkpt>
      <trkpt lat="43.06286" lon="-0.36548">
        <ele>996.7</ele>
        <time>2026-02-08T11:30:06.000Z</time>
      </trkpt>
      <trkpt lat="43.06289" lon="-0.36546">
        <ele>996.6</ele>
        <time>2026-02-08T11:30:09.000Z</time>
      </trkpt>
      <trkpt lat="43.06293" lon="-0.36544">
        <ele>996.4</ele>
        <time>2026-02-08T11:30:12.000Z</time>
      </trkpt>
      <trkpt lat="43.06297" lon="-0.36543">
        <ele>996.3</ele>
        <time>2026-02-08T11:30:15.000Z</time>
      </trkpt>
      <trkpt lat="43.06301" lon="-0.36541">
        <ele>996.1</ele>
        <time>2026-02-08T11:30:18.000Z</time>
      </trkpt>
      <trkpt lat="43.06306" lon="-0.36539">
        <ele>996</ele>
        <time>2026-02-08T11:30:21.000Z</time>
      </trkpt>
      <trkpt lat="43.06311" lon="-0.36536">
        <ele>995.8</ele>
        <time>2026-02-08T11:30:24.000Z</time>
      </trkpt>
      <trkpt lat="43.06314" lon="-0.36534">
        <ele>995.7</ele>
        <time>2026-02-08T11:30:27.000Z</time>
      </trkpt>
      <trkpt lat="43.06316" lon="-0.36532">
        <ele>995.5</ele>
        <time>2026-02-08T11:30:30.000Z</time>
      </trkpt>
      <trkpt lat="43.06319" lon="-0.36531">
        <ele>995.4</ele>
        <time>2026-02-08T11:30:33.000Z</time>
      </trkpt>
      <trkpt lat="43.06321" lon="-0.3653">
        <ele>995.3</ele>
        <time>2026-02-08T11:30:36.000Z</time>
      </trkpt>
      <trkpt lat="43.06323" lon="-0.36529">
        <ele>995.2</ele>
        <time>2026-02-08T11:30:39.000Z</time>
      </trkpt>
      <trkpt lat="43.06323" lon="-0.36528">
        <ele>995.2</ele>
        <time>2026-02-08T11:30:42.000Z</time>
      </trkpt>
      <trkpt lat="43.06325" lon="-0.36527">
        <ele>995.1</ele>
        <time>2026-02-08T11:30:45.000Z</time>
      </trkpt>
      <trkpt lat="43.06327" lon="-0.36525">
        <ele>995</ele>
        <time>2026-02-08T11:30:48.000Z</time>
      </trkpt>
      <trkpt lat="43.06329" lon="-0.36522">
        <ele>995</ele>
        <time>2026-02-08T11:30:51.000Z</time>
      </trkpt>
      <trkpt lat="43.06332" lon="-0.36519">
        <ele>994.9</ele>
        <time>2026-02-08T11:30:54.000Z</time>
      </trkpt>
      <trkpt lat="43.06338" lon="-0.36519">
        <ele>994.8</ele>
        <time>2026-02-08T11:30:57.000Z</time>
      </trkpt>
      <trkpt lat="43.06341" lon="-0.36519">
        <ele>994.7</ele>
        <time>2026-02-08T11:31:00.000Z</time>
      </trkpt>
      <trkpt lat="43.06344" lon="-0.36517">
        <ele>994.6</ele>
        <time>2026-02-08T11:31:03.000Z</time>
      </trkpt>
      <trkpt lat="43.06348" lon="-0.36516">
        <ele>994.4</ele>
        <time>2026-02-08T11:31:06.000Z</time>
      </trkpt>
      <trkpt lat="43.06351" lon="-0.36517">
        <ele>994.2</ele>
        <time>2026-02-08T11:31:09.000Z</time>
      </trkpt>
      <trkpt lat="43.06354" lon="-0.36516">
        <ele>994.1</ele>
        <time>2026-02-08T11:31:12.000Z</time>
      </trkpt>
      <trkpt lat="43.06357" lon="-0.36516">
        <ele>994</ele>
        <time>2026-02-08T11:31:15.000Z</time>
      </trkpt>
      <trkpt lat="43.06359" lon="-0.36514">
        <ele>993.9</ele>
        <time>2026-02-08T11:31:18.000Z</time>
      </trkpt>
      <trkpt lat="43.06362" lon="-0.3651">
        <ele>993.7</ele>
        <time>2026-02-08T11:31:21.000Z</time>
      </trkpt>
      <trkpt lat="43.06366" lon="-0.36508">
        <ele>993.6</ele>
        <time>2026-02-08T11:31:24.000Z</time>
      </trkpt>
      <trkpt lat="43.0637" lon="-0.36502">
        <ele>993.5</ele>
        <time>2026-02-08T11:31:27.000Z</time>
      </trkpt>
      <trkpt lat="43.06374" lon="-0.365">
        <ele>993.3</ele>
        <time>2026-02-08T11:31:30.000Z</time>
      </trkpt>
      <trkpt lat="43.06379" lon="-0.36499">
        <ele>993.2</ele>
        <time>2026-02-08T11:31:33.000Z</time>
      </trkpt>
      <trkpt lat="43.06384" lon="-0.36499">
        <ele>993.1</ele>
        <time>2026-02-08T11:31:36.000Z</time>
      </trkpt>
      <trkpt lat="43.06389" lon="-0.36498">
        <ele>993</ele>
        <time>2026-02-08T11:31:39.000Z</time>
      </trkpt>
      <trkpt lat="43.06391" lon="-0.36495">
        <ele>992.8</ele>
        <time>2026-02-08T11:31:42.000Z</time>
      </trkpt>
      <trkpt lat="43.06395" lon="-0.36494">
        <ele>992.7</ele>
        <time>2026-02-08T11:31:45.000Z</time>
      </trkpt>
      <trkpt lat="43.06402" lon="-0.36493">
        <ele>992.6</ele>
        <time>2026-02-08T11:31:48.000Z</time>
      </trkpt>
      <trkpt lat="43.06406" lon="-0.36492">
        <ele>992.4</ele>
        <time>2026-02-08T11:31:51.000Z</time>
      </trkpt>
      <trkpt lat="43.06408" lon="-0.36491">
        <ele>992.2</ele>
        <time>2026-02-08T11:31:54.000Z</time>
      </trkpt>
      <trkpt lat="43.06412" lon="-0.3649">
        <ele>992</ele>
        <time>2026-02-08T11:31:57.000Z</time>
      </trkpt>
      <trkpt lat="43.06416" lon="-0.36489">
        <ele>991.9</ele>
        <time>2026-02-08T11:32:00.000Z</time>
      </trkpt>
      <trkpt lat="43.0642" lon="-0.3649">
        <ele>991.8</ele>
        <time>2026-02-08T11:32:03.000Z</time>
      </trkpt>
      <trkpt lat="43.06424" lon="-0.36488">
        <ele>991.7</ele>
        <time>2026-02-08T11:32:06.000Z</time>
      </trkpt>
      <trkpt lat="43.06429" lon="-0.36488">
        <ele>991.5</ele>
        <time>2026-02-08T11:32:09.000Z</time>
      </trkpt>
      <trkpt lat="43.06433" lon="-0.36488">
        <ele>991.4</ele>
        <time>2026-02-08T11:32:12.000Z</time>
      </trkpt>
      <trkpt lat="43.06435" lon="-0.36487">
        <ele>991.2</ele>
        <time>2026-02-08T11:32:15.000Z</time>
      </trkpt>
      <trkpt lat="43.06438" lon="-0.36486">
        <ele>991.1</ele>
        <time>2026-02-08T11:32:18.000Z</time>
      </trkpt>
      <trkpt lat="43.06441" lon="-0.36484">
        <ele>991.1</ele>
        <time>2026-02-08T11:32:21.000Z</time>
      </trkpt>
      <trkpt lat="43.06444" lon="-0.36482">
        <ele>991</ele>
        <time>2026-02-08T11:32:24.000Z</time>
      </trkpt>
      <trkpt lat="43.06448" lon="-0.3648">
        <ele>990.9</ele>
        <time>2026-02-08T11:32:27.000Z</time>
      </trkpt>
      <trkpt lat="43.06451" lon="-0.3648">
        <ele>990.9</ele>
        <time>2026-02-08T11:32:30.000Z</time>
      </trkpt>
      <trkpt lat="43.06452" lon="-0.3648">
        <ele>990.8</ele>
        <time>2026-02-08T11:32:33.000Z</time>
      </trkpt>
      <trkpt lat="43.06454" lon="-0.36479">
        <ele>990.8</ele>
        <time>2026-02-08T11:32:36.000Z</time>
      </trkpt>
      <trkpt lat="43.06457" lon="-0.36479">
        <ele>990.7</ele>
        <time>2026-02-08T11:32:39.000Z</time>
      </trkpt>
      <trkpt lat="43.0646" lon="-0.36479">
        <ele>990.7</ele>
        <time>2026-02-08T11:32:42.000Z</time>
      </trkpt>
      <trkpt lat="43.06461" lon="-0.3648">
        <ele>990.6</ele>
        <time>2026-02-08T11:32:45.000Z</time>
      </trkpt>
      <trkpt lat="43.06465" lon="-0.36479">
        <ele>990.5</ele>
        <time>2026-02-08T11:32:48.000Z</time>
      </trkpt>
      <trkpt lat="43.06468" lon="-0.36479">
        <ele>990.5</ele>
        <time>2026-02-08T11:32:51.000Z</time>
      </trkpt>
      <trkpt lat="43.06473" lon="-0.36478">
        <ele>990.4</ele>
        <time>2026-02-08T11:32:54.000Z</time>
      </trkpt>
      <trkpt lat="43.06476" lon="-0.36476">
        <ele>990.3</ele>
        <time>2026-02-08T11:32:57.000Z</time>
      </trkpt>
      <trkpt lat="43.06481" lon="-0.36473">
        <ele>990.2</ele>
        <time>2026-02-08T11:33:00.000Z</time>
      </trkpt>
      <trkpt lat="43.06485" lon="-0.3647">
        <ele>990.2</ele>
        <time>2026-02-08T11:33:03.000Z</time>
      </trkpt>
      <trkpt lat="43.06491" lon="-0.36468">
        <ele>990.1</ele>
        <time>2026-02-08T11:33:06.000Z</time>
      </trkpt>
      <trkpt lat="43.06496" lon="-0.36467">
        <ele>989.9</ele>
        <time>2026-02-08T11:33:09.000Z</time>
      </trkpt>
      <trkpt lat="43.06502" lon="-0.36464">
        <ele>989.8</ele>
        <time>2026-02-08T11:33:12.000Z</time>
      </trkpt>
      <trkpt lat="43.06508" lon="-0.36462">
        <ele>989.7</ele>
        <time>2026-02-08T11:33:15.000Z</time>
      </trkpt>
      <trkpt lat="43.06512" lon="-0.36459">
        <ele>989.5</ele>
        <time>2026-02-08T11:33:18.000Z</time>
      </trkpt>
      <trkpt lat="43.06517" lon="-0.36457">
        <ele>989.4</ele>
        <time>2026-02-08T11:33:21.000Z</time>
      </trkpt>
      <trkpt lat="43.06521" lon="-0.36456">
        <ele>989.2</ele>
        <time>2026-02-08T11:33:24.000Z</time>
      </trkpt>
      <trkpt lat="43.06525" lon="-0.36454">
        <ele>989.1</ele>
        <time>2026-02-08T11:33:27.000Z</time>
      </trkpt>
      <trkpt lat="43.06529" lon="-0.36452">
        <ele>989</ele>
        <time>2026-02-08T11:33:30.000Z</time>
      </trkpt>
      <trkpt lat="43.06534" lon="-0.3645">
        <ele>988.8</ele>
        <time>2026-02-08T11:33:33.000Z</time>
      </trkpt>
      <trkpt lat="43.06537" lon="-0.36447">
        <ele>988.7</ele>
        <time>2026-02-08T11:33:36.000Z</time>
      </trkpt>
      <trkpt lat="43.06541" lon="-0.36445">
        <ele>988.6</ele>
        <time>2026-02-08T11:33:39.000Z</time>
      </trkpt>
      <trkpt lat="43.06545" lon="-0.36443">
        <ele>988.5</ele>
        <time>2026-02-08T11:33:42.000Z</time>
      </trkpt>
      <trkpt lat="43.06548" lon="-0.36442">
        <ele>988.4</ele>
        <time>2026-02-08T11:33:45.000Z</time>
      </trkpt>
      <trkpt lat="43.06551" lon="-0.3644">
        <ele>988.4</ele>
        <time>2026-02-08T11:33:48.000Z</time>
      </trkpt>
      <trkpt lat="43.06554" lon="-0.36438">
        <ele>988.3</ele>
        <time>2026-02-08T11:33:51.000Z</time>
      </trkpt>
      <trkpt lat="43.06556" lon="-0.36436">
        <ele>988.3</ele>
        <time>2026-02-08T11:33:54.000Z</time>
      </trkpt>
      <trkpt lat="43.06559" lon="-0.36435">
        <ele>988.2</ele>
        <time>2026-02-08T11:33:57.000Z</time>
      </trkpt>
      <trkpt lat="43.06562" lon="-0.36434">
        <ele>988.1</ele>
        <time>2026-02-08T11:34:00.000Z</time>
      </trkpt>
      <trkpt lat="43.06564" lon="-0.36433">
        <ele>988</ele>
        <time>2026-02-08T11:34:03.000Z</time>
      </trkpt>
      <trkpt lat="43.06567" lon="-0.36433">
        <ele>987.9</ele>
        <time>2026-02-08T11:34:06.000Z</time>
      </trkpt>
      <trkpt lat="43.06572" lon="-0.36432">
        <ele>987.7</ele>
        <time>2026-02-08T11:34:09.000Z</time>
      </trkpt>
      <trkpt lat="43.06575" lon="-0.36431">
        <ele>987.5</ele>
        <time>2026-02-08T11:34:12.000Z</time>
      </trkpt>
      <trkpt lat="43.06579" lon="-0.3643">
        <ele>987.4</ele>
        <time>2026-02-08T11:34:15.000Z</time>
      </trkpt>
      <trkpt lat="43.06583" lon="-0.36429">
        <ele>987.3</ele>
        <time>2026-02-08T11:34:18.000Z</time>
      </trkpt>
      <trkpt lat="43.06586" lon="-0.36427">
        <ele>987.2</ele>
        <time>2026-02-08T11:34:21.000Z</time>
      </trkpt>
      <trkpt lat="43.06589" lon="-0.36425">
        <ele>987.1</ele>
        <time>2026-02-08T11:34:24.000Z</time>
      </trkpt>
      <trkpt lat="43.06591" lon="-0.36424">
        <ele>987</ele>
        <time>2026-02-08T11:34:27.000Z</time>
      </trkpt>
      <trkpt lat="43.06593" lon="-0.36423">
        <ele>987</ele>
        <time>2026-02-08T11:34:30.000Z</time>
      </trkpt>
      <trkpt lat="43.06595" lon="-0.36423">
        <ele>986.9</ele>
        <time>2026-02-08T11:34:33.000Z</time>
      </trkpt>
      <trkpt lat="43.06598" lon="-0.36421">
        <ele>986.9</ele>
        <time>2026-02-08T11:34:36.000Z</time>
      </trkpt>
      <trkpt lat="43.06601" lon="-0.36418">
        <ele>986.8</ele>
        <time>2026-02-08T11:34:39.000Z</time>
      </trkpt>
      <trkpt lat="43.06605" lon="-0.36418">
        <ele>986.7</ele>
        <time>2026-02-08T11:34:42.000Z</time>
      </trkpt>
      <trkpt lat="43.06611" lon="-0.36416">
        <ele>986.6</ele>
        <time>2026-02-08T11:34:45.000Z</time>
      </trkpt>
      <trkpt lat="43.06613" lon="-0.36415">
        <ele>986.5</ele>
        <time>2026-02-08T11:34:48.000Z</time>
      </trkpt>
      <trkpt lat="43.06616" lon="-0.36414">
        <ele>986.4</ele>
        <time>2026-02-08T11:34:51.000Z</time>
      </trkpt>
      <trkpt lat="43.06619" lon="-0.36412">
        <ele>986.3</ele>
        <time>2026-02-08T11:34:54.000Z</time>
      </trkpt>
      <trkpt lat="43.06623" lon="-0.36414">
        <ele>986.2</ele>
        <time>2026-02-08T11:34:57.000Z</time>
      </trkpt>
      <trkpt lat="43.06625" lon="-0.36413">
        <ele>986.1</ele>
        <time>2026-02-08T11:35:00.000Z</time>
      </trkpt>
      <trkpt lat="43.06628" lon="-0.36411">
        <ele>986</ele>
        <time>2026-02-08T11:35:03.000Z</time>
      </trkpt>
      <trkpt lat="43.06633" lon="-0.3641">
        <ele>985.9</ele>
        <time>2026-02-08T11:35:06.000Z</time>
      </trkpt>
      <trkpt lat="43.06638" lon="-0.36408">
        <ele>985.9</ele>
        <time>2026-02-08T11:35:09.000Z</time>
      </trkpt>
      <trkpt lat="43.06641" lon="-0.36408">
        <ele>985.8</ele>
        <time>2026-02-08T11:35:12.000Z</time>
      </trkpt>
      <trkpt lat="43.06643" lon="-0.36407">
        <ele>985.8</ele>
        <time>2026-02-08T11:35:15.000Z</time>
      </trkpt>
      <trkpt lat="43.06644" lon="-0.36406">
        <ele>985.8</ele>
        <time>2026-02-08T11:35:18.000Z</time>
      </trkpt>
      <trkpt lat="43.06645" lon="-0.36405">
        <ele>985.8</ele>
        <time>2026-02-08T11:35:21.000Z</time>
      </trkpt>
      <trkpt lat="43.06647" lon="-0.36403">
        <ele>985.7</ele>
        <time>2026-02-08T11:35:24.000Z</time>
      </trkpt>
      <trkpt lat="43.0665" lon="-0.36401">
        <ele>985.7</ele>
        <time>2026-02-08T11:35:27.000Z</time>
      </trkpt>
      <trkpt lat="43.06654" lon="-0.364">
        <ele>985.7</ele>
        <time>2026-02-08T11:35:30.000Z</time>
      </trkpt>
      <trkpt lat="43.06657" lon="-0.36399">
        <ele>985.6</ele>
        <time>2026-02-08T11:35:33.000Z</time>
      </trkpt>
      <trkpt lat="43.0666" lon="-0.364">
        <ele>985.6</ele>
        <time>2026-02-08T11:35:36.000Z</time>
      </trkpt>
      <trkpt lat="43.06663" lon="-0.36399">
        <ele>985.6</ele>
        <time>2026-02-08T11:35:39.000Z</time>
      </trkpt>
      <trkpt lat="43.06666" lon="-0.36399">
        <ele>985.6</ele>
        <time>2026-02-08T11:35:42.000Z</time>
      </trkpt>
      <trkpt lat="43.0667" lon="-0.36397">
        <ele>985.5</ele>
        <time>2026-02-08T11:35:45.000Z</time>
      </trkpt>
      <trkpt lat="43.06675" lon="-0.36395">
        <ele>985.5</ele>
        <time>2026-02-08T11:35:48.000Z</time>
      </trkpt>
      <trkpt lat="43.0668" lon="-0.36394">
        <ele>985.4</ele>
        <time>2026-02-08T11:35:51.000Z</time>
      </trkpt>
      <trkpt lat="43.06684" lon="-0.36395">
        <ele>985.3</ele>
        <time>2026-02-08T11:35:54.000Z</time>
      </trkpt>
      <trkpt lat="43.06687" lon="-0.36394">
        <ele>985.2</ele>
        <time>2026-02-08T11:35:57.000Z</time>
      </trkpt>
      <trkpt lat="43.06691" lon="-0.36394">
        <ele>985.1</ele>
        <time>2026-02-08T11:36:00.000Z</time>
      </trkpt>
      <trkpt lat="43.06695" lon="-0.36395">
        <ele>985</ele>
        <time>2026-02-08T11:36:03.000Z</time>
      </trkpt>
      <trkpt lat="43.06697" lon="-0.36396">
        <ele>984.8</ele>
        <time>2026-02-08T11:36:06.000Z</time>
      </trkpt>
      <trkpt lat="43.06701" lon="-0.36395">
        <ele>984.6</ele>
        <time>2026-02-08T11:36:09.000Z</time>
      </trkpt>
      <trkpt lat="43.06705" lon="-0.36398">
        <ele>984.5</ele>
        <time>2026-02-08T11:36:12.000Z</time>
      </trkpt>
      <trkpt lat="43.06712" lon="-0.36402">
        <ele>984.4</ele>
        <time>2026-02-08T11:36:15.000Z</time>
      </trkpt>
      <trkpt lat="43.06719" lon="-0.36405">
        <ele>984.3</ele>
        <time>2026-02-08T11:36:18.000Z</time>
      </trkpt>
      <trkpt lat="43.06723" lon="-0.36407">
        <ele>984.2</ele>
        <time>2026-02-08T11:36:21.000Z</time>
      </trkpt>
      <trkpt lat="43.06725" lon="-0.36409">
        <ele>984</ele>
        <time>2026-02-08T11:36:24.000Z</time>
      </trkpt>
      <trkpt lat="43.06726" lon="-0.3641">
        <ele>983.9</ele>
        <time>2026-02-08T11:36:27.000Z</time>
      </trkpt>
      <trkpt lat="43.06729" lon="-0.36412">
        <ele>983.7</ele>
        <time>2026-02-08T11:36:30.000Z</time>
      </trkpt>
      <trkpt lat="43.06732" lon="-0.36416">
        <ele>983.5</ele>
        <time>2026-02-08T11:36:33.000Z</time>
      </trkpt>
      <trkpt lat="43.06733" lon="-0.3642">
        <ele>983.4</ele>
        <time>2026-02-08T11:36:36.000Z</time>
      </trkpt>
      <trkpt lat="43.06736" lon="-0.36422">
        <ele>983.3</ele>
        <time>2026-02-08T11:36:39.000Z</time>
      </trkpt>
      <trkpt lat="43.06739" lon="-0.36425">
        <ele>983.2</ele>
        <time>2026-02-08T11:36:42.000Z</time>
      </trkpt>
      <trkpt lat="43.06741" lon="-0.36429">
        <ele>983.1</ele>
        <time>2026-02-08T11:36:45.000Z</time>
      </trkpt>
      <trkpt lat="43.06742" lon="-0.36431">
        <ele>983</ele>
        <time>2026-02-08T11:36:48.000Z</time>
      </trkpt>
      <trkpt lat="43.06743" lon="-0.36435">
        <ele>983</ele>
        <time>2026-02-08T11:36:51.000Z</time>
      </trkpt>
      <trkpt lat="43.06745" lon="-0.36438">
        <ele>983</ele>
        <time>2026-02-08T11:36:54.000Z</time>
      </trkpt>
      <trkpt lat="43.06748" lon="-0.36441">
        <ele>983</ele>
        <time>2026-02-08T11:36:57.000Z</time>
      </trkpt>
      <trkpt lat="43.06751" lon="-0.36444">
        <ele>983</ele>
        <time>2026-02-08T11:37:00.000Z</time>
      </trkpt>
      <trkpt lat="43.06754" lon="-0.36448">
        <ele>983</ele>
        <time>2026-02-08T11:37:03.000Z</time>
      </trkpt>
      <trkpt lat="43.06758" lon="-0.3645">
        <ele>983</ele>
        <time>2026-02-08T11:37:06.000Z</time>
      </trkpt>
      <trkpt lat="43.0676" lon="-0.36455">
        <ele>983</ele>
        <time>2026-02-08T11:37:09.000Z</time>
      </trkpt>
      <trkpt lat="43.06764" lon="-0.36458">
        <ele>983</ele>
        <time>2026-02-08T11:37:12.000Z</time>
      </trkpt>
      <trkpt lat="43.06767" lon="-0.36462">
        <ele>983</ele>
        <time>2026-02-08T11:37:15.000Z</time>
      </trkpt>
      <trkpt lat="43.06771" lon="-0.36465">
        <ele>983</ele>
        <time>2026-02-08T11:37:18.000Z</time>
      </trkpt>
      <trkpt lat="43.06775" lon="-0.3647">
        <ele>983</ele>
        <time>2026-02-08T11:37:21.000Z</time>
      </trkpt>
      <trkpt lat="43.06777" lon="-0.36477">
        <ele>983</ele>
        <time>2026-02-08T11:37:24.000Z</time>
      </trkpt>
      <trkpt lat="43.06778" lon="-0.36482">
        <ele>983</ele>
        <time>2026-02-08T11:37:27.000Z</time>
      </trkpt>
      <trkpt lat="43.06781" lon="-0.36486">
        <ele>983</ele>
        <time>2026-02-08T11:37:30.000Z</time>
      </trkpt>
      <trkpt lat="43.06783" lon="-0.3649">
        <ele>983</ele>
        <time>2026-02-08T11:37:33.000Z</time>
      </trkpt>
      <trkpt lat="43.06785" lon="-0.36495">
        <ele>983</ele>
        <time>2026-02-08T11:37:36.000Z</time>
      </trkpt>
      <trkpt lat="43.06787" lon="-0.36498">
        <ele>983</ele>
        <time>2026-02-08T11:37:39.000Z</time>
      </trkpt>
      <trkpt lat="43.06791" lon="-0.365">
        <ele>983</ele>
        <time>2026-02-08T11:37:42.000Z</time>
      </trkpt>
      <trkpt lat="43.06794" lon="-0.36503">
        <ele>983</ele>
        <time>2026-02-08T11:37:45.000Z</time>
      </trkpt>
      <trkpt lat="43.06797" lon="-0.36507">
        <ele>983</ele>
        <time>2026-02-08T11:37:48.000Z</time>
      </trkpt>
      <trkpt lat="43.068" lon="-0.36513">
        <ele>983</ele>
        <time>2026-02-08T11:37:51.000Z</time>
      </trkpt>
      <trkpt lat="43.06803" lon="-0.36516">
        <ele>983</ele>
        <time>2026-02-08T11:37:54.000Z</time>
      </trkpt>
      <trkpt lat="43.06806" lon="-0.36522">
        <ele>983</ele>
        <time>2026-02-08T11:37:57.000Z</time>
      </trkpt>
      <trkpt lat="43.06811" lon="-0.36525">
        <ele>983</ele>
        <time>2026-02-08T11:38:00.000Z</time>
      </trkpt>
      <trkpt lat="43.06814" lon="-0.36527">
        <ele>983</ele>
        <time>2026-02-08T11:38:03.000Z</time>
      </trkpt>
      <trkpt lat="43.06818" lon="-0.3653">
        <ele>983</ele>
        <time>2026-02-08T11:38:06.000Z</time>
      </trkpt>
      <trkpt lat="43.06821" lon="-0.36533">
        <ele>983</ele>
        <time>2026-02-08T11:38:09.000Z</time>
      </trkpt>
      <trkpt lat="43.06825" lon="-0.36536">
        <ele>983</ele>
        <time>2026-02-08T11:38:12.000Z</time>
      </trkpt>
      <trkpt lat="43.06828" lon="-0.36539">
        <ele>983</ele>
        <time>2026-02-08T11:38:15.000Z</time>
      </trkpt>
      <trkpt lat="43.06831" lon="-0.36542">
        <ele>983</ele>
        <time>2026-02-08T11:38:18.000Z</time>
      </trkpt>
      <trkpt lat="43.06834" lon="-0.36546">
        <ele>983</ele>
        <time>2026-02-08T11:38:21.000Z</time>
      </trkpt>
      <trkpt lat="43.06837" lon="-0.3655">
        <ele>983.1</ele>
        <time>2026-02-08T11:38:24.000Z</time>
      </trkpt>
      <trkpt lat="43.0684" lon="-0.36553">
        <ele>983.1</ele>
        <time>2026-02-08T11:38:27.000Z</time>
      </trkpt>
      <trkpt lat="43.06842" lon="-0.36556">
        <ele>983.1</ele>
        <time>2026-02-08T11:38:30.000Z</time>
      </trkpt>
      <trkpt lat="43.06842" lon="-0.36558">
        <ele>983.1</ele>
        <time>2026-02-08T11:38:33.000Z</time>
      </trkpt>
      <trkpt lat="43.06843" lon="-0.36557">
        <ele>983.1</ele>
        <time>2026-02-08T11:38:34.000Z</time>
      </trkpt>
      <trkpt lat="43.06843" lon="-0.36557">
        <ele>983.1</ele>
        <time>2026-02-08T11:38:35.000Z</time>
      </trkpt>
      <trkpt lat="43.06843" lon="-0.36557">
        <ele>983.1</ele>
        <time>2026-02-08T11:38:36.000Z</time>
      </trkpt>
      <trkpt lat="43.06844" lon="-0.36557">
        <ele>983.2</ele>
        <time>2026-02-08T11:38:39.000Z</time>
      </trkpt>
      <trkpt lat="43.06844" lon="-0.36558">
        <ele>983.2</ele>
        <time>2026-02-08T11:38:42.000Z</time>
      </trkpt>
      <trkpt lat="43.06845" lon="-0.36561">
        <ele>983.3</ele>
        <time>2026-02-08T11:38:45.000Z</time>
      </trkpt>
      <trkpt lat="43.06845" lon="-0.36561">
        <ele>983.3</ele>
        <time>2026-02-08T11:38:46.000Z</time>
      </trkpt>
      <trkpt lat="43.06844" lon="-0.36563">
        <ele>983.3</ele>
        <time>2026-02-08T11:38:49.000Z</time>
      </trkpt>
      <trkpt lat="43.06844" lon="-0.36563">
        <ele>983.3</ele>
        <time>2026-02-08T11:38:50.000Z</time>
      </trkpt>
      <trkpt lat="43.06844" lon="-0.36563">
        <ele>983.4</ele>
        <time>2026-02-08T11:38:51.000Z</time>
      </trkpt>
      <trkpt lat="43.06845" lon="-0.36562">
        <ele>983.4</ele>
        <time>2026-02-08T11:38:52.000Z</time>
      </trkpt>
      <trkpt lat="43.06845" lon="-0.36562">
        <ele>983.4</ele>
        <time>2026-02-08T11:38:53.000Z</time>
      </trkpt>
      <trkpt lat="43.06846" lon="-0.36562">
        <ele>983.4</ele>
        <time>2026-02-08T11:38:54.000Z</time>
      </trkpt>
      <trkpt lat="43.06846" lon="-0.36563">
        <ele>983.5</ele>
        <time>2026-02-08T11:38:57.000Z</time>
      </trkpt>
      <trkpt lat="43.06846" lon="-0.36564">
        <ele>983.5</ele>
        <time>2026-02-08T11:38:58.000Z</time>
      </trkpt>
      <trkpt lat="43.06845" lon="-0.36565">
        <ele>983.6</ele>
        <time>2026-02-08T11:38:59.000Z</time>
      </trkpt>
      <trkpt lat="43.06845" lon="-0.36565">
        <ele>983.6</ele>
        <time>2026-02-08T11:39:00.000Z</time>
      </trkpt>
      <trkpt lat="43.06845" lon="-0.36565">
        <ele>983.6</ele>
        <time>2026-02-08T11:39:01.000Z</time>
      </trkpt>
      <trkpt lat="43.06845" lon="-0.36565">
        <ele>983.6</ele>
        <time>2026-02-08T11:39:02.000Z</time>
      </trkpt>
      <trkpt lat="43.06845" lon="-0.36566">
        <ele>983.6</ele>
        <time>2026-02-08T11:39:03.000Z</time>
      </trkpt>
      <trkpt lat="43.06846" lon="-0.36566">
        <ele>983.7</ele>
        <time>2026-02-08T11:39:04.000Z</time>
      </trkpt>
      <trkpt lat="43.06846" lon="-0.36568">
        <ele>983.8</ele>
        <time>2026-02-08T11:39:07.000Z</time>
      </trkpt>
      <trkpt lat="43.06847" lon="-0.36567">
        <ele>983.9</ele>
        <time>2026-02-08T11:39:10.000Z</time>
      </trkpt>
      <trkpt lat="43.06848" lon="-0.36568">
        <ele>984</ele>
        <time>2026-02-08T11:39:13.000Z</time>
      </trkpt>
      <trkpt lat="43.06849" lon="-0.36566">
        <ele>984</ele>
        <time>2026-02-08T11:39:16.000Z</time>
      </trkpt>
      <trkpt lat="43.06848" lon="-0.36566">
        <ele>984.1</ele>
        <time>2026-02-08T11:39:19.000Z</time>
      </trkpt>
      <trkpt lat="43.06848" lon="-0.36566">
        <ele>984.1</ele>
        <time>2026-02-08T11:39:22.000Z</time>
      </trkpt>
      <trkpt lat="43.06848" lon="-0.36567">
        <ele>984.1</ele>
        <time>2026-02-08T11:39:25.000Z</time>
      </trkpt>
      <trkpt lat="43.06847" lon="-0.36567">
        <ele>984.2</ele>
        <time>2026-02-08T11:39:28.000Z</time>
      </trkpt>
      <trkpt lat="43.06848" lon="-0.36568">
        <ele>984.2</ele>
        <time>2026-02-08T11:39:31.000Z</time>
      </trkpt>
      <trkpt lat="43.06848" lon="-0.36569">
        <ele>984.3</ele>
        <time>2026-02-08T11:39:34.000Z</time>
      </trkpt>
      <trkpt lat="43.06848" lon="-0.36569">
        <ele>984.3</ele>
        <time>2026-02-08T11:39:37.000Z</time>
      </trkpt>
      <trkpt lat="43.06848" lon="-0.36569">
        <ele>984.4</ele>
        <time>2026-02-08T11:39:40.000Z</time>
      </trkpt>
      <trkpt lat="43.06848" lon="-0.36568">
        <ele>984.4</ele>
        <time>2026-02-08T11:39:43.000Z</time>
      </trkpt>
      <trkpt lat="43.06848" lon="-0.36568">
        <ele>984.4</ele>
        <time>2026-02-08T11:39:46.000Z</time>
      </trkpt>
      <trkpt lat="43.06848" lon="-0.36569">
        <ele>984.5</ele>
        <time>2026-02-08T11:39:49.000Z</time>
      </trkpt>
      <trkpt lat="43.06849" lon="-0.36569">
        <ele>984.5</ele>
        <time>2026-02-08T11:39:52.000Z</time>
      </trkpt>
      <trkpt lat="43.06849" lon="-0.36569">
        <ele>984.5</ele>
        <time>2026-02-08T11:39:55.000Z</time>
      </trkpt>
      <trkpt lat="43.0685" lon="-0.36571">
        <ele>984.5</ele>
        <time>2026-02-08T11:39:58.000Z</time>
      </trkpt>
      <trkpt lat="43.06852" lon="-0.36571">
        <ele>984.6</ele>
        <time>2026-02-08T11:40:01.000Z</time>
      </trkpt>
      <trkpt lat="43.06853" lon="-0.36571">
        <ele>984.6</ele>
        <time>2026-02-08T11:40:02.000Z</time>
      </trkpt>
      <trkpt lat="43.06853" lon="-0.36572">
        <ele>984.6</ele>
        <time>2026-02-08T11:40:03.000Z</time>
      </trkpt>
      <trkpt lat="43.06855" lon="-0.36574">
        <ele>984.6</ele>
        <time>2026-02-08T11:40:06.000Z</time>
      </trkpt>
      <trkpt lat="43.06857" lon="-0.36577">
        <ele>984.6</ele>
        <time>2026-02-08T11:40:09.000Z</time>
      </trkpt>
      <trkpt lat="43.0686" lon="-0.3658">
        <ele>984.7</ele>
        <time>2026-02-08T11:40:12.000Z</time>
      </trkpt>
      <trkpt lat="43.06863" lon="-0.36582">
        <ele>984.7</ele>
        <time>2026-02-08T11:40:15.000Z</time>
      </trkpt>
      <trkpt lat="43.06867" lon="-0.36585">
        <ele>984.7</ele>
        <time>2026-02-08T11:40:18.000Z</time>
      </trkpt>
      <trkpt lat="43.0687" lon="-0.36587">
        <ele>984.7</ele>
        <time>2026-02-08T11:40:21.000Z</time>
      </trkpt>
      <trkpt lat="43.06871" lon="-0.36591">
        <ele>984.7</ele>
        <time>2026-02-08T11:40:24.000Z</time>
      </trkpt>
      <trkpt lat="43.06872" lon="-0.36596">
        <ele>984.7</ele>
        <time>2026-02-08T11:40:27.000Z</time>
      </trkpt>
      <trkpt lat="43.06872" lon="-0.36601">
        <ele>984.7</ele>
        <time>2026-02-08T11:40:30.000Z</time>
      </trkpt>
      <trkpt lat="43.06873" lon="-0.36603">
        <ele>984.7</ele>
        <time>2026-02-08T11:40:33.000Z</time>
      </trkpt>
      <trkpt lat="43.06873" lon="-0.36607">
        <ele>984.8</ele>
        <time>2026-02-08T11:40:36.000Z</time>
      </trkpt>
      <trkpt lat="43.06874" lon="-0.3661">
        <ele>984.8</ele>
        <time>2026-02-08T11:40:39.000Z</time>
      </trkpt>
      <trkpt lat="43.06876" lon="-0.36613">
        <ele>984.8</ele>
        <time>2026-02-08T11:40:42.000Z</time>
      </trkpt>
      <trkpt lat="43.06877" lon="-0.36618">
        <ele>984.8</ele>
        <time>2026-02-08T11:40:45.000Z</time>
      </trkpt>
      <trkpt lat="43.06876" lon="-0.36624">
        <ele>984.8</ele>
        <time>2026-02-08T11:40:48.000Z</time>
      </trkpt>
      <trkpt lat="43.06877" lon="-0.36629">
        <ele>984.8</ele>
        <time>2026-02-08T11:40:51.000Z</time>
      </trkpt>
      <trkpt lat="43.06876" lon="-0.36636">
        <ele>984.8</ele>
        <time>2026-02-08T11:40:54.000Z</time>
      </trkpt>
      <trkpt lat="43.06878" lon="-0.36642">
        <ele>984.7</ele>
        <time>2026-02-08T11:40:57.000Z</time>
      </trkpt>
      <trkpt lat="43.06882" lon="-0.36647">
        <ele>984.6</ele>
        <time>2026-02-08T11:41:00.000Z</time>
      </trkpt>
      <trkpt lat="43.06883" lon="-0.36652">
        <ele>984.4</ele>
        <time>2026-02-08T11:41:03.000Z</time>
      </trkpt>
      <trkpt lat="43.06884" lon="-0.36655">
        <ele>984.2</ele>
        <time>2026-02-08T11:41:06.000Z</time>
      </trkpt>
      <trkpt lat="43.06884" lon="-0.36658">
        <ele>983.9</ele>
        <time>2026-02-08T11:41:09.000Z</time>
      </trkpt>
      <trkpt lat="43.06883" lon="-0.36661">
        <ele>983.7</ele>
        <time>2026-02-08T11:41:12.000Z</time>
      </trkpt>
      <trkpt lat="43.06883" lon="-0.36666">
        <ele>983.4</ele>
        <time>2026-02-08T11:41:15.000Z</time>
      </trkpt>
      <trkpt lat="43.06885" lon="-0.36673">
        <ele>983.2</ele>
        <time>2026-02-08T11:41:18.000Z</time>
      </trkpt>
      <trkpt lat="43.06886" lon="-0.36679">
        <ele>983</ele>
        <time>2026-02-08T11:41:21.000Z</time>
      </trkpt>
      <trkpt lat="43.06885" lon="-0.3668">
        <ele>982.8</ele>
        <time>2026-02-08T11:41:24.000Z</time>
      </trkpt>
      <trkpt lat="43.06884" lon="-0.36682">
        <ele>982.5</ele>
        <time>2026-02-08T11:41:27.000Z</time>
      </trkpt>
      <trkpt lat="43.06882" lon="-0.36689">
        <ele>982.2</ele>
        <time>2026-02-08T11:41:30.000Z</time>
      </trkpt>
      <trkpt lat="43.0688" lon="-0.36694">
        <ele>981.9</ele>
        <time>2026-02-08T11:41:33.000Z</time>
      </trkpt>
      <trkpt lat="43.06878" lon="-0.36697">
        <ele>981.5</ele>
        <time>2026-02-08T11:41:36.000Z</time>
      </trkpt>
      <trkpt lat="43.06876" lon="-0.36702">
        <ele>981.1</ele>
        <time>2026-02-08T11:41:39.000Z</time>
      </trkpt>
      <trkpt lat="43.06875" lon="-0.36706">
        <ele>980.8</ele>
        <time>2026-02-08T11:41:42.000Z</time>
      </trkpt>
      <trkpt lat="43.06874" lon="-0.36712">
        <ele>980.6</ele>
        <time>2026-02-08T11:41:45.000Z</time>
      </trkpt>
      <trkpt lat="43.06872" lon="-0.36715">
        <ele>980.3</ele>
        <time>2026-02-08T11:41:48.000Z</time>
      </trkpt>
      <trkpt lat="43.06869" lon="-0.36717">
        <ele>980.1</ele>
        <time>2026-02-08T11:41:51.000Z</time>
      </trkpt>
      <trkpt lat="43.06867" lon="-0.36718">
        <ele>979.8</ele>
        <time>2026-02-08T11:41:54.000Z</time>
      </trkpt>
      <trkpt lat="43.06866" lon="-0.36719">
        <ele>979.5</ele>
        <time>2026-02-08T11:41:57.000Z</time>
      </trkpt>
      <trkpt lat="43.06863" lon="-0.36723">
        <ele>979.3</ele>
        <time>2026-02-08T11:42:00.000Z</time>
      </trkpt>
      <trkpt lat="43.06861" lon="-0.36726">
        <ele>979</ele>
        <time>2026-02-08T11:42:03.000Z</time>
      </trkpt>
      <trkpt lat="43.0686" lon="-0.3673">
        <ele>978.7</ele>
        <time>2026-02-08T11:42:06.000Z</time>
      </trkpt>
      <trkpt lat="43.06859" lon="-0.36733">
        <ele>978.5</ele>
        <time>2026-02-08T11:42:09.000Z</time>
      </trkpt>
      <trkpt lat="43.06858" lon="-0.36736">
        <ele>978.3</ele>
        <time>2026-02-08T11:42:12.000Z</time>
      </trkpt>
      <trkpt lat="43.06856" lon="-0.36739">
        <ele>978.1</ele>
        <time>2026-02-08T11:42:15.000Z</time>
      </trkpt>
      <trkpt lat="43.06852" lon="-0.36741">
        <ele>977.9</ele>
        <time>2026-02-08T11:42:18.000Z</time>
      </trkpt>
      <trkpt lat="43.06848" lon="-0.36742">
        <ele>977.6</ele>
        <time>2026-02-08T11:42:21.000Z</time>
      </trkpt>
      <trkpt lat="43.06844" lon="-0.36745">
        <ele>977.4</ele>
        <time>2026-02-08T11:42:24.000Z</time>
      </trkpt>
      <trkpt lat="43.06842" lon="-0.36748">
        <ele>977.1</ele>
        <time>2026-02-08T11:42:27.000Z</time>
      </trkpt>
      <trkpt lat="43.06837" lon="-0.36751">
        <ele>976.9</ele>
        <time>2026-02-08T11:42:30.000Z</time>
      </trkpt>
      <trkpt lat="43.06833" lon="-0.36755">
        <ele>976.6</ele>
        <time>2026-02-08T11:42:33.000Z</time>
      </trkpt>
      <trkpt lat="43.0683" lon="-0.36758">
        <ele>976.4</ele>
        <time>2026-02-08T11:42:36.000Z</time>
      </trkpt>
      <trkpt lat="43.06826" lon="-0.36763">
        <ele>976.2</ele>
        <time>2026-02-08T11:42:39.000Z</time>
      </trkpt>
      <trkpt lat="43.06823" lon="-0.36765">
        <ele>976</ele>
        <time>2026-02-08T11:42:42.000Z</time>
      </trkpt>
      <trkpt lat="43.0682" lon="-0.36767">
        <ele>975.8</ele>
        <time>2026-02-08T11:42:45.000Z</time>
      </trkpt>
      <trkpt lat="43.06816" lon="-0.36769">
        <ele>975.6</ele>
        <time>2026-02-08T11:42:48.000Z</time>
      </trkpt>
      <trkpt lat="43.06812" lon="-0.36771">
        <ele>975.4</ele>
        <time>2026-02-08T11:42:51.000Z</time>
      </trkpt>
      <trkpt lat="43.06806" lon="-0.36776">
        <ele>975.2</ele>
        <time>2026-02-08T11:42:54.000Z</time>
      </trkpt>
      <trkpt lat="43.06803" lon="-0.36781">
        <ele>974.9</ele>
        <time>2026-02-08T11:42:57.000Z</time>
      </trkpt>
      <trkpt lat="43.06799" lon="-0.36784">
        <ele>974.6</ele>
        <time>2026-02-08T11:43:00.000Z</time>
      </trkpt>
      <trkpt lat="43.06796" lon="-0.36785">
        <ele>974.5</ele>
        <time>2026-02-08T11:43:03.000Z</time>
      </trkpt>
      <trkpt lat="43.06793" lon="-0.36787">
        <ele>974.3</ele>
        <time>2026-02-08T11:43:06.000Z</time>
      </trkpt>
      <trkpt lat="43.06791" lon="-0.36789">
        <ele>974.2</ele>
        <time>2026-02-08T11:43:09.000Z</time>
      </trkpt>
      <trkpt lat="43.06788" lon="-0.36793">
        <ele>973.9</ele>
        <time>2026-02-08T11:43:12.000Z</time>
      </trkpt>
      <trkpt lat="43.06786" lon="-0.36796">
        <ele>973.7</ele>
        <time>2026-02-08T11:43:15.000Z</time>
      </trkpt>
      <trkpt lat="43.06785" lon="-0.36799">
        <ele>973.5</ele>
        <time>2026-02-08T11:43:18.000Z</time>
      </trkpt>
      <trkpt lat="43.06782" lon="-0.368">
        <ele>973.3</ele>
        <time>2026-02-08T11:43:21.000Z</time>
      </trkpt>
      <trkpt lat="43.06778" lon="-0.36803">
        <ele>973.1</ele>
        <time>2026-02-08T11:43:24.000Z</time>
      </trkpt>
      <trkpt lat="43.06774" lon="-0.36807">
        <ele>972.8</ele>
        <time>2026-02-08T11:43:27.000Z</time>
      </trkpt>
      <trkpt lat="43.06771" lon="-0.3681">
        <ele>972.6</ele>
        <time>2026-02-08T11:43:30.000Z</time>
      </trkpt>
      <trkpt lat="43.06768" lon="-0.36813">
        <ele>972.4</ele>
        <time>2026-02-08T11:43:33.000Z</time>
      </trkpt>
      <trkpt lat="43.06765" lon="-0.36817">
        <ele>972.2</ele>
        <time>2026-02-08T11:43:36.000Z</time>
      </trkpt>
      <trkpt lat="43.06763" lon="-0.3682">
        <ele>972</ele>
        <time>2026-02-08T11:43:39.000Z</time>
      </trkpt>
      <trkpt lat="43.0676" lon="-0.36823">
        <ele>971.8</ele>
        <time>2026-02-08T11:43:42.000Z</time>
      </trkpt>
      <trkpt lat="43.06755" lon="-0.36828">
        <ele>971.6</ele>
        <time>2026-02-08T11:43:45.000Z</time>
      </trkpt>
      <trkpt lat="43.06752" lon="-0.36831">
        <ele>971.4</ele>
        <time>2026-02-08T11:43:48.000Z</time>
      </trkpt>
      <trkpt lat="43.06749" lon="-0.36835">
        <ele>971.3</ele>
        <time>2026-02-08T11:43:51.000Z</time>
      </trkpt>
      <trkpt lat="43.06747" lon="-0.36838">
        <ele>971.2</ele>
        <time>2026-02-08T11:43:54.000Z</time>
      </trkpt>
      <trkpt lat="43.06745" lon="-0.36842">
        <ele>971.1</ele>
        <time>2026-02-08T11:43:57.000Z</time>
      </trkpt>
      <trkpt lat="43.06743" lon="-0.36844">
        <ele>971</ele>
        <time>2026-02-08T11:44:00.000Z</time>
      </trkpt>
      <trkpt lat="43.0674" lon="-0.36845">
        <ele>970.9</ele>
        <time>2026-02-08T11:44:03.000Z</time>
      </trkpt>
      <trkpt lat="43.06738" lon="-0.36846">
        <ele>970.7</ele>
        <time>2026-02-08T11:44:06.000Z</time>
      </trkpt>
      <trkpt lat="43.06737" lon="-0.36848">
        <ele>970.6</ele>
        <time>2026-02-08T11:44:09.000Z</time>
      </trkpt>
      <trkpt lat="43.06735" lon="-0.36852">
        <ele>970.5</ele>
        <time>2026-02-08T11:44:12.000Z</time>
      </trkpt>
      <trkpt lat="43.06733" lon="-0.36855">
        <ele>970.5</ele>
        <time>2026-02-08T11:44:15.000Z</time>
      </trkpt>
      <trkpt lat="43.0673" lon="-0.36857">
        <ele>970.4</ele>
        <time>2026-02-08T11:44:18.000Z</time>
      </trkpt>
      <trkpt lat="43.06725" lon="-0.3686">
        <ele>970.4</ele>
        <time>2026-02-08T11:44:21.000Z</time>
      </trkpt>
      <trkpt lat="43.06723" lon="-0.36862">
        <ele>970.3</ele>
        <time>2026-02-08T11:44:24.000Z</time>
      </trkpt>
      <trkpt lat="43.0672" lon="-0.36864">
        <ele>970.2</ele>
        <time>2026-02-08T11:44:27.000Z</time>
      </trkpt>
      <trkpt lat="43.06719" lon="-0.36866">
        <ele>970.2</ele>
        <time>2026-02-08T11:44:30.000Z</time>
      </trkpt>
      <trkpt lat="43.06717" lon="-0.36868">
        <ele>970.1</ele>
        <time>2026-02-08T11:44:33.000Z</time>
      </trkpt>
      <trkpt lat="43.06716" lon="-0.36869">
        <ele>970</ele>
        <time>2026-02-08T11:44:36.000Z</time>
      </trkpt>
      <trkpt lat="43.06715" lon="-0.36873">
        <ele>969.9</ele>
        <time>2026-02-08T11:44:39.000Z</time>
      </trkpt>
      <trkpt lat="43.06714" lon="-0.36879">
        <ele>969.8</ele>
        <time>2026-02-08T11:44:42.000Z</time>
      </trkpt>
      <trkpt lat="43.0671" lon="-0.36884">
        <ele>969.7</ele>
        <time>2026-02-08T11:44:45.000Z</time>
      </trkpt>
      <trkpt lat="43.0671" lon="-0.36888">
        <ele>969.5</ele>
        <time>2026-02-08T11:44:48.000Z</time>
      </trkpt>
      <trkpt lat="43.06708" lon="-0.36892">
        <ele>969.4</ele>
        <time>2026-02-08T11:44:51.000Z</time>
      </trkpt>
      <trkpt lat="43.06707" lon="-0.36898">
        <ele>969.2</ele>
        <time>2026-02-08T11:44:54.000Z</time>
      </trkpt>
      <trkpt lat="43.06706" lon="-0.369">
        <ele>969</ele>
        <time>2026-02-08T11:44:57.000Z</time>
      </trkpt>
      <trkpt lat="43.06703" lon="-0.36903">
        <ele>968.8</ele>
        <time>2026-02-08T11:45:00.000Z</time>
      </trkpt>
      <trkpt lat="43.06701" lon="-0.36906">
        <ele>968.7</ele>
        <time>2026-02-08T11:45:03.000Z</time>
      </trkpt>
      <trkpt lat="43.06701" lon="-0.3691">
        <ele>968.6</ele>
        <time>2026-02-08T11:45:06.000Z</time>
      </trkpt>
      <trkpt lat="43.06697" lon="-0.36913">
        <ele>968.4</ele>
        <time>2026-02-08T11:45:09.000Z</time>
      </trkpt>
      <trkpt lat="43.06696" lon="-0.36916">
        <ele>968.3</ele>
        <time>2026-02-08T11:45:12.000Z</time>
      </trkpt>
      <trkpt lat="43.06694" lon="-0.3692">
        <ele>968.2</ele>
        <time>2026-02-08T11:45:15.000Z</time>
      </trkpt>
      <trkpt lat="43.0669" lon="-0.36923">
        <ele>968</ele>
        <time>2026-02-08T11:45:18.000Z</time>
      </trkpt>
      <trkpt lat="43.06687" lon="-0.36927">
        <ele>967.9</ele>
        <time>2026-02-08T11:45:21.000Z</time>
      </trkpt>
      <trkpt lat="43.06684" lon="-0.36931">
        <ele>967.8</ele>
        <time>2026-02-08T11:45:24.000Z</time>
      </trkpt>
      <trkpt lat="43.06682" lon="-0.36933">
        <ele>967.6</ele>
        <time>2026-02-08T11:45:27.000Z</time>
      </trkpt>
      <trkpt lat="43.0668" lon="-0.36936">
        <ele>967.5</ele>
        <time>2026-02-08T11:45:30.000Z</time>
      </trkpt>
      <trkpt lat="43.06678" lon="-0.3694">
        <ele>967.4</ele>
        <time>2026-02-08T11:45:33.000Z</time>
      </trkpt>
      <trkpt lat="43.06675" lon="-0.36945">
        <ele>967.3</ele>
        <time>2026-02-08T11:45:36.000Z</time>
      </trkpt>
      <trkpt lat="43.06669" lon="-0.36949">
        <ele>967.1</ele>
        <time>2026-02-08T11:45:39.000Z</time>
      </trkpt>
      <trkpt lat="43.06667" lon="-0.36952">
        <ele>966.9</ele>
        <time>2026-02-08T11:45:42.000Z</time>
      </trkpt>
      <trkpt lat="43.06663" lon="-0.36955">
        <ele>966.8</ele>
        <time>2026-02-08T11:45:45.000Z</time>
      </trkpt>
      <trkpt lat="43.0666" lon="-0.36958">
        <ele>966.6</ele>
        <time>2026-02-08T11:45:48.000Z</time>
      </trkpt>
      <trkpt lat="43.06658" lon="-0.3696">
        <ele>966.4</ele>
        <time>2026-02-08T11:45:51.000Z</time>
      </trkpt>
      <trkpt lat="43.06657" lon="-0.36963">
        <ele>966.3</ele>
        <time>2026-02-08T11:45:54.000Z</time>
      </trkpt>
      <trkpt lat="43.06654" lon="-0.36968">
        <ele>966.2</ele>
        <time>2026-02-08T11:45:57.000Z</time>
      </trkpt>
      <trkpt lat="43.06654" lon="-0.3697">
        <ele>966.1</ele>
        <time>2026-02-08T11:46:00.000Z</time>
      </trkpt>
      <trkpt lat="43.06652" lon="-0.36972">
        <ele>965.9</ele>
        <time>2026-02-08T11:46:03.000Z</time>
      </trkpt>
      <trkpt lat="43.06651" lon="-0.36974">
        <ele>965.9</ele>
        <time>2026-02-08T11:46:06.000Z</time>
      </trkpt>
      <trkpt lat="43.0665" lon="-0.36978">
        <ele>965.8</ele>
        <time>2026-02-08T11:46:09.000Z</time>
      </trkpt>
      <trkpt lat="43.06648" lon="-0.36983">
        <ele>965.7</ele>
        <time>2026-02-08T11:46:12.000Z</time>
      </trkpt>
      <trkpt lat="43.06646" lon="-0.36984">
        <ele>965.5</ele>
        <time>2026-02-08T11:46:15.000Z</time>
      </trkpt>
      <trkpt lat="43.06643" lon="-0.36987">
        <ele>965.4</ele>
        <time>2026-02-08T11:46:18.000Z</time>
      </trkpt>
      <trkpt lat="43.06641" lon="-0.36989">
        <ele>965.4</ele>
        <time>2026-02-08T11:46:21.000Z</time>
      </trkpt>
      <trkpt lat="43.06636" lon="-0.3699">
        <ele>965.2</ele>
        <time>2026-02-08T11:46:24.000Z</time>
      </trkpt>
      <trkpt lat="43.06634" lon="-0.36994">
        <ele>965.1</ele>
        <time>2026-02-08T11:46:27.000Z</time>
      </trkpt>
      <trkpt lat="43.06631" lon="-0.36999">
        <ele>965</ele>
        <time>2026-02-08T11:46:30.000Z</time>
      </trkpt>
      <trkpt lat="43.06628" lon="-0.37002">
        <ele>964.8</ele>
        <time>2026-02-08T11:46:33.000Z</time>
      </trkpt>
      <trkpt lat="43.06625" lon="-0.37005">
        <ele>964.6</ele>
        <time>2026-02-08T11:46:36.000Z</time>
      </trkpt>
      <trkpt lat="43.06622" lon="-0.37008">
        <ele>964.5</ele>
        <time>2026-02-08T11:46:39.000Z</time>
      </trkpt>
      <trkpt lat="43.06619" lon="-0.37011">
        <ele>964.3</ele>
        <time>2026-02-08T11:46:42.000Z</time>
      </trkpt>
      <trkpt lat="43.06618" lon="-0.37014">
        <ele>964.2</ele>
        <time>2026-02-08T11:46:45.000Z</time>
      </trkpt>
      <trkpt lat="43.06617" lon="-0.37016">
        <ele>964.1</ele>
        <time>2026-02-08T11:46:48.000Z</time>
      </trkpt>
      <trkpt lat="43.06614" lon="-0.37023">
        <ele>964</ele>
        <time>2026-02-08T11:46:51.000Z</time>
      </trkpt>
      <trkpt lat="43.06612" lon="-0.37027">
        <ele>963.9</ele>
        <time>2026-02-08T11:46:54.000Z</time>
      </trkpt>
      <trkpt lat="43.06609" lon="-0.3703">
        <ele>963.8</ele>
        <time>2026-02-08T11:46:57.000Z</time>
      </trkpt>
      <trkpt lat="43.06606" lon="-0.37033">
        <ele>963.7</ele>
        <time>2026-02-08T11:47:00.000Z</time>
      </trkpt>
      <trkpt lat="43.06601" lon="-0.37035">
        <ele>963.6</ele>
        <time>2026-02-08T11:47:03.000Z</time>
      </trkpt>
      <trkpt lat="43.06598" lon="-0.3704">
        <ele>963.5</ele>
        <time>2026-02-08T11:47:06.000Z</time>
      </trkpt>
      <trkpt lat="43.06597" lon="-0.37045">
        <ele>963.4</ele>
        <time>2026-02-08T11:47:09.000Z</time>
      </trkpt>
      <trkpt lat="43.06596" lon="-0.37048">
        <ele>963.3</ele>
        <time>2026-02-08T11:47:12.000Z</time>
      </trkpt>
      <trkpt lat="43.06595" lon="-0.37052">
        <ele>963.2</ele>
        <time>2026-02-08T11:47:15.000Z</time>
      </trkpt>
      <trkpt lat="43.06591" lon="-0.37053">
        <ele>963.1</ele>
        <time>2026-02-08T11:47:18.000Z</time>
      </trkpt>
      <trkpt lat="43.06588" lon="-0.37056">
        <ele>963</ele>
        <time>2026-02-08T11:47:21.000Z</time>
      </trkpt>
      <trkpt lat="43.06587" lon="-0.37057">
        <ele>962.9</ele>
        <time>2026-02-08T11:47:24.000Z</time>
      </trkpt>
      <trkpt lat="43.06585" lon="-0.37059">
        <ele>962.8</ele>
        <time>2026-02-08T11:47:27.000Z</time>
      </trkpt>
      <trkpt lat="43.0658" lon="-0.37061">
        <ele>962.7</ele>
        <time>2026-02-08T11:47:30.000Z</time>
      </trkpt>
      <trkpt lat="43.06578" lon="-0.37066">
        <ele>962.7</ele>
        <time>2026-02-08T11:47:33.000Z</time>
      </trkpt>
      <trkpt lat="43.06576" lon="-0.37071">
        <ele>962.6</ele>
        <time>2026-02-08T11:47:36.000Z</time>
      </trkpt>
      <trkpt lat="43.06575" lon="-0.37072">
        <ele>962.4</ele>
        <time>2026-02-08T11:47:39.000Z</time>
      </trkpt>
      <trkpt lat="43.06569" lon="-0.37074">
        <ele>962.3</ele>
        <time>2026-02-08T11:47:42.000Z</time>
      </trkpt>
      <trkpt lat="43.06566" lon="-0.37077">
        <ele>962.2</ele>
        <time>2026-02-08T11:47:45.000Z</time>
      </trkpt>
      <trkpt lat="43.06564" lon="-0.37078">
        <ele>962</ele>
        <time>2026-02-08T11:47:48.000Z</time>
      </trkpt>
      <trkpt lat="43.06563" lon="-0.37079">
        <ele>961.9</ele>
        <time>2026-02-08T11:47:51.000Z</time>
      </trkpt>
      <trkpt lat="43.06561" lon="-0.37082">
        <ele>961.7</ele>
        <time>2026-02-08T11:47:54.000Z</time>
      </trkpt>
      <trkpt lat="43.06559" lon="-0.37086">
        <ele>961.6</ele>
        <time>2026-02-08T11:47:57.000Z</time>
      </trkpt>
      <trkpt lat="43.06556" lon="-0.37088">
        <ele>961.4</ele>
        <time>2026-02-08T11:48:00.000Z</time>
      </trkpt>
      <trkpt lat="43.06555" lon="-0.3709">
        <ele>961.2</ele>
        <time>2026-02-08T11:48:03.000Z</time>
      </trkpt>
      <trkpt lat="43.06554" lon="-0.37094">
        <ele>961.1</ele>
        <time>2026-02-08T11:48:06.000Z</time>
      </trkpt>
      <trkpt lat="43.06551" lon="-0.37097">
        <ele>960.9</ele>
        <time>2026-02-08T11:48:09.000Z</time>
      </trkpt>
      <trkpt lat="43.06549" lon="-0.37098">
        <ele>960.8</ele>
        <time>2026-02-08T11:48:12.000Z</time>
      </trkpt>
      <trkpt lat="43.06548" lon="-0.371">
        <ele>960.7</ele>
        <time>2026-02-08T11:48:15.000Z</time>
      </trkpt>
      <trkpt lat="43.06545" lon="-0.37104">
        <ele>960.5</ele>
        <time>2026-02-08T11:48:18.000Z</time>
      </trkpt>
      <trkpt lat="43.06543" lon="-0.37107">
        <ele>960.4</ele>
        <time>2026-02-08T11:48:21.000Z</time>
      </trkpt>
      <trkpt lat="43.0654" lon="-0.37111">
        <ele>960.3</ele>
        <time>2026-02-08T11:48:24.000Z</time>
      </trkpt>
      <trkpt lat="43.06537" lon="-0.37117">
        <ele>960.2</ele>
        <time>2026-02-08T11:48:27.000Z</time>
      </trkpt>
      <trkpt lat="43.06535" lon="-0.37121">
        <ele>960.2</ele>
        <time>2026-02-08T11:48:30.000Z</time>
      </trkpt>
      <trkpt lat="43.06531" lon="-0.37124">
        <ele>960.1</ele>
        <time>2026-02-08T11:48:33.000Z</time>
      </trkpt>
      <trkpt lat="43.06529" lon="-0.37128">
        <ele>960</ele>
        <time>2026-02-08T11:48:36.000Z</time>
      </trkpt>
      <trkpt lat="43.06527" lon="-0.37131">
        <ele>959.9</ele>
        <time>2026-02-08T11:48:39.000Z</time>
      </trkpt>
      <trkpt lat="43.06526" lon="-0.37134">
        <ele>959.7</ele>
        <time>2026-02-08T11:48:42.000Z</time>
      </trkpt>
      <trkpt lat="43.06525" lon="-0.37137">
        <ele>959.6</ele>
        <time>2026-02-08T11:48:45.000Z</time>
      </trkpt>
      <trkpt lat="43.06523" lon="-0.37139">
        <ele>959.5</ele>
        <time>2026-02-08T11:48:48.000Z</time>
      </trkpt>
      <trkpt lat="43.06521" lon="-0.37144">
        <ele>959.4</ele>
        <time>2026-02-08T11:48:51.000Z</time>
      </trkpt>
      <trkpt lat="43.06517" lon="-0.37147">
        <ele>959.3</ele>
        <time>2026-02-08T11:48:54.000Z</time>
      </trkpt>
      <trkpt lat="43.06514" lon="-0.37152">
        <ele>959.2</ele>
        <time>2026-02-08T11:48:57.000Z</time>
      </trkpt>
      <trkpt lat="43.06513" lon="-0.37155">
        <ele>959</ele>
        <time>2026-02-08T11:49:00.000Z</time>
      </trkpt>
      <trkpt lat="43.06514" lon="-0.3716">
        <ele>958.7</ele>
        <time>2026-02-08T11:49:03.000Z</time>
      </trkpt>
      <trkpt lat="43.06513" lon="-0.37162">
        <ele>958.5</ele>
        <time>2026-02-08T11:49:06.000Z</time>
      </trkpt>
      <trkpt lat="43.06512" lon="-0.37163">
        <ele>958.2</ele>
        <time>2026-02-08T11:49:09.000Z</time>
      </trkpt>
      <trkpt lat="43.06512" lon="-0.37166">
        <ele>957.8</ele>
        <time>2026-02-08T11:49:12.000Z</time>
      </trkpt>
      <trkpt lat="43.06512" lon="-0.3717">
        <ele>957.4</ele>
        <time>2026-02-08T11:49:15.000Z</time>
      </trkpt>
      <trkpt lat="43.06512" lon="-0.37177">
        <ele>956.9</ele>
        <time>2026-02-08T11:49:18.000Z</time>
      </trkpt>
      <trkpt lat="43.0651" lon="-0.37181">
        <ele>956.4</ele>
        <time>2026-02-08T11:49:21.000Z</time>
      </trkpt>
      <trkpt lat="43.06508" lon="-0.37185">
        <ele>955.9</ele>
        <time>2026-02-08T11:49:24.000Z</time>
      </trkpt>
      <trkpt lat="43.06508" lon="-0.3719">
        <ele>955.4</ele>
        <time>2026-02-08T11:49:27.000Z</time>
      </trkpt>
      <trkpt lat="43.06508" lon="-0.37195">
        <ele>955</ele>
        <time>2026-02-08T11:49:30.000Z</time>
      </trkpt>
      <trkpt lat="43.0651" lon="-0.37198">
        <ele>954.6</ele>
        <time>2026-02-08T11:49:33.000Z</time>
      </trkpt>
      <trkpt lat="43.06512" lon="-0.37203">
        <ele>954.3</ele>
        <time>2026-02-08T11:49:36.000Z</time>
      </trkpt>
      <trkpt lat="43.06513" lon="-0.37206">
        <ele>954</ele>
        <time>2026-02-08T11:49:39.000Z</time>
      </trkpt>
      <trkpt lat="43.0651" lon="-0.37209">
        <ele>953.6</ele>
        <time>2026-02-08T11:49:42.000Z</time>
      </trkpt>
      <trkpt lat="43.06508" lon="-0.37211">
        <ele>953.2</ele>
        <time>2026-02-08T11:49:45.000Z</time>
      </trkpt>
      <trkpt lat="43.06506" lon="-0.37214">
        <ele>952.8</ele>
        <time>2026-02-08T11:49:48.000Z</time>
      </trkpt>
      <trkpt lat="43.06504" lon="-0.37217">
        <ele>952.3</ele>
        <time>2026-02-08T11:49:51.000Z</time>
      </trkpt>
      <trkpt lat="43.06503" lon="-0.3722">
        <ele>951.9</ele>
        <time>2026-02-08T11:49:54.000Z</time>
      </trkpt>
      <trkpt lat="43.06502" lon="-0.37223">
        <ele>951.5</ele>
        <time>2026-02-08T11:49:57.000Z</time>
      </trkpt>
      <trkpt lat="43.06501" lon="-0.37227">
        <ele>951</ele>
        <time>2026-02-08T11:50:00.000Z</time>
      </trkpt>
      <trkpt lat="43.06498" lon="-0.37231">
        <ele>950.6</ele>
        <time>2026-02-08T11:50:03.000Z</time>
      </trkpt>
      <trkpt lat="43.06493" lon="-0.37235">
        <ele>950.2</ele>
        <time>2026-02-08T11:50:06.000Z</time>
      </trkpt>
      <trkpt lat="43.0649" lon="-0.3724">
        <ele>949.8</ele>
        <time>2026-02-08T11:50:09.000Z</time>
      </trkpt>
      <trkpt lat="43.06488" lon="-0.37245">
        <ele>949.4</ele>
        <time>2026-02-08T11:50:12.000Z</time>
      </trkpt>
      <trkpt lat="43.06486" lon="-0.37251">
        <ele>949.1</ele>
        <time>2026-02-08T11:50:15.000Z</time>
      </trkpt>
      <trkpt lat="43.06485" lon="-0.37257">
        <ele>948.8</ele>
        <time>2026-02-08T11:50:18.000Z</time>
      </trkpt>
      <trkpt lat="43.06481" lon="-0.37263">
        <ele>948.4</ele>
        <time>2026-02-08T11:50:21.000Z</time>
      </trkpt>
      <trkpt lat="43.06478" lon="-0.37267">
        <ele>948</ele>
        <time>2026-02-08T11:50:24.000Z</time>
      </trkpt>
      <trkpt lat="43.06476" lon="-0.37272">
        <ele>947.6</ele>
        <time>2026-02-08T11:50:27.000Z</time>
      </trkpt>
      <trkpt lat="43.06475" lon="-0.37275">
        <ele>947.2</ele>
        <time>2026-02-08T11:50:30.000Z</time>
      </trkpt>
      <trkpt lat="43.06472" lon="-0.37279">
        <ele>946.8</ele>
        <time>2026-02-08T11:50:33.000Z</time>
      </trkpt>
      <trkpt lat="43.06469" lon="-0.37284">
        <ele>946.4</ele>
        <time>2026-02-08T11:50:36.000Z</time>
      </trkpt>
      <trkpt lat="43.06466" lon="-0.37287">
        <ele>946</ele>
        <time>2026-02-08T11:50:39.000Z</time>
      </trkpt>
      <trkpt lat="43.06463" lon="-0.3729">
        <ele>945.5</ele>
        <time>2026-02-08T11:50:42.000Z</time>
      </trkpt>
      <trkpt lat="43.06461" lon="-0.37293">
        <ele>945.1</ele>
        <time>2026-02-08T11:50:45.000Z</time>
      </trkpt>
      <trkpt lat="43.06459" lon="-0.37297">
        <ele>944.7</ele>
        <time>2026-02-08T11:50:48.000Z</time>
      </trkpt>
      <trkpt lat="43.06458" lon="-0.37303">
        <ele>944.2</ele>
        <time>2026-02-08T11:50:51.000Z</time>
      </trkpt>
      <trkpt lat="43.06457" lon="-0.37307">
        <ele>943.7</ele>
        <time>2026-02-08T11:50:54.000Z</time>
      </trkpt>
      <trkpt lat="43.06453" lon="-0.37312">
        <ele>943.4</ele>
        <time>2026-02-08T11:50:57.000Z</time>
      </trkpt>
      <trkpt lat="43.0645" lon="-0.37317">
        <ele>943</ele>
        <time>2026-02-08T11:51:00.000Z</time>
      </trkpt>
      <trkpt lat="43.06448" lon="-0.37322">
        <ele>942.6</ele>
        <time>2026-02-08T11:51:03.000Z</time>
      </trkpt>
      <trkpt lat="43.06445" lon="-0.37325">
        <ele>942.3</ele>
        <time>2026-02-08T11:51:06.000Z</time>
      </trkpt>
      <trkpt lat="43.06443" lon="-0.37329">
        <ele>941.9</ele>
        <time>2026-02-08T11:51:09.000Z</time>
      </trkpt>
      <trkpt lat="43.06441" lon="-0.37335">
        <ele>941.5</ele>
        <time>2026-02-08T11:51:12.000Z</time>
      </trkpt>
      <trkpt lat="43.0644" lon="-0.3734">
        <ele>941</ele>
        <time>2026-02-08T11:51:15.000Z</time>
      </trkpt>
      <trkpt lat="43.06439" lon="-0.37345">
        <ele>940.6</ele>
        <time>2026-02-08T11:51:18.000Z</time>
      </trkpt>
      <trkpt lat="43.0644" lon="-0.37345">
        <ele>940.1</ele>
        <time>2026-02-08T11:51:21.000Z</time>
      </trkpt>
      <trkpt lat="43.06439" lon="-0.37348">
        <ele>939.7</ele>
        <time>2026-02-08T11:51:24.000Z</time>
      </trkpt>
      <trkpt lat="43.06438" lon="-0.37353">
        <ele>939.2</ele>
        <time>2026-02-08T11:51:27.000Z</time>
      </trkpt>
      <trkpt lat="43.06436" lon="-0.37358">
        <ele>938.8</ele>
        <time>2026-02-08T11:51:30.000Z</time>
      </trkpt>
      <trkpt lat="43.06435" lon="-0.37362">
        <ele>938.3</ele>
        <time>2026-02-08T11:51:33.000Z</time>
      </trkpt>
      <trkpt lat="43.06432" lon="-0.37366">
        <ele>937.9</ele>
        <time>2026-02-08T11:51:36.000Z</time>
      </trkpt>
      <trkpt lat="43.06431" lon="-0.37369">
        <ele>937.6</ele>
        <time>2026-02-08T11:51:39.000Z</time>
      </trkpt>
      <trkpt lat="43.06428" lon="-0.37373">
        <ele>937.2</ele>
        <time>2026-02-08T11:51:42.000Z</time>
      </trkpt>
      <trkpt lat="43.06426" lon="-0.37377">
        <ele>936.8</ele>
        <time>2026-02-08T11:51:45.000Z</time>
      </trkpt>
      <trkpt lat="43.06422" lon="-0.37381">
        <ele>936.4</ele>
        <time>2026-02-08T11:51:48.000Z</time>
      </trkpt>
      <trkpt lat="43.06421" lon="-0.37385">
        <ele>936</ele>
        <time>2026-02-08T11:51:51.000Z</time>
      </trkpt>
      <trkpt lat="43.06421" lon="-0.37389">
        <ele>935.6</ele>
        <time>2026-02-08T11:51:54.000Z</time>
      </trkpt>
      <trkpt lat="43.06419" lon="-0.37393">
        <ele>935.1</ele>
        <time>2026-02-08T11:51:57.000Z</time>
      </trkpt>
      <trkpt lat="43.06418" lon="-0.37395">
        <ele>934.7</ele>
        <time>2026-02-08T11:52:00.000Z</time>
      </trkpt>
      <trkpt lat="43.06417" lon="-0.37399">
        <ele>934.3</ele>
        <time>2026-02-08T11:52:03.000Z</time>
      </trkpt>
      <trkpt lat="43.06415" lon="-0.37403">
        <ele>933.8</ele>
        <time>2026-02-08T11:52:06.000Z</time>
      </trkpt>
      <trkpt lat="43.06412" lon="-0.37407">
        <ele>933.4</ele>
        <time>2026-02-08T11:52:09.000Z</time>
      </trkpt>
      <trkpt lat="43.0641" lon="-0.3741">
        <ele>932.9</ele>
        <time>2026-02-08T11:52:12.000Z</time>
      </trkpt>
      <trkpt lat="43.06409" lon="-0.37412">
        <ele>932.5</ele>
        <time>2026-02-08T11:52:15.000Z</time>
      </trkpt>
      <trkpt lat="43.06407" lon="-0.37417">
        <ele>932</ele>
        <time>2026-02-08T11:52:18.000Z</time>
      </trkpt>
      <trkpt lat="43.06406" lon="-0.37419">
        <ele>931.6</ele>
        <time>2026-02-08T11:52:21.000Z</time>
      </trkpt>
      <trkpt lat="43.06404" lon="-0.37424">
        <ele>931.1</ele>
        <time>2026-02-08T11:52:24.000Z</time>
      </trkpt>
      <trkpt lat="43.06399" lon="-0.37428">
        <ele>930.7</ele>
        <time>2026-02-08T11:52:27.000Z</time>
      </trkpt>
      <trkpt lat="43.06395" lon="-0.37431">
        <ele>930.3</ele>
        <time>2026-02-08T11:52:30.000Z</time>
      </trkpt>
      <trkpt lat="43.06392" lon="-0.37434">
        <ele>929.9</ele>
        <time>2026-02-08T11:52:33.000Z</time>
      </trkpt>
      <trkpt lat="43.06391" lon="-0.37438">
        <ele>929.5</ele>
        <time>2026-02-08T11:52:36.000Z</time>
      </trkpt>
      <trkpt lat="43.06387" lon="-0.37442">
        <ele>929.2</ele>
        <time>2026-02-08T11:52:39.000Z</time>
      </trkpt>
      <trkpt lat="43.06385" lon="-0.37445">
        <ele>928.8</ele>
        <time>2026-02-08T11:52:42.000Z</time>
      </trkpt>
      <trkpt lat="43.06383" lon="-0.37449">
        <ele>928.6</ele>
        <time>2026-02-08T11:52:45.000Z</time>
      </trkpt>
      <trkpt lat="43.0638" lon="-0.37452">
        <ele>928.3</ele>
        <time>2026-02-08T11:52:48.000Z</time>
      </trkpt>
      <trkpt lat="43.06378" lon="-0.37454">
        <ele>927.8</ele>
        <time>2026-02-08T11:52:51.000Z</time>
      </trkpt>
      <trkpt lat="43.06376" lon="-0.37457">
        <ele>927.3</ele>
        <time>2026-02-08T11:52:54.000Z</time>
      </trkpt>
      <trkpt lat="43.06374" lon="-0.37461">
        <ele>926.8</ele>
        <time>2026-02-08T11:52:57.000Z</time>
      </trkpt>
      <trkpt lat="43.06372" lon="-0.37465">
        <ele>926.2</ele>
        <time>2026-02-08T11:53:00.000Z</time>
      </trkpt>
      <trkpt lat="43.0637" lon="-0.37469">
        <ele>925.7</ele>
        <time>2026-02-08T11:53:03.000Z</time>
      </trkpt>
      <trkpt lat="43.06367" lon="-0.37473">
        <ele>925.2</ele>
        <time>2026-02-08T11:53:06.000Z</time>
      </trkpt>
      <trkpt lat="43.06365" lon="-0.37477">
        <ele>924.8</ele>
        <time>2026-02-08T11:53:09.000Z</time>
      </trkpt>
      <trkpt lat="43.06363" lon="-0.37481">
        <ele>924.3</ele>
        <time>2026-02-08T11:53:12.000Z</time>
      </trkpt>
      <trkpt lat="43.0636" lon="-0.37484">
        <ele>923.7</ele>
        <time>2026-02-08T11:53:15.000Z</time>
      </trkpt>
      <trkpt lat="43.06358" lon="-0.37487">
        <ele>923.3</ele>
        <time>2026-02-08T11:53:18.000Z</time>
      </trkpt>
      <trkpt lat="43.06355" lon="-0.3749">
        <ele>922.8</ele>
        <time>2026-02-08T11:53:21.000Z</time>
      </trkpt>
      <trkpt lat="43.06352" lon="-0.37493">
        <ele>922.5</ele>
        <time>2026-02-08T11:53:24.000Z</time>
      </trkpt>
      <trkpt lat="43.0635" lon="-0.37496">
        <ele>922</ele>
        <time>2026-02-08T11:53:27.000Z</time>
      </trkpt>
      <trkpt lat="43.06347" lon="-0.37499">
        <ele>921.6</ele>
        <time>2026-02-08T11:53:30.000Z</time>
      </trkpt>
      <trkpt lat="43.06345" lon="-0.37503">
        <ele>921.1</ele>
        <time>2026-02-08T11:53:33.000Z</time>
      </trkpt>
      <trkpt lat="43.06343" lon="-0.37506">
        <ele>920.7</ele>
        <time>2026-02-08T11:53:36.000Z</time>
      </trkpt>
      <trkpt lat="43.0634" lon="-0.37508">
        <ele>920.2</ele>
        <time>2026-02-08T11:53:39.000Z</time>
      </trkpt>
      <trkpt lat="43.06339" lon="-0.37512">
        <ele>919.8</ele>
        <time>2026-02-08T11:53:42.000Z</time>
      </trkpt>
      <trkpt lat="43.06336" lon="-0.37516">
        <ele>919.4</ele>
        <time>2026-02-08T11:53:45.000Z</time>
      </trkpt>
      <trkpt lat="43.06334" lon="-0.37521">
        <ele>919.1</ele>
        <time>2026-02-08T11:53:48.000Z</time>
      </trkpt>
      <trkpt lat="43.06332" lon="-0.37524">
        <ele>918.6</ele>
        <time>2026-02-08T11:53:51.000Z</time>
      </trkpt>
      <trkpt lat="43.06331" lon="-0.37527">
        <ele>918</ele>
        <time>2026-02-08T11:53:54.000Z</time>
      </trkpt>
      <trkpt lat="43.06329" lon="-0.37531">
        <ele>917.6</ele>
        <time>2026-02-08T11:53:57.000Z</time>
      </trkpt>
      <trkpt lat="43.06328" lon="-0.37535">
        <ele>917.1</ele>
        <time>2026-02-08T11:54:00.000Z</time>
      </trkpt>
      <trkpt lat="43.06326" lon="-0.37538">
        <ele>916.7</ele>
        <time>2026-02-08T11:54:03.000Z</time>
      </trkpt>
      <trkpt lat="43.06324" lon="-0.37542">
        <ele>916.3</ele>
        <time>2026-02-08T11:54:06.000Z</time>
      </trkpt>
      <trkpt lat="43.06323" lon="-0.37545">
        <ele>915.9</ele>
        <time>2026-02-08T11:54:09.000Z</time>
      </trkpt>
      <trkpt lat="43.0632" lon="-0.3755">
        <ele>915.5</ele>
        <time>2026-02-08T11:54:12.000Z</time>
      </trkpt>
      <trkpt lat="43.06318" lon="-0.37553">
        <ele>915.1</ele>
        <time>2026-02-08T11:54:15.000Z</time>
      </trkpt>
      <trkpt lat="43.06316" lon="-0.37557">
        <ele>914.7</ele>
        <time>2026-02-08T11:54:18.000Z</time>
      </trkpt>
      <trkpt lat="43.06314" lon="-0.37562">
        <ele>914.3</ele>
        <time>2026-02-08T11:54:21.000Z</time>
      </trkpt>
      <trkpt lat="43.06313" lon="-0.37564">
        <ele>913.9</ele>
        <time>2026-02-08T11:54:24.000Z</time>
      </trkpt>
      <trkpt lat="43.06312" lon="-0.37567">
        <ele>913.5</ele>
        <time>2026-02-08T11:54:27.000Z</time>
      </trkpt>
      <trkpt lat="43.06311" lon="-0.3757">
        <ele>913.1</ele>
        <time>2026-02-08T11:54:30.000Z</time>
      </trkpt>
      <trkpt lat="43.0631" lon="-0.37574">
        <ele>912.7</ele>
        <time>2026-02-08T11:54:33.000Z</time>
      </trkpt>
      <trkpt lat="43.06309" lon="-0.37577">
        <ele>912.3</ele>
        <time>2026-02-08T11:54:36.000Z</time>
      </trkpt>
      <trkpt lat="43.06309" lon="-0.37581">
        <ele>912</ele>
        <time>2026-02-08T11:54:39.000Z</time>
      </trkpt>
      <trkpt lat="43.06308" lon="-0.37584">
        <ele>911.6</ele>
        <time>2026-02-08T11:54:42.000Z</time>
      </trkpt>
      <trkpt lat="43.06306" lon="-0.37589">
        <ele>911.2</ele>
        <time>2026-02-08T11:54:45.000Z</time>
      </trkpt>
      <trkpt lat="43.06303" lon="-0.37593">
        <ele>910.8</ele>
        <time>2026-02-08T11:54:48.000Z</time>
      </trkpt>
      <trkpt lat="43.06301" lon="-0.37596">
        <ele>910.5</ele>
        <time>2026-02-08T11:54:51.000Z</time>
      </trkpt>
      <trkpt lat="43.063" lon="-0.37599">
        <ele>910.1</ele>
        <time>2026-02-08T11:54:54.000Z</time>
      </trkpt>
      <trkpt lat="43.06299" lon="-0.37603">
        <ele>909.7</ele>
        <time>2026-02-08T11:54:57.000Z</time>
      </trkpt>
      <trkpt lat="43.06298" lon="-0.37608">
        <ele>909.4</ele>
        <time>2026-02-08T11:55:00.000Z</time>
      </trkpt>
      <trkpt lat="43.06297" lon="-0.37614">
        <ele>909</ele>
        <time>2026-02-08T11:55:03.000Z</time>
      </trkpt>
      <trkpt lat="43.06297" lon="-0.37619">
        <ele>908.6</ele>
        <time>2026-02-08T11:55:06.000Z</time>
      </trkpt>
      <trkpt lat="43.06297" lon="-0.37623">
        <ele>908.3</ele>
        <time>2026-02-08T11:55:09.000Z</time>
      </trkpt>
      <trkpt lat="43.06297" lon="-0.37627">
        <ele>907.9</ele>
        <time>2026-02-08T11:55:12.000Z</time>
      </trkpt>
      <trkpt lat="43.06297" lon="-0.37632">
        <ele>907.6</ele>
        <time>2026-02-08T11:55:15.000Z</time>
      </trkpt>
      <trkpt lat="43.06297" lon="-0.37636">
        <ele>907.1</ele>
        <time>2026-02-08T11:55:18.000Z</time>
      </trkpt>
      <trkpt lat="43.06297" lon="-0.37641">
        <ele>906.6</ele>
        <time>2026-02-08T11:55:21.000Z</time>
      </trkpt>
      <trkpt lat="43.06297" lon="-0.37645">
        <ele>906.1</ele>
        <time>2026-02-08T11:55:24.000Z</time>
      </trkpt>
      <trkpt lat="43.06296" lon="-0.37648">
        <ele>905.8</ele>
        <time>2026-02-08T11:55:27.000Z</time>
      </trkpt>
      <trkpt lat="43.06295" lon="-0.37652">
        <ele>905.4</ele>
        <time>2026-02-08T11:55:30.000Z</time>
      </trkpt>
      <trkpt lat="43.06294" lon="-0.37655">
        <ele>905.1</ele>
        <time>2026-02-08T11:55:33.000Z</time>
      </trkpt>
      <trkpt lat="43.06293" lon="-0.3766">
        <ele>904.7</ele>
        <time>2026-02-08T11:55:36.000Z</time>
      </trkpt>
      <trkpt lat="43.06292" lon="-0.37664">
        <ele>904.3</ele>
        <time>2026-02-08T11:55:39.000Z</time>
      </trkpt>
      <trkpt lat="43.06291" lon="-0.37669">
        <ele>903.9</ele>
        <time>2026-02-08T11:55:42.000Z</time>
      </trkpt>
      <trkpt lat="43.06289" lon="-0.37673">
        <ele>903.5</ele>
        <time>2026-02-08T11:55:45.000Z</time>
      </trkpt>
      <trkpt lat="43.06287" lon="-0.37679">
        <ele>903.1</ele>
        <time>2026-02-08T11:55:48.000Z</time>
      </trkpt>
      <trkpt lat="43.06287" lon="-0.37683">
        <ele>902.7</ele>
        <time>2026-02-08T11:55:51.000Z</time>
      </trkpt>
      <trkpt lat="43.06286" lon="-0.37689">
        <ele>902.4</ele>
        <time>2026-02-08T11:55:54.000Z</time>
      </trkpt>
      <trkpt lat="43.06285" lon="-0.37695">
        <ele>902.1</ele>
        <time>2026-02-08T11:55:57.000Z</time>
      </trkpt>
      <trkpt lat="43.06285" lon="-0.37702">
        <ele>901.6</ele>
        <time>2026-02-08T11:56:00.000Z</time>
      </trkpt>
      <trkpt lat="43.06284" lon="-0.37705">
        <ele>901.2</ele>
        <time>2026-02-08T11:56:03.000Z</time>
      </trkpt>
      <trkpt lat="43.06284" lon="-0.37709">
        <ele>900.9</ele>
        <time>2026-02-08T11:56:06.000Z</time>
      </trkpt>
      <trkpt lat="43.06283" lon="-0.37713">
        <ele>900.5</ele>
        <time>2026-02-08T11:56:09.000Z</time>
      </trkpt>
      <trkpt lat="43.06282" lon="-0.37717">
        <ele>900</ele>
        <time>2026-02-08T11:56:12.000Z</time>
      </trkpt>
      <trkpt lat="43.06281" lon="-0.37722">
        <ele>899.6</ele>
        <time>2026-02-08T11:56:15.000Z</time>
      </trkpt>
      <trkpt lat="43.0628" lon="-0.37726">
        <ele>899.2</ele>
        <time>2026-02-08T11:56:18.000Z</time>
      </trkpt>
      <trkpt lat="43.06279" lon="-0.3773">
        <ele>898.8</ele>
        <time>2026-02-08T11:56:21.000Z</time>
      </trkpt>
      <trkpt lat="43.06278" lon="-0.37735">
        <ele>898.4</ele>
        <time>2026-02-08T11:56:24.000Z</time>
      </trkpt>
      <trkpt lat="43.06278" lon="-0.37741">
        <ele>898</ele>
        <time>2026-02-08T11:56:27.000Z</time>
      </trkpt>
      <trkpt lat="43.06278" lon="-0.37747">
        <ele>897.6</ele>
        <time>2026-02-08T11:56:30.000Z</time>
      </trkpt>
      <trkpt lat="43.06277" lon="-0.37751">
        <ele>897.2</ele>
        <time>2026-02-08T11:56:33.000Z</time>
      </trkpt>
      <trkpt lat="43.06276" lon="-0.37756">
        <ele>896.8</ele>
        <time>2026-02-08T11:56:36.000Z</time>
      </trkpt>
      <trkpt lat="43.06276" lon="-0.3776">
        <ele>896.5</ele>
        <time>2026-02-08T11:56:39.000Z</time>
      </trkpt>
      <trkpt lat="43.06276" lon="-0.37765">
        <ele>896.1</ele>
        <time>2026-02-08T11:56:42.000Z</time>
      </trkpt>
      <trkpt lat="43.06276" lon="-0.37769">
        <ele>895.8</ele>
        <time>2026-02-08T11:56:45.000Z</time>
      </trkpt>
      <trkpt lat="43.06276" lon="-0.37774">
        <ele>895.5</ele>
        <time>2026-02-08T11:56:48.000Z</time>
      </trkpt>
      <trkpt lat="43.06277" lon="-0.37779">
        <ele>895.2</ele>
        <time>2026-02-08T11:56:51.000Z</time>
      </trkpt>
      <trkpt lat="43.06277" lon="-0.37784">
        <ele>894.8</ele>
        <time>2026-02-08T11:56:54.000Z</time>
      </trkpt>
      <trkpt lat="43.06278" lon="-0.37788">
        <ele>894.5</ele>
        <time>2026-02-08T11:56:57.000Z</time>
      </trkpt>
      <trkpt lat="43.06278" lon="-0.37793">
        <ele>894.2</ele>
        <time>2026-02-08T11:57:00.000Z</time>
      </trkpt>
      <trkpt lat="43.06278" lon="-0.378">
        <ele>893.8</ele>
        <time>2026-02-08T11:57:03.000Z</time>
      </trkpt>
      <trkpt lat="43.06278" lon="-0.37804">
        <ele>893.5</ele>
        <time>2026-02-08T11:57:06.000Z</time>
      </trkpt>
      <trkpt lat="43.06279" lon="-0.37808">
        <ele>893.3</ele>
        <time>2026-02-08T11:57:09.000Z</time>
      </trkpt>
      <trkpt lat="43.0628" lon="-0.37811">
        <ele>893</ele>
        <time>2026-02-08T11:57:12.000Z</time>
      </trkpt>
      <trkpt lat="43.0628" lon="-0.37815">
        <ele>892.8</ele>
        <time>2026-02-08T11:57:15.000Z</time>
      </trkpt>
      <trkpt lat="43.06282" lon="-0.37819">
        <ele>892.6</ele>
        <time>2026-02-08T11:57:18.000Z</time>
      </trkpt>
      <trkpt lat="43.06284" lon="-0.37824">
        <ele>892.3</ele>
        <time>2026-02-08T11:57:21.000Z</time>
      </trkpt>
      <trkpt lat="43.06285" lon="-0.37828">
        <ele>892.1</ele>
        <time>2026-02-08T11:57:24.000Z</time>
      </trkpt>
      <trkpt lat="43.06286" lon="-0.37832">
        <ele>891.7</ele>
        <time>2026-02-08T11:57:27.000Z</time>
      </trkpt>
      <trkpt lat="43.06287" lon="-0.37837">
        <ele>891.4</ele>
        <time>2026-02-08T11:57:30.000Z</time>
      </trkpt>
      <trkpt lat="43.06289" lon="-0.37841">
        <ele>891.1</ele>
        <time>2026-02-08T11:57:33.000Z</time>
      </trkpt>
      <trkpt lat="43.0629" lon="-0.37845">
        <ele>890.8</ele>
        <time>2026-02-08T11:57:36.000Z</time>
      </trkpt>
      <trkpt lat="43.0629" lon="-0.37849">
        <ele>890.5</ele>
        <time>2026-02-08T11:57:39.000Z</time>
      </trkpt>
      <trkpt lat="43.06291" lon="-0.37854">
        <ele>890.1</ele>
        <time>2026-02-08T11:57:42.000Z</time>
      </trkpt>
      <trkpt lat="43.06291" lon="-0.37858">
        <ele>889.6</ele>
        <time>2026-02-08T11:57:45.000Z</time>
      </trkpt>
      <trkpt lat="43.06292" lon="-0.37863">
        <ele>889.2</ele>
        <time>2026-02-08T11:57:48.000Z</time>
      </trkpt>
      <trkpt lat="43.06293" lon="-0.37867">
        <ele>888.8</ele>
        <time>2026-02-08T11:57:51.000Z</time>
      </trkpt>
      <trkpt lat="43.06293" lon="-0.37871">
        <ele>888.5</ele>
        <time>2026-02-08T11:57:54.000Z</time>
      </trkpt>
      <trkpt lat="43.06294" lon="-0.37876">
        <ele>888.2</ele>
        <time>2026-02-08T11:57:57.000Z</time>
      </trkpt>
      <trkpt lat="43.06295" lon="-0.3788">
        <ele>887.8</ele>
        <time>2026-02-08T11:58:00.000Z</time>
      </trkpt>
      <trkpt lat="43.06296" lon="-0.37884">
        <ele>887.4</ele>
        <time>2026-02-08T11:58:03.000Z</time>
      </trkpt>
      <trkpt lat="43.06298" lon="-0.37889">
        <ele>887.1</ele>
        <time>2026-02-08T11:58:06.000Z</time>
      </trkpt>
      <trkpt lat="43.06299" lon="-0.37893">
        <ele>886.6</ele>
        <time>2026-02-08T11:58:09.000Z</time>
      </trkpt>
      <trkpt lat="43.063" lon="-0.37898">
        <ele>886.2</ele>
        <time>2026-02-08T11:58:12.000Z</time>
      </trkpt>
      <trkpt lat="43.06301" lon="-0.37905">
        <ele>885.9</ele>
        <time>2026-02-08T11:58:15.000Z</time>
      </trkpt>
      <trkpt lat="43.06303" lon="-0.3791">
        <ele>885.6</ele>
        <time>2026-02-08T11:58:18.000Z</time>
      </trkpt>
      <trkpt lat="43.06305" lon="-0.37915">
        <ele>885.3</ele>
        <time>2026-02-08T11:58:21.000Z</time>
      </trkpt>
      <trkpt lat="43.06307" lon="-0.37919">
        <ele>885</ele>
        <time>2026-02-08T11:58:24.000Z</time>
      </trkpt>
      <trkpt lat="43.06308" lon="-0.37925">
        <ele>884.6</ele>
        <time>2026-02-08T11:58:27.000Z</time>
      </trkpt>
      <trkpt lat="43.06308" lon="-0.37929">
        <ele>884.2</ele>
        <time>2026-02-08T11:58:30.000Z</time>
      </trkpt>
      <trkpt lat="43.06309" lon="-0.37934">
        <ele>883.7</ele>
        <time>2026-02-08T11:58:33.000Z</time>
      </trkpt>
      <trkpt lat="43.06309" lon="-0.37939">
        <ele>883.3</ele>
        <time>2026-02-08T11:58:36.000Z</time>
      </trkpt>
      <trkpt lat="43.06309" lon="-0.37943">
        <ele>882.9</ele>
        <time>2026-02-08T11:58:39.000Z</time>
      </trkpt>
      <trkpt lat="43.0631" lon="-0.37948">
        <ele>882.5</ele>
        <time>2026-02-08T11:58:42.000Z</time>
      </trkpt>
      <trkpt lat="43.06311" lon="-0.37953">
        <ele>882.1</ele>
        <time>2026-02-08T11:58:45.000Z</time>
      </trkpt>
      <trkpt lat="43.06311" lon="-0.37959">
        <ele>881.8</ele>
        <time>2026-02-08T11:58:48.000Z</time>
      </trkpt>
      <trkpt lat="43.06312" lon="-0.37963">
        <ele>881.4</ele>
        <time>2026-02-08T11:58:51.000Z</time>
      </trkpt>
      <trkpt lat="43.06312" lon="-0.37967">
        <ele>881.1</ele>
        <time>2026-02-08T11:58:54.000Z</time>
      </trkpt>
      <trkpt lat="43.06314" lon="-0.37972">
        <ele>880.8</ele>
        <time>2026-02-08T11:58:57.000Z</time>
      </trkpt>
      <trkpt lat="43.06316" lon="-0.37977">
        <ele>880.4</ele>
        <time>2026-02-08T11:59:00.000Z</time>
      </trkpt>
      <trkpt lat="43.06317" lon="-0.37982">
        <ele>880.1</ele>
        <time>2026-02-08T11:59:03.000Z</time>
      </trkpt>
      <trkpt lat="43.06319" lon="-0.37986">
        <ele>879.8</ele>
        <time>2026-02-08T11:59:06.000Z</time>
      </trkpt>
      <trkpt lat="43.06321" lon="-0.37991">
        <ele>879.5</ele>
        <time>2026-02-08T11:59:09.000Z</time>
      </trkpt>
      <trkpt lat="43.06321" lon="-0.37995">
        <ele>879.2</ele>
        <time>2026-02-08T11:59:12.000Z</time>
      </trkpt>
      <trkpt lat="43.06322" lon="-0.38">
        <ele>879</ele>
        <time>2026-02-08T11:59:15.000Z</time>
      </trkpt>
      <trkpt lat="43.06323" lon="-0.38004">
        <ele>878.8</ele>
        <time>2026-02-08T11:59:18.000Z</time>
      </trkpt>
      <trkpt lat="43.06325" lon="-0.38008">
        <ele>878.6</ele>
        <time>2026-02-08T11:59:21.000Z</time>
      </trkpt>
      <trkpt lat="43.06326" lon="-0.38013">
        <ele>878.4</ele>
        <time>2026-02-08T11:59:24.000Z</time>
      </trkpt>
      <trkpt lat="43.06327" lon="-0.38017">
        <ele>878.1</ele>
        <time>2026-02-08T11:59:27.000Z</time>
      </trkpt>
      <trkpt lat="43.0633" lon="-0.3802">
        <ele>877.9</ele>
        <time>2026-02-08T11:59:30.000Z</time>
      </trkpt>
      <trkpt lat="43.06332" lon="-0.38024">
        <ele>877.6</ele>
        <time>2026-02-08T11:59:33.000Z</time>
      </trkpt>
      <trkpt lat="43.06333" lon="-0.38028">
        <ele>877.5</ele>
        <time>2026-02-08T11:59:36.000Z</time>
      </trkpt>
      <trkpt lat="43.06334" lon="-0.38032">
        <ele>877.4</ele>
        <time>2026-02-08T11:59:39.000Z</time>
      </trkpt>
      <trkpt lat="43.06335" lon="-0.38037">
        <ele>877.3</ele>
        <time>2026-02-08T11:59:42.000Z</time>
      </trkpt>
      <trkpt lat="43.06336" lon="-0.38041">
        <ele>877.2</ele>
        <time>2026-02-08T11:59:45.000Z</time>
      </trkpt>
      <trkpt lat="43.06338" lon="-0.38046">
        <ele>877.2</ele>
        <time>2026-02-08T11:59:48.000Z</time>
      </trkpt>
      <trkpt lat="43.06339" lon="-0.38051">
        <ele>877.1</ele>
        <time>2026-02-08T11:59:51.000Z</time>
      </trkpt>
      <trkpt lat="43.06341" lon="-0.38053">
        <ele>877</ele>
        <time>2026-02-08T11:59:54.000Z</time>
      </trkpt>
      <trkpt lat="43.06342" lon="-0.38053">
        <ele>876.9</ele>
        <time>2026-02-08T11:59:57.000Z</time>
      </trkpt>
      <trkpt lat="43.06343" lon="-0.38053">
        <ele>876.8</ele>
        <time>2026-02-08T11:59:59.000Z</time>
      </trkpt>
      <trkpt lat="43.06343" lon="-0.38052">
        <ele>876.8</ele>
        <time>2026-02-08T12:00:00.000Z</time>
      </trkpt>
      <trkpt lat="43.06344" lon="-0.38052">
        <ele>876.7</ele>
        <time>2026-02-08T12:00:01.000Z</time>
      </trkpt>
      <trkpt lat="43.06344" lon="-0.38052">
        <ele>876.7</ele>
        <time>2026-02-08T12:00:02.000Z</time>
      </trkpt>
      <trkpt lat="43.06346" lon="-0.38052">
        <ele>876.7</ele>
        <time>2026-02-08T12:00:03.000Z</time>
      </trkpt>
      <trkpt lat="43.06347" lon="-0.38052">
        <ele>876.6</ele>
        <time>2026-02-08T12:00:06.000Z</time>
      </trkpt>
      <trkpt lat="43.06347" lon="-0.38053">
        <ele>876.5</ele>
        <time>2026-02-08T12:00:09.000Z</time>
      </trkpt>
      <trkpt lat="43.06346" lon="-0.38053">
        <ele>876.5</ele>
        <time>2026-02-08T12:00:10.000Z</time>
      </trkpt>
      <trkpt lat="43.06346" lon="-0.38054">
        <ele>876.4</ele>
        <time>2026-02-08T12:00:13.000Z</time>
      </trkpt>
      <trkpt lat="43.06346" lon="-0.38054">
        <ele>876.3</ele>
        <time>2026-02-08T12:00:16.000Z</time>
      </trkpt>
      <trkpt lat="43.06347" lon="-0.38054">
        <ele>876.3</ele>
        <time>2026-02-08T12:00:19.000Z</time>
      </trkpt>
      <trkpt lat="43.06347" lon="-0.38054">
        <ele>876.2</ele>
        <time>2026-02-08T12:00:22.000Z</time>
      </trkpt>
      <trkpt lat="43.06348" lon="-0.38054">
        <ele>876.1</ele>
        <time>2026-02-08T12:00:25.000Z</time>
      </trkpt>
    </trkseg>
  </trk>
</gpx>